<?xml version="1.0" encoding="UTF-8" standalone="no" ?>
<gpx xmlns="http://www.topografix.com/GPX/1/1" xmlns:xsi="http://www.w3.org/2001/XMLSchema-instance" xsi:schemaLocation="http://www.topografix.com/GPX/1/1 http://www.topografix.com/GPX/1/1/gpx.xsd" version="1.1" creator="VisuGPX - https://www.visugpx.com">
  <metadata>
    <name>2018-02-12 Bike ride-Val d-Azergues O</name>
    <desc><![CDATA[2018-02-12 Bike ride-Val d-Azergues O]]></desc>
  </metadata>
  <wpt lat="45.92452" lon="4.73715">
    <ele>174</ele>
    <name><![CDATA[2018-02-12 15:18 (Start)]]></name>
  </wpt>
  <wpt lat="45.92465" lon="4.73711">
    <ele>174</ele>
    <name><![CDATA[2018-02-12 15:18 (End)]]></name>
  </wpt>
  <trk>
    <name><![CDATA[2018-02-12 15:18]]></name>
    <trkseg>
      <trkpt lat="45.92452" lon="4.73715">
        <ele>174</ele>
        <time>2018-02-12T14:18:38.371Z</time>
      </trkpt>
      <trkpt lat="45.9246" lon="4.73713">
        <ele>174</ele>
        <time>2018-02-12T14:19:11Z</time>
      </trkpt>
      <trkpt lat="45.92461" lon="4.73712">
        <ele>174</ele>
        <time>2018-02-12T14:19:12Z</time>
      </trkpt>
      <trkpt lat="45.92466" lon="4.73704">
        <ele>174</ele>
        <time>2018-02-12T14:19:16Z</time>
      </trkpt>
      <trkpt lat="45.92466" lon="4.73701">
        <ele>174</ele>
        <time>2018-02-12T14:19:17Z</time>
      </trkpt>
      <trkpt lat="45.92468" lon="4.73689">
        <ele>174</ele>
        <time>2018-02-12T14:19:21Z</time>
      </trkpt>
      <trkpt lat="45.92468" lon="4.73685">
        <ele>174</ele>
        <time>2018-02-12T14:19:22Z</time>
      </trkpt>
      <trkpt lat="45.92468" lon="4.73674">
        <ele>174</ele>
        <time>2018-02-12T14:19:25Z</time>
      </trkpt>
      <trkpt lat="45.92469" lon="4.7367">
        <ele>174</ele>
        <time>2018-02-12T14:19:26Z</time>
      </trkpt>
      <trkpt lat="45.92471" lon="4.73659">
        <ele>174</ele>
        <time>2018-02-12T14:19:29Z</time>
      </trkpt>
      <trkpt lat="45.92471" lon="4.73655">
        <ele>174</ele>
        <time>2018-02-12T14:19:30Z</time>
      </trkpt>
      <trkpt lat="45.92476" lon="4.73646">
        <ele>174</ele>
        <time>2018-02-12T14:19:33Z</time>
      </trkpt>
      <trkpt lat="45.92479" lon="4.73644">
        <ele>174</ele>
        <time>2018-02-12T14:19:34Z</time>
      </trkpt>
      <trkpt lat="45.92486" lon="4.73643">
        <ele>174</ele>
        <time>2018-02-12T14:19:36Z</time>
      </trkpt>
      <trkpt lat="45.9249" lon="4.73644">
        <ele>174</ele>
        <time>2018-02-12T14:19:37Z</time>
      </trkpt>
      <trkpt lat="45.92497" lon="4.73644">
        <ele>174</ele>
        <time>2018-02-12T14:19:39Z</time>
      </trkpt>
      <trkpt lat="45.92501" lon="4.73643">
        <ele>174</ele>
        <time>2018-02-12T14:19:40Z</time>
      </trkpt>
      <trkpt lat="45.92509" lon="4.73641">
        <ele>174</ele>
        <time>2018-02-12T14:19:42Z</time>
      </trkpt>
      <trkpt lat="45.92513" lon="4.73641">
        <ele>174</ele>
        <time>2018-02-12T14:19:43Z</time>
      </trkpt>
      <trkpt lat="45.92522" lon="4.73641">
        <ele>173</ele>
        <time>2018-02-12T14:19:45Z</time>
      </trkpt>
      <trkpt lat="45.92526" lon="4.73642">
        <ele>173</ele>
        <time>2018-02-12T14:19:46Z</time>
      </trkpt>
      <trkpt lat="45.92531" lon="4.73641">
        <ele>173</ele>
        <time>2018-02-12T14:19:47Z</time>
      </trkpt>
      <trkpt lat="45.92536" lon="4.7364">
        <ele>173</ele>
        <time>2018-02-12T14:19:48Z</time>
      </trkpt>
      <trkpt lat="45.9254" lon="4.7364">
        <ele>173</ele>
        <time>2018-02-12T14:19:49Z</time>
      </trkpt>
      <trkpt lat="45.92545" lon="4.73639">
        <ele>173</ele>
        <time>2018-02-12T14:19:50Z</time>
      </trkpt>
      <trkpt lat="45.9255" lon="4.73638">
        <ele>173</ele>
        <time>2018-02-12T14:19:51Z</time>
      </trkpt>
      <trkpt lat="45.92555" lon="4.73636">
        <ele>173</ele>
        <time>2018-02-12T14:19:52Z</time>
      </trkpt>
      <trkpt lat="45.9256" lon="4.73636">
        <ele>173</ele>
        <time>2018-02-12T14:19:53Z</time>
      </trkpt>
      <trkpt lat="45.92565" lon="4.73635">
        <ele>173</ele>
        <time>2018-02-12T14:19:54Z</time>
      </trkpt>
      <trkpt lat="45.92569" lon="4.73634">
        <ele>173</ele>
        <time>2018-02-12T14:19:55Z</time>
      </trkpt>
      <trkpt lat="45.92574" lon="4.73633">
        <ele>173</ele>
        <time>2018-02-12T14:19:56Z</time>
      </trkpt>
      <trkpt lat="45.92581" lon="4.7363">
        <ele>173</ele>
        <time>2018-02-12T14:19:58Z</time>
      </trkpt>
      <trkpt lat="45.92587" lon="4.7363">
        <ele>172</ele>
        <time>2018-02-12T14:19:59Z</time>
      </trkpt>
      <trkpt lat="45.92593" lon="4.7363">
        <ele>172</ele>
        <time>2018-02-12T14:20:00Z</time>
      </trkpt>
      <trkpt lat="45.92599" lon="4.7363">
        <ele>172</ele>
        <time>2018-02-12T14:20:01Z</time>
      </trkpt>
      <trkpt lat="45.92604" lon="4.73631">
        <ele>173</ele>
        <time>2018-02-12T14:20:02Z</time>
      </trkpt>
      <trkpt lat="45.9261" lon="4.73633">
        <ele>173</ele>
        <time>2018-02-12T14:20:03Z</time>
      </trkpt>
      <trkpt lat="45.92614" lon="4.73635">
        <ele>173</ele>
        <time>2018-02-12T14:20:04Z</time>
      </trkpt>
      <trkpt lat="45.92619" lon="4.73639">
        <ele>173</ele>
        <time>2018-02-12T14:20:05Z</time>
      </trkpt>
      <trkpt lat="45.92623" lon="4.73644">
        <ele>173</ele>
        <time>2018-02-12T14:20:06Z</time>
      </trkpt>
      <trkpt lat="45.92625" lon="4.73649">
        <ele>173</ele>
        <time>2018-02-12T14:20:07Z</time>
      </trkpt>
      <trkpt lat="45.92628" lon="4.73656">
        <ele>173</ele>
        <time>2018-02-12T14:20:08Z</time>
      </trkpt>
      <trkpt lat="45.92631" lon="4.73663">
        <ele>173</ele>
        <time>2018-02-12T14:20:09Z</time>
      </trkpt>
      <trkpt lat="45.92633" lon="4.73671">
        <ele>173</ele>
        <time>2018-02-12T14:20:10Z</time>
      </trkpt>
      <trkpt lat="45.92637" lon="4.73677">
        <ele>173</ele>
        <time>2018-02-12T14:20:11Z</time>
      </trkpt>
      <trkpt lat="45.92641" lon="4.73683">
        <ele>173</ele>
        <time>2018-02-12T14:20:12Z</time>
      </trkpt>
      <trkpt lat="45.92644" lon="4.73688">
        <ele>173</ele>
        <time>2018-02-12T14:20:13Z</time>
      </trkpt>
      <trkpt lat="45.92649" lon="4.73694">
        <ele>173</ele>
        <time>2018-02-12T14:20:14Z</time>
      </trkpt>
      <trkpt lat="45.92654" lon="4.73698">
        <ele>173</ele>
        <time>2018-02-12T14:20:15Z</time>
      </trkpt>
      <trkpt lat="45.92659" lon="4.73702">
        <ele>173</ele>
        <time>2018-02-12T14:20:16Z</time>
      </trkpt>
      <trkpt lat="45.92664" lon="4.73705">
        <ele>173</ele>
        <time>2018-02-12T14:20:17Z</time>
      </trkpt>
      <trkpt lat="45.92669" lon="4.73708">
        <ele>174</ele>
        <time>2018-02-12T14:20:18Z</time>
      </trkpt>
      <trkpt lat="45.92674" lon="4.73711">
        <ele>174</ele>
        <time>2018-02-12T14:20:19Z</time>
      </trkpt>
      <trkpt lat="45.92679" lon="4.73714">
        <ele>173</ele>
        <time>2018-02-12T14:20:20Z</time>
      </trkpt>
      <trkpt lat="45.92685" lon="4.73714">
        <ele>173</ele>
        <time>2018-02-12T14:20:21Z</time>
      </trkpt>
      <trkpt lat="45.92691" lon="4.73715">
        <ele>173</ele>
        <time>2018-02-12T14:20:22Z</time>
      </trkpt>
      <trkpt lat="45.92696" lon="4.73717">
        <ele>173</ele>
        <time>2018-02-12T14:20:23Z</time>
      </trkpt>
      <trkpt lat="45.92701" lon="4.73718">
        <ele>173</ele>
        <time>2018-02-12T14:20:24Z</time>
      </trkpt>
      <trkpt lat="45.92708" lon="4.7372">
        <ele>173</ele>
        <time>2018-02-12T14:20:25Z</time>
      </trkpt>
      <trkpt lat="45.92714" lon="4.73721">
        <ele>173</ele>
        <time>2018-02-12T14:20:26Z</time>
      </trkpt>
      <trkpt lat="45.92719" lon="4.73723">
        <ele>173</ele>
        <time>2018-02-12T14:20:27Z</time>
      </trkpt>
      <trkpt lat="45.92725" lon="4.73725">
        <ele>173</ele>
        <time>2018-02-12T14:20:28Z</time>
      </trkpt>
      <trkpt lat="45.92731" lon="4.73727">
        <ele>173</ele>
        <time>2018-02-12T14:20:29Z</time>
      </trkpt>
      <trkpt lat="45.92736" lon="4.73729">
        <ele>173</ele>
        <time>2018-02-12T14:20:30Z</time>
      </trkpt>
      <trkpt lat="45.92741" lon="4.73731">
        <ele>173</ele>
        <time>2018-02-12T14:20:31Z</time>
      </trkpt>
      <trkpt lat="45.92747" lon="4.73732">
        <ele>173</ele>
        <time>2018-02-12T14:20:32Z</time>
      </trkpt>
      <trkpt lat="45.92752" lon="4.73734">
        <ele>173</ele>
        <time>2018-02-12T14:20:33Z</time>
      </trkpt>
      <trkpt lat="45.92761" lon="4.73735">
        <ele>172</ele>
        <time>2018-02-12T14:20:35Z</time>
      </trkpt>
      <trkpt lat="45.92766" lon="4.73737">
        <ele>172</ele>
        <time>2018-02-12T14:20:36Z</time>
      </trkpt>
      <trkpt lat="45.9277" lon="4.73738">
        <ele>172</ele>
        <time>2018-02-12T14:20:37Z</time>
      </trkpt>
      <trkpt lat="45.92774" lon="4.73741">
        <ele>172</ele>
        <time>2018-02-12T14:20:38Z</time>
      </trkpt>
      <trkpt lat="45.92781" lon="4.73745">
        <ele>172</ele>
        <time>2018-02-12T14:20:40Z</time>
      </trkpt>
      <trkpt lat="45.92783" lon="4.7375">
        <ele>172</ele>
        <time>2018-02-12T14:20:41Z</time>
      </trkpt>
      <trkpt lat="45.92788" lon="4.7376">
        <ele>173</ele>
        <time>2018-02-12T14:20:43Z</time>
      </trkpt>
      <trkpt lat="45.92792" lon="4.73765">
        <ele>173</ele>
        <time>2018-02-12T14:20:44Z</time>
      </trkpt>
      <trkpt lat="45.928" lon="4.73769">
        <ele>173</ele>
        <time>2018-02-12T14:20:46Z</time>
      </trkpt>
      <trkpt lat="45.92805" lon="4.73771">
        <ele>173</ele>
        <time>2018-02-12T14:20:47Z</time>
      </trkpt>
      <trkpt lat="45.92809" lon="4.73775">
        <ele>173</ele>
        <time>2018-02-12T14:20:48Z</time>
      </trkpt>
      <trkpt lat="45.92815" lon="4.73777">
        <ele>173</ele>
        <time>2018-02-12T14:20:49Z</time>
      </trkpt>
      <trkpt lat="45.9282" lon="4.73779">
        <ele>173</ele>
        <time>2018-02-12T14:20:50Z</time>
      </trkpt>
      <trkpt lat="45.92825" lon="4.73783">
        <ele>173</ele>
        <time>2018-02-12T14:20:51Z</time>
      </trkpt>
      <trkpt lat="45.9283" lon="4.73786">
        <ele>173</ele>
        <time>2018-02-12T14:20:52Z</time>
      </trkpt>
      <trkpt lat="45.92835" lon="4.73789">
        <ele>173</ele>
        <time>2018-02-12T14:20:53Z</time>
      </trkpt>
      <trkpt lat="45.9284" lon="4.73793">
        <ele>173</ele>
        <time>2018-02-12T14:20:54Z</time>
      </trkpt>
      <trkpt lat="45.92846" lon="4.73798">
        <ele>173</ele>
        <time>2018-02-12T14:20:55Z</time>
      </trkpt>
      <trkpt lat="45.9285" lon="4.73803">
        <ele>173</ele>
        <time>2018-02-12T14:20:56Z</time>
      </trkpt>
      <trkpt lat="45.92853" lon="4.73809">
        <ele>173</ele>
        <time>2018-02-12T14:20:57Z</time>
      </trkpt>
      <trkpt lat="45.92855" lon="4.73816">
        <ele>173</ele>
        <time>2018-02-12T14:20:58Z</time>
      </trkpt>
      <trkpt lat="45.92857" lon="4.73824">
        <ele>173</ele>
        <time>2018-02-12T14:20:59Z</time>
      </trkpt>
      <trkpt lat="45.92858" lon="4.73831">
        <ele>173</ele>
        <time>2018-02-12T14:21:00Z</time>
      </trkpt>
      <trkpt lat="45.9286" lon="4.73838">
        <ele>173</ele>
        <time>2018-02-12T14:21:01Z</time>
      </trkpt>
      <trkpt lat="45.92862" lon="4.73846">
        <ele>173</ele>
        <time>2018-02-12T14:21:02Z</time>
      </trkpt>
      <trkpt lat="45.92865" lon="4.73854">
        <ele>173</ele>
        <time>2018-02-12T14:21:03Z</time>
      </trkpt>
      <trkpt lat="45.92867" lon="4.73861">
        <ele>173</ele>
        <time>2018-02-12T14:21:04Z</time>
      </trkpt>
      <trkpt lat="45.92871" lon="4.73867">
        <ele>173</ele>
        <time>2018-02-12T14:21:05Z</time>
      </trkpt>
      <trkpt lat="45.92873" lon="4.73877">
        <ele>173</ele>
        <time>2018-02-12T14:21:06Z</time>
      </trkpt>
      <trkpt lat="45.92875" lon="4.73884">
        <ele>173</ele>
        <time>2018-02-12T14:21:07Z</time>
      </trkpt>
      <trkpt lat="45.92877" lon="4.73893">
        <ele>173</ele>
        <time>2018-02-12T14:21:08Z</time>
      </trkpt>
      <trkpt lat="45.92877" lon="4.73901">
        <ele>173</ele>
        <time>2018-02-12T14:21:09Z</time>
      </trkpt>
      <trkpt lat="45.92878" lon="4.73909">
        <ele>173</ele>
        <time>2018-02-12T14:21:10Z</time>
      </trkpt>
      <trkpt lat="45.92878" lon="4.73917">
        <ele>173</ele>
        <time>2018-02-12T14:21:11Z</time>
      </trkpt>
      <trkpt lat="45.92879" lon="4.73925">
        <ele>172</ele>
        <time>2018-02-12T14:21:12Z</time>
      </trkpt>
      <trkpt lat="45.9288" lon="4.73934">
        <ele>172</ele>
        <time>2018-02-12T14:21:13Z</time>
      </trkpt>
      <trkpt lat="45.9288" lon="4.73942">
        <ele>172</ele>
        <time>2018-02-12T14:21:14Z</time>
      </trkpt>
      <trkpt lat="45.9288" lon="4.73949">
        <ele>172</ele>
        <time>2018-02-12T14:21:15Z</time>
      </trkpt>
      <trkpt lat="45.92881" lon="4.73956">
        <ele>172</ele>
        <time>2018-02-12T14:21:16Z</time>
      </trkpt>
      <trkpt lat="45.92882" lon="4.73964">
        <ele>172</ele>
        <time>2018-02-12T14:21:17Z</time>
      </trkpt>
      <trkpt lat="45.92883" lon="4.73971">
        <ele>172</ele>
        <time>2018-02-12T14:21:18Z</time>
      </trkpt>
      <trkpt lat="45.92883" lon="4.73978">
        <ele>172</ele>
        <time>2018-02-12T14:21:19Z</time>
      </trkpt>
      <trkpt lat="45.92882" lon="4.73985">
        <ele>172</ele>
        <time>2018-02-12T14:21:20Z</time>
      </trkpt>
      <trkpt lat="45.9288" lon="4.73991">
        <ele>172</ele>
        <time>2018-02-12T14:21:21Z</time>
      </trkpt>
      <trkpt lat="45.92878" lon="4.73998">
        <ele>172</ele>
        <time>2018-02-12T14:21:22Z</time>
      </trkpt>
      <trkpt lat="45.92876" lon="4.74006">
        <ele>172</ele>
        <time>2018-02-12T14:21:23Z</time>
      </trkpt>
      <trkpt lat="45.92874" lon="4.74012">
        <ele>172</ele>
        <time>2018-02-12T14:21:24Z</time>
      </trkpt>
      <trkpt lat="45.92873" lon="4.74019">
        <ele>172</ele>
        <time>2018-02-12T14:21:25Z</time>
      </trkpt>
      <trkpt lat="45.92872" lon="4.74027">
        <ele>172</ele>
        <time>2018-02-12T14:21:26Z</time>
      </trkpt>
      <trkpt lat="45.92871" lon="4.74035">
        <ele>172</ele>
        <time>2018-02-12T14:21:27Z</time>
      </trkpt>
      <trkpt lat="45.9287" lon="4.74043">
        <ele>172</ele>
        <time>2018-02-12T14:21:28Z</time>
      </trkpt>
      <trkpt lat="45.92867" lon="4.74049">
        <ele>172</ele>
        <time>2018-02-12T14:21:29Z</time>
      </trkpt>
      <trkpt lat="45.92863" lon="4.74055">
        <ele>172</ele>
        <time>2018-02-12T14:21:30Z</time>
      </trkpt>
      <trkpt lat="45.92859" lon="4.7406">
        <ele>172</ele>
        <time>2018-02-12T14:21:31Z</time>
      </trkpt>
      <trkpt lat="45.92855" lon="4.74065">
        <ele>172</ele>
        <time>2018-02-12T14:21:32Z</time>
      </trkpt>
      <trkpt lat="45.9285" lon="4.74071">
        <ele>172</ele>
        <time>2018-02-12T14:21:33Z</time>
      </trkpt>
      <trkpt lat="45.92845" lon="4.74078">
        <ele>172</ele>
        <time>2018-02-12T14:21:34Z</time>
      </trkpt>
      <trkpt lat="45.9284" lon="4.74083">
        <ele>171</ele>
        <time>2018-02-12T14:21:35Z</time>
      </trkpt>
      <trkpt lat="45.92835" lon="4.74089">
        <ele>171</ele>
        <time>2018-02-12T14:21:36Z</time>
      </trkpt>
      <trkpt lat="45.9283" lon="4.74094">
        <ele>171</ele>
        <time>2018-02-12T14:21:37Z</time>
      </trkpt>
      <trkpt lat="45.92826" lon="4.74099">
        <ele>171</ele>
        <time>2018-02-12T14:21:38Z</time>
      </trkpt>
      <trkpt lat="45.9282" lon="4.74106">
        <ele>171</ele>
        <time>2018-02-12T14:21:39Z</time>
      </trkpt>
      <trkpt lat="45.92815" lon="4.74111">
        <ele>172</ele>
        <time>2018-02-12T14:21:40Z</time>
      </trkpt>
      <trkpt lat="45.92811" lon="4.74118">
        <ele>172</ele>
        <time>2018-02-12T14:21:41Z</time>
      </trkpt>
      <trkpt lat="45.92806" lon="4.74124">
        <ele>172</ele>
        <time>2018-02-12T14:21:42Z</time>
      </trkpt>
      <trkpt lat="45.92801" lon="4.74129">
        <ele>172</ele>
        <time>2018-02-12T14:21:43Z</time>
      </trkpt>
      <trkpt lat="45.92796" lon="4.74135">
        <ele>172</ele>
        <time>2018-02-12T14:21:44Z</time>
      </trkpt>
      <trkpt lat="45.92791" lon="4.74141">
        <ele>172</ele>
        <time>2018-02-12T14:21:45Z</time>
      </trkpt>
      <trkpt lat="45.92786" lon="4.74146">
        <ele>172</ele>
        <time>2018-02-12T14:21:46Z</time>
      </trkpt>
      <trkpt lat="45.92782" lon="4.7415">
        <ele>172</ele>
        <time>2018-02-12T14:21:47Z</time>
      </trkpt>
      <trkpt lat="45.92777" lon="4.74154">
        <ele>172</ele>
        <time>2018-02-12T14:21:48Z</time>
      </trkpt>
      <trkpt lat="45.92772" lon="4.74158">
        <ele>172</ele>
        <time>2018-02-12T14:21:49Z</time>
      </trkpt>
      <trkpt lat="45.92768" lon="4.74162">
        <ele>172</ele>
        <time>2018-02-12T14:21:50Z</time>
      </trkpt>
      <trkpt lat="45.92764" lon="4.74166">
        <ele>172</ele>
        <time>2018-02-12T14:21:51Z</time>
      </trkpt>
      <trkpt lat="45.9276" lon="4.7417">
        <ele>172</ele>
        <time>2018-02-12T14:21:52Z</time>
      </trkpt>
      <trkpt lat="45.92755" lon="4.74175">
        <ele>172</ele>
        <time>2018-02-12T14:21:53Z</time>
      </trkpt>
      <trkpt lat="45.9275" lon="4.7418">
        <ele>172</ele>
        <time>2018-02-12T14:21:54Z</time>
      </trkpt>
      <trkpt lat="45.92746" lon="4.74186">
        <ele>172</ele>
        <time>2018-02-12T14:21:55Z</time>
      </trkpt>
      <trkpt lat="45.92741" lon="4.74192">
        <ele>171</ele>
        <time>2018-02-12T14:21:56Z</time>
      </trkpt>
      <trkpt lat="45.92737" lon="4.74198">
        <ele>171</ele>
        <time>2018-02-12T14:21:57Z</time>
      </trkpt>
      <trkpt lat="45.92734" lon="4.74203">
        <ele>171</ele>
        <time>2018-02-12T14:21:58Z</time>
      </trkpt>
      <trkpt lat="45.92729" lon="4.74209">
        <ele>171</ele>
        <time>2018-02-12T14:21:59Z</time>
      </trkpt>
      <trkpt lat="45.92725" lon="4.74215">
        <ele>171</ele>
        <time>2018-02-12T14:22:00Z</time>
      </trkpt>
      <trkpt lat="45.92721" lon="4.7422">
        <ele>171</ele>
        <time>2018-02-12T14:22:01Z</time>
      </trkpt>
      <trkpt lat="45.92716" lon="4.74226">
        <ele>171</ele>
        <time>2018-02-12T14:22:02Z</time>
      </trkpt>
      <trkpt lat="45.92712" lon="4.74233">
        <ele>171</ele>
        <time>2018-02-12T14:22:03Z</time>
      </trkpt>
      <trkpt lat="45.92707" lon="4.74238">
        <ele>171</ele>
        <time>2018-02-12T14:22:04Z</time>
      </trkpt>
      <trkpt lat="45.92703" lon="4.74244">
        <ele>171</ele>
        <time>2018-02-12T14:22:05Z</time>
      </trkpt>
      <trkpt lat="45.92699" lon="4.74251">
        <ele>171</ele>
        <time>2018-02-12T14:22:06Z</time>
      </trkpt>
      <trkpt lat="45.92695" lon="4.74258">
        <ele>171</ele>
        <time>2018-02-12T14:22:07Z</time>
      </trkpt>
      <trkpt lat="45.92692" lon="4.74265">
        <ele>171</ele>
        <time>2018-02-12T14:22:08Z</time>
      </trkpt>
      <trkpt lat="45.92688" lon="4.74272">
        <ele>171</ele>
        <time>2018-02-12T14:22:09Z</time>
      </trkpt>
      <trkpt lat="45.92683" lon="4.74279">
        <ele>171</ele>
        <time>2018-02-12T14:22:10Z</time>
      </trkpt>
      <trkpt lat="45.92679" lon="4.74286">
        <ele>171</ele>
        <time>2018-02-12T14:22:11Z</time>
      </trkpt>
      <trkpt lat="45.92675" lon="4.74293">
        <ele>171</ele>
        <time>2018-02-12T14:22:12Z</time>
      </trkpt>
      <trkpt lat="45.92671" lon="4.74301">
        <ele>171</ele>
        <time>2018-02-12T14:22:13Z</time>
      </trkpt>
      <trkpt lat="45.92668" lon="4.74308">
        <ele>171</ele>
        <time>2018-02-12T14:22:14Z</time>
      </trkpt>
      <trkpt lat="45.92664" lon="4.74317">
        <ele>171</ele>
        <time>2018-02-12T14:22:15Z</time>
      </trkpt>
      <trkpt lat="45.92659" lon="4.74325">
        <ele>171</ele>
        <time>2018-02-12T14:22:16Z</time>
      </trkpt>
      <trkpt lat="45.92655" lon="4.74332">
        <ele>171</ele>
        <time>2018-02-12T14:22:17Z</time>
      </trkpt>
      <trkpt lat="45.92651" lon="4.7434">
        <ele>171</ele>
        <time>2018-02-12T14:22:18Z</time>
      </trkpt>
      <trkpt lat="45.92647" lon="4.74348">
        <ele>171</ele>
        <time>2018-02-12T14:22:19Z</time>
      </trkpt>
      <trkpt lat="45.92642" lon="4.74355">
        <ele>171</ele>
        <time>2018-02-12T14:22:20Z</time>
      </trkpt>
      <trkpt lat="45.92638" lon="4.74363">
        <ele>171</ele>
        <time>2018-02-12T14:22:21Z</time>
      </trkpt>
      <trkpt lat="45.92634" lon="4.74371">
        <ele>171</ele>
        <time>2018-02-12T14:22:22Z</time>
      </trkpt>
      <trkpt lat="45.9263" lon="4.74379">
        <ele>170</ele>
        <time>2018-02-12T14:22:23Z</time>
      </trkpt>
      <trkpt lat="45.92625" lon="4.74387">
        <ele>170</ele>
        <time>2018-02-12T14:22:24Z</time>
      </trkpt>
      <trkpt lat="45.92621" lon="4.74395">
        <ele>170</ele>
        <time>2018-02-12T14:22:25Z</time>
      </trkpt>
      <trkpt lat="45.92617" lon="4.74403">
        <ele>170</ele>
        <time>2018-02-12T14:22:26Z</time>
      </trkpt>
      <trkpt lat="45.92612" lon="4.74411">
        <ele>170</ele>
        <time>2018-02-12T14:22:27Z</time>
      </trkpt>
      <trkpt lat="45.92608" lon="4.74419">
        <ele>170</ele>
        <time>2018-02-12T14:22:28Z</time>
      </trkpt>
      <trkpt lat="45.92604" lon="4.74426">
        <ele>170</ele>
        <time>2018-02-12T14:22:29Z</time>
      </trkpt>
      <trkpt lat="45.92599" lon="4.74434">
        <ele>170</ele>
        <time>2018-02-12T14:22:30Z</time>
      </trkpt>
      <trkpt lat="45.92594" lon="4.74441">
        <ele>170</ele>
        <time>2018-02-12T14:22:31Z</time>
      </trkpt>
      <trkpt lat="45.92589" lon="4.74449">
        <ele>170</ele>
        <time>2018-02-12T14:22:32Z</time>
      </trkpt>
      <trkpt lat="45.92585" lon="4.74457">
        <ele>170</ele>
        <time>2018-02-12T14:22:33Z</time>
      </trkpt>
      <trkpt lat="45.92581" lon="4.74465">
        <ele>170</ele>
        <time>2018-02-12T14:22:34Z</time>
      </trkpt>
      <trkpt lat="45.92577" lon="4.74473">
        <ele>170</ele>
        <time>2018-02-12T14:22:35Z</time>
      </trkpt>
      <trkpt lat="45.92573" lon="4.74481">
        <ele>170</ele>
        <time>2018-02-12T14:22:36Z</time>
      </trkpt>
      <trkpt lat="45.92568" lon="4.74489">
        <ele>170</ele>
        <time>2018-02-12T14:22:37Z</time>
      </trkpt>
      <trkpt lat="45.92564" lon="4.74496">
        <ele>170</ele>
        <time>2018-02-12T14:22:38Z</time>
      </trkpt>
      <trkpt lat="45.9256" lon="4.74505">
        <ele>170</ele>
        <time>2018-02-12T14:22:39Z</time>
      </trkpt>
      <trkpt lat="45.92555" lon="4.74513">
        <ele>170</ele>
        <time>2018-02-12T14:22:40Z</time>
      </trkpt>
      <trkpt lat="45.92552" lon="4.74521">
        <ele>170</ele>
        <time>2018-02-12T14:22:41Z</time>
      </trkpt>
      <trkpt lat="45.92547" lon="4.74529">
        <ele>170</ele>
        <time>2018-02-12T14:22:42Z</time>
      </trkpt>
      <trkpt lat="45.92543" lon="4.74537">
        <ele>170</ele>
        <time>2018-02-12T14:22:43Z</time>
      </trkpt>
      <trkpt lat="45.92538" lon="4.74545">
        <ele>171</ele>
        <time>2018-02-12T14:22:44Z</time>
      </trkpt>
      <trkpt lat="45.92533" lon="4.74553">
        <ele>171</ele>
        <time>2018-02-12T14:22:45Z</time>
      </trkpt>
      <trkpt lat="45.92528" lon="4.7456">
        <ele>171</ele>
        <time>2018-02-12T14:22:46Z</time>
      </trkpt>
      <trkpt lat="45.92523" lon="4.74566">
        <ele>171</ele>
        <time>2018-02-12T14:22:47Z</time>
      </trkpt>
      <trkpt lat="45.92517" lon="4.74573">
        <ele>171</ele>
        <time>2018-02-12T14:22:48Z</time>
      </trkpt>
      <trkpt lat="45.92511" lon="4.7458">
        <ele>171</ele>
        <time>2018-02-12T14:22:49Z</time>
      </trkpt>
      <trkpt lat="45.92505" lon="4.74587">
        <ele>171</ele>
        <time>2018-02-12T14:22:50Z</time>
      </trkpt>
      <trkpt lat="45.92499" lon="4.74594">
        <ele>171</ele>
        <time>2018-02-12T14:22:51Z</time>
      </trkpt>
      <trkpt lat="45.92494" lon="4.74601">
        <ele>171</ele>
        <time>2018-02-12T14:22:52Z</time>
      </trkpt>
      <trkpt lat="45.92488" lon="4.74608">
        <ele>171</ele>
        <time>2018-02-12T14:22:53Z</time>
      </trkpt>
      <trkpt lat="45.92482" lon="4.74614">
        <ele>171</ele>
        <time>2018-02-12T14:22:54Z</time>
      </trkpt>
      <trkpt lat="45.92477" lon="4.74621">
        <ele>171</ele>
        <time>2018-02-12T14:22:55Z</time>
      </trkpt>
      <trkpt lat="45.92471" lon="4.74629">
        <ele>171</ele>
        <time>2018-02-12T14:22:56Z</time>
      </trkpt>
      <trkpt lat="45.92466" lon="4.74637">
        <ele>171</ele>
        <time>2018-02-12T14:22:57Z</time>
      </trkpt>
      <trkpt lat="45.9246" lon="4.74646">
        <ele>171</ele>
        <time>2018-02-12T14:22:58Z</time>
      </trkpt>
      <trkpt lat="45.92455" lon="4.74654">
        <ele>171</ele>
        <time>2018-02-12T14:22:59Z</time>
      </trkpt>
      <trkpt lat="45.92451" lon="4.74662">
        <ele>171</ele>
        <time>2018-02-12T14:23:00Z</time>
      </trkpt>
      <trkpt lat="45.92446" lon="4.74671">
        <ele>171</ele>
        <time>2018-02-12T14:23:01Z</time>
      </trkpt>
      <trkpt lat="45.9244" lon="4.7468">
        <ele>171</ele>
        <time>2018-02-12T14:23:02Z</time>
      </trkpt>
      <trkpt lat="45.92435" lon="4.7469">
        <ele>171</ele>
        <time>2018-02-12T14:23:03Z</time>
      </trkpt>
      <trkpt lat="45.92431" lon="4.74698">
        <ele>171</ele>
        <time>2018-02-12T14:23:04Z</time>
      </trkpt>
      <trkpt lat="45.92429" lon="4.74705">
        <ele>171</ele>
        <time>2018-02-12T14:23:05Z</time>
      </trkpt>
      <trkpt lat="45.92426" lon="4.74714">
        <ele>171</ele>
        <time>2018-02-12T14:23:06Z</time>
      </trkpt>
      <trkpt lat="45.92423" lon="4.74725">
        <ele>171</ele>
        <time>2018-02-12T14:23:07Z</time>
      </trkpt>
      <trkpt lat="45.92419" lon="4.74736">
        <ele>171</ele>
        <time>2018-02-12T14:23:08Z</time>
      </trkpt>
      <trkpt lat="45.92416" lon="4.74746">
        <ele>172</ele>
        <time>2018-02-12T14:23:09Z</time>
      </trkpt>
      <trkpt lat="45.92413" lon="4.74758">
        <ele>172</ele>
        <time>2018-02-12T14:23:10Z</time>
      </trkpt>
      <trkpt lat="45.9241" lon="4.74769">
        <ele>172</ele>
        <time>2018-02-12T14:23:11Z</time>
      </trkpt>
      <trkpt lat="45.92409" lon="4.74779">
        <ele>171</ele>
        <time>2018-02-12T14:23:12Z</time>
      </trkpt>
      <trkpt lat="45.92407" lon="4.7479">
        <ele>171</ele>
        <time>2018-02-12T14:23:13Z</time>
      </trkpt>
      <trkpt lat="45.92404" lon="4.74801">
        <ele>171</ele>
        <time>2018-02-12T14:23:14Z</time>
      </trkpt>
      <trkpt lat="45.92402" lon="4.74811">
        <ele>171</ele>
        <time>2018-02-12T14:23:15Z</time>
      </trkpt>
      <trkpt lat="45.92401" lon="4.74822">
        <ele>171</ele>
        <time>2018-02-12T14:23:16Z</time>
      </trkpt>
      <trkpt lat="45.92398" lon="4.74832">
        <ele>171</ele>
        <time>2018-02-12T14:23:17Z</time>
      </trkpt>
      <trkpt lat="45.92396" lon="4.74843">
        <ele>171</ele>
        <time>2018-02-12T14:23:18Z</time>
      </trkpt>
      <trkpt lat="45.92393" lon="4.74853">
        <ele>171</ele>
        <time>2018-02-12T14:23:19Z</time>
      </trkpt>
      <trkpt lat="45.9239" lon="4.74862">
        <ele>171</ele>
        <time>2018-02-12T14:23:20Z</time>
      </trkpt>
      <trkpt lat="45.92387" lon="4.74872">
        <ele>171</ele>
        <time>2018-02-12T14:23:21Z</time>
      </trkpt>
      <trkpt lat="45.92383" lon="4.74882">
        <ele>171</ele>
        <time>2018-02-12T14:23:22Z</time>
      </trkpt>
      <trkpt lat="45.92379" lon="4.74892">
        <ele>171</ele>
        <time>2018-02-12T14:23:23Z</time>
      </trkpt>
      <trkpt lat="45.92375" lon="4.74903">
        <ele>171</ele>
        <time>2018-02-12T14:23:24Z</time>
      </trkpt>
      <trkpt lat="45.92372" lon="4.74914">
        <ele>171</ele>
        <time>2018-02-12T14:23:25Z</time>
      </trkpt>
      <trkpt lat="45.92367" lon="4.74924">
        <ele>170</ele>
        <time>2018-02-12T14:23:26Z</time>
      </trkpt>
      <trkpt lat="45.92363" lon="4.74934">
        <ele>170</ele>
        <time>2018-02-12T14:23:27Z</time>
      </trkpt>
      <trkpt lat="45.9236" lon="4.74943">
        <ele>170</ele>
        <time>2018-02-12T14:23:28Z</time>
      </trkpt>
      <trkpt lat="45.92356" lon="4.74953">
        <ele>170</ele>
        <time>2018-02-12T14:23:29Z</time>
      </trkpt>
      <trkpt lat="45.92351" lon="4.74963">
        <ele>170</ele>
        <time>2018-02-12T14:23:30Z</time>
      </trkpt>
      <trkpt lat="45.92348" lon="4.74972">
        <ele>170</ele>
        <time>2018-02-12T14:23:31Z</time>
      </trkpt>
      <trkpt lat="45.92345" lon="4.74982">
        <ele>170</ele>
        <time>2018-02-12T14:23:32Z</time>
      </trkpt>
      <trkpt lat="45.9234" lon="4.74991">
        <ele>170</ele>
        <time>2018-02-12T14:23:33Z</time>
      </trkpt>
      <trkpt lat="45.92337" lon="4.75001">
        <ele>170</ele>
        <time>2018-02-12T14:23:34Z</time>
      </trkpt>
      <trkpt lat="45.92333" lon="4.75011">
        <ele>171</ele>
        <time>2018-02-12T14:23:35Z</time>
      </trkpt>
      <trkpt lat="45.92328" lon="4.7502">
        <ele>171</ele>
        <time>2018-02-12T14:23:36Z</time>
      </trkpt>
      <trkpt lat="45.92323" lon="4.75029">
        <ele>171</ele>
        <time>2018-02-12T14:23:37Z</time>
      </trkpt>
      <trkpt lat="45.92319" lon="4.75039">
        <ele>171</ele>
        <time>2018-02-12T14:23:38Z</time>
      </trkpt>
      <trkpt lat="45.92314" lon="4.75048">
        <ele>172</ele>
        <time>2018-02-12T14:23:39Z</time>
      </trkpt>
      <trkpt lat="45.92309" lon="4.75055">
        <ele>172</ele>
        <time>2018-02-12T14:23:40Z</time>
      </trkpt>
      <trkpt lat="45.92304" lon="4.75063">
        <ele>172</ele>
        <time>2018-02-12T14:23:41Z</time>
      </trkpt>
      <trkpt lat="45.92298" lon="4.75071">
        <ele>172</ele>
        <time>2018-02-12T14:23:42Z</time>
      </trkpt>
      <trkpt lat="45.92292" lon="4.75078">
        <ele>172</ele>
        <time>2018-02-12T14:23:43Z</time>
      </trkpt>
      <trkpt lat="45.92286" lon="4.75084">
        <ele>173</ele>
        <time>2018-02-12T14:23:44Z</time>
      </trkpt>
      <trkpt lat="45.9228" lon="4.7509">
        <ele>173</ele>
        <time>2018-02-12T14:23:45Z</time>
      </trkpt>
      <trkpt lat="45.92273" lon="4.75097">
        <ele>173</ele>
        <time>2018-02-12T14:23:46Z</time>
      </trkpt>
      <trkpt lat="45.92267" lon="4.75104">
        <ele>173</ele>
        <time>2018-02-12T14:23:47Z</time>
      </trkpt>
      <trkpt lat="45.9226" lon="4.75111">
        <ele>174</ele>
        <time>2018-02-12T14:23:48Z</time>
      </trkpt>
      <trkpt lat="45.92254" lon="4.75117">
        <ele>174</ele>
        <time>2018-02-12T14:23:49Z</time>
      </trkpt>
      <trkpt lat="45.92249" lon="4.75124">
        <ele>174</ele>
        <time>2018-02-12T14:23:50Z</time>
      </trkpt>
      <trkpt lat="45.92243" lon="4.75131">
        <ele>174</ele>
        <time>2018-02-12T14:23:51Z</time>
      </trkpt>
      <trkpt lat="45.92238" lon="4.75138">
        <ele>174</ele>
        <time>2018-02-12T14:23:52Z</time>
      </trkpt>
      <trkpt lat="45.92233" lon="4.75145">
        <ele>174</ele>
        <time>2018-02-12T14:23:53Z</time>
      </trkpt>
      <trkpt lat="45.92229" lon="4.75154">
        <ele>174</ele>
        <time>2018-02-12T14:23:54Z</time>
      </trkpt>
      <trkpt lat="45.92225" lon="4.75164">
        <ele>174</ele>
        <time>2018-02-12T14:23:55Z</time>
      </trkpt>
      <trkpt lat="45.92222" lon="4.75172">
        <ele>175</ele>
        <time>2018-02-12T14:23:56Z</time>
      </trkpt>
      <trkpt lat="45.92218" lon="4.75181">
        <ele>175</ele>
        <time>2018-02-12T14:23:57Z</time>
      </trkpt>
      <trkpt lat="45.92215" lon="4.75191">
        <ele>175</ele>
        <time>2018-02-12T14:23:58Z</time>
      </trkpt>
      <trkpt lat="45.92213" lon="4.75201">
        <ele>175</ele>
        <time>2018-02-12T14:23:59Z</time>
      </trkpt>
      <trkpt lat="45.92211" lon="4.75211">
        <ele>175</ele>
        <time>2018-02-12T14:24:00Z</time>
      </trkpt>
      <trkpt lat="45.9221" lon="4.7522">
        <ele>175</ele>
        <time>2018-02-12T14:24:01Z</time>
      </trkpt>
      <trkpt lat="45.9221" lon="4.7523">
        <ele>175</ele>
        <time>2018-02-12T14:24:02Z</time>
      </trkpt>
      <trkpt lat="45.9221" lon="4.7524">
        <ele>175</ele>
        <time>2018-02-12T14:24:03Z</time>
      </trkpt>
      <trkpt lat="45.92209" lon="4.75249">
        <ele>175</ele>
        <time>2018-02-12T14:24:04Z</time>
      </trkpt>
      <trkpt lat="45.92209" lon="4.75259">
        <ele>176</ele>
        <time>2018-02-12T14:24:05Z</time>
      </trkpt>
      <trkpt lat="45.92208" lon="4.75269">
        <ele>176</ele>
        <time>2018-02-12T14:24:06Z</time>
      </trkpt>
      <trkpt lat="45.92208" lon="4.75278">
        <ele>176</ele>
        <time>2018-02-12T14:24:07Z</time>
      </trkpt>
      <trkpt lat="45.92208" lon="4.75288">
        <ele>176</ele>
        <time>2018-02-12T14:24:08Z</time>
      </trkpt>
      <trkpt lat="45.92208" lon="4.75297">
        <ele>176</ele>
        <time>2018-02-12T14:24:09Z</time>
      </trkpt>
      <trkpt lat="45.92208" lon="4.75306">
        <ele>176</ele>
        <time>2018-02-12T14:24:10Z</time>
      </trkpt>
      <trkpt lat="45.92207" lon="4.75315">
        <ele>176</ele>
        <time>2018-02-12T14:24:11Z</time>
      </trkpt>
      <trkpt lat="45.92207" lon="4.75324">
        <ele>176</ele>
        <time>2018-02-12T14:24:12Z</time>
      </trkpt>
      <trkpt lat="45.92205" lon="4.75332">
        <ele>176</ele>
        <time>2018-02-12T14:24:13Z</time>
      </trkpt>
      <trkpt lat="45.92204" lon="4.75339">
        <ele>177</ele>
        <time>2018-02-12T14:24:14Z</time>
      </trkpt>
      <trkpt lat="45.92202" lon="4.75348">
        <ele>177</ele>
        <time>2018-02-12T14:24:15Z</time>
      </trkpt>
      <trkpt lat="45.922" lon="4.75356">
        <ele>177</ele>
        <time>2018-02-12T14:24:16Z</time>
      </trkpt>
      <trkpt lat="45.92198" lon="4.75363">
        <ele>177</ele>
        <time>2018-02-12T14:24:17Z</time>
      </trkpt>
      <trkpt lat="45.92196" lon="4.75371">
        <ele>177</ele>
        <time>2018-02-12T14:24:18Z</time>
      </trkpt>
      <trkpt lat="45.92193" lon="4.7538">
        <ele>177</ele>
        <time>2018-02-12T14:24:19Z</time>
      </trkpt>
      <trkpt lat="45.9219" lon="4.75387">
        <ele>177</ele>
        <time>2018-02-12T14:24:20Z</time>
      </trkpt>
      <trkpt lat="45.92188" lon="4.75395">
        <ele>177</ele>
        <time>2018-02-12T14:24:21Z</time>
      </trkpt>
      <trkpt lat="45.92184" lon="4.75405">
        <ele>177</ele>
        <time>2018-02-12T14:24:22Z</time>
      </trkpt>
      <trkpt lat="45.92181" lon="4.75412">
        <ele>177</ele>
        <time>2018-02-12T14:24:23Z</time>
      </trkpt>
      <trkpt lat="45.92178" lon="4.7542">
        <ele>177</ele>
        <time>2018-02-12T14:24:24Z</time>
      </trkpt>
      <trkpt lat="45.92174" lon="4.75429">
        <ele>177</ele>
        <time>2018-02-12T14:24:25Z</time>
      </trkpt>
      <trkpt lat="45.92171" lon="4.75439">
        <ele>177</ele>
        <time>2018-02-12T14:24:26Z</time>
      </trkpt>
      <trkpt lat="45.92168" lon="4.75447">
        <ele>176</ele>
        <time>2018-02-12T14:24:27Z</time>
      </trkpt>
      <trkpt lat="45.92165" lon="4.75456">
        <ele>176</ele>
        <time>2018-02-12T14:24:28Z</time>
      </trkpt>
      <trkpt lat="45.92161" lon="4.75464">
        <ele>176</ele>
        <time>2018-02-12T14:24:29Z</time>
      </trkpt>
      <trkpt lat="45.92157" lon="4.75471">
        <ele>176</ele>
        <time>2018-02-12T14:24:30Z</time>
      </trkpt>
      <trkpt lat="45.92154" lon="4.75478">
        <ele>176</ele>
        <time>2018-02-12T14:24:31Z</time>
      </trkpt>
      <trkpt lat="45.9215" lon="4.75486">
        <ele>176</ele>
        <time>2018-02-12T14:24:32Z</time>
      </trkpt>
      <trkpt lat="45.92146" lon="4.75493">
        <ele>175</ele>
        <time>2018-02-12T14:24:33Z</time>
      </trkpt>
      <trkpt lat="45.92142" lon="4.75503">
        <ele>175</ele>
        <time>2018-02-12T14:24:34Z</time>
      </trkpt>
      <trkpt lat="45.92138" lon="4.75511">
        <ele>174</ele>
        <time>2018-02-12T14:24:35Z</time>
      </trkpt>
      <trkpt lat="45.92133" lon="4.75518">
        <ele>174</ele>
        <time>2018-02-12T14:24:36Z</time>
      </trkpt>
      <trkpt lat="45.92129" lon="4.75525">
        <ele>174</ele>
        <time>2018-02-12T14:24:37Z</time>
      </trkpt>
      <trkpt lat="45.92124" lon="4.75533">
        <ele>174</ele>
        <time>2018-02-12T14:24:38Z</time>
      </trkpt>
      <trkpt lat="45.9212" lon="4.75541">
        <ele>174</ele>
        <time>2018-02-12T14:24:39Z</time>
      </trkpt>
      <trkpt lat="45.92116" lon="4.75549">
        <ele>174</ele>
        <time>2018-02-12T14:24:40Z</time>
      </trkpt>
      <trkpt lat="45.92112" lon="4.75557">
        <ele>174</ele>
        <time>2018-02-12T14:24:41Z</time>
      </trkpt>
      <trkpt lat="45.92108" lon="4.75565">
        <ele>174</ele>
        <time>2018-02-12T14:24:42Z</time>
      </trkpt>
      <trkpt lat="45.92104" lon="4.75573">
        <ele>174</ele>
        <time>2018-02-12T14:24:43Z</time>
      </trkpt>
      <trkpt lat="45.92099" lon="4.7558">
        <ele>174</ele>
        <time>2018-02-12T14:24:44Z</time>
      </trkpt>
      <trkpt lat="45.92094" lon="4.75588">
        <ele>174</ele>
        <time>2018-02-12T14:24:45Z</time>
      </trkpt>
      <trkpt lat="45.9209" lon="4.75595">
        <ele>174</ele>
        <time>2018-02-12T14:24:46Z</time>
      </trkpt>
      <trkpt lat="45.92085" lon="4.75603">
        <ele>174</ele>
        <time>2018-02-12T14:24:47Z</time>
      </trkpt>
      <trkpt lat="45.92081" lon="4.75611">
        <ele>175</ele>
        <time>2018-02-12T14:24:48Z</time>
      </trkpt>
      <trkpt lat="45.92076" lon="4.7562">
        <ele>175</ele>
        <time>2018-02-12T14:24:49Z</time>
      </trkpt>
      <trkpt lat="45.92071" lon="4.75627">
        <ele>175</ele>
        <time>2018-02-12T14:24:50Z</time>
      </trkpt>
      <trkpt lat="45.92067" lon="4.75635">
        <ele>175</ele>
        <time>2018-02-12T14:24:51Z</time>
      </trkpt>
      <trkpt lat="45.92063" lon="4.75643">
        <ele>175</ele>
        <time>2018-02-12T14:24:52Z</time>
      </trkpt>
      <trkpt lat="45.92059" lon="4.75651">
        <ele>175</ele>
        <time>2018-02-12T14:24:53Z</time>
      </trkpt>
      <trkpt lat="45.92054" lon="4.75659">
        <ele>175</ele>
        <time>2018-02-12T14:24:54Z</time>
      </trkpt>
      <trkpt lat="45.9205" lon="4.75667">
        <ele>175</ele>
        <time>2018-02-12T14:24:55Z</time>
      </trkpt>
      <trkpt lat="45.92046" lon="4.75675">
        <ele>175</ele>
        <time>2018-02-12T14:24:56Z</time>
      </trkpt>
      <trkpt lat="45.92042" lon="4.75682">
        <ele>175</ele>
        <time>2018-02-12T14:24:57Z</time>
      </trkpt>
      <trkpt lat="45.92037" lon="4.75689">
        <ele>175</ele>
        <time>2018-02-12T14:24:58Z</time>
      </trkpt>
      <trkpt lat="45.92032" lon="4.75697">
        <ele>175</ele>
        <time>2018-02-12T14:24:59Z</time>
      </trkpt>
      <trkpt lat="45.92028" lon="4.75704">
        <ele>175</ele>
        <time>2018-02-12T14:25:00Z</time>
      </trkpt>
      <trkpt lat="45.92023" lon="4.75712">
        <ele>175</ele>
        <time>2018-02-12T14:25:01Z</time>
      </trkpt>
      <trkpt lat="45.92018" lon="4.7572">
        <ele>175</ele>
        <time>2018-02-12T14:25:02Z</time>
      </trkpt>
      <trkpt lat="45.92014" lon="4.75728">
        <ele>175</ele>
        <time>2018-02-12T14:25:03Z</time>
      </trkpt>
      <trkpt lat="45.9201" lon="4.75737">
        <ele>174</ele>
        <time>2018-02-12T14:25:04Z</time>
      </trkpt>
      <trkpt lat="45.92007" lon="4.75747">
        <ele>174</ele>
        <time>2018-02-12T14:25:05Z</time>
      </trkpt>
      <trkpt lat="45.92003" lon="4.75756">
        <ele>174</ele>
        <time>2018-02-12T14:25:06Z</time>
      </trkpt>
      <trkpt lat="45.91999" lon="4.75764">
        <ele>174</ele>
        <time>2018-02-12T14:25:07Z</time>
      </trkpt>
      <trkpt lat="45.91995" lon="4.75773">
        <ele>174</ele>
        <time>2018-02-12T14:25:08Z</time>
      </trkpt>
      <trkpt lat="45.91989" lon="4.75781">
        <ele>174</ele>
        <time>2018-02-12T14:25:09Z</time>
      </trkpt>
      <trkpt lat="45.91984" lon="4.75789">
        <ele>173</ele>
        <time>2018-02-12T14:25:10Z</time>
      </trkpt>
      <trkpt lat="45.91979" lon="4.75798">
        <ele>173</ele>
        <time>2018-02-12T14:25:11Z</time>
      </trkpt>
      <trkpt lat="45.91974" lon="4.75807">
        <ele>173</ele>
        <time>2018-02-12T14:25:12Z</time>
      </trkpt>
      <trkpt lat="45.91969" lon="4.75816">
        <ele>173</ele>
        <time>2018-02-12T14:25:13Z</time>
      </trkpt>
      <trkpt lat="45.91964" lon="4.75824">
        <ele>173</ele>
        <time>2018-02-12T14:25:14Z</time>
      </trkpt>
      <trkpt lat="45.91959" lon="4.75833">
        <ele>173</ele>
        <time>2018-02-12T14:25:15Z</time>
      </trkpt>
      <trkpt lat="45.91955" lon="4.75842">
        <ele>172</ele>
        <time>2018-02-12T14:25:16Z</time>
      </trkpt>
      <trkpt lat="45.9195" lon="4.75851">
        <ele>172</ele>
        <time>2018-02-12T14:25:17Z</time>
      </trkpt>
      <trkpt lat="45.91945" lon="4.7586">
        <ele>172</ele>
        <time>2018-02-12T14:25:18Z</time>
      </trkpt>
      <trkpt lat="45.9194" lon="4.75868">
        <ele>172</ele>
        <time>2018-02-12T14:25:19Z</time>
      </trkpt>
      <trkpt lat="45.91936" lon="4.75877">
        <ele>172</ele>
        <time>2018-02-12T14:25:20Z</time>
      </trkpt>
      <trkpt lat="45.91932" lon="4.75886">
        <ele>172</ele>
        <time>2018-02-12T14:25:21Z</time>
      </trkpt>
      <trkpt lat="45.91928" lon="4.75896">
        <ele>172</ele>
        <time>2018-02-12T14:25:22Z</time>
      </trkpt>
      <trkpt lat="45.91925" lon="4.75905">
        <ele>172</ele>
        <time>2018-02-12T14:25:23Z</time>
      </trkpt>
      <trkpt lat="45.91921" lon="4.75915">
        <ele>172</ele>
        <time>2018-02-12T14:25:24Z</time>
      </trkpt>
      <trkpt lat="45.91919" lon="4.75925">
        <ele>172</ele>
        <time>2018-02-12T14:25:25Z</time>
      </trkpt>
      <trkpt lat="45.91916" lon="4.75935">
        <ele>173</ele>
        <time>2018-02-12T14:25:26Z</time>
      </trkpt>
      <trkpt lat="45.91913" lon="4.75946">
        <ele>173</ele>
        <time>2018-02-12T14:25:27Z</time>
      </trkpt>
      <trkpt lat="45.9191" lon="4.75956">
        <ele>173</ele>
        <time>2018-02-12T14:25:28Z</time>
      </trkpt>
      <trkpt lat="45.91907" lon="4.75966">
        <ele>173</ele>
        <time>2018-02-12T14:25:29Z</time>
      </trkpt>
      <trkpt lat="45.91905" lon="4.75977">
        <ele>173</ele>
        <time>2018-02-12T14:25:30Z</time>
      </trkpt>
      <trkpt lat="45.91902" lon="4.75987">
        <ele>173</ele>
        <time>2018-02-12T14:25:31Z</time>
      </trkpt>
      <trkpt lat="45.919" lon="4.75998">
        <ele>173</ele>
        <time>2018-02-12T14:25:32Z</time>
      </trkpt>
      <trkpt lat="45.91896" lon="4.76008">
        <ele>173</ele>
        <time>2018-02-12T14:25:33Z</time>
      </trkpt>
      <trkpt lat="45.91893" lon="4.76018">
        <ele>173</ele>
        <time>2018-02-12T14:25:34Z</time>
      </trkpt>
      <trkpt lat="45.91891" lon="4.76028">
        <ele>173</ele>
        <time>2018-02-12T14:25:35Z</time>
      </trkpt>
      <trkpt lat="45.91888" lon="4.76038">
        <ele>173</ele>
        <time>2018-02-12T14:25:36Z</time>
      </trkpt>
      <trkpt lat="45.91886" lon="4.76048">
        <ele>173</ele>
        <time>2018-02-12T14:25:37Z</time>
      </trkpt>
      <trkpt lat="45.91883" lon="4.76058">
        <ele>173</ele>
        <time>2018-02-12T14:25:38Z</time>
      </trkpt>
      <trkpt lat="45.9188" lon="4.76068">
        <ele>173</ele>
        <time>2018-02-12T14:25:39Z</time>
      </trkpt>
      <trkpt lat="45.91878" lon="4.76077">
        <ele>173</ele>
        <time>2018-02-12T14:25:40Z</time>
      </trkpt>
      <trkpt lat="45.91875" lon="4.76087">
        <ele>173</ele>
        <time>2018-02-12T14:25:41Z</time>
      </trkpt>
      <trkpt lat="45.91873" lon="4.76096">
        <ele>173</ele>
        <time>2018-02-12T14:25:42Z</time>
      </trkpt>
      <trkpt lat="45.9187" lon="4.76106">
        <ele>173</ele>
        <time>2018-02-12T14:25:43Z</time>
      </trkpt>
      <trkpt lat="45.91868" lon="4.76116">
        <ele>173</ele>
        <time>2018-02-12T14:25:44Z</time>
      </trkpt>
      <trkpt lat="45.91866" lon="4.76125">
        <ele>173</ele>
        <time>2018-02-12T14:25:45Z</time>
      </trkpt>
      <trkpt lat="45.91864" lon="4.76135">
        <ele>173</ele>
        <time>2018-02-12T14:25:46Z</time>
      </trkpt>
      <trkpt lat="45.91862" lon="4.76145">
        <ele>173</ele>
        <time>2018-02-12T14:25:47Z</time>
      </trkpt>
      <trkpt lat="45.9186" lon="4.76154">
        <ele>173</ele>
        <time>2018-02-12T14:25:48Z</time>
      </trkpt>
      <trkpt lat="45.91857" lon="4.76163">
        <ele>173</ele>
        <time>2018-02-12T14:25:49Z</time>
      </trkpt>
      <trkpt lat="45.91854" lon="4.76173">
        <ele>172</ele>
        <time>2018-02-12T14:25:50Z</time>
      </trkpt>
      <trkpt lat="45.91852" lon="4.76182">
        <ele>172</ele>
        <time>2018-02-12T14:25:51Z</time>
      </trkpt>
      <trkpt lat="45.9185" lon="4.76191">
        <ele>172</ele>
        <time>2018-02-12T14:25:52Z</time>
      </trkpt>
      <trkpt lat="45.91847" lon="4.762">
        <ele>172</ele>
        <time>2018-02-12T14:25:53Z</time>
      </trkpt>
      <trkpt lat="45.91845" lon="4.7621">
        <ele>172</ele>
        <time>2018-02-12T14:25:54Z</time>
      </trkpt>
      <trkpt lat="45.91842" lon="4.76219">
        <ele>172</ele>
        <time>2018-02-12T14:25:55Z</time>
      </trkpt>
      <trkpt lat="45.9184" lon="4.76229">
        <ele>172</ele>
        <time>2018-02-12T14:25:56Z</time>
      </trkpt>
      <trkpt lat="45.91837" lon="4.7624">
        <ele>173</ele>
        <time>2018-02-12T14:25:57Z</time>
      </trkpt>
      <trkpt lat="45.91835" lon="4.7625">
        <ele>173</ele>
        <time>2018-02-12T14:25:58Z</time>
      </trkpt>
      <trkpt lat="45.91832" lon="4.7626">
        <ele>174</ele>
        <time>2018-02-12T14:25:59Z</time>
      </trkpt>
      <trkpt lat="45.9183" lon="4.76269">
        <ele>174</ele>
        <time>2018-02-12T14:26:00Z</time>
      </trkpt>
      <trkpt lat="45.91828" lon="4.76279">
        <ele>174</ele>
        <time>2018-02-12T14:26:01Z</time>
      </trkpt>
      <trkpt lat="45.91825" lon="4.76288">
        <ele>174</ele>
        <time>2018-02-12T14:26:02Z</time>
      </trkpt>
      <trkpt lat="45.91822" lon="4.76298">
        <ele>174</ele>
        <time>2018-02-12T14:26:03Z</time>
      </trkpt>
      <trkpt lat="45.9182" lon="4.76307">
        <ele>174</ele>
        <time>2018-02-12T14:26:04Z</time>
      </trkpt>
      <trkpt lat="45.91818" lon="4.76316">
        <ele>174</ele>
        <time>2018-02-12T14:26:05Z</time>
      </trkpt>
      <trkpt lat="45.91815" lon="4.76325">
        <ele>174</ele>
        <time>2018-02-12T14:26:06Z</time>
      </trkpt>
      <trkpt lat="45.91814" lon="4.76335">
        <ele>174</ele>
        <time>2018-02-12T14:26:07Z</time>
      </trkpt>
      <trkpt lat="45.91812" lon="4.76344">
        <ele>174</ele>
        <time>2018-02-12T14:26:08Z</time>
      </trkpt>
      <trkpt lat="45.91811" lon="4.76353">
        <ele>174</ele>
        <time>2018-02-12T14:26:09Z</time>
      </trkpt>
      <trkpt lat="45.9181" lon="4.76362">
        <ele>174</ele>
        <time>2018-02-12T14:26:10Z</time>
      </trkpt>
      <trkpt lat="45.9181" lon="4.7637">
        <ele>174</ele>
        <time>2018-02-12T14:26:11Z</time>
      </trkpt>
      <trkpt lat="45.91809" lon="4.7638">
        <ele>174</ele>
        <time>2018-02-12T14:26:12Z</time>
      </trkpt>
      <trkpt lat="45.91809" lon="4.76389">
        <ele>174</ele>
        <time>2018-02-12T14:26:13Z</time>
      </trkpt>
      <trkpt lat="45.91808" lon="4.76398">
        <ele>173</ele>
        <time>2018-02-12T14:26:14Z</time>
      </trkpt>
      <trkpt lat="45.91808" lon="4.76407">
        <ele>173</ele>
        <time>2018-02-12T14:26:15Z</time>
      </trkpt>
      <trkpt lat="45.91807" lon="4.76416">
        <ele>173</ele>
        <time>2018-02-12T14:26:16Z</time>
      </trkpt>
      <trkpt lat="45.91807" lon="4.76425">
        <ele>173</ele>
        <time>2018-02-12T14:26:17Z</time>
      </trkpt>
      <trkpt lat="45.91806" lon="4.76434">
        <ele>173</ele>
        <time>2018-02-12T14:26:18Z</time>
      </trkpt>
      <trkpt lat="45.91806" lon="4.76443">
        <ele>173</ele>
        <time>2018-02-12T14:26:19Z</time>
      </trkpt>
      <trkpt lat="45.91806" lon="4.76452">
        <ele>173</ele>
        <time>2018-02-12T14:26:20Z</time>
      </trkpt>
      <trkpt lat="45.91806" lon="4.76462">
        <ele>173</ele>
        <time>2018-02-12T14:26:21Z</time>
      </trkpt>
      <trkpt lat="45.91806" lon="4.76471">
        <ele>173</ele>
        <time>2018-02-12T14:26:22Z</time>
      </trkpt>
      <trkpt lat="45.91805" lon="4.76479">
        <ele>173</ele>
        <time>2018-02-12T14:26:23Z</time>
      </trkpt>
      <trkpt lat="45.91804" lon="4.76488">
        <ele>173</ele>
        <time>2018-02-12T14:26:24Z</time>
      </trkpt>
      <trkpt lat="45.91803" lon="4.76497">
        <ele>173</ele>
        <time>2018-02-12T14:26:25Z</time>
      </trkpt>
      <trkpt lat="45.91803" lon="4.76506">
        <ele>173</ele>
        <time>2018-02-12T14:26:26Z</time>
      </trkpt>
      <trkpt lat="45.91802" lon="4.76514">
        <ele>173</ele>
        <time>2018-02-12T14:26:27Z</time>
      </trkpt>
      <trkpt lat="45.91801" lon="4.76523">
        <ele>173</ele>
        <time>2018-02-12T14:26:28Z</time>
      </trkpt>
      <trkpt lat="45.918" lon="4.76532">
        <ele>173</ele>
        <time>2018-02-12T14:26:29Z</time>
      </trkpt>
      <trkpt lat="45.91799" lon="4.76541">
        <ele>173</ele>
        <time>2018-02-12T14:26:30Z</time>
      </trkpt>
      <trkpt lat="45.91799" lon="4.7655">
        <ele>173</ele>
        <time>2018-02-12T14:26:31Z</time>
      </trkpt>
      <trkpt lat="45.91798" lon="4.76559">
        <ele>173</ele>
        <time>2018-02-12T14:26:32Z</time>
      </trkpt>
      <trkpt lat="45.91797" lon="4.76567">
        <ele>173</ele>
        <time>2018-02-12T14:26:33Z</time>
      </trkpt>
      <trkpt lat="45.91796" lon="4.76576">
        <ele>173</ele>
        <time>2018-02-12T14:26:34Z</time>
      </trkpt>
      <trkpt lat="45.91795" lon="4.76585">
        <ele>173</ele>
        <time>2018-02-12T14:26:35Z</time>
      </trkpt>
      <trkpt lat="45.91794" lon="4.76593">
        <ele>173</ele>
        <time>2018-02-12T14:26:36Z</time>
      </trkpt>
      <trkpt lat="45.91793" lon="4.76602">
        <ele>173</ele>
        <time>2018-02-12T14:26:37Z</time>
      </trkpt>
      <trkpt lat="45.91792" lon="4.76611">
        <ele>173</ele>
        <time>2018-02-12T14:26:38Z</time>
      </trkpt>
      <trkpt lat="45.91791" lon="4.7662">
        <ele>173</ele>
        <time>2018-02-12T14:26:39Z</time>
      </trkpt>
      <trkpt lat="45.9179" lon="4.7663">
        <ele>173</ele>
        <time>2018-02-12T14:26:40Z</time>
      </trkpt>
      <trkpt lat="45.91788" lon="4.7664">
        <ele>173</ele>
        <time>2018-02-12T14:26:41Z</time>
      </trkpt>
      <trkpt lat="45.91787" lon="4.7665">
        <ele>173</ele>
        <time>2018-02-12T14:26:42Z</time>
      </trkpt>
      <trkpt lat="45.91786" lon="4.76659">
        <ele>173</ele>
        <time>2018-02-12T14:26:43Z</time>
      </trkpt>
      <trkpt lat="45.91785" lon="4.76669">
        <ele>172</ele>
        <time>2018-02-12T14:26:44Z</time>
      </trkpt>
      <trkpt lat="45.91784" lon="4.76679">
        <ele>172</ele>
        <time>2018-02-12T14:26:45Z</time>
      </trkpt>
      <trkpt lat="45.91782" lon="4.76687">
        <ele>172</ele>
        <time>2018-02-12T14:26:46Z</time>
      </trkpt>
      <trkpt lat="45.91781" lon="4.76695">
        <ele>172</ele>
        <time>2018-02-12T14:26:47Z</time>
      </trkpt>
      <trkpt lat="45.91779" lon="4.76704">
        <ele>172</ele>
        <time>2018-02-12T14:26:48Z</time>
      </trkpt>
      <trkpt lat="45.91777" lon="4.76713">
        <ele>172</ele>
        <time>2018-02-12T14:26:49Z</time>
      </trkpt>
      <trkpt lat="45.91776" lon="4.76722">
        <ele>172</ele>
        <time>2018-02-12T14:26:50Z</time>
      </trkpt>
      <trkpt lat="45.91776" lon="4.76731">
        <ele>172</ele>
        <time>2018-02-12T14:26:51Z</time>
      </trkpt>
      <trkpt lat="45.91775" lon="4.76741">
        <ele>172</ele>
        <time>2018-02-12T14:26:52Z</time>
      </trkpt>
      <trkpt lat="45.91775" lon="4.7675">
        <ele>172</ele>
        <time>2018-02-12T14:26:53Z</time>
      </trkpt>
      <trkpt lat="45.91774" lon="4.76761">
        <ele>171</ele>
        <time>2018-02-12T14:26:54Z</time>
      </trkpt>
      <trkpt lat="45.91774" lon="4.76771">
        <ele>171</ele>
        <time>2018-02-12T14:26:55Z</time>
      </trkpt>
      <trkpt lat="45.91774" lon="4.7678">
        <ele>171</ele>
        <time>2018-02-12T14:26:56Z</time>
      </trkpt>
      <trkpt lat="45.91774" lon="4.76791">
        <ele>171</ele>
        <time>2018-02-12T14:26:57Z</time>
      </trkpt>
      <trkpt lat="45.91774" lon="4.768">
        <ele>171</ele>
        <time>2018-02-12T14:26:58Z</time>
      </trkpt>
      <trkpt lat="45.91774" lon="4.7681">
        <ele>171</ele>
        <time>2018-02-12T14:26:59Z</time>
      </trkpt>
      <trkpt lat="45.91774" lon="4.7682">
        <ele>171</ele>
        <time>2018-02-12T14:27:00Z</time>
      </trkpt>
      <trkpt lat="45.91774" lon="4.7683">
        <ele>171</ele>
        <time>2018-02-12T14:27:01Z</time>
      </trkpt>
      <trkpt lat="45.91774" lon="4.76841">
        <ele>171</ele>
        <time>2018-02-12T14:27:02Z</time>
      </trkpt>
      <trkpt lat="45.91773" lon="4.76852">
        <ele>170</ele>
        <time>2018-02-12T14:27:03Z</time>
      </trkpt>
      <trkpt lat="45.91773" lon="4.76863">
        <ele>170</ele>
        <time>2018-02-12T14:27:04Z</time>
      </trkpt>
      <trkpt lat="45.91773" lon="4.76874">
        <ele>170</ele>
        <time>2018-02-12T14:27:05Z</time>
      </trkpt>
      <trkpt lat="45.91773" lon="4.76885">
        <ele>170</ele>
        <time>2018-02-12T14:27:06Z</time>
      </trkpt>
      <trkpt lat="45.91772" lon="4.76897">
        <ele>170</ele>
        <time>2018-02-12T14:27:07Z</time>
      </trkpt>
      <trkpt lat="45.91772" lon="4.76908">
        <ele>170</ele>
        <time>2018-02-12T14:27:08Z</time>
      </trkpt>
      <trkpt lat="45.91771" lon="4.76919">
        <ele>170</ele>
        <time>2018-02-12T14:27:09Z</time>
      </trkpt>
      <trkpt lat="45.9177" lon="4.76931">
        <ele>170</ele>
        <time>2018-02-12T14:27:10Z</time>
      </trkpt>
      <trkpt lat="45.91769" lon="4.76941">
        <ele>169</ele>
        <time>2018-02-12T14:27:11Z</time>
      </trkpt>
      <trkpt lat="45.91768" lon="4.76953">
        <ele>169</ele>
        <time>2018-02-12T14:27:12Z</time>
      </trkpt>
      <trkpt lat="45.91767" lon="4.76963">
        <ele>169</ele>
        <time>2018-02-12T14:27:13Z</time>
      </trkpt>
      <trkpt lat="45.91765" lon="4.76974">
        <ele>169</ele>
        <time>2018-02-12T14:27:14Z</time>
      </trkpt>
      <trkpt lat="45.91764" lon="4.76985">
        <ele>169</ele>
        <time>2018-02-12T14:27:15Z</time>
      </trkpt>
      <trkpt lat="45.91762" lon="4.76996">
        <ele>169</ele>
        <time>2018-02-12T14:27:16Z</time>
      </trkpt>
      <trkpt lat="45.9176" lon="4.77007">
        <ele>169</ele>
        <time>2018-02-12T14:27:17Z</time>
      </trkpt>
      <trkpt lat="45.91759" lon="4.77017">
        <ele>169</ele>
        <time>2018-02-12T14:27:18Z</time>
      </trkpt>
      <trkpt lat="45.91757" lon="4.77028">
        <ele>169</ele>
        <time>2018-02-12T14:27:19Z</time>
      </trkpt>
      <trkpt lat="45.91755" lon="4.77038">
        <ele>169</ele>
        <time>2018-02-12T14:27:20Z</time>
      </trkpt>
      <trkpt lat="45.91754" lon="4.77048">
        <ele>169</ele>
        <time>2018-02-12T14:27:21Z</time>
      </trkpt>
      <trkpt lat="45.91752" lon="4.77059">
        <ele>169</ele>
        <time>2018-02-12T14:27:22Z</time>
      </trkpt>
      <trkpt lat="45.91751" lon="4.77068">
        <ele>169</ele>
        <time>2018-02-12T14:27:23Z</time>
      </trkpt>
      <trkpt lat="45.9175" lon="4.77078">
        <ele>169</ele>
        <time>2018-02-12T14:27:24Z</time>
      </trkpt>
      <trkpt lat="45.91749" lon="4.77088">
        <ele>169</ele>
        <time>2018-02-12T14:27:25Z</time>
      </trkpt>
      <trkpt lat="45.91748" lon="4.77097">
        <ele>170</ele>
        <time>2018-02-12T14:27:26Z</time>
      </trkpt>
      <trkpt lat="45.91746" lon="4.77106">
        <ele>170</ele>
        <time>2018-02-12T14:27:27Z</time>
      </trkpt>
      <trkpt lat="45.91745" lon="4.77116">
        <ele>170</ele>
        <time>2018-02-12T14:27:28Z</time>
      </trkpt>
      <trkpt lat="45.91743" lon="4.77125">
        <ele>170</ele>
        <time>2018-02-12T14:27:29Z</time>
      </trkpt>
      <trkpt lat="45.91743" lon="4.77134">
        <ele>170</ele>
        <time>2018-02-12T14:27:30Z</time>
      </trkpt>
      <trkpt lat="45.91742" lon="4.77143">
        <ele>170</ele>
        <time>2018-02-12T14:27:31Z</time>
      </trkpt>
      <trkpt lat="45.91741" lon="4.77151">
        <ele>170</ele>
        <time>2018-02-12T14:27:32Z</time>
      </trkpt>
      <trkpt lat="45.91739" lon="4.77159">
        <ele>170</ele>
        <time>2018-02-12T14:27:33Z</time>
      </trkpt>
      <trkpt lat="45.91736" lon="4.77168">
        <ele>170</ele>
        <time>2018-02-12T14:27:34Z</time>
      </trkpt>
      <trkpt lat="45.91732" lon="4.77171">
        <ele>170</ele>
        <time>2018-02-12T14:27:35Z</time>
      </trkpt>
      <trkpt lat="45.91728" lon="4.77176">
        <ele>170</ele>
        <time>2018-02-12T14:27:36Z</time>
      </trkpt>
      <trkpt lat="45.91726" lon="4.77182">
        <ele>170</ele>
        <time>2018-02-12T14:27:37Z</time>
      </trkpt>
      <trkpt lat="45.91723" lon="4.77188">
        <ele>170</ele>
        <time>2018-02-12T14:27:38Z</time>
      </trkpt>
      <trkpt lat="45.91721" lon="4.77195">
        <ele>170</ele>
        <time>2018-02-12T14:27:39Z</time>
      </trkpt>
      <trkpt lat="45.91719" lon="4.77202">
        <ele>170</ele>
        <time>2018-02-12T14:27:40Z</time>
      </trkpt>
      <trkpt lat="45.91716" lon="4.77209">
        <ele>170</ele>
        <time>2018-02-12T14:27:41Z</time>
      </trkpt>
      <trkpt lat="45.91713" lon="4.77215">
        <ele>170</ele>
        <time>2018-02-12T14:27:42Z</time>
      </trkpt>
      <trkpt lat="45.91709" lon="4.77222">
        <ele>170</ele>
        <time>2018-02-12T14:27:43Z</time>
      </trkpt>
      <trkpt lat="45.91706" lon="4.77228">
        <ele>170</ele>
        <time>2018-02-12T14:27:44Z</time>
      </trkpt>
      <trkpt lat="45.91703" lon="4.77235">
        <ele>170</ele>
        <time>2018-02-12T14:27:45Z</time>
      </trkpt>
      <trkpt lat="45.917" lon="4.77241">
        <ele>170</ele>
        <time>2018-02-12T14:27:46Z</time>
      </trkpt>
      <trkpt lat="45.91697" lon="4.77249">
        <ele>170</ele>
        <time>2018-02-12T14:27:47Z</time>
      </trkpt>
      <trkpt lat="45.91695" lon="4.77258">
        <ele>170</ele>
        <time>2018-02-12T14:27:48Z</time>
      </trkpt>
      <trkpt lat="45.91692" lon="4.77265">
        <ele>170</ele>
        <time>2018-02-12T14:27:49Z</time>
      </trkpt>
      <trkpt lat="45.9169" lon="4.77273">
        <ele>170</ele>
        <time>2018-02-12T14:27:50Z</time>
      </trkpt>
      <trkpt lat="45.91688" lon="4.7728">
        <ele>170</ele>
        <time>2018-02-12T14:27:51Z</time>
      </trkpt>
      <trkpt lat="45.91686" lon="4.77288">
        <ele>170</ele>
        <time>2018-02-12T14:27:52Z</time>
      </trkpt>
      <trkpt lat="45.91684" lon="4.77295">
        <ele>170</ele>
        <time>2018-02-12T14:27:53Z</time>
      </trkpt>
      <trkpt lat="45.91682" lon="4.77303">
        <ele>170</ele>
        <time>2018-02-12T14:27:54Z</time>
      </trkpt>
      <trkpt lat="45.9168" lon="4.77309">
        <ele>171</ele>
        <time>2018-02-12T14:27:55Z</time>
      </trkpt>
      <trkpt lat="45.91679" lon="4.77316">
        <ele>171</ele>
        <time>2018-02-12T14:27:56Z</time>
      </trkpt>
      <trkpt lat="45.91677" lon="4.77324">
        <ele>171</ele>
        <time>2018-02-12T14:27:57Z</time>
      </trkpt>
      <trkpt lat="45.91675" lon="4.77332">
        <ele>171</ele>
        <time>2018-02-12T14:27:58Z</time>
      </trkpt>
      <trkpt lat="45.91673" lon="4.77339">
        <ele>172</ele>
        <time>2018-02-12T14:27:59Z</time>
      </trkpt>
      <trkpt lat="45.9167" lon="4.77347">
        <ele>171</ele>
        <time>2018-02-12T14:28:00Z</time>
      </trkpt>
      <trkpt lat="45.91667" lon="4.77355">
        <ele>171</ele>
        <time>2018-02-12T14:28:01Z</time>
      </trkpt>
      <trkpt lat="45.91664" lon="4.77362">
        <ele>172</ele>
        <time>2018-02-12T14:28:02Z</time>
      </trkpt>
      <trkpt lat="45.91661" lon="4.77369">
        <ele>172</ele>
        <time>2018-02-12T14:28:03Z</time>
      </trkpt>
      <trkpt lat="45.91659" lon="4.77376">
        <ele>172</ele>
        <time>2018-02-12T14:28:04Z</time>
      </trkpt>
      <trkpt lat="45.91657" lon="4.77384">
        <ele>172</ele>
        <time>2018-02-12T14:28:05Z</time>
      </trkpt>
      <trkpt lat="45.91655" lon="4.77392">
        <ele>172</ele>
        <time>2018-02-12T14:28:06Z</time>
      </trkpt>
      <trkpt lat="45.91653" lon="4.774">
        <ele>172</ele>
        <time>2018-02-12T14:28:07Z</time>
      </trkpt>
      <trkpt lat="45.91651" lon="4.77407">
        <ele>172</ele>
        <time>2018-02-12T14:28:08Z</time>
      </trkpt>
      <trkpt lat="45.91649" lon="4.77415">
        <ele>172</ele>
        <time>2018-02-12T14:28:09Z</time>
      </trkpt>
      <trkpt lat="45.91647" lon="4.77422">
        <ele>172</ele>
        <time>2018-02-12T14:28:10Z</time>
      </trkpt>
      <trkpt lat="45.91644" lon="4.77429">
        <ele>172</ele>
        <time>2018-02-12T14:28:11Z</time>
      </trkpt>
      <trkpt lat="45.91641" lon="4.77435">
        <ele>172</ele>
        <time>2018-02-12T14:28:12Z</time>
      </trkpt>
      <trkpt lat="45.91639" lon="4.77443">
        <ele>172</ele>
        <time>2018-02-12T14:28:13Z</time>
      </trkpt>
      <trkpt lat="45.91636" lon="4.77448">
        <ele>172</ele>
        <time>2018-02-12T14:28:14Z</time>
      </trkpt>
      <trkpt lat="45.91633" lon="4.77456">
        <ele>171</ele>
        <time>2018-02-12T14:28:15Z</time>
      </trkpt>
      <trkpt lat="45.91631" lon="4.77463">
        <ele>171</ele>
        <time>2018-02-12T14:28:16Z</time>
      </trkpt>
      <trkpt lat="45.91629" lon="4.7747">
        <ele>171</ele>
        <time>2018-02-12T14:28:17Z</time>
      </trkpt>
      <trkpt lat="45.91627" lon="4.77476">
        <ele>171</ele>
        <time>2018-02-12T14:28:18Z</time>
      </trkpt>
      <trkpt lat="45.91626" lon="4.77484">
        <ele>171</ele>
        <time>2018-02-12T14:28:19Z</time>
      </trkpt>
      <trkpt lat="45.91625" lon="4.77492">
        <ele>171</ele>
        <time>2018-02-12T14:28:20Z</time>
      </trkpt>
      <trkpt lat="45.91624" lon="4.77499">
        <ele>171</ele>
        <time>2018-02-12T14:28:21Z</time>
      </trkpt>
      <trkpt lat="45.91623" lon="4.77507">
        <ele>171</ele>
        <time>2018-02-12T14:28:22Z</time>
      </trkpt>
      <trkpt lat="45.91621" lon="4.77513">
        <ele>171</ele>
        <time>2018-02-12T14:28:23Z</time>
      </trkpt>
      <trkpt lat="45.91619" lon="4.77519">
        <ele>171</ele>
        <time>2018-02-12T14:28:24Z</time>
      </trkpt>
      <trkpt lat="45.91616" lon="4.77525">
        <ele>171</ele>
        <time>2018-02-12T14:28:25Z</time>
      </trkpt>
      <trkpt lat="45.91612" lon="4.77531">
        <ele>171</ele>
        <time>2018-02-12T14:28:26Z</time>
      </trkpt>
      <trkpt lat="45.91609" lon="4.77536">
        <ele>171</ele>
        <time>2018-02-12T14:28:27Z</time>
      </trkpt>
      <trkpt lat="45.91606" lon="4.77542">
        <ele>171</ele>
        <time>2018-02-12T14:28:28Z</time>
      </trkpt>
      <trkpt lat="45.91602" lon="4.77548">
        <ele>171</ele>
        <time>2018-02-12T14:28:29Z</time>
      </trkpt>
      <trkpt lat="45.91599" lon="4.77555">
        <ele>172</ele>
        <time>2018-02-12T14:28:30Z</time>
      </trkpt>
      <trkpt lat="45.91595" lon="4.7756">
        <ele>172</ele>
        <time>2018-02-12T14:28:31Z</time>
      </trkpt>
      <trkpt lat="45.91591" lon="4.77566">
        <ele>172</ele>
        <time>2018-02-12T14:28:32Z</time>
      </trkpt>
      <trkpt lat="45.91588" lon="4.77572">
        <ele>172</ele>
        <time>2018-02-12T14:28:33Z</time>
      </trkpt>
      <trkpt lat="45.91584" lon="4.77578">
        <ele>173</ele>
        <time>2018-02-12T14:28:34Z</time>
      </trkpt>
      <trkpt lat="45.91581" lon="4.77583">
        <ele>173</ele>
        <time>2018-02-12T14:28:35Z</time>
      </trkpt>
      <trkpt lat="45.91578" lon="4.77588">
        <ele>173</ele>
        <time>2018-02-12T14:28:36Z</time>
      </trkpt>
      <trkpt lat="45.91572" lon="4.77598">
        <ele>173</ele>
        <time>2018-02-12T14:28:38Z</time>
      </trkpt>
      <trkpt lat="45.9157" lon="4.77603">
        <ele>174</ele>
        <time>2018-02-12T14:28:39Z</time>
      </trkpt>
      <trkpt lat="45.91563" lon="4.77611">
        <ele>174</ele>
        <time>2018-02-12T14:28:41Z</time>
      </trkpt>
      <trkpt lat="45.91561" lon="4.77616">
        <ele>174</ele>
        <time>2018-02-12T14:28:42Z</time>
      </trkpt>
      <trkpt lat="45.91555" lon="4.77624">
        <ele>174</ele>
        <time>2018-02-12T14:28:44Z</time>
      </trkpt>
      <trkpt lat="45.91553" lon="4.77628">
        <ele>174</ele>
        <time>2018-02-12T14:28:45Z</time>
      </trkpt>
      <trkpt lat="45.91549" lon="4.77636">
        <ele>174</ele>
        <time>2018-02-12T14:28:47Z</time>
      </trkpt>
      <trkpt lat="45.91546" lon="4.7764">
        <ele>174</ele>
        <time>2018-02-12T14:28:48Z</time>
      </trkpt>
      <trkpt lat="45.91541" lon="4.77649">
        <ele>174</ele>
        <time>2018-02-12T14:28:50Z</time>
      </trkpt>
      <trkpt lat="45.91538" lon="4.77653">
        <ele>174</ele>
        <time>2018-02-12T14:28:51Z</time>
      </trkpt>
      <trkpt lat="45.91533" lon="4.77662">
        <ele>174</ele>
        <time>2018-02-12T14:28:53Z</time>
      </trkpt>
      <trkpt lat="45.91531" lon="4.77666">
        <ele>174</ele>
        <time>2018-02-12T14:28:54Z</time>
      </trkpt>
      <trkpt lat="45.91526" lon="4.77674">
        <ele>175</ele>
        <time>2018-02-12T14:28:56Z</time>
      </trkpt>
      <trkpt lat="45.91523" lon="4.77678">
        <ele>175</ele>
        <time>2018-02-12T14:28:57Z</time>
      </trkpt>
      <trkpt lat="45.91519" lon="4.77686">
        <ele>176</ele>
        <time>2018-02-12T14:28:59Z</time>
      </trkpt>
      <trkpt lat="45.91516" lon="4.7769">
        <ele>176</ele>
        <time>2018-02-12T14:29:00Z</time>
      </trkpt>
      <trkpt lat="45.91512" lon="4.77698">
        <ele>176</ele>
        <time>2018-02-12T14:29:02Z</time>
      </trkpt>
      <trkpt lat="45.91509" lon="4.77701">
        <ele>176</ele>
        <time>2018-02-12T14:29:03Z</time>
      </trkpt>
      <trkpt lat="45.91502" lon="4.77703">
        <ele>176</ele>
        <time>2018-02-12T14:29:05Z</time>
      </trkpt>
      <trkpt lat="45.91498" lon="4.77703">
        <ele>177</ele>
        <time>2018-02-12T14:29:06Z</time>
      </trkpt>
      <trkpt lat="45.9149" lon="4.77703">
        <ele>177</ele>
        <time>2018-02-12T14:29:08Z</time>
      </trkpt>
      <trkpt lat="45.91486" lon="4.77703">
        <ele>177</ele>
        <time>2018-02-12T14:29:09Z</time>
      </trkpt>
      <trkpt lat="45.91477" lon="4.77704">
        <ele>177</ele>
        <time>2018-02-12T14:29:11Z</time>
      </trkpt>
      <trkpt lat="45.91473" lon="4.77705">
        <ele>177</ele>
        <time>2018-02-12T14:29:12Z</time>
      </trkpt>
      <trkpt lat="45.91469" lon="4.77706">
        <ele>177</ele>
        <time>2018-02-12T14:29:13Z</time>
      </trkpt>
      <trkpt lat="45.91464" lon="4.77705">
        <ele>177</ele>
        <time>2018-02-12T14:29:14Z</time>
      </trkpt>
      <trkpt lat="45.91457" lon="4.77709">
        <ele>177</ele>
        <time>2018-02-12T14:29:16Z</time>
      </trkpt>
      <trkpt lat="45.91451" lon="4.77709">
        <ele>177</ele>
        <time>2018-02-12T14:29:17Z</time>
      </trkpt>
      <trkpt lat="45.91446" lon="4.7771">
        <ele>177</ele>
        <time>2018-02-12T14:29:18Z</time>
      </trkpt>
      <trkpt lat="45.91442" lon="4.77711">
        <ele>177</ele>
        <time>2018-02-12T14:29:19Z</time>
      </trkpt>
      <trkpt lat="45.91437" lon="4.77712">
        <ele>177</ele>
        <time>2018-02-12T14:29:20Z</time>
      </trkpt>
      <trkpt lat="45.91433" lon="4.77713">
        <ele>177</ele>
        <time>2018-02-12T14:29:21Z</time>
      </trkpt>
      <trkpt lat="45.91425" lon="4.77716">
        <ele>177</ele>
        <time>2018-02-12T14:29:23Z</time>
      </trkpt>
      <trkpt lat="45.91419" lon="4.77715">
        <ele>177</ele>
        <time>2018-02-12T14:29:24Z</time>
      </trkpt>
      <trkpt lat="45.91415" lon="4.77715">
        <ele>177</ele>
        <time>2018-02-12T14:29:25Z</time>
      </trkpt>
      <trkpt lat="45.91409" lon="4.77715">
        <ele>177</ele>
        <time>2018-02-12T14:29:26Z</time>
      </trkpt>
      <trkpt lat="45.91404" lon="4.77717">
        <ele>177</ele>
        <time>2018-02-12T14:29:27Z</time>
      </trkpt>
      <trkpt lat="45.91399" lon="4.77718">
        <ele>177</ele>
        <time>2018-02-12T14:29:28Z</time>
      </trkpt>
      <trkpt lat="45.91394" lon="4.7772">
        <ele>177</ele>
        <time>2018-02-12T14:29:29Z</time>
      </trkpt>
      <trkpt lat="45.91389" lon="4.7772">
        <ele>177</ele>
        <time>2018-02-12T14:29:30Z</time>
      </trkpt>
      <trkpt lat="45.91384" lon="4.7772">
        <ele>177</ele>
        <time>2018-02-12T14:29:31Z</time>
      </trkpt>
      <trkpt lat="45.91379" lon="4.77722">
        <ele>176</ele>
        <time>2018-02-12T14:29:32Z</time>
      </trkpt>
      <trkpt lat="45.91373" lon="4.77724">
        <ele>176</ele>
        <time>2018-02-12T14:29:33Z</time>
      </trkpt>
      <trkpt lat="45.91368" lon="4.77723">
        <ele>176</ele>
        <time>2018-02-12T14:29:34Z</time>
      </trkpt>
      <trkpt lat="45.91361" lon="4.77722">
        <ele>176</ele>
        <time>2018-02-12T14:29:35Z</time>
      </trkpt>
      <trkpt lat="45.91355" lon="4.77722">
        <ele>176</ele>
        <time>2018-02-12T14:29:36Z</time>
      </trkpt>
      <trkpt lat="45.91351" lon="4.77722">
        <ele>176</ele>
        <time>2018-02-12T14:29:37Z</time>
      </trkpt>
      <trkpt lat="45.91344" lon="4.77721">
        <ele>176</ele>
        <time>2018-02-12T14:29:38Z</time>
      </trkpt>
      <trkpt lat="45.91339" lon="4.7772">
        <ele>176</ele>
        <time>2018-02-12T14:29:39Z</time>
      </trkpt>
      <trkpt lat="45.91334" lon="4.77719">
        <ele>176</ele>
        <time>2018-02-12T14:29:40Z</time>
      </trkpt>
      <trkpt lat="45.91328" lon="4.77718">
        <ele>176</ele>
        <time>2018-02-12T14:29:41Z</time>
      </trkpt>
      <trkpt lat="45.91322" lon="4.77717">
        <ele>176</ele>
        <time>2018-02-12T14:29:42Z</time>
      </trkpt>
      <trkpt lat="45.91316" lon="4.77716">
        <ele>176</ele>
        <time>2018-02-12T14:29:43Z</time>
      </trkpt>
      <trkpt lat="45.91311" lon="4.77714">
        <ele>176</ele>
        <time>2018-02-12T14:29:44Z</time>
      </trkpt>
      <trkpt lat="45.91307" lon="4.77711">
        <ele>176</ele>
        <time>2018-02-12T14:29:45Z</time>
      </trkpt>
      <trkpt lat="45.91301" lon="4.77709">
        <ele>176</ele>
        <time>2018-02-12T14:29:46Z</time>
      </trkpt>
      <trkpt lat="45.91296" lon="4.77704">
        <ele>176</ele>
        <time>2018-02-12T14:29:47Z</time>
      </trkpt>
      <trkpt lat="45.91291" lon="4.77702">
        <ele>176</ele>
        <time>2018-02-12T14:29:48Z</time>
      </trkpt>
      <trkpt lat="45.91286" lon="4.77699">
        <ele>176</ele>
        <time>2018-02-12T14:29:49Z</time>
      </trkpt>
      <trkpt lat="45.9128" lon="4.77696">
        <ele>176</ele>
        <time>2018-02-12T14:29:50Z</time>
      </trkpt>
      <trkpt lat="45.91273" lon="4.77692">
        <ele>176</ele>
        <time>2018-02-12T14:29:51Z</time>
      </trkpt>
      <trkpt lat="45.91267" lon="4.7769">
        <ele>176</ele>
        <time>2018-02-12T14:29:52Z</time>
      </trkpt>
      <trkpt lat="45.91261" lon="4.77687">
        <ele>176</ele>
        <time>2018-02-12T14:29:53Z</time>
      </trkpt>
      <trkpt lat="45.91254" lon="4.77685">
        <ele>176</ele>
        <time>2018-02-12T14:29:54Z</time>
      </trkpt>
      <trkpt lat="45.91248" lon="4.77685">
        <ele>176</ele>
        <time>2018-02-12T14:29:55Z</time>
      </trkpt>
      <trkpt lat="45.91245" lon="4.77685">
        <ele>176</ele>
        <time>2018-02-12T14:29:56Z</time>
      </trkpt>
      <trkpt lat="45.91239" lon="4.77686">
        <ele>176</ele>
        <time>2018-02-12T14:29:57Z</time>
      </trkpt>
      <trkpt lat="45.91233" lon="4.77688">
        <ele>176</ele>
        <time>2018-02-12T14:29:58Z</time>
      </trkpt>
      <trkpt lat="45.91228" lon="4.77689">
        <ele>176</ele>
        <time>2018-02-12T14:29:59Z</time>
      </trkpt>
      <trkpt lat="45.91223" lon="4.7769">
        <ele>176</ele>
        <time>2018-02-12T14:30:00Z</time>
      </trkpt>
      <trkpt lat="45.91218" lon="4.77692">
        <ele>176</ele>
        <time>2018-02-12T14:30:01Z</time>
      </trkpt>
      <trkpt lat="45.91214" lon="4.77693">
        <ele>176</ele>
        <time>2018-02-12T14:30:02Z</time>
      </trkpt>
      <trkpt lat="45.91208" lon="4.77695">
        <ele>176</ele>
        <time>2018-02-12T14:30:03Z</time>
      </trkpt>
      <trkpt lat="45.91202" lon="4.77697">
        <ele>176</ele>
        <time>2018-02-12T14:30:04Z</time>
      </trkpt>
      <trkpt lat="45.91197" lon="4.77697">
        <ele>176</ele>
        <time>2018-02-12T14:30:05Z</time>
      </trkpt>
      <trkpt lat="45.91192" lon="4.77698">
        <ele>176</ele>
        <time>2018-02-12T14:30:06Z</time>
      </trkpt>
      <trkpt lat="45.91184" lon="4.77703">
        <ele>176</ele>
        <time>2018-02-12T14:30:08Z</time>
      </trkpt>
      <trkpt lat="45.9118" lon="4.77705">
        <ele>176</ele>
        <time>2018-02-12T14:30:09Z</time>
      </trkpt>
      <trkpt lat="45.91174" lon="4.77706">
        <ele>176</ele>
        <time>2018-02-12T14:30:10Z</time>
      </trkpt>
      <trkpt lat="45.91169" lon="4.77706">
        <ele>176</ele>
        <time>2018-02-12T14:30:11Z</time>
      </trkpt>
      <trkpt lat="45.91164" lon="4.77708">
        <ele>177</ele>
        <time>2018-02-12T14:30:12Z</time>
      </trkpt>
      <trkpt lat="45.91159" lon="4.77711">
        <ele>177</ele>
        <time>2018-02-12T14:30:13Z</time>
      </trkpt>
      <trkpt lat="45.91155" lon="4.77713">
        <ele>177</ele>
        <time>2018-02-12T14:30:14Z</time>
      </trkpt>
      <trkpt lat="45.9115" lon="4.77715">
        <ele>177</ele>
        <time>2018-02-12T14:30:15Z</time>
      </trkpt>
      <trkpt lat="45.91144" lon="4.77717">
        <ele>177</ele>
        <time>2018-02-12T14:30:16Z</time>
      </trkpt>
      <trkpt lat="45.91139" lon="4.7772">
        <ele>177</ele>
        <time>2018-02-12T14:30:17Z</time>
      </trkpt>
      <trkpt lat="45.91134" lon="4.77721">
        <ele>177</ele>
        <time>2018-02-12T14:30:18Z</time>
      </trkpt>
      <trkpt lat="45.91129" lon="4.77723">
        <ele>177</ele>
        <time>2018-02-12T14:30:19Z</time>
      </trkpt>
      <trkpt lat="45.91123" lon="4.77725">
        <ele>177</ele>
        <time>2018-02-12T14:30:20Z</time>
      </trkpt>
      <trkpt lat="45.91118" lon="4.77726">
        <ele>178</ele>
        <time>2018-02-12T14:30:21Z</time>
      </trkpt>
      <trkpt lat="45.91115" lon="4.77729">
        <ele>178</ele>
        <time>2018-02-12T14:30:22Z</time>
      </trkpt>
      <trkpt lat="45.9111" lon="4.77732">
        <ele>178</ele>
        <time>2018-02-12T14:30:23Z</time>
      </trkpt>
      <trkpt lat="45.91106" lon="4.77735">
        <ele>178</ele>
        <time>2018-02-12T14:30:24Z</time>
      </trkpt>
      <trkpt lat="45.91102" lon="4.77738">
        <ele>178</ele>
        <time>2018-02-12T14:30:25Z</time>
      </trkpt>
      <trkpt lat="45.91097" lon="4.7774">
        <ele>178</ele>
        <time>2018-02-12T14:30:26Z</time>
      </trkpt>
      <trkpt lat="45.91091" lon="4.77743">
        <ele>178</ele>
        <time>2018-02-12T14:30:27Z</time>
      </trkpt>
      <trkpt lat="45.91086" lon="4.77745">
        <ele>179</ele>
        <time>2018-02-12T14:30:28Z</time>
      </trkpt>
      <trkpt lat="45.91081" lon="4.77747">
        <ele>179</ele>
        <time>2018-02-12T14:30:29Z</time>
      </trkpt>
      <trkpt lat="45.91077" lon="4.77751">
        <ele>179</ele>
        <time>2018-02-12T14:30:30Z</time>
      </trkpt>
      <trkpt lat="45.91072" lon="4.77753">
        <ele>179</ele>
        <time>2018-02-12T14:30:31Z</time>
      </trkpt>
      <trkpt lat="45.91068" lon="4.77756">
        <ele>179</ele>
        <time>2018-02-12T14:30:32Z</time>
      </trkpt>
      <trkpt lat="45.91064" lon="4.77759">
        <ele>178</ele>
        <time>2018-02-12T14:30:33Z</time>
      </trkpt>
      <trkpt lat="45.91059" lon="4.77762">
        <ele>178</ele>
        <time>2018-02-12T14:30:34Z</time>
      </trkpt>
      <trkpt lat="45.91055" lon="4.77765">
        <ele>178</ele>
        <time>2018-02-12T14:30:35Z</time>
      </trkpt>
      <trkpt lat="45.91051" lon="4.77767">
        <ele>178</ele>
        <time>2018-02-12T14:30:36Z</time>
      </trkpt>
      <trkpt lat="45.91047" lon="4.77769">
        <ele>178</ele>
        <time>2018-02-12T14:30:37Z</time>
      </trkpt>
      <trkpt lat="45.91042" lon="4.77771">
        <ele>178</ele>
        <time>2018-02-12T14:30:38Z</time>
      </trkpt>
      <trkpt lat="45.91037" lon="4.77773">
        <ele>178</ele>
        <time>2018-02-12T14:30:39Z</time>
      </trkpt>
      <trkpt lat="45.91033" lon="4.77775">
        <ele>178</ele>
        <time>2018-02-12T14:30:40Z</time>
      </trkpt>
      <trkpt lat="45.91028" lon="4.77776">
        <ele>178</ele>
        <time>2018-02-12T14:30:41Z</time>
      </trkpt>
      <trkpt lat="45.91023" lon="4.77777">
        <ele>178</ele>
        <time>2018-02-12T14:30:42Z</time>
      </trkpt>
      <trkpt lat="45.91019" lon="4.77779">
        <ele>178</ele>
        <time>2018-02-12T14:30:43Z</time>
      </trkpt>
      <trkpt lat="45.91014" lon="4.77779">
        <ele>178</ele>
        <time>2018-02-12T14:30:44Z</time>
      </trkpt>
      <trkpt lat="45.91009" lon="4.77782">
        <ele>178</ele>
        <time>2018-02-12T14:30:45Z</time>
      </trkpt>
      <trkpt lat="45.91004" lon="4.77782">
        <ele>178</ele>
        <time>2018-02-12T14:30:46Z</time>
      </trkpt>
      <trkpt lat="45.91" lon="4.77784">
        <ele>177</ele>
        <time>2018-02-12T14:30:47Z</time>
      </trkpt>
      <trkpt lat="45.90994" lon="4.77784">
        <ele>177</ele>
        <time>2018-02-12T14:30:48Z</time>
      </trkpt>
      <trkpt lat="45.90989" lon="4.77784">
        <ele>177</ele>
        <time>2018-02-12T14:30:49Z</time>
      </trkpt>
      <trkpt lat="45.9098" lon="4.77785">
        <ele>177</ele>
        <time>2018-02-12T14:30:51Z</time>
      </trkpt>
      <trkpt lat="45.90975" lon="4.77785">
        <ele>177</ele>
        <time>2018-02-12T14:30:52Z</time>
      </trkpt>
      <trkpt lat="45.9097" lon="4.77786">
        <ele>177</ele>
        <time>2018-02-12T14:30:53Z</time>
      </trkpt>
      <trkpt lat="45.90964" lon="4.77787">
        <ele>177</ele>
        <time>2018-02-12T14:30:54Z</time>
      </trkpt>
      <trkpt lat="45.90959" lon="4.77786">
        <ele>177</ele>
        <time>2018-02-12T14:30:55Z</time>
      </trkpt>
      <trkpt lat="45.90955" lon="4.77783">
        <ele>177</ele>
        <time>2018-02-12T14:30:56Z</time>
      </trkpt>
      <trkpt lat="45.90947" lon="4.77776">
        <ele>177</ele>
        <time>2018-02-12T14:30:58Z</time>
      </trkpt>
      <trkpt lat="45.90943" lon="4.77773">
        <ele>177</ele>
        <time>2018-02-12T14:30:59Z</time>
      </trkpt>
      <trkpt lat="45.90938" lon="4.77772">
        <ele>177</ele>
        <time>2018-02-12T14:31:00Z</time>
      </trkpt>
      <trkpt lat="45.90933" lon="4.77771">
        <ele>177</ele>
        <time>2018-02-12T14:31:01Z</time>
      </trkpt>
      <trkpt lat="45.90928" lon="4.77769">
        <ele>177</ele>
        <time>2018-02-12T14:31:02Z</time>
      </trkpt>
      <trkpt lat="45.90923" lon="4.77766">
        <ele>177</ele>
        <time>2018-02-12T14:31:03Z</time>
      </trkpt>
      <trkpt lat="45.90919" lon="4.77762">
        <ele>176</ele>
        <time>2018-02-12T14:31:04Z</time>
      </trkpt>
      <trkpt lat="45.90916" lon="4.77757">
        <ele>176</ele>
        <time>2018-02-12T14:31:05Z</time>
      </trkpt>
      <trkpt lat="45.90912" lon="4.77752">
        <ele>176</ele>
        <time>2018-02-12T14:31:06Z</time>
      </trkpt>
      <trkpt lat="45.90909" lon="4.77746">
        <ele>176</ele>
        <time>2018-02-12T14:31:07Z</time>
      </trkpt>
      <trkpt lat="45.90906" lon="4.77742">
        <ele>177</ele>
        <time>2018-02-12T14:31:08Z</time>
      </trkpt>
      <trkpt lat="45.90902" lon="4.77738">
        <ele>177</ele>
        <time>2018-02-12T14:31:09Z</time>
      </trkpt>
      <trkpt lat="45.90898" lon="4.77734">
        <ele>177</ele>
        <time>2018-02-12T14:31:10Z</time>
      </trkpt>
      <trkpt lat="45.90895" lon="4.77729">
        <ele>177</ele>
        <time>2018-02-12T14:31:11Z</time>
      </trkpt>
      <trkpt lat="45.90891" lon="4.77725">
        <ele>177</ele>
        <time>2018-02-12T14:31:12Z</time>
      </trkpt>
      <trkpt lat="45.90888" lon="4.7772">
        <ele>177</ele>
        <time>2018-02-12T14:31:13Z</time>
      </trkpt>
      <trkpt lat="45.90881" lon="4.77713">
        <ele>177</ele>
        <time>2018-02-12T14:31:15Z</time>
      </trkpt>
      <trkpt lat="45.90877" lon="4.77711">
        <ele>177</ele>
        <time>2018-02-12T14:31:16Z</time>
      </trkpt>
      <trkpt lat="45.9087" lon="4.77704">
        <ele>178</ele>
        <time>2018-02-12T14:31:18Z</time>
      </trkpt>
      <trkpt lat="45.90867" lon="4.77701">
        <ele>178</ele>
        <time>2018-02-12T14:31:19Z</time>
      </trkpt>
      <trkpt lat="45.90861" lon="4.77696">
        <ele>178</ele>
        <time>2018-02-12T14:31:21Z</time>
      </trkpt>
      <trkpt lat="45.90858" lon="4.77693">
        <ele>178</ele>
        <time>2018-02-12T14:31:22Z</time>
      </trkpt>
      <trkpt lat="45.90852" lon="4.77689">
        <ele>178</ele>
        <time>2018-02-12T14:31:24Z</time>
      </trkpt>
      <trkpt lat="45.90849" lon="4.77688">
        <ele>178</ele>
        <time>2018-02-12T14:31:25Z</time>
      </trkpt>
      <trkpt lat="45.90842" lon="4.77684">
        <ele>178</ele>
        <time>2018-02-12T14:31:27Z</time>
      </trkpt>
      <trkpt lat="45.90839" lon="4.77683">
        <ele>178</ele>
        <time>2018-02-12T14:31:28Z</time>
      </trkpt>
      <trkpt lat="45.90832" lon="4.77679">
        <ele>179</ele>
        <time>2018-02-12T14:31:30Z</time>
      </trkpt>
      <trkpt lat="45.90829" lon="4.77677">
        <ele>179</ele>
        <time>2018-02-12T14:31:31Z</time>
      </trkpt>
      <trkpt lat="45.90822" lon="4.77674">
        <ele>179</ele>
        <time>2018-02-12T14:31:33Z</time>
      </trkpt>
      <trkpt lat="45.90819" lon="4.77673">
        <ele>179</ele>
        <time>2018-02-12T14:31:34Z</time>
      </trkpt>
      <trkpt lat="45.90812" lon="4.77672">
        <ele>179</ele>
        <time>2018-02-12T14:31:36Z</time>
      </trkpt>
      <trkpt lat="45.90808" lon="4.77671">
        <ele>179</ele>
        <time>2018-02-12T14:31:37Z</time>
      </trkpt>
      <trkpt lat="45.908" lon="4.77669">
        <ele>179</ele>
        <time>2018-02-12T14:31:39Z</time>
      </trkpt>
      <trkpt lat="45.90796" lon="4.77669">
        <ele>179</ele>
        <time>2018-02-12T14:31:40Z</time>
      </trkpt>
      <trkpt lat="45.90788" lon="4.77667">
        <ele>180</ele>
        <time>2018-02-12T14:31:42Z</time>
      </trkpt>
      <trkpt lat="45.90784" lon="4.77666">
        <ele>180</ele>
        <time>2018-02-12T14:31:43Z</time>
      </trkpt>
      <trkpt lat="45.90776" lon="4.77663">
        <ele>180</ele>
        <time>2018-02-12T14:31:45Z</time>
      </trkpt>
      <trkpt lat="45.90771" lon="4.77661">
        <ele>180</ele>
        <time>2018-02-12T14:31:46Z</time>
      </trkpt>
      <trkpt lat="45.90766" lon="4.77658">
        <ele>180</ele>
        <time>2018-02-12T14:31:47Z</time>
      </trkpt>
      <trkpt lat="45.90761" lon="4.77657">
        <ele>180</ele>
        <time>2018-02-12T14:31:48Z</time>
      </trkpt>
      <trkpt lat="45.90756" lon="4.77653">
        <ele>180</ele>
        <time>2018-02-12T14:31:49Z</time>
      </trkpt>
      <trkpt lat="45.90752" lon="4.7765">
        <ele>180</ele>
        <time>2018-02-12T14:31:50Z</time>
      </trkpt>
      <trkpt lat="45.90748" lon="4.77647">
        <ele>180</ele>
        <time>2018-02-12T14:31:51Z</time>
      </trkpt>
      <trkpt lat="45.90743" lon="4.77646">
        <ele>180</ele>
        <time>2018-02-12T14:31:52Z</time>
      </trkpt>
      <trkpt lat="45.90737" lon="4.77648">
        <ele>180</ele>
        <time>2018-02-12T14:31:53Z</time>
      </trkpt>
      <trkpt lat="45.90732" lon="4.77647">
        <ele>180</ele>
        <time>2018-02-12T14:31:54Z</time>
      </trkpt>
      <trkpt lat="45.90726" lon="4.77646">
        <ele>180</ele>
        <time>2018-02-12T14:31:55Z</time>
      </trkpt>
      <trkpt lat="45.9072" lon="4.77645">
        <ele>180</ele>
        <time>2018-02-12T14:31:56Z</time>
      </trkpt>
      <trkpt lat="45.90715" lon="4.77644">
        <ele>180</ele>
        <time>2018-02-12T14:31:57Z</time>
      </trkpt>
      <trkpt lat="45.9071" lon="4.77644">
        <ele>180</ele>
        <time>2018-02-12T14:31:58Z</time>
      </trkpt>
      <trkpt lat="45.90703" lon="4.77642">
        <ele>179</ele>
        <time>2018-02-12T14:31:59Z</time>
      </trkpt>
      <trkpt lat="45.90697" lon="4.77641">
        <ele>179</ele>
        <time>2018-02-12T14:32:00Z</time>
      </trkpt>
      <trkpt lat="45.90692" lon="4.77639">
        <ele>179</ele>
        <time>2018-02-12T14:32:01Z</time>
      </trkpt>
      <trkpt lat="45.90685" lon="4.77637">
        <ele>179</ele>
        <time>2018-02-12T14:32:02Z</time>
      </trkpt>
      <trkpt lat="45.90679" lon="4.77635">
        <ele>179</ele>
        <time>2018-02-12T14:32:03Z</time>
      </trkpt>
      <trkpt lat="45.90672" lon="4.77633">
        <ele>179</ele>
        <time>2018-02-12T14:32:04Z</time>
      </trkpt>
      <trkpt lat="45.90666" lon="4.77631">
        <ele>179</ele>
        <time>2018-02-12T14:32:05Z</time>
      </trkpt>
      <trkpt lat="45.9066" lon="4.77631">
        <ele>179</ele>
        <time>2018-02-12T14:32:06Z</time>
      </trkpt>
      <trkpt lat="45.90653" lon="4.7763">
        <ele>179</ele>
        <time>2018-02-12T14:32:07Z</time>
      </trkpt>
      <trkpt lat="45.90647" lon="4.7763">
        <ele>179</ele>
        <time>2018-02-12T14:32:08Z</time>
      </trkpt>
      <trkpt lat="45.9064" lon="4.7763">
        <ele>179</ele>
        <time>2018-02-12T14:32:09Z</time>
      </trkpt>
      <trkpt lat="45.90633" lon="4.77629">
        <ele>179</ele>
        <time>2018-02-12T14:32:10Z</time>
      </trkpt>
      <trkpt lat="45.90626" lon="4.77629">
        <ele>179</ele>
        <time>2018-02-12T14:32:11Z</time>
      </trkpt>
      <trkpt lat="45.90619" lon="4.77629">
        <ele>179</ele>
        <time>2018-02-12T14:32:12Z</time>
      </trkpt>
      <trkpt lat="45.90612" lon="4.7763">
        <ele>179</ele>
        <time>2018-02-12T14:32:13Z</time>
      </trkpt>
      <trkpt lat="45.90605" lon="4.77631">
        <ele>179</ele>
        <time>2018-02-12T14:32:14Z</time>
      </trkpt>
      <trkpt lat="45.906" lon="4.77632">
        <ele>179</ele>
        <time>2018-02-12T14:32:15Z</time>
      </trkpt>
      <trkpt lat="45.90593" lon="4.77633">
        <ele>179</ele>
        <time>2018-02-12T14:32:16Z</time>
      </trkpt>
      <trkpt lat="45.90586" lon="4.77633">
        <ele>179</ele>
        <time>2018-02-12T14:32:17Z</time>
      </trkpt>
      <trkpt lat="45.9058" lon="4.77634">
        <ele>178</ele>
        <time>2018-02-12T14:32:18Z</time>
      </trkpt>
      <trkpt lat="45.90573" lon="4.77636">
        <ele>178</ele>
        <time>2018-02-12T14:32:19Z</time>
      </trkpt>
      <trkpt lat="45.90567" lon="4.77637">
        <ele>178</ele>
        <time>2018-02-12T14:32:20Z</time>
      </trkpt>
      <trkpt lat="45.90561" lon="4.77638">
        <ele>178</ele>
        <time>2018-02-12T14:32:21Z</time>
      </trkpt>
      <trkpt lat="45.90555" lon="4.77638">
        <ele>178</ele>
        <time>2018-02-12T14:32:22Z</time>
      </trkpt>
      <trkpt lat="45.90548" lon="4.77639">
        <ele>178</ele>
        <time>2018-02-12T14:32:23Z</time>
      </trkpt>
      <trkpt lat="45.90543" lon="4.77639">
        <ele>178</ele>
        <time>2018-02-12T14:32:24Z</time>
      </trkpt>
      <trkpt lat="45.90537" lon="4.77641">
        <ele>178</ele>
        <time>2018-02-12T14:32:25Z</time>
      </trkpt>
      <trkpt lat="45.90531" lon="4.77641">
        <ele>178</ele>
        <time>2018-02-12T14:32:26Z</time>
      </trkpt>
      <trkpt lat="45.90525" lon="4.77642">
        <ele>178</ele>
        <time>2018-02-12T14:32:27Z</time>
      </trkpt>
      <trkpt lat="45.90519" lon="4.77643">
        <ele>178</ele>
        <time>2018-02-12T14:32:28Z</time>
      </trkpt>
      <trkpt lat="45.90513" lon="4.77644">
        <ele>178</ele>
        <time>2018-02-12T14:32:29Z</time>
      </trkpt>
      <trkpt lat="45.90507" lon="4.77645">
        <ele>178</ele>
        <time>2018-02-12T14:32:30Z</time>
      </trkpt>
      <trkpt lat="45.905" lon="4.77647">
        <ele>178</ele>
        <time>2018-02-12T14:32:31Z</time>
      </trkpt>
      <trkpt lat="45.90494" lon="4.77648">
        <ele>179</ele>
        <time>2018-02-12T14:32:32Z</time>
      </trkpt>
      <trkpt lat="45.90489" lon="4.77649">
        <ele>179</ele>
        <time>2018-02-12T14:32:33Z</time>
      </trkpt>
      <trkpt lat="45.90483" lon="4.77649">
        <ele>179</ele>
        <time>2018-02-12T14:32:34Z</time>
      </trkpt>
      <trkpt lat="45.90477" lon="4.7765">
        <ele>179</ele>
        <time>2018-02-12T14:32:35Z</time>
      </trkpt>
      <trkpt lat="45.90471" lon="4.77651">
        <ele>179</ele>
        <time>2018-02-12T14:32:36Z</time>
      </trkpt>
      <trkpt lat="45.90465" lon="4.7765">
        <ele>179</ele>
        <time>2018-02-12T14:32:37Z</time>
      </trkpt>
      <trkpt lat="45.90459" lon="4.77651">
        <ele>179</ele>
        <time>2018-02-12T14:32:38Z</time>
      </trkpt>
      <trkpt lat="45.90453" lon="4.77652">
        <ele>179</ele>
        <time>2018-02-12T14:32:39Z</time>
      </trkpt>
      <trkpt lat="45.90447" lon="4.77653">
        <ele>179</ele>
        <time>2018-02-12T14:32:40Z</time>
      </trkpt>
      <trkpt lat="45.90441" lon="4.77654">
        <ele>180</ele>
        <time>2018-02-12T14:32:41Z</time>
      </trkpt>
      <trkpt lat="45.90435" lon="4.77654">
        <ele>180</ele>
        <time>2018-02-12T14:32:42Z</time>
      </trkpt>
      <trkpt lat="45.9043" lon="4.77655">
        <ele>180</ele>
        <time>2018-02-12T14:32:43Z</time>
      </trkpt>
      <trkpt lat="45.90424" lon="4.77656">
        <ele>180</ele>
        <time>2018-02-12T14:32:44Z</time>
      </trkpt>
      <trkpt lat="45.90418" lon="4.77657">
        <ele>180</ele>
        <time>2018-02-12T14:32:45Z</time>
      </trkpt>
      <trkpt lat="45.90413" lon="4.77658">
        <ele>181</ele>
        <time>2018-02-12T14:32:46Z</time>
      </trkpt>
      <trkpt lat="45.90407" lon="4.77657">
        <ele>181</ele>
        <time>2018-02-12T14:32:47Z</time>
      </trkpt>
      <trkpt lat="45.90402" lon="4.77659">
        <ele>181</ele>
        <time>2018-02-12T14:32:48Z</time>
      </trkpt>
      <trkpt lat="45.90397" lon="4.7766">
        <ele>181</ele>
        <time>2018-02-12T14:32:49Z</time>
      </trkpt>
      <trkpt lat="45.90391" lon="4.77661">
        <ele>181</ele>
        <time>2018-02-12T14:32:50Z</time>
      </trkpt>
      <trkpt lat="45.90385" lon="4.77661">
        <ele>181</ele>
        <time>2018-02-12T14:32:51Z</time>
      </trkpt>
      <trkpt lat="45.9038" lon="4.77662">
        <ele>181</ele>
        <time>2018-02-12T14:32:52Z</time>
      </trkpt>
      <trkpt lat="45.90374" lon="4.77663">
        <ele>181</ele>
        <time>2018-02-12T14:32:53Z</time>
      </trkpt>
      <trkpt lat="45.90369" lon="4.77663">
        <ele>181</ele>
        <time>2018-02-12T14:32:54Z</time>
      </trkpt>
      <trkpt lat="45.9036" lon="4.77665">
        <ele>181</ele>
        <time>2018-02-12T14:32:56Z</time>
      </trkpt>
      <trkpt lat="45.90354" lon="4.77666">
        <ele>181</ele>
        <time>2018-02-12T14:32:57Z</time>
      </trkpt>
      <trkpt lat="45.90348" lon="4.77666">
        <ele>181</ele>
        <time>2018-02-12T14:32:58Z</time>
      </trkpt>
      <trkpt lat="45.90342" lon="4.77667">
        <ele>182</ele>
        <time>2018-02-12T14:32:59Z</time>
      </trkpt>
      <trkpt lat="45.90337" lon="4.77668">
        <ele>182</ele>
        <time>2018-02-12T14:33:00Z</time>
      </trkpt>
      <trkpt lat="45.90332" lon="4.77669">
        <ele>182</ele>
        <time>2018-02-12T14:33:01Z</time>
      </trkpt>
      <trkpt lat="45.90327" lon="4.7767">
        <ele>182</ele>
        <time>2018-02-12T14:33:02Z</time>
      </trkpt>
      <trkpt lat="45.90322" lon="4.7767">
        <ele>182</ele>
        <time>2018-02-12T14:33:03Z</time>
      </trkpt>
      <trkpt lat="45.90317" lon="4.77671">
        <ele>182</ele>
        <time>2018-02-12T14:33:04Z</time>
      </trkpt>
      <trkpt lat="45.90312" lon="4.77672">
        <ele>182</ele>
        <time>2018-02-12T14:33:05Z</time>
      </trkpt>
      <trkpt lat="45.90307" lon="4.77672">
        <ele>182</ele>
        <time>2018-02-12T14:33:06Z</time>
      </trkpt>
      <trkpt lat="45.90302" lon="4.77672">
        <ele>182</ele>
        <time>2018-02-12T14:33:07Z</time>
      </trkpt>
      <trkpt lat="45.90297" lon="4.77672">
        <ele>182</ele>
        <time>2018-02-12T14:33:08Z</time>
      </trkpt>
      <trkpt lat="45.90291" lon="4.77672">
        <ele>182</ele>
        <time>2018-02-12T14:33:09Z</time>
      </trkpt>
      <trkpt lat="45.90282" lon="4.77672">
        <ele>182</ele>
        <time>2018-02-12T14:33:11Z</time>
      </trkpt>
      <trkpt lat="45.90278" lon="4.77672">
        <ele>182</ele>
        <time>2018-02-12T14:33:12Z</time>
      </trkpt>
      <trkpt lat="45.90272" lon="4.77673">
        <ele>182</ele>
        <time>2018-02-12T14:33:13Z</time>
      </trkpt>
      <trkpt lat="45.90268" lon="4.77672">
        <ele>182</ele>
        <time>2018-02-12T14:33:14Z</time>
      </trkpt>
      <trkpt lat="45.90263" lon="4.77672">
        <ele>182</ele>
        <time>2018-02-12T14:33:15Z</time>
      </trkpt>
      <trkpt lat="45.90257" lon="4.77672">
        <ele>182</ele>
        <time>2018-02-12T14:33:16Z</time>
      </trkpt>
      <trkpt lat="45.90252" lon="4.77673">
        <ele>182</ele>
        <time>2018-02-12T14:33:17Z</time>
      </trkpt>
      <trkpt lat="45.90248" lon="4.77673">
        <ele>183</ele>
        <time>2018-02-12T14:33:18Z</time>
      </trkpt>
      <trkpt lat="45.90242" lon="4.77674">
        <ele>183</ele>
        <time>2018-02-12T14:33:19Z</time>
      </trkpt>
      <trkpt lat="45.90238" lon="4.77675">
        <ele>183</ele>
        <time>2018-02-12T14:33:20Z</time>
      </trkpt>
      <trkpt lat="45.90233" lon="4.77675">
        <ele>183</ele>
        <time>2018-02-12T14:33:21Z</time>
      </trkpt>
      <trkpt lat="45.90229" lon="4.77675">
        <ele>184</ele>
        <time>2018-02-12T14:33:22Z</time>
      </trkpt>
      <trkpt lat="45.90224" lon="4.77675">
        <ele>184</ele>
        <time>2018-02-12T14:33:23Z</time>
      </trkpt>
      <trkpt lat="45.90219" lon="4.77675">
        <ele>184</ele>
        <time>2018-02-12T14:33:24Z</time>
      </trkpt>
      <trkpt lat="45.90212" lon="4.77674">
        <ele>184</ele>
        <time>2018-02-12T14:33:26Z</time>
      </trkpt>
      <trkpt lat="45.90207" lon="4.77674">
        <ele>184</ele>
        <time>2018-02-12T14:33:27Z</time>
      </trkpt>
      <trkpt lat="45.90198" lon="4.77674">
        <ele>184</ele>
        <time>2018-02-12T14:33:29Z</time>
      </trkpt>
      <trkpt lat="45.90193" lon="4.77675">
        <ele>185</ele>
        <time>2018-02-12T14:33:30Z</time>
      </trkpt>
      <trkpt lat="45.90188" lon="4.77674">
        <ele>185</ele>
        <time>2018-02-12T14:33:31Z</time>
      </trkpt>
      <trkpt lat="45.90184" lon="4.77673">
        <ele>185</ele>
        <time>2018-02-12T14:33:32Z</time>
      </trkpt>
      <trkpt lat="45.9018" lon="4.77673">
        <ele>185</ele>
        <time>2018-02-12T14:33:33Z</time>
      </trkpt>
      <trkpt lat="45.90175" lon="4.77673">
        <ele>185</ele>
        <time>2018-02-12T14:33:34Z</time>
      </trkpt>
      <trkpt lat="45.90169" lon="4.77673">
        <ele>185</ele>
        <time>2018-02-12T14:33:35Z</time>
      </trkpt>
      <trkpt lat="45.90165" lon="4.77672">
        <ele>185</ele>
        <time>2018-02-12T14:33:36Z</time>
      </trkpt>
      <trkpt lat="45.90157" lon="4.77672">
        <ele>185</ele>
        <time>2018-02-12T14:33:38Z</time>
      </trkpt>
      <trkpt lat="45.90152" lon="4.77672">
        <ele>185</ele>
        <time>2018-02-12T14:33:39Z</time>
      </trkpt>
      <trkpt lat="45.90147" lon="4.77673">
        <ele>185</ele>
        <time>2018-02-12T14:33:40Z</time>
      </trkpt>
      <trkpt lat="45.90142" lon="4.77672">
        <ele>185</ele>
        <time>2018-02-12T14:33:41Z</time>
      </trkpt>
      <trkpt lat="45.90137" lon="4.77672">
        <ele>185</ele>
        <time>2018-02-12T14:33:42Z</time>
      </trkpt>
      <trkpt lat="45.90132" lon="4.77672">
        <ele>185</ele>
        <time>2018-02-12T14:33:43Z</time>
      </trkpt>
      <trkpt lat="45.90128" lon="4.77672">
        <ele>185</ele>
        <time>2018-02-12T14:33:44Z</time>
      </trkpt>
      <trkpt lat="45.90123" lon="4.77671">
        <ele>184</ele>
        <time>2018-02-12T14:33:45Z</time>
      </trkpt>
      <trkpt lat="45.90118" lon="4.77672">
        <ele>184</ele>
        <time>2018-02-12T14:33:46Z</time>
      </trkpt>
      <trkpt lat="45.90112" lon="4.77673">
        <ele>184</ele>
        <time>2018-02-12T14:33:47Z</time>
      </trkpt>
      <trkpt lat="45.90107" lon="4.77672">
        <ele>184</ele>
        <time>2018-02-12T14:33:48Z</time>
      </trkpt>
      <trkpt lat="45.90102" lon="4.77672">
        <ele>184</ele>
        <time>2018-02-12T14:33:49Z</time>
      </trkpt>
      <trkpt lat="45.90097" lon="4.77672">
        <ele>184</ele>
        <time>2018-02-12T14:33:50Z</time>
      </trkpt>
      <trkpt lat="45.90092" lon="4.77671">
        <ele>184</ele>
        <time>2018-02-12T14:33:51Z</time>
      </trkpt>
      <trkpt lat="45.90086" lon="4.7767">
        <ele>183</ele>
        <time>2018-02-12T14:33:52Z</time>
      </trkpt>
      <trkpt lat="45.90082" lon="4.7767">
        <ele>183</ele>
        <time>2018-02-12T14:33:53Z</time>
      </trkpt>
      <trkpt lat="45.90076" lon="4.7767">
        <ele>184</ele>
        <time>2018-02-12T14:33:54Z</time>
      </trkpt>
      <trkpt lat="45.9007" lon="4.7767">
        <ele>184</ele>
        <time>2018-02-12T14:33:55Z</time>
      </trkpt>
      <trkpt lat="45.90065" lon="4.77669">
        <ele>184</ele>
        <time>2018-02-12T14:33:56Z</time>
      </trkpt>
      <trkpt lat="45.9006" lon="4.77669">
        <ele>184</ele>
        <time>2018-02-12T14:33:57Z</time>
      </trkpt>
      <trkpt lat="45.90055" lon="4.77669">
        <ele>184</ele>
        <time>2018-02-12T14:33:58Z</time>
      </trkpt>
      <trkpt lat="45.90049" lon="4.77669">
        <ele>184</ele>
        <time>2018-02-12T14:33:59Z</time>
      </trkpt>
      <trkpt lat="45.90044" lon="4.7767">
        <ele>185</ele>
        <time>2018-02-12T14:34:00Z</time>
      </trkpt>
      <trkpt lat="45.90038" lon="4.77671">
        <ele>185</ele>
        <time>2018-02-12T14:34:01Z</time>
      </trkpt>
      <trkpt lat="45.90033" lon="4.77671">
        <ele>185</ele>
        <time>2018-02-12T14:34:02Z</time>
      </trkpt>
      <trkpt lat="45.90028" lon="4.77671">
        <ele>185</ele>
        <time>2018-02-12T14:34:03Z</time>
      </trkpt>
      <trkpt lat="45.90022" lon="4.77671">
        <ele>185</ele>
        <time>2018-02-12T14:34:04Z</time>
      </trkpt>
      <trkpt lat="45.90017" lon="4.77671">
        <ele>185</ele>
        <time>2018-02-12T14:34:05Z</time>
      </trkpt>
      <trkpt lat="45.90012" lon="4.77671">
        <ele>185</ele>
        <time>2018-02-12T14:34:06Z</time>
      </trkpt>
      <trkpt lat="45.90007" lon="4.77671">
        <ele>186</ele>
        <time>2018-02-12T14:34:07Z</time>
      </trkpt>
      <trkpt lat="45.90002" lon="4.77671">
        <ele>186</ele>
        <time>2018-02-12T14:34:08Z</time>
      </trkpt>
      <trkpt lat="45.89998" lon="4.7767">
        <ele>186</ele>
        <time>2018-02-12T14:34:09Z</time>
      </trkpt>
      <trkpt lat="45.89989" lon="4.7767">
        <ele>186</ele>
        <time>2018-02-12T14:34:11Z</time>
      </trkpt>
      <trkpt lat="45.89984" lon="4.7767">
        <ele>187</ele>
        <time>2018-02-12T14:34:12Z</time>
      </trkpt>
      <trkpt lat="45.89977" lon="4.77669">
        <ele>187</ele>
        <time>2018-02-12T14:34:14Z</time>
      </trkpt>
      <trkpt lat="45.89971" lon="4.77669">
        <ele>187</ele>
        <time>2018-02-12T14:34:15Z</time>
      </trkpt>
      <trkpt lat="45.89966" lon="4.7767">
        <ele>187</ele>
        <time>2018-02-12T14:34:16Z</time>
      </trkpt>
      <trkpt lat="45.89961" lon="4.7767">
        <ele>187</ele>
        <time>2018-02-12T14:34:17Z</time>
      </trkpt>
      <trkpt lat="45.89955" lon="4.7767">
        <ele>187</ele>
        <time>2018-02-12T14:34:18Z</time>
      </trkpt>
      <trkpt lat="45.89949" lon="4.77671">
        <ele>187</ele>
        <time>2018-02-12T14:34:19Z</time>
      </trkpt>
      <trkpt lat="45.89944" lon="4.77672">
        <ele>187</ele>
        <time>2018-02-12T14:34:20Z</time>
      </trkpt>
      <trkpt lat="45.89939" lon="4.77672">
        <ele>187</ele>
        <time>2018-02-12T14:34:21Z</time>
      </trkpt>
      <trkpt lat="45.89934" lon="4.77671">
        <ele>187</ele>
        <time>2018-02-12T14:34:22Z</time>
      </trkpt>
      <trkpt lat="45.89929" lon="4.77671">
        <ele>187</ele>
        <time>2018-02-12T14:34:23Z</time>
      </trkpt>
      <trkpt lat="45.89925" lon="4.77671">
        <ele>187</ele>
        <time>2018-02-12T14:34:24Z</time>
      </trkpt>
      <trkpt lat="45.8992" lon="4.77672">
        <ele>187</ele>
        <time>2018-02-12T14:34:25Z</time>
      </trkpt>
      <trkpt lat="45.89911" lon="4.77672">
        <ele>188</ele>
        <time>2018-02-12T14:34:27Z</time>
      </trkpt>
      <trkpt lat="45.89904" lon="4.77671">
        <ele>188</ele>
        <time>2018-02-12T14:34:28Z</time>
      </trkpt>
      <trkpt lat="45.89899" lon="4.77671">
        <ele>188</ele>
        <time>2018-02-12T14:34:29Z</time>
      </trkpt>
      <trkpt lat="45.89894" lon="4.77671">
        <ele>188</ele>
        <time>2018-02-12T14:34:30Z</time>
      </trkpt>
      <trkpt lat="45.89889" lon="4.77671">
        <ele>188</ele>
        <time>2018-02-12T14:34:31Z</time>
      </trkpt>
      <trkpt lat="45.89884" lon="4.77671">
        <ele>189</ele>
        <time>2018-02-12T14:34:32Z</time>
      </trkpt>
      <trkpt lat="45.89879" lon="4.77671">
        <ele>189</ele>
        <time>2018-02-12T14:34:33Z</time>
      </trkpt>
      <trkpt lat="45.89874" lon="4.77671">
        <ele>189</ele>
        <time>2018-02-12T14:34:34Z</time>
      </trkpt>
      <trkpt lat="45.89869" lon="4.7767">
        <ele>189</ele>
        <time>2018-02-12T14:34:35Z</time>
      </trkpt>
      <trkpt lat="45.89865" lon="4.7767">
        <ele>189</ele>
        <time>2018-02-12T14:34:36Z</time>
      </trkpt>
      <trkpt lat="45.89856" lon="4.77669">
        <ele>189</ele>
        <time>2018-02-12T14:34:38Z</time>
      </trkpt>
      <trkpt lat="45.89852" lon="4.77669">
        <ele>189</ele>
        <time>2018-02-12T14:34:39Z</time>
      </trkpt>
      <trkpt lat="45.89844" lon="4.77668">
        <ele>189</ele>
        <time>2018-02-12T14:34:41Z</time>
      </trkpt>
      <trkpt lat="45.8984" lon="4.77668">
        <ele>189</ele>
        <time>2018-02-12T14:34:42Z</time>
      </trkpt>
      <trkpt lat="45.89831" lon="4.77668">
        <ele>189</ele>
        <time>2018-02-12T14:34:44Z</time>
      </trkpt>
      <trkpt lat="45.89828" lon="4.77668">
        <ele>189</ele>
        <time>2018-02-12T14:34:45Z</time>
      </trkpt>
      <trkpt lat="45.8982" lon="4.77669">
        <ele>190</ele>
        <time>2018-02-12T14:34:47Z</time>
      </trkpt>
      <trkpt lat="45.89816" lon="4.77668">
        <ele>190</ele>
        <time>2018-02-12T14:34:48Z</time>
      </trkpt>
      <trkpt lat="45.89809" lon="4.77667">
        <ele>190</ele>
        <time>2018-02-12T14:34:50Z</time>
      </trkpt>
      <trkpt lat="45.89805" lon="4.77667">
        <ele>190</ele>
        <time>2018-02-12T14:34:51Z</time>
      </trkpt>
      <trkpt lat="45.89798" lon="4.77667">
        <ele>191</ele>
        <time>2018-02-12T14:34:53Z</time>
      </trkpt>
      <trkpt lat="45.89794" lon="4.77667">
        <ele>191</ele>
        <time>2018-02-12T14:34:54Z</time>
      </trkpt>
      <trkpt lat="45.89787" lon="4.77667">
        <ele>191</ele>
        <time>2018-02-12T14:34:56Z</time>
      </trkpt>
      <trkpt lat="45.89784" lon="4.77667">
        <ele>191</ele>
        <time>2018-02-12T14:34:57Z</time>
      </trkpt>
      <trkpt lat="45.89777" lon="4.77668">
        <ele>191</ele>
        <time>2018-02-12T14:34:59Z</time>
      </trkpt>
      <trkpt lat="45.89774" lon="4.77667">
        <ele>191</ele>
        <time>2018-02-12T14:35:00Z</time>
      </trkpt>
      <trkpt lat="45.89766" lon="4.77666">
        <ele>190</ele>
        <time>2018-02-12T14:35:03Z</time>
      </trkpt>
      <trkpt lat="45.89763" lon="4.77666">
        <ele>190</ele>
        <time>2018-02-12T14:35:04Z</time>
      </trkpt>
      <trkpt lat="45.89755" lon="4.77665">
        <ele>191</ele>
        <time>2018-02-12T14:35:06Z</time>
      </trkpt>
      <trkpt lat="45.89751" lon="4.77664">
        <ele>192</ele>
        <time>2018-02-12T14:35:07Z</time>
      </trkpt>
      <trkpt lat="45.89744" lon="4.77661">
        <ele>191</ele>
        <time>2018-02-12T14:35:09Z</time>
      </trkpt>
      <trkpt lat="45.8974" lon="4.7766">
        <ele>191</ele>
        <time>2018-02-12T14:35:10Z</time>
      </trkpt>
      <trkpt lat="45.89731" lon="4.77659">
        <ele>191</ele>
        <time>2018-02-12T14:35:12Z</time>
      </trkpt>
      <trkpt lat="45.89727" lon="4.77658">
        <ele>191</ele>
        <time>2018-02-12T14:35:13Z</time>
      </trkpt>
      <trkpt lat="45.89718" lon="4.77656">
        <ele>190</ele>
        <time>2018-02-12T14:35:15Z</time>
      </trkpt>
      <trkpt lat="45.89714" lon="4.77656">
        <ele>190</ele>
        <time>2018-02-12T14:35:16Z</time>
      </trkpt>
      <trkpt lat="45.89705" lon="4.77654">
        <ele>190</ele>
        <time>2018-02-12T14:35:18Z</time>
      </trkpt>
      <trkpt lat="45.89701" lon="4.77654">
        <ele>190</ele>
        <time>2018-02-12T14:35:19Z</time>
      </trkpt>
      <trkpt lat="45.89692" lon="4.77652">
        <ele>190</ele>
        <time>2018-02-12T14:35:21Z</time>
      </trkpt>
      <trkpt lat="45.89688" lon="4.77651">
        <ele>190</ele>
        <time>2018-02-12T14:35:22Z</time>
      </trkpt>
      <trkpt lat="45.8968" lon="4.77649">
        <ele>190</ele>
        <time>2018-02-12T14:35:24Z</time>
      </trkpt>
      <trkpt lat="45.89675" lon="4.77648">
        <ele>190</ele>
        <time>2018-02-12T14:35:25Z</time>
      </trkpt>
      <trkpt lat="45.8967" lon="4.77648">
        <ele>190</ele>
        <time>2018-02-12T14:35:26Z</time>
      </trkpt>
      <trkpt lat="45.89665" lon="4.77647">
        <ele>190</ele>
        <time>2018-02-12T14:35:27Z</time>
      </trkpt>
      <trkpt lat="45.8966" lon="4.77647">
        <ele>190</ele>
        <time>2018-02-12T14:35:28Z</time>
      </trkpt>
      <trkpt lat="45.89656" lon="4.77646">
        <ele>190</ele>
        <time>2018-02-12T14:35:29Z</time>
      </trkpt>
      <trkpt lat="45.89651" lon="4.77645">
        <ele>190</ele>
        <time>2018-02-12T14:35:30Z</time>
      </trkpt>
      <trkpt lat="45.89646" lon="4.77645">
        <ele>190</ele>
        <time>2018-02-12T14:35:31Z</time>
      </trkpt>
      <trkpt lat="45.8964" lon="4.77644">
        <ele>190</ele>
        <time>2018-02-12T14:35:33Z</time>
      </trkpt>
      <trkpt lat="45.89635" lon="4.77643">
        <ele>190</ele>
        <time>2018-02-12T14:35:34Z</time>
      </trkpt>
      <trkpt lat="45.89627" lon="4.77641">
        <ele>191</ele>
        <time>2018-02-12T14:35:36Z</time>
      </trkpt>
      <trkpt lat="45.89623" lon="4.7764">
        <ele>191</ele>
        <time>2018-02-12T14:35:37Z</time>
      </trkpt>
      <trkpt lat="45.89618" lon="4.77638">
        <ele>191</ele>
        <time>2018-02-12T14:35:38Z</time>
      </trkpt>
      <trkpt lat="45.89613" lon="4.77637">
        <ele>191</ele>
        <time>2018-02-12T14:35:39Z</time>
      </trkpt>
      <trkpt lat="45.89609" lon="4.77637">
        <ele>191</ele>
        <time>2018-02-12T14:35:40Z</time>
      </trkpt>
      <trkpt lat="45.89604" lon="4.77637">
        <ele>191</ele>
        <time>2018-02-12T14:35:41Z</time>
      </trkpt>
      <trkpt lat="45.89599" lon="4.77636">
        <ele>191</ele>
        <time>2018-02-12T14:35:42Z</time>
      </trkpt>
      <trkpt lat="45.89594" lon="4.77635">
        <ele>191</ele>
        <time>2018-02-12T14:35:43Z</time>
      </trkpt>
      <trkpt lat="45.8959" lon="4.77634">
        <ele>191</ele>
        <time>2018-02-12T14:35:44Z</time>
      </trkpt>
      <trkpt lat="45.89585" lon="4.77633">
        <ele>191</ele>
        <time>2018-02-12T14:35:45Z</time>
      </trkpt>
      <trkpt lat="45.89579" lon="4.77632">
        <ele>192</ele>
        <time>2018-02-12T14:35:46Z</time>
      </trkpt>
      <trkpt lat="45.89574" lon="4.77631">
        <ele>192</ele>
        <time>2018-02-12T14:35:47Z</time>
      </trkpt>
      <trkpt lat="45.8957" lon="4.7763">
        <ele>192</ele>
        <time>2018-02-12T14:35:48Z</time>
      </trkpt>
      <trkpt lat="45.89564" lon="4.77629">
        <ele>192</ele>
        <time>2018-02-12T14:35:49Z</time>
      </trkpt>
      <trkpt lat="45.8956" lon="4.77628">
        <ele>192</ele>
        <time>2018-02-12T14:35:50Z</time>
      </trkpt>
      <trkpt lat="45.89555" lon="4.77626">
        <ele>192</ele>
        <time>2018-02-12T14:35:51Z</time>
      </trkpt>
      <trkpt lat="45.89549" lon="4.77626">
        <ele>192</ele>
        <time>2018-02-12T14:35:52Z</time>
      </trkpt>
      <trkpt lat="45.89544" lon="4.77625">
        <ele>192</ele>
        <time>2018-02-12T14:35:53Z</time>
      </trkpt>
      <trkpt lat="45.89538" lon="4.77625">
        <ele>192</ele>
        <time>2018-02-12T14:35:54Z</time>
      </trkpt>
      <trkpt lat="45.89533" lon="4.77623">
        <ele>192</ele>
        <time>2018-02-12T14:35:55Z</time>
      </trkpt>
      <trkpt lat="45.89528" lon="4.77623">
        <ele>192</ele>
        <time>2018-02-12T14:35:56Z</time>
      </trkpt>
      <trkpt lat="45.89522" lon="4.77621">
        <ele>192</ele>
        <time>2018-02-12T14:35:57Z</time>
      </trkpt>
      <trkpt lat="45.89518" lon="4.7762">
        <ele>192</ele>
        <time>2018-02-12T14:35:58Z</time>
      </trkpt>
      <trkpt lat="45.89513" lon="4.77618">
        <ele>192</ele>
        <time>2018-02-12T14:35:59Z</time>
      </trkpt>
      <trkpt lat="45.89508" lon="4.77617">
        <ele>192</ele>
        <time>2018-02-12T14:36:00Z</time>
      </trkpt>
      <trkpt lat="45.89504" lon="4.77616">
        <ele>192</ele>
        <time>2018-02-12T14:36:01Z</time>
      </trkpt>
      <trkpt lat="45.89499" lon="4.77614">
        <ele>193</ele>
        <time>2018-02-12T14:36:02Z</time>
      </trkpt>
      <trkpt lat="45.89494" lon="4.77613">
        <ele>193</ele>
        <time>2018-02-12T14:36:03Z</time>
      </trkpt>
      <trkpt lat="45.89488" lon="4.77611">
        <ele>193</ele>
        <time>2018-02-12T14:36:04Z</time>
      </trkpt>
      <trkpt lat="45.89483" lon="4.7761">
        <ele>193</ele>
        <time>2018-02-12T14:36:05Z</time>
      </trkpt>
      <trkpt lat="45.89479" lon="4.77609">
        <ele>193</ele>
        <time>2018-02-12T14:36:06Z</time>
      </trkpt>
      <trkpt lat="45.89474" lon="4.77607">
        <ele>193</ele>
        <time>2018-02-12T14:36:07Z</time>
      </trkpt>
      <trkpt lat="45.89465" lon="4.77605">
        <ele>193</ele>
        <time>2018-02-12T14:36:09Z</time>
      </trkpt>
      <trkpt lat="45.89461" lon="4.77604">
        <ele>193</ele>
        <time>2018-02-12T14:36:10Z</time>
      </trkpt>
      <trkpt lat="45.89452" lon="4.776">
        <ele>193</ele>
        <time>2018-02-12T14:36:12Z</time>
      </trkpt>
      <trkpt lat="45.89447" lon="4.77598">
        <ele>193</ele>
        <time>2018-02-12T14:36:13Z</time>
      </trkpt>
      <trkpt lat="45.89443" lon="4.77597">
        <ele>193</ele>
        <time>2018-02-12T14:36:14Z</time>
      </trkpt>
      <trkpt lat="45.89438" lon="4.77594">
        <ele>193</ele>
        <time>2018-02-12T14:36:15Z</time>
      </trkpt>
      <trkpt lat="45.89433" lon="4.77592">
        <ele>193</ele>
        <time>2018-02-12T14:36:16Z</time>
      </trkpt>
      <trkpt lat="45.89429" lon="4.7759">
        <ele>194</ele>
        <time>2018-02-12T14:36:17Z</time>
      </trkpt>
      <trkpt lat="45.89423" lon="4.77587">
        <ele>194</ele>
        <time>2018-02-12T14:36:18Z</time>
      </trkpt>
      <trkpt lat="45.89418" lon="4.77586">
        <ele>194</ele>
        <time>2018-02-12T14:36:19Z</time>
      </trkpt>
      <trkpt lat="45.89413" lon="4.77584">
        <ele>194</ele>
        <time>2018-02-12T14:36:20Z</time>
      </trkpt>
      <trkpt lat="45.89408" lon="4.77582">
        <ele>194</ele>
        <time>2018-02-12T14:36:21Z</time>
      </trkpt>
      <trkpt lat="45.89403" lon="4.7758">
        <ele>194</ele>
        <time>2018-02-12T14:36:22Z</time>
      </trkpt>
      <trkpt lat="45.89398" lon="4.77579">
        <ele>194</ele>
        <time>2018-02-12T14:36:23Z</time>
      </trkpt>
      <trkpt lat="45.89393" lon="4.77576">
        <ele>194</ele>
        <time>2018-02-12T14:36:24Z</time>
      </trkpt>
      <trkpt lat="45.89388" lon="4.77574">
        <ele>194</ele>
        <time>2018-02-12T14:36:25Z</time>
      </trkpt>
      <trkpt lat="45.89383" lon="4.77571">
        <ele>194</ele>
        <time>2018-02-12T14:36:26Z</time>
      </trkpt>
      <trkpt lat="45.89377" lon="4.77569">
        <ele>194</ele>
        <time>2018-02-12T14:36:27Z</time>
      </trkpt>
      <trkpt lat="45.89372" lon="4.77566">
        <ele>194</ele>
        <time>2018-02-12T14:36:28Z</time>
      </trkpt>
      <trkpt lat="45.89367" lon="4.77564">
        <ele>194</ele>
        <time>2018-02-12T14:36:29Z</time>
      </trkpt>
      <trkpt lat="45.89361" lon="4.77562">
        <ele>194</ele>
        <time>2018-02-12T14:36:30Z</time>
      </trkpt>
      <trkpt lat="45.89356" lon="4.77559">
        <ele>194</ele>
        <time>2018-02-12T14:36:31Z</time>
      </trkpt>
      <trkpt lat="45.89351" lon="4.77557">
        <ele>194</ele>
        <time>2018-02-12T14:36:32Z</time>
      </trkpt>
      <trkpt lat="45.89346" lon="4.77554">
        <ele>194</ele>
        <time>2018-02-12T14:36:33Z</time>
      </trkpt>
      <trkpt lat="45.89341" lon="4.77552">
        <ele>194</ele>
        <time>2018-02-12T14:36:34Z</time>
      </trkpt>
      <trkpt lat="45.89336" lon="4.77551">
        <ele>194</ele>
        <time>2018-02-12T14:36:35Z</time>
      </trkpt>
      <trkpt lat="45.89331" lon="4.77549">
        <ele>194</ele>
        <time>2018-02-12T14:36:36Z</time>
      </trkpt>
      <trkpt lat="45.89326" lon="4.77547">
        <ele>194</ele>
        <time>2018-02-12T14:36:37Z</time>
      </trkpt>
      <trkpt lat="45.89321" lon="4.77544">
        <ele>194</ele>
        <time>2018-02-12T14:36:38Z</time>
      </trkpt>
      <trkpt lat="45.89316" lon="4.77543">
        <ele>194</ele>
        <time>2018-02-12T14:36:39Z</time>
      </trkpt>
      <trkpt lat="45.8931" lon="4.77541">
        <ele>194</ele>
        <time>2018-02-12T14:36:40Z</time>
      </trkpt>
      <trkpt lat="45.89304" lon="4.7754">
        <ele>194</ele>
        <time>2018-02-12T14:36:41Z</time>
      </trkpt>
      <trkpt lat="45.89299" lon="4.77538">
        <ele>194</ele>
        <time>2018-02-12T14:36:42Z</time>
      </trkpt>
      <trkpt lat="45.89296" lon="4.77535">
        <ele>194</ele>
        <time>2018-02-12T14:36:43Z</time>
      </trkpt>
      <trkpt lat="45.89291" lon="4.77533">
        <ele>193</ele>
        <time>2018-02-12T14:36:44Z</time>
      </trkpt>
      <trkpt lat="45.89285" lon="4.77531">
        <ele>193</ele>
        <time>2018-02-12T14:36:45Z</time>
      </trkpt>
      <trkpt lat="45.8928" lon="4.77529">
        <ele>193</ele>
        <time>2018-02-12T14:36:46Z</time>
      </trkpt>
      <trkpt lat="45.89275" lon="4.77528">
        <ele>193</ele>
        <time>2018-02-12T14:36:47Z</time>
      </trkpt>
      <trkpt lat="45.8927" lon="4.77527">
        <ele>193</ele>
        <time>2018-02-12T14:36:48Z</time>
      </trkpt>
      <trkpt lat="45.89265" lon="4.77527">
        <ele>193</ele>
        <time>2018-02-12T14:36:49Z</time>
      </trkpt>
      <trkpt lat="45.8926" lon="4.77527">
        <ele>193</ele>
        <time>2018-02-12T14:36:50Z</time>
      </trkpt>
      <trkpt lat="45.89256" lon="4.77527">
        <ele>193</ele>
        <time>2018-02-12T14:36:51Z</time>
      </trkpt>
      <trkpt lat="45.89251" lon="4.77526">
        <ele>193</ele>
        <time>2018-02-12T14:36:52Z</time>
      </trkpt>
      <trkpt lat="45.89246" lon="4.77526">
        <ele>193</ele>
        <time>2018-02-12T14:36:53Z</time>
      </trkpt>
      <trkpt lat="45.89241" lon="4.77527">
        <ele>193</ele>
        <time>2018-02-12T14:36:54Z</time>
      </trkpt>
      <trkpt lat="45.89236" lon="4.77529">
        <ele>193</ele>
        <time>2018-02-12T14:36:55Z</time>
      </trkpt>
      <trkpt lat="45.89231" lon="4.7753">
        <ele>194</ele>
        <time>2018-02-12T14:36:56Z</time>
      </trkpt>
      <trkpt lat="45.89226" lon="4.77531">
        <ele>194</ele>
        <time>2018-02-12T14:36:57Z</time>
      </trkpt>
      <trkpt lat="45.8922" lon="4.77531">
        <ele>194</ele>
        <time>2018-02-12T14:36:58Z</time>
      </trkpt>
      <trkpt lat="45.89215" lon="4.77532">
        <ele>194</ele>
        <time>2018-02-12T14:36:59Z</time>
      </trkpt>
      <trkpt lat="45.8921" lon="4.77534">
        <ele>194</ele>
        <time>2018-02-12T14:37:00Z</time>
      </trkpt>
      <trkpt lat="45.89204" lon="4.77536">
        <ele>194</ele>
        <time>2018-02-12T14:37:01Z</time>
      </trkpt>
      <trkpt lat="45.89198" lon="4.77537">
        <ele>194</ele>
        <time>2018-02-12T14:37:02Z</time>
      </trkpt>
      <trkpt lat="45.89193" lon="4.77539">
        <ele>194</ele>
        <time>2018-02-12T14:37:03Z</time>
      </trkpt>
      <trkpt lat="45.89188" lon="4.7754">
        <ele>194</ele>
        <time>2018-02-12T14:37:04Z</time>
      </trkpt>
      <trkpt lat="45.89183" lon="4.77541">
        <ele>194</ele>
        <time>2018-02-12T14:37:05Z</time>
      </trkpt>
      <trkpt lat="45.89178" lon="4.77542">
        <ele>194</ele>
        <time>2018-02-12T14:37:06Z</time>
      </trkpt>
      <trkpt lat="45.89173" lon="4.77542">
        <ele>194</ele>
        <time>2018-02-12T14:37:07Z</time>
      </trkpt>
      <trkpt lat="45.89169" lon="4.77543">
        <ele>194</ele>
        <time>2018-02-12T14:37:08Z</time>
      </trkpt>
      <trkpt lat="45.89163" lon="4.77544">
        <ele>195</ele>
        <time>2018-02-12T14:37:09Z</time>
      </trkpt>
      <trkpt lat="45.89158" lon="4.77547">
        <ele>195</ele>
        <time>2018-02-12T14:37:10Z</time>
      </trkpt>
      <trkpt lat="45.89154" lon="4.77549">
        <ele>195</ele>
        <time>2018-02-12T14:37:11Z</time>
      </trkpt>
      <trkpt lat="45.89149" lon="4.77551">
        <ele>195</ele>
        <time>2018-02-12T14:37:12Z</time>
      </trkpt>
      <trkpt lat="45.89144" lon="4.77552">
        <ele>195</ele>
        <time>2018-02-12T14:37:13Z</time>
      </trkpt>
      <trkpt lat="45.89139" lon="4.77552">
        <ele>195</ele>
        <time>2018-02-12T14:37:14Z</time>
      </trkpt>
      <trkpt lat="45.89134" lon="4.77553">
        <ele>195</ele>
        <time>2018-02-12T14:37:15Z</time>
      </trkpt>
      <trkpt lat="45.89129" lon="4.77555">
        <ele>195</ele>
        <time>2018-02-12T14:37:16Z</time>
      </trkpt>
      <trkpt lat="45.89124" lon="4.77557">
        <ele>195</ele>
        <time>2018-02-12T14:37:17Z</time>
      </trkpt>
      <trkpt lat="45.89119" lon="4.7756">
        <ele>195</ele>
        <time>2018-02-12T14:37:18Z</time>
      </trkpt>
      <trkpt lat="45.89114" lon="4.77562">
        <ele>195</ele>
        <time>2018-02-12T14:37:19Z</time>
      </trkpt>
      <trkpt lat="45.89109" lon="4.77564">
        <ele>195</ele>
        <time>2018-02-12T14:37:20Z</time>
      </trkpt>
      <trkpt lat="45.89104" lon="4.77567">
        <ele>196</ele>
        <time>2018-02-12T14:37:21Z</time>
      </trkpt>
      <trkpt lat="45.89099" lon="4.7757">
        <ele>196</ele>
        <time>2018-02-12T14:37:22Z</time>
      </trkpt>
      <trkpt lat="45.89094" lon="4.77574">
        <ele>196</ele>
        <time>2018-02-12T14:37:23Z</time>
      </trkpt>
      <trkpt lat="45.89089" lon="4.77577">
        <ele>196</ele>
        <time>2018-02-12T14:37:24Z</time>
      </trkpt>
      <trkpt lat="45.89084" lon="4.77581">
        <ele>196</ele>
        <time>2018-02-12T14:37:25Z</time>
      </trkpt>
      <trkpt lat="45.8908" lon="4.77584">
        <ele>196</ele>
        <time>2018-02-12T14:37:26Z</time>
      </trkpt>
      <trkpt lat="45.89075" lon="4.77588">
        <ele>196</ele>
        <time>2018-02-12T14:37:27Z</time>
      </trkpt>
      <trkpt lat="45.8907" lon="4.77591">
        <ele>196</ele>
        <time>2018-02-12T14:37:28Z</time>
      </trkpt>
      <trkpt lat="45.89066" lon="4.77595">
        <ele>196</ele>
        <time>2018-02-12T14:37:29Z</time>
      </trkpt>
      <trkpt lat="45.89062" lon="4.77599">
        <ele>197</ele>
        <time>2018-02-12T14:37:30Z</time>
      </trkpt>
      <trkpt lat="45.89057" lon="4.77604">
        <ele>197</ele>
        <time>2018-02-12T14:37:31Z</time>
      </trkpt>
      <trkpt lat="45.89053" lon="4.77607">
        <ele>197</ele>
        <time>2018-02-12T14:37:32Z</time>
      </trkpt>
      <trkpt lat="45.89049" lon="4.77611">
        <ele>197</ele>
        <time>2018-02-12T14:37:33Z</time>
      </trkpt>
      <trkpt lat="45.89044" lon="4.77615">
        <ele>197</ele>
        <time>2018-02-12T14:37:34Z</time>
      </trkpt>
      <trkpt lat="45.8904" lon="4.77619">
        <ele>197</ele>
        <time>2018-02-12T14:37:35Z</time>
      </trkpt>
      <trkpt lat="45.89036" lon="4.77623">
        <ele>197</ele>
        <time>2018-02-12T14:37:36Z</time>
      </trkpt>
      <trkpt lat="45.89032" lon="4.77626">
        <ele>197</ele>
        <time>2018-02-12T14:37:37Z</time>
      </trkpt>
      <trkpt lat="45.89027" lon="4.77629">
        <ele>197</ele>
        <time>2018-02-12T14:37:38Z</time>
      </trkpt>
      <trkpt lat="45.89023" lon="4.77632">
        <ele>197</ele>
        <time>2018-02-12T14:37:39Z</time>
      </trkpt>
      <trkpt lat="45.89019" lon="4.77635">
        <ele>197</ele>
        <time>2018-02-12T14:37:40Z</time>
      </trkpt>
      <trkpt lat="45.89014" lon="4.77639">
        <ele>197</ele>
        <time>2018-02-12T14:37:41Z</time>
      </trkpt>
      <trkpt lat="45.8901" lon="4.77643">
        <ele>197</ele>
        <time>2018-02-12T14:37:42Z</time>
      </trkpt>
      <trkpt lat="45.89006" lon="4.77646">
        <ele>197</ele>
        <time>2018-02-12T14:37:43Z</time>
      </trkpt>
      <trkpt lat="45.89002" lon="4.7765">
        <ele>197</ele>
        <time>2018-02-12T14:37:44Z</time>
      </trkpt>
      <trkpt lat="45.88998" lon="4.77654">
        <ele>197</ele>
        <time>2018-02-12T14:37:45Z</time>
      </trkpt>
      <trkpt lat="45.88993" lon="4.77657">
        <ele>197</ele>
        <time>2018-02-12T14:37:46Z</time>
      </trkpt>
      <trkpt lat="45.88989" lon="4.7766">
        <ele>198</ele>
        <time>2018-02-12T14:37:47Z</time>
      </trkpt>
      <trkpt lat="45.88985" lon="4.77664">
        <ele>198</ele>
        <time>2018-02-12T14:37:48Z</time>
      </trkpt>
      <trkpt lat="45.8898" lon="4.77668">
        <ele>198</ele>
        <time>2018-02-12T14:37:49Z</time>
      </trkpt>
      <trkpt lat="45.88976" lon="4.77671">
        <ele>198</ele>
        <time>2018-02-12T14:37:50Z</time>
      </trkpt>
      <trkpt lat="45.88972" lon="4.77674">
        <ele>198</ele>
        <time>2018-02-12T14:37:51Z</time>
      </trkpt>
      <trkpt lat="45.88968" lon="4.77677">
        <ele>198</ele>
        <time>2018-02-12T14:37:52Z</time>
      </trkpt>
      <trkpt lat="45.88962" lon="4.7768">
        <ele>198</ele>
        <time>2018-02-12T14:37:53Z</time>
      </trkpt>
      <trkpt lat="45.88954" lon="4.77685">
        <ele>199</ele>
        <time>2018-02-12T14:37:55Z</time>
      </trkpt>
      <trkpt lat="45.8895" lon="4.77687">
        <ele>199</ele>
        <time>2018-02-12T14:37:56Z</time>
      </trkpt>
      <trkpt lat="45.88941" lon="4.77691">
        <ele>199</ele>
        <time>2018-02-12T14:37:58Z</time>
      </trkpt>
      <trkpt lat="45.88937" lon="4.77693">
        <ele>199</ele>
        <time>2018-02-12T14:37:59Z</time>
      </trkpt>
      <trkpt lat="45.88928" lon="4.77697">
        <ele>199</ele>
        <time>2018-02-12T14:38:01Z</time>
      </trkpt>
      <trkpt lat="45.88924" lon="4.77698">
        <ele>199</ele>
        <time>2018-02-12T14:38:02Z</time>
      </trkpt>
      <trkpt lat="45.88919" lon="4.77699">
        <ele>199</ele>
        <time>2018-02-12T14:38:03Z</time>
      </trkpt>
      <trkpt lat="45.88914" lon="4.777">
        <ele>200</ele>
        <time>2018-02-12T14:38:04Z</time>
      </trkpt>
      <trkpt lat="45.88909" lon="4.77701">
        <ele>200</ele>
        <time>2018-02-12T14:38:05Z</time>
      </trkpt>
      <trkpt lat="45.88904" lon="4.77702">
        <ele>200</ele>
        <time>2018-02-12T14:38:06Z</time>
      </trkpt>
      <trkpt lat="45.88899" lon="4.77703">
        <ele>200</ele>
        <time>2018-02-12T14:38:07Z</time>
      </trkpt>
      <trkpt lat="45.88895" lon="4.77704">
        <ele>200</ele>
        <time>2018-02-12T14:38:08Z</time>
      </trkpt>
      <trkpt lat="45.88889" lon="4.77705">
        <ele>200</ele>
        <time>2018-02-12T14:38:09Z</time>
      </trkpt>
      <trkpt lat="45.88885" lon="4.77706">
        <ele>200</ele>
        <time>2018-02-12T14:38:10Z</time>
      </trkpt>
      <trkpt lat="45.8888" lon="4.77707">
        <ele>200</ele>
        <time>2018-02-12T14:38:11Z</time>
      </trkpt>
      <trkpt lat="45.88875" lon="4.77708">
        <ele>201</ele>
        <time>2018-02-12T14:38:12Z</time>
      </trkpt>
      <trkpt lat="45.8887" lon="4.77708">
        <ele>201</ele>
        <time>2018-02-12T14:38:13Z</time>
      </trkpt>
      <trkpt lat="45.88865" lon="4.77708">
        <ele>201</ele>
        <time>2018-02-12T14:38:14Z</time>
      </trkpt>
      <trkpt lat="45.88861" lon="4.77708">
        <ele>201</ele>
        <time>2018-02-12T14:38:15Z</time>
      </trkpt>
      <trkpt lat="45.88856" lon="4.77708">
        <ele>201</ele>
        <time>2018-02-12T14:38:16Z</time>
      </trkpt>
      <trkpt lat="45.88847" lon="4.77708">
        <ele>201</ele>
        <time>2018-02-12T14:38:18Z</time>
      </trkpt>
      <trkpt lat="45.88843" lon="4.77707">
        <ele>201</ele>
        <time>2018-02-12T14:38:19Z</time>
      </trkpt>
      <trkpt lat="45.88834" lon="4.77707">
        <ele>201</ele>
        <time>2018-02-12T14:38:21Z</time>
      </trkpt>
      <trkpt lat="45.88828" lon="4.77707">
        <ele>201</ele>
        <time>2018-02-12T14:38:22Z</time>
      </trkpt>
      <trkpt lat="45.88824" lon="4.77707">
        <ele>202</ele>
        <time>2018-02-12T14:38:23Z</time>
      </trkpt>
      <trkpt lat="45.88819" lon="4.77707">
        <ele>202</ele>
        <time>2018-02-12T14:38:24Z</time>
      </trkpt>
      <trkpt lat="45.88813" lon="4.77708">
        <ele>202</ele>
        <time>2018-02-12T14:38:25Z</time>
      </trkpt>
      <trkpt lat="45.88808" lon="4.77708">
        <ele>202</ele>
        <time>2018-02-12T14:38:26Z</time>
      </trkpt>
      <trkpt lat="45.88804" lon="4.77708">
        <ele>202</ele>
        <time>2018-02-12T14:38:27Z</time>
      </trkpt>
      <trkpt lat="45.88798" lon="4.77708">
        <ele>202</ele>
        <time>2018-02-12T14:38:28Z</time>
      </trkpt>
      <trkpt lat="45.88793" lon="4.77709">
        <ele>202</ele>
        <time>2018-02-12T14:38:29Z</time>
      </trkpt>
      <trkpt lat="45.88788" lon="4.77709">
        <ele>202</ele>
        <time>2018-02-12T14:38:30Z</time>
      </trkpt>
      <trkpt lat="45.88782" lon="4.77709">
        <ele>202</ele>
        <time>2018-02-12T14:38:31Z</time>
      </trkpt>
      <trkpt lat="45.88777" lon="4.7771">
        <ele>202</ele>
        <time>2018-02-12T14:38:32Z</time>
      </trkpt>
      <trkpt lat="45.88772" lon="4.77711">
        <ele>202</ele>
        <time>2018-02-12T14:38:33Z</time>
      </trkpt>
      <trkpt lat="45.88767" lon="4.7771">
        <ele>202</ele>
        <time>2018-02-12T14:38:34Z</time>
      </trkpt>
      <trkpt lat="45.88762" lon="4.7771">
        <ele>202</ele>
        <time>2018-02-12T14:38:35Z</time>
      </trkpt>
      <trkpt lat="45.88756" lon="4.77711">
        <ele>202</ele>
        <time>2018-02-12T14:38:36Z</time>
      </trkpt>
      <trkpt lat="45.88751" lon="4.77711">
        <ele>202</ele>
        <time>2018-02-12T14:38:37Z</time>
      </trkpt>
      <trkpt lat="45.88746" lon="4.77711">
        <ele>203</ele>
        <time>2018-02-12T14:38:38Z</time>
      </trkpt>
      <trkpt lat="45.8874" lon="4.77712">
        <ele>203</ele>
        <time>2018-02-12T14:38:39Z</time>
      </trkpt>
      <trkpt lat="45.88735" lon="4.77712">
        <ele>203</ele>
        <time>2018-02-12T14:38:40Z</time>
      </trkpt>
      <trkpt lat="45.8873" lon="4.77713">
        <ele>203</ele>
        <time>2018-02-12T14:38:41Z</time>
      </trkpt>
      <trkpt lat="45.88726" lon="4.77713">
        <ele>203</ele>
        <time>2018-02-12T14:38:42Z</time>
      </trkpt>
      <trkpt lat="45.88721" lon="4.77714">
        <ele>203</ele>
        <time>2018-02-12T14:38:43Z</time>
      </trkpt>
      <trkpt lat="45.88715" lon="4.77715">
        <ele>203</ele>
        <time>2018-02-12T14:38:44Z</time>
      </trkpt>
      <trkpt lat="45.8871" lon="4.77715">
        <ele>203</ele>
        <time>2018-02-12T14:38:45Z</time>
      </trkpt>
      <trkpt lat="45.88705" lon="4.77715">
        <ele>203</ele>
        <time>2018-02-12T14:38:46Z</time>
      </trkpt>
      <trkpt lat="45.88699" lon="4.77715">
        <ele>203</ele>
        <time>2018-02-12T14:38:47Z</time>
      </trkpt>
      <trkpt lat="45.88695" lon="4.77715">
        <ele>203</ele>
        <time>2018-02-12T14:38:48Z</time>
      </trkpt>
      <trkpt lat="45.8869" lon="4.77715">
        <ele>203</ele>
        <time>2018-02-12T14:38:49Z</time>
      </trkpt>
      <trkpt lat="45.88685" lon="4.77714">
        <ele>203</ele>
        <time>2018-02-12T14:38:50Z</time>
      </trkpt>
      <trkpt lat="45.88681" lon="4.77714">
        <ele>203</ele>
        <time>2018-02-12T14:38:51Z</time>
      </trkpt>
      <trkpt lat="45.88676" lon="4.77714">
        <ele>203</ele>
        <time>2018-02-12T14:38:52Z</time>
      </trkpt>
      <trkpt lat="45.8867" lon="4.77714">
        <ele>203</ele>
        <time>2018-02-12T14:38:53Z</time>
      </trkpt>
      <trkpt lat="45.88665" lon="4.77714">
        <ele>203</ele>
        <time>2018-02-12T14:38:54Z</time>
      </trkpt>
      <trkpt lat="45.8866" lon="4.77714">
        <ele>203</ele>
        <time>2018-02-12T14:38:55Z</time>
      </trkpt>
      <trkpt lat="45.88655" lon="4.77713">
        <ele>203</ele>
        <time>2018-02-12T14:38:56Z</time>
      </trkpt>
      <trkpt lat="45.8865" lon="4.77714">
        <ele>203</ele>
        <time>2018-02-12T14:38:57Z</time>
      </trkpt>
      <trkpt lat="45.88645" lon="4.77713">
        <ele>203</ele>
        <time>2018-02-12T14:38:58Z</time>
      </trkpt>
      <trkpt lat="45.8864" lon="4.77712">
        <ele>203</ele>
        <time>2018-02-12T14:38:59Z</time>
      </trkpt>
      <trkpt lat="45.88636" lon="4.77711">
        <ele>203</ele>
        <time>2018-02-12T14:39:00Z</time>
      </trkpt>
      <trkpt lat="45.8863" lon="4.77711">
        <ele>203</ele>
        <time>2018-02-12T14:39:01Z</time>
      </trkpt>
      <trkpt lat="45.88625" lon="4.7771">
        <ele>203</ele>
        <time>2018-02-12T14:39:02Z</time>
      </trkpt>
      <trkpt lat="45.8862" lon="4.77709">
        <ele>203</ele>
        <time>2018-02-12T14:39:03Z</time>
      </trkpt>
      <trkpt lat="45.88616" lon="4.77707">
        <ele>203</ele>
        <time>2018-02-12T14:39:04Z</time>
      </trkpt>
      <trkpt lat="45.88611" lon="4.77706">
        <ele>203</ele>
        <time>2018-02-12T14:39:05Z</time>
      </trkpt>
      <trkpt lat="45.88606" lon="4.77706">
        <ele>203</ele>
        <time>2018-02-12T14:39:06Z</time>
      </trkpt>
      <trkpt lat="45.88601" lon="4.77705">
        <ele>203</ele>
        <time>2018-02-12T14:39:07Z</time>
      </trkpt>
      <trkpt lat="45.88596" lon="4.77704">
        <ele>203</ele>
        <time>2018-02-12T14:39:08Z</time>
      </trkpt>
      <trkpt lat="45.8859" lon="4.77703">
        <ele>203</ele>
        <time>2018-02-12T14:39:09Z</time>
      </trkpt>
      <trkpt lat="45.88586" lon="4.77702">
        <ele>203</ele>
        <time>2018-02-12T14:39:10Z</time>
      </trkpt>
      <trkpt lat="45.88581" lon="4.77701">
        <ele>204</ele>
        <time>2018-02-12T14:39:11Z</time>
      </trkpt>
      <trkpt lat="45.88575" lon="4.777">
        <ele>204</ele>
        <time>2018-02-12T14:39:12Z</time>
      </trkpt>
      <trkpt lat="45.8857" lon="4.77698">
        <ele>204</ele>
        <time>2018-02-12T14:39:13Z</time>
      </trkpt>
      <trkpt lat="45.88565" lon="4.77697">
        <ele>204</ele>
        <time>2018-02-12T14:39:14Z</time>
      </trkpt>
      <trkpt lat="45.88556" lon="4.77695">
        <ele>204</ele>
        <time>2018-02-12T14:39:16Z</time>
      </trkpt>
      <trkpt lat="45.88551" lon="4.77694">
        <ele>204</ele>
        <time>2018-02-12T14:39:17Z</time>
      </trkpt>
      <trkpt lat="45.88542" lon="4.77692">
        <ele>204</ele>
        <time>2018-02-12T14:39:19Z</time>
      </trkpt>
      <trkpt lat="45.88538" lon="4.77691">
        <ele>204</ele>
        <time>2018-02-12T14:39:20Z</time>
      </trkpt>
      <trkpt lat="45.88534" lon="4.7769">
        <ele>204</ele>
        <time>2018-02-12T14:39:21Z</time>
      </trkpt>
      <trkpt lat="45.88529" lon="4.77689">
        <ele>204</ele>
        <time>2018-02-12T14:39:22Z</time>
      </trkpt>
      <trkpt lat="45.88524" lon="4.77688">
        <ele>204</ele>
        <time>2018-02-12T14:39:23Z</time>
      </trkpt>
      <trkpt lat="45.88519" lon="4.77689">
        <ele>204</ele>
        <time>2018-02-12T14:39:24Z</time>
      </trkpt>
      <trkpt lat="45.88514" lon="4.77688">
        <ele>205</ele>
        <time>2018-02-12T14:39:25Z</time>
      </trkpt>
      <trkpt lat="45.88509" lon="4.77687">
        <ele>205</ele>
        <time>2018-02-12T14:39:26Z</time>
      </trkpt>
      <trkpt lat="45.88504" lon="4.77686">
        <ele>205</ele>
        <time>2018-02-12T14:39:27Z</time>
      </trkpt>
      <trkpt lat="45.88499" lon="4.77685">
        <ele>206</ele>
        <time>2018-02-12T14:39:28Z</time>
      </trkpt>
      <trkpt lat="45.88494" lon="4.77685">
        <ele>206</ele>
        <time>2018-02-12T14:39:29Z</time>
      </trkpt>
      <trkpt lat="45.88489" lon="4.77684">
        <ele>206</ele>
        <time>2018-02-12T14:39:30Z</time>
      </trkpt>
      <trkpt lat="45.88481" lon="4.77682">
        <ele>206</ele>
        <time>2018-02-12T14:39:32Z</time>
      </trkpt>
      <trkpt lat="45.88476" lon="4.77681">
        <ele>206</ele>
        <time>2018-02-12T14:39:33Z</time>
      </trkpt>
      <trkpt lat="45.88471" lon="4.7768">
        <ele>206</ele>
        <time>2018-02-12T14:39:34Z</time>
      </trkpt>
      <trkpt lat="45.88466" lon="4.77679">
        <ele>206</ele>
        <time>2018-02-12T14:39:35Z</time>
      </trkpt>
      <trkpt lat="45.88462" lon="4.77678">
        <ele>206</ele>
        <time>2018-02-12T14:39:36Z</time>
      </trkpt>
      <trkpt lat="45.88457" lon="4.77677">
        <ele>206</ele>
        <time>2018-02-12T14:39:37Z</time>
      </trkpt>
      <trkpt lat="45.88452" lon="4.77677">
        <ele>206</ele>
        <time>2018-02-12T14:39:38Z</time>
      </trkpt>
      <trkpt lat="45.88447" lon="4.77676">
        <ele>206</ele>
        <time>2018-02-12T14:39:39Z</time>
      </trkpt>
      <trkpt lat="45.88439" lon="4.77675">
        <ele>206</ele>
        <time>2018-02-12T14:39:41Z</time>
      </trkpt>
      <trkpt lat="45.88434" lon="4.77673">
        <ele>206</ele>
        <time>2018-02-12T14:39:42Z</time>
      </trkpt>
      <trkpt lat="45.88428" lon="4.77671">
        <ele>206</ele>
        <time>2018-02-12T14:39:43Z</time>
      </trkpt>
      <trkpt lat="45.88424" lon="4.7767">
        <ele>206</ele>
        <time>2018-02-12T14:39:44Z</time>
      </trkpt>
      <trkpt lat="45.88419" lon="4.77669">
        <ele>206</ele>
        <time>2018-02-12T14:39:45Z</time>
      </trkpt>
      <trkpt lat="45.88414" lon="4.77667">
        <ele>206</ele>
        <time>2018-02-12T14:39:46Z</time>
      </trkpt>
      <trkpt lat="45.88409" lon="4.77666">
        <ele>206</ele>
        <time>2018-02-12T14:39:47Z</time>
      </trkpt>
      <trkpt lat="45.88405" lon="4.77665">
        <ele>207</ele>
        <time>2018-02-12T14:39:48Z</time>
      </trkpt>
      <trkpt lat="45.884" lon="4.77665">
        <ele>207</ele>
        <time>2018-02-12T14:39:49Z</time>
      </trkpt>
      <trkpt lat="45.88396" lon="4.77664">
        <ele>207</ele>
        <time>2018-02-12T14:39:50Z</time>
      </trkpt>
      <trkpt lat="45.88387" lon="4.77663">
        <ele>207</ele>
        <time>2018-02-12T14:39:52Z</time>
      </trkpt>
      <trkpt lat="45.88382" lon="4.77662">
        <ele>207</ele>
        <time>2018-02-12T14:39:53Z</time>
      </trkpt>
      <trkpt lat="45.88373" lon="4.77659">
        <ele>207</ele>
        <time>2018-02-12T14:39:55Z</time>
      </trkpt>
      <trkpt lat="45.88369" lon="4.77658">
        <ele>207</ele>
        <time>2018-02-12T14:39:56Z</time>
      </trkpt>
      <trkpt lat="45.88365" lon="4.77657">
        <ele>207</ele>
        <time>2018-02-12T14:39:57Z</time>
      </trkpt>
      <trkpt lat="45.8836" lon="4.77657">
        <ele>208</ele>
        <time>2018-02-12T14:39:58Z</time>
      </trkpt>
      <trkpt lat="45.88356" lon="4.77657">
        <ele>208</ele>
        <time>2018-02-12T14:39:59Z</time>
      </trkpt>
      <trkpt lat="45.8835" lon="4.77657">
        <ele>208</ele>
        <time>2018-02-12T14:40:00Z</time>
      </trkpt>
      <trkpt lat="45.88346" lon="4.77656">
        <ele>208</ele>
        <time>2018-02-12T14:40:01Z</time>
      </trkpt>
      <trkpt lat="45.88341" lon="4.77657">
        <ele>208</ele>
        <time>2018-02-12T14:40:02Z</time>
      </trkpt>
      <trkpt lat="45.88332" lon="4.77657">
        <ele>208</ele>
        <time>2018-02-12T14:40:04Z</time>
      </trkpt>
      <trkpt lat="45.88328" lon="4.77657">
        <ele>208</ele>
        <time>2018-02-12T14:40:05Z</time>
      </trkpt>
      <trkpt lat="45.88319" lon="4.77658">
        <ele>209</ele>
        <time>2018-02-12T14:40:07Z</time>
      </trkpt>
      <trkpt lat="45.88315" lon="4.77657">
        <ele>209</ele>
        <time>2018-02-12T14:40:08Z</time>
      </trkpt>
      <trkpt lat="45.8831" lon="4.77657">
        <ele>209</ele>
        <time>2018-02-12T14:40:09Z</time>
      </trkpt>
      <trkpt lat="45.88305" lon="4.77658">
        <ele>209</ele>
        <time>2018-02-12T14:40:10Z</time>
      </trkpt>
      <trkpt lat="45.88296" lon="4.77658">
        <ele>209</ele>
        <time>2018-02-12T14:40:12Z</time>
      </trkpt>
      <trkpt lat="45.88292" lon="4.77658">
        <ele>209</ele>
        <time>2018-02-12T14:40:13Z</time>
      </trkpt>
      <trkpt lat="45.88283" lon="4.77659">
        <ele>210</ele>
        <time>2018-02-12T14:40:15Z</time>
      </trkpt>
      <trkpt lat="45.88279" lon="4.77659">
        <ele>210</ele>
        <time>2018-02-12T14:40:16Z</time>
      </trkpt>
      <trkpt lat="45.8827" lon="4.77658">
        <ele>210</ele>
        <time>2018-02-12T14:40:18Z</time>
      </trkpt>
      <trkpt lat="45.88267" lon="4.77659">
        <ele>210</ele>
        <time>2018-02-12T14:40:19Z</time>
      </trkpt>
      <trkpt lat="45.88258" lon="4.77659">
        <ele>210</ele>
        <time>2018-02-12T14:40:21Z</time>
      </trkpt>
      <trkpt lat="45.88254" lon="4.77659">
        <ele>210</ele>
        <time>2018-02-12T14:40:22Z</time>
      </trkpt>
      <trkpt lat="45.88247" lon="4.77658">
        <ele>211</ele>
        <time>2018-02-12T14:40:24Z</time>
      </trkpt>
      <trkpt lat="45.88242" lon="4.77658">
        <ele>211</ele>
        <time>2018-02-12T14:40:25Z</time>
      </trkpt>
      <trkpt lat="45.88238" lon="4.77659">
        <ele>211</ele>
        <time>2018-02-12T14:40:26Z</time>
      </trkpt>
      <trkpt lat="45.88233" lon="4.7766">
        <ele>211</ele>
        <time>2018-02-12T14:40:27Z</time>
      </trkpt>
      <trkpt lat="45.88225" lon="4.77661">
        <ele>211</ele>
        <time>2018-02-12T14:40:29Z</time>
      </trkpt>
      <trkpt lat="45.88221" lon="4.77662">
        <ele>211</ele>
        <time>2018-02-12T14:40:30Z</time>
      </trkpt>
      <trkpt lat="45.88216" lon="4.77662">
        <ele>211</ele>
        <time>2018-02-12T14:40:31Z</time>
      </trkpt>
      <trkpt lat="45.88211" lon="4.77663">
        <ele>211</ele>
        <time>2018-02-12T14:40:32Z</time>
      </trkpt>
      <trkpt lat="45.88207" lon="4.77664">
        <ele>211</ele>
        <time>2018-02-12T14:40:33Z</time>
      </trkpt>
      <trkpt lat="45.88202" lon="4.77665">
        <ele>211</ele>
        <time>2018-02-12T14:40:34Z</time>
      </trkpt>
      <trkpt lat="45.88194" lon="4.77668">
        <ele>212</ele>
        <time>2018-02-12T14:40:36Z</time>
      </trkpt>
      <trkpt lat="45.8819" lon="4.77668">
        <ele>212</ele>
        <time>2018-02-12T14:40:37Z</time>
      </trkpt>
      <trkpt lat="45.88185" lon="4.77671">
        <ele>212</ele>
        <time>2018-02-12T14:40:38Z</time>
      </trkpt>
      <trkpt lat="45.8818" lon="4.77671">
        <ele>212</ele>
        <time>2018-02-12T14:40:39Z</time>
      </trkpt>
      <trkpt lat="45.88176" lon="4.77672">
        <ele>212</ele>
        <time>2018-02-12T14:40:40Z</time>
      </trkpt>
      <trkpt lat="45.88171" lon="4.77673">
        <ele>212</ele>
        <time>2018-02-12T14:40:41Z</time>
      </trkpt>
      <trkpt lat="45.88167" lon="4.77674">
        <ele>212</ele>
        <time>2018-02-12T14:40:42Z</time>
      </trkpt>
      <trkpt lat="45.88162" lon="4.77675">
        <ele>213</ele>
        <time>2018-02-12T14:40:43Z</time>
      </trkpt>
      <trkpt lat="45.88154" lon="4.77677">
        <ele>213</ele>
        <time>2018-02-12T14:40:45Z</time>
      </trkpt>
      <trkpt lat="45.8815" lon="4.77677">
        <ele>213</ele>
        <time>2018-02-12T14:40:46Z</time>
      </trkpt>
      <trkpt lat="45.88145" lon="4.77678">
        <ele>213</ele>
        <time>2018-02-12T14:40:47Z</time>
      </trkpt>
      <trkpt lat="45.8814" lon="4.77678">
        <ele>213</ele>
        <time>2018-02-12T14:40:48Z</time>
      </trkpt>
      <trkpt lat="45.88132" lon="4.77679">
        <ele>214</ele>
        <time>2018-02-12T14:40:50Z</time>
      </trkpt>
      <trkpt lat="45.88127" lon="4.77678">
        <ele>214</ele>
        <time>2018-02-12T14:40:51Z</time>
      </trkpt>
      <trkpt lat="45.88119" lon="4.77679">
        <ele>214</ele>
        <time>2018-02-12T14:40:53Z</time>
      </trkpt>
      <trkpt lat="45.88115" lon="4.7768">
        <ele>214</ele>
        <time>2018-02-12T14:40:54Z</time>
      </trkpt>
      <trkpt lat="45.8811" lon="4.77681">
        <ele>214</ele>
        <time>2018-02-12T14:40:55Z</time>
      </trkpt>
      <trkpt lat="45.88105" lon="4.77681">
        <ele>214</ele>
        <time>2018-02-12T14:40:56Z</time>
      </trkpt>
      <trkpt lat="45.88097" lon="4.77683">
        <ele>214</ele>
        <time>2018-02-12T14:40:58Z</time>
      </trkpt>
      <trkpt lat="45.88093" lon="4.77684">
        <ele>214</ele>
        <time>2018-02-12T14:40:59Z</time>
      </trkpt>
      <trkpt lat="45.88084" lon="4.77685">
        <ele>214</ele>
        <time>2018-02-12T14:41:01Z</time>
      </trkpt>
      <trkpt lat="45.8808" lon="4.77687">
        <ele>215</ele>
        <time>2018-02-12T14:41:02Z</time>
      </trkpt>
      <trkpt lat="45.88072" lon="4.7769">
        <ele>216</ele>
        <time>2018-02-12T14:41:04Z</time>
      </trkpt>
      <trkpt lat="45.88067" lon="4.7769">
        <ele>216</ele>
        <time>2018-02-12T14:41:05Z</time>
      </trkpt>
      <trkpt lat="45.88059" lon="4.77692">
        <ele>216</ele>
        <time>2018-02-12T14:41:07Z</time>
      </trkpt>
      <trkpt lat="45.88055" lon="4.77693">
        <ele>216</ele>
        <time>2018-02-12T14:41:08Z</time>
      </trkpt>
      <trkpt lat="45.88046" lon="4.77694">
        <ele>216</ele>
        <time>2018-02-12T14:41:10Z</time>
      </trkpt>
      <trkpt lat="45.88042" lon="4.77695">
        <ele>216</ele>
        <time>2018-02-12T14:41:11Z</time>
      </trkpt>
      <trkpt lat="45.88034" lon="4.77697">
        <ele>216</ele>
        <time>2018-02-12T14:41:13Z</time>
      </trkpt>
      <trkpt lat="45.8803" lon="4.77697">
        <ele>216</ele>
        <time>2018-02-12T14:41:14Z</time>
      </trkpt>
      <trkpt lat="45.88025" lon="4.77697">
        <ele>216</ele>
        <time>2018-02-12T14:41:15Z</time>
      </trkpt>
      <trkpt lat="45.88021" lon="4.77698">
        <ele>216</ele>
        <time>2018-02-12T14:41:16Z</time>
      </trkpt>
      <trkpt lat="45.88012" lon="4.77698">
        <ele>216</ele>
        <time>2018-02-12T14:41:18Z</time>
      </trkpt>
      <trkpt lat="45.88008" lon="4.77698">
        <ele>216</ele>
        <time>2018-02-12T14:41:19Z</time>
      </trkpt>
      <trkpt lat="45.87999" lon="4.77697">
        <ele>217</ele>
        <time>2018-02-12T14:41:21Z</time>
      </trkpt>
      <trkpt lat="45.87995" lon="4.77696">
        <ele>217</ele>
        <time>2018-02-12T14:41:22Z</time>
      </trkpt>
      <trkpt lat="45.87991" lon="4.77695">
        <ele>217</ele>
        <time>2018-02-12T14:41:23Z</time>
      </trkpt>
      <trkpt lat="45.87986" lon="4.77693">
        <ele>217</ele>
        <time>2018-02-12T14:41:24Z</time>
      </trkpt>
      <trkpt lat="45.87978" lon="4.7769">
        <ele>218</ele>
        <time>2018-02-12T14:41:26Z</time>
      </trkpt>
      <trkpt lat="45.87975" lon="4.77687">
        <ele>218</ele>
        <time>2018-02-12T14:41:27Z</time>
      </trkpt>
      <trkpt lat="45.87969" lon="4.77678">
        <ele>218</ele>
        <time>2018-02-12T14:41:29Z</time>
      </trkpt>
      <trkpt lat="45.87966" lon="4.77674">
        <ele>218</ele>
        <time>2018-02-12T14:41:30Z</time>
      </trkpt>
      <trkpt lat="45.87957" lon="4.77671">
        <ele>218</ele>
        <time>2018-02-12T14:41:32Z</time>
      </trkpt>
      <trkpt lat="45.87953" lon="4.7767">
        <ele>218</ele>
        <time>2018-02-12T14:41:33Z</time>
      </trkpt>
      <trkpt lat="45.87945" lon="4.77665">
        <ele>218</ele>
        <time>2018-02-12T14:41:35Z</time>
      </trkpt>
      <trkpt lat="45.87941" lon="4.77662">
        <ele>219</ele>
        <time>2018-02-12T14:41:36Z</time>
      </trkpt>
      <trkpt lat="45.87934" lon="4.77654">
        <ele>219</ele>
        <time>2018-02-12T14:41:38Z</time>
      </trkpt>
      <trkpt lat="45.87929" lon="4.77651">
        <ele>219</ele>
        <time>2018-02-12T14:41:39Z</time>
      </trkpt>
      <trkpt lat="45.87925" lon="4.77649">
        <ele>219</ele>
        <time>2018-02-12T14:41:40Z</time>
      </trkpt>
      <trkpt lat="45.87921" lon="4.77645">
        <ele>219</ele>
        <time>2018-02-12T14:41:41Z</time>
      </trkpt>
      <trkpt lat="45.87917" lon="4.77642">
        <ele>219</ele>
        <time>2018-02-12T14:41:42Z</time>
      </trkpt>
      <trkpt lat="45.87913" lon="4.77637">
        <ele>221</ele>
        <time>2018-02-12T14:41:43Z</time>
      </trkpt>
      <trkpt lat="45.87909" lon="4.77634">
        <ele>221</ele>
        <time>2018-02-12T14:41:44Z</time>
      </trkpt>
      <trkpt lat="45.87905" lon="4.7763">
        <ele>221</ele>
        <time>2018-02-12T14:41:45Z</time>
      </trkpt>
      <trkpt lat="45.87901" lon="4.77627">
        <ele>221</ele>
        <time>2018-02-12T14:41:46Z</time>
      </trkpt>
      <trkpt lat="45.87897" lon="4.77623">
        <ele>221</ele>
        <time>2018-02-12T14:41:47Z</time>
      </trkpt>
      <trkpt lat="45.87889" lon="4.77617">
        <ele>221</ele>
        <time>2018-02-12T14:41:49Z</time>
      </trkpt>
      <trkpt lat="45.87885" lon="4.77614">
        <ele>221</ele>
        <time>2018-02-12T14:41:50Z</time>
      </trkpt>
      <trkpt lat="45.87881" lon="4.7761">
        <ele>221</ele>
        <time>2018-02-12T14:41:51Z</time>
      </trkpt>
      <trkpt lat="45.87877" lon="4.77606">
        <ele>221</ele>
        <time>2018-02-12T14:41:52Z</time>
      </trkpt>
      <trkpt lat="45.8787" lon="4.776">
        <ele>221</ele>
        <time>2018-02-12T14:41:54Z</time>
      </trkpt>
      <trkpt lat="45.87866" lon="4.77596">
        <ele>221</ele>
        <time>2018-02-12T14:41:55Z</time>
      </trkpt>
      <trkpt lat="45.87858" lon="4.77589">
        <ele>221</ele>
        <time>2018-02-12T14:41:57Z</time>
      </trkpt>
      <trkpt lat="45.87855" lon="4.77586">
        <ele>221</ele>
        <time>2018-02-12T14:41:58Z</time>
      </trkpt>
      <trkpt lat="45.87847" lon="4.7758">
        <ele>221</ele>
        <time>2018-02-12T14:42:00Z</time>
      </trkpt>
      <trkpt lat="45.87844" lon="4.77577">
        <ele>221</ele>
        <time>2018-02-12T14:42:01Z</time>
      </trkpt>
      <trkpt lat="45.87836" lon="4.7757">
        <ele>221</ele>
        <time>2018-02-12T14:42:03Z</time>
      </trkpt>
      <trkpt lat="45.87832" lon="4.77567">
        <ele>222</ele>
        <time>2018-02-12T14:42:04Z</time>
      </trkpt>
      <trkpt lat="45.87828" lon="4.77564">
        <ele>222</ele>
        <time>2018-02-12T14:42:05Z</time>
      </trkpt>
      <trkpt lat="45.87824" lon="4.77561">
        <ele>223</ele>
        <time>2018-02-12T14:42:06Z</time>
      </trkpt>
      <trkpt lat="45.8782" lon="4.77558">
        <ele>223</ele>
        <time>2018-02-12T14:42:07Z</time>
      </trkpt>
      <trkpt lat="45.87816" lon="4.77555">
        <ele>223</ele>
        <time>2018-02-12T14:42:08Z</time>
      </trkpt>
      <trkpt lat="45.87808" lon="4.77549">
        <ele>223</ele>
        <time>2018-02-12T14:42:10Z</time>
      </trkpt>
      <trkpt lat="45.87804" lon="4.77545">
        <ele>223</ele>
        <time>2018-02-12T14:42:11Z</time>
      </trkpt>
      <trkpt lat="45.878" lon="4.77541">
        <ele>223</ele>
        <time>2018-02-12T14:42:12Z</time>
      </trkpt>
      <trkpt lat="45.87796" lon="4.77538">
        <ele>223</ele>
        <time>2018-02-12T14:42:13Z</time>
      </trkpt>
      <trkpt lat="45.87788" lon="4.77532">
        <ele>223</ele>
        <time>2018-02-12T14:42:15Z</time>
      </trkpt>
      <trkpt lat="45.87784" lon="4.77531">
        <ele>223</ele>
        <time>2018-02-12T14:42:16Z</time>
      </trkpt>
      <trkpt lat="45.87778" lon="4.77524">
        <ele>223</ele>
        <time>2018-02-12T14:42:18Z</time>
      </trkpt>
      <trkpt lat="45.87774" lon="4.77521">
        <ele>223</ele>
        <time>2018-02-12T14:42:19Z</time>
      </trkpt>
      <trkpt lat="45.87767" lon="4.77517">
        <ele>223</ele>
        <time>2018-02-12T14:42:21Z</time>
      </trkpt>
      <trkpt lat="45.87764" lon="4.77515">
        <ele>223</ele>
        <time>2018-02-12T14:42:22Z</time>
      </trkpt>
      <trkpt lat="45.87758" lon="4.7751">
        <ele>224</ele>
        <time>2018-02-12T14:42:24Z</time>
      </trkpt>
      <trkpt lat="45.87755" lon="4.77509">
        <ele>224</ele>
        <time>2018-02-12T14:42:25Z</time>
      </trkpt>
      <trkpt lat="45.87748" lon="4.77505">
        <ele>225</ele>
        <time>2018-02-12T14:42:27Z</time>
      </trkpt>
      <trkpt lat="45.87745" lon="4.77503">
        <ele>225</ele>
        <time>2018-02-12T14:42:28Z</time>
      </trkpt>
      <trkpt lat="45.87738" lon="4.775">
        <ele>225</ele>
        <time>2018-02-12T14:42:30Z</time>
      </trkpt>
      <trkpt lat="45.87735" lon="4.77498">
        <ele>225</ele>
        <time>2018-02-12T14:42:31Z</time>
      </trkpt>
      <trkpt lat="45.87727" lon="4.77496">
        <ele>226</ele>
        <time>2018-02-12T14:42:33Z</time>
      </trkpt>
      <trkpt lat="45.87723" lon="4.77495">
        <ele>226</ele>
        <time>2018-02-12T14:42:34Z</time>
      </trkpt>
      <trkpt lat="45.87715" lon="4.77493">
        <ele>226</ele>
        <time>2018-02-12T14:42:36Z</time>
      </trkpt>
      <trkpt lat="45.87712" lon="4.77492">
        <ele>226</ele>
        <time>2018-02-12T14:42:37Z</time>
      </trkpt>
      <trkpt lat="45.87704" lon="4.7749">
        <ele>227</ele>
        <time>2018-02-12T14:42:39Z</time>
      </trkpt>
      <trkpt lat="45.87701" lon="4.7749">
        <ele>227</ele>
        <time>2018-02-12T14:42:40Z</time>
      </trkpt>
      <trkpt lat="45.87694" lon="4.7749">
        <ele>227</ele>
        <time>2018-02-12T14:42:42Z</time>
      </trkpt>
      <trkpt lat="45.87691" lon="4.7749">
        <ele>227</ele>
        <time>2018-02-12T14:42:43Z</time>
      </trkpt>
      <trkpt lat="45.87684" lon="4.77489">
        <ele>227</ele>
        <time>2018-02-12T14:42:45Z</time>
      </trkpt>
      <trkpt lat="45.87681" lon="4.77489">
        <ele>228</ele>
        <time>2018-02-12T14:42:46Z</time>
      </trkpt>
      <trkpt lat="45.87674" lon="4.7749">
        <ele>228</ele>
        <time>2018-02-12T14:42:48Z</time>
      </trkpt>
      <trkpt lat="45.87671" lon="4.77491">
        <ele>228</ele>
        <time>2018-02-12T14:42:49Z</time>
      </trkpt>
      <trkpt lat="45.87664" lon="4.77492">
        <ele>230</ele>
        <time>2018-02-12T14:42:51Z</time>
      </trkpt>
      <trkpt lat="45.87661" lon="4.77492">
        <ele>230</ele>
        <time>2018-02-12T14:42:52Z</time>
      </trkpt>
      <trkpt lat="45.87655" lon="4.77493">
        <ele>230</ele>
        <time>2018-02-12T14:42:54Z</time>
      </trkpt>
      <trkpt lat="45.87652" lon="4.77494">
        <ele>230</ele>
        <time>2018-02-12T14:42:55Z</time>
      </trkpt>
      <trkpt lat="45.87646" lon="4.77494">
        <ele>230</ele>
        <time>2018-02-12T14:42:57Z</time>
      </trkpt>
      <trkpt lat="45.87642" lon="4.77495">
        <ele>230</ele>
        <time>2018-02-12T14:42:58Z</time>
      </trkpt>
      <trkpt lat="45.87633" lon="4.77495">
        <ele>231</ele>
        <time>2018-02-12T14:43:01Z</time>
      </trkpt>
      <trkpt lat="45.8763" lon="4.77495">
        <ele>231</ele>
        <time>2018-02-12T14:43:02Z</time>
      </trkpt>
      <trkpt lat="45.87622" lon="4.77497">
        <ele>231</ele>
        <time>2018-02-12T14:43:05Z</time>
      </trkpt>
      <trkpt lat="45.87619" lon="4.77498">
        <ele>231</ele>
        <time>2018-02-12T14:43:06Z</time>
      </trkpt>
      <trkpt lat="45.87611" lon="4.77499">
        <ele>231</ele>
        <time>2018-02-12T14:43:09Z</time>
      </trkpt>
      <trkpt lat="45.87607" lon="4.775">
        <ele>231</ele>
        <time>2018-02-12T14:43:10Z</time>
      </trkpt>
      <trkpt lat="45.87599" lon="4.77501">
        <ele>231</ele>
        <time>2018-02-12T14:43:13Z</time>
      </trkpt>
      <trkpt lat="45.87596" lon="4.77502">
        <ele>231</ele>
        <time>2018-02-12T14:43:14Z</time>
      </trkpt>
      <trkpt lat="45.87588" lon="4.77503">
        <ele>232</ele>
        <time>2018-02-12T14:43:17Z</time>
      </trkpt>
      <trkpt lat="45.87585" lon="4.77503">
        <ele>232</ele>
        <time>2018-02-12T14:43:18Z</time>
      </trkpt>
      <trkpt lat="45.87578" lon="4.77505">
        <ele>232</ele>
        <time>2018-02-12T14:43:21Z</time>
      </trkpt>
      <trkpt lat="45.87575" lon="4.77505">
        <ele>232</ele>
        <time>2018-02-12T14:43:22Z</time>
      </trkpt>
      <trkpt lat="45.87566" lon="4.77503">
        <ele>232</ele>
        <time>2018-02-12T14:43:25Z</time>
      </trkpt>
      <trkpt lat="45.87563" lon="4.77502">
        <ele>232</ele>
        <time>2018-02-12T14:43:26Z</time>
      </trkpt>
      <trkpt lat="45.87556" lon="4.77495">
        <ele>233</ele>
        <time>2018-02-12T14:43:29Z</time>
      </trkpt>
      <trkpt lat="45.87554" lon="4.77492">
        <ele>233</ele>
        <time>2018-02-12T14:43:30Z</time>
      </trkpt>
      <trkpt lat="45.8755" lon="4.77486">
        <ele>233</ele>
        <time>2018-02-12T14:43:32Z</time>
      </trkpt>
      <trkpt lat="45.87547" lon="4.77482">
        <ele>233</ele>
        <time>2018-02-12T14:43:33Z</time>
      </trkpt>
      <trkpt lat="45.87543" lon="4.77476">
        <ele>233</ele>
        <time>2018-02-12T14:43:35Z</time>
      </trkpt>
      <trkpt lat="45.8754" lon="4.77472">
        <ele>233</ele>
        <time>2018-02-12T14:43:36Z</time>
      </trkpt>
      <trkpt lat="45.87535" lon="4.77466">
        <ele>233</ele>
        <time>2018-02-12T14:43:38Z</time>
      </trkpt>
      <trkpt lat="45.87533" lon="4.77463">
        <ele>233</ele>
        <time>2018-02-12T14:43:39Z</time>
      </trkpt>
      <trkpt lat="45.87528" lon="4.77457">
        <ele>234</ele>
        <time>2018-02-12T14:43:41Z</time>
      </trkpt>
      <trkpt lat="45.87526" lon="4.77454">
        <ele>233</ele>
        <time>2018-02-12T14:43:42Z</time>
      </trkpt>
      <trkpt lat="45.87522" lon="4.77447">
        <ele>233</ele>
        <time>2018-02-12T14:43:44Z</time>
      </trkpt>
      <trkpt lat="45.87519" lon="4.77444">
        <ele>233</ele>
        <time>2018-02-12T14:43:45Z</time>
      </trkpt>
      <trkpt lat="45.87514" lon="4.77437">
        <ele>233</ele>
        <time>2018-02-12T14:43:47Z</time>
      </trkpt>
      <trkpt lat="45.87511" lon="4.77434">
        <ele>233</ele>
        <time>2018-02-12T14:43:48Z</time>
      </trkpt>
      <trkpt lat="45.87506" lon="4.77427">
        <ele>233</ele>
        <time>2018-02-12T14:43:50Z</time>
      </trkpt>
      <trkpt lat="45.87504" lon="4.77423">
        <ele>233</ele>
        <time>2018-02-12T14:43:51Z</time>
      </trkpt>
      <trkpt lat="45.87499" lon="4.77415">
        <ele>233</ele>
        <time>2018-02-12T14:43:53Z</time>
      </trkpt>
      <trkpt lat="45.87497" lon="4.77411">
        <ele>234</ele>
        <time>2018-02-12T14:43:54Z</time>
      </trkpt>
      <trkpt lat="45.87492" lon="4.77403">
        <ele>234</ele>
        <time>2018-02-12T14:43:56Z</time>
      </trkpt>
      <trkpt lat="45.87491" lon="4.77399">
        <ele>234</ele>
        <time>2018-02-12T14:43:57Z</time>
      </trkpt>
      <trkpt lat="45.87488" lon="4.77391">
        <ele>235</ele>
        <time>2018-02-12T14:43:59Z</time>
      </trkpt>
      <trkpt lat="45.87487" lon="4.77386">
        <ele>235</ele>
        <time>2018-02-12T14:44:00Z</time>
      </trkpt>
      <trkpt lat="45.87484" lon="4.77376">
        <ele>235</ele>
        <time>2018-02-12T14:44:02Z</time>
      </trkpt>
      <trkpt lat="45.87483" lon="4.77371">
        <ele>235</ele>
        <time>2018-02-12T14:44:03Z</time>
      </trkpt>
      <trkpt lat="45.87481" lon="4.77361">
        <ele>235</ele>
        <time>2018-02-12T14:44:05Z</time>
      </trkpt>
      <trkpt lat="45.8748" lon="4.77356">
        <ele>235</ele>
        <time>2018-02-12T14:44:06Z</time>
      </trkpt>
      <trkpt lat="45.87479" lon="4.77347">
        <ele>235</ele>
        <time>2018-02-12T14:44:08Z</time>
      </trkpt>
      <trkpt lat="45.87478" lon="4.77342">
        <ele>235</ele>
        <time>2018-02-12T14:44:09Z</time>
      </trkpt>
      <trkpt lat="45.87475" lon="4.77333">
        <ele>235</ele>
        <time>2018-02-12T14:44:11Z</time>
      </trkpt>
      <trkpt lat="45.87474" lon="4.77328">
        <ele>235</ele>
        <time>2018-02-12T14:44:12Z</time>
      </trkpt>
      <trkpt lat="45.87472" lon="4.77318">
        <ele>235</ele>
        <time>2018-02-12T14:44:14Z</time>
      </trkpt>
      <trkpt lat="45.87471" lon="4.77313">
        <ele>235</ele>
        <time>2018-02-12T14:44:15Z</time>
      </trkpt>
      <trkpt lat="45.87469" lon="4.77304">
        <ele>235</ele>
        <time>2018-02-12T14:44:17Z</time>
      </trkpt>
      <trkpt lat="45.87468" lon="4.77299">
        <ele>235</ele>
        <time>2018-02-12T14:44:18Z</time>
      </trkpt>
      <trkpt lat="45.87465" lon="4.77288">
        <ele>235</ele>
        <time>2018-02-12T14:44:20Z</time>
      </trkpt>
      <trkpt lat="45.87464" lon="4.77283">
        <ele>235</ele>
        <time>2018-02-12T14:44:21Z</time>
      </trkpt>
      <trkpt lat="45.8746" lon="4.77274">
        <ele>235</ele>
        <time>2018-02-12T14:44:23Z</time>
      </trkpt>
      <trkpt lat="45.87458" lon="4.7727">
        <ele>235</ele>
        <time>2018-02-12T14:44:24Z</time>
      </trkpt>
      <trkpt lat="45.87454" lon="4.77261">
        <ele>235</ele>
        <time>2018-02-12T14:44:26Z</time>
      </trkpt>
      <trkpt lat="45.87451" lon="4.77256">
        <ele>235</ele>
        <time>2018-02-12T14:44:27Z</time>
      </trkpt>
      <trkpt lat="45.87446" lon="4.77249">
        <ele>235</ele>
        <time>2018-02-12T14:44:29Z</time>
      </trkpt>
      <trkpt lat="45.87442" lon="4.77246">
        <ele>235</ele>
        <time>2018-02-12T14:44:30Z</time>
      </trkpt>
      <trkpt lat="45.87436" lon="4.7724">
        <ele>235</ele>
        <time>2018-02-12T14:44:32Z</time>
      </trkpt>
      <trkpt lat="45.87433" lon="4.77238">
        <ele>235</ele>
        <time>2018-02-12T14:44:33Z</time>
      </trkpt>
      <trkpt lat="45.87426" lon="4.77234">
        <ele>235</ele>
        <time>2018-02-12T14:44:35Z</time>
      </trkpt>
      <trkpt lat="45.87422" lon="4.77231">
        <ele>235</ele>
        <time>2018-02-12T14:44:36Z</time>
      </trkpt>
      <trkpt lat="45.87415" lon="4.77227">
        <ele>238</ele>
        <time>2018-02-12T14:44:38Z</time>
      </trkpt>
      <trkpt lat="45.87411" lon="4.77226">
        <ele>238</ele>
        <time>2018-02-12T14:44:39Z</time>
      </trkpt>
      <trkpt lat="45.87405" lon="4.77223">
        <ele>238</ele>
        <time>2018-02-12T14:44:41Z</time>
      </trkpt>
      <trkpt lat="45.87401" lon="4.77223">
        <ele>238</ele>
        <time>2018-02-12T14:44:42Z</time>
      </trkpt>
      <trkpt lat="45.87394" lon="4.77221">
        <ele>239</ele>
        <time>2018-02-12T14:44:44Z</time>
      </trkpt>
      <trkpt lat="45.8739" lon="4.7722">
        <ele>239</ele>
        <time>2018-02-12T14:44:45Z</time>
      </trkpt>
      <trkpt lat="45.87383" lon="4.77218">
        <ele>239</ele>
        <time>2018-02-12T14:44:47Z</time>
      </trkpt>
      <trkpt lat="45.87379" lon="4.77217">
        <ele>239</ele>
        <time>2018-02-12T14:44:48Z</time>
      </trkpt>
      <trkpt lat="45.87372" lon="4.77218">
        <ele>239</ele>
        <time>2018-02-12T14:44:50Z</time>
      </trkpt>
      <trkpt lat="45.87369" lon="4.77219">
        <ele>240</ele>
        <time>2018-02-12T14:44:51Z</time>
      </trkpt>
      <trkpt lat="45.87362" lon="4.77219">
        <ele>240</ele>
        <time>2018-02-12T14:44:53Z</time>
      </trkpt>
      <trkpt lat="45.87358" lon="4.7722">
        <ele>240</ele>
        <time>2018-02-12T14:44:54Z</time>
      </trkpt>
      <trkpt lat="45.87351" lon="4.77221">
        <ele>240</ele>
        <time>2018-02-12T14:44:56Z</time>
      </trkpt>
      <trkpt lat="45.87347" lon="4.77221">
        <ele>240</ele>
        <time>2018-02-12T14:44:57Z</time>
      </trkpt>
      <trkpt lat="45.87339" lon="4.77223">
        <ele>241</ele>
        <time>2018-02-12T14:44:59Z</time>
      </trkpt>
      <trkpt lat="45.87335" lon="4.77223">
        <ele>241</ele>
        <time>2018-02-12T14:45:00Z</time>
      </trkpt>
      <trkpt lat="45.87328" lon="4.77225">
        <ele>243</ele>
        <time>2018-02-12T14:45:02Z</time>
      </trkpt>
      <trkpt lat="45.87324" lon="4.77227">
        <ele>244</ele>
        <time>2018-02-12T14:45:03Z</time>
      </trkpt>
      <trkpt lat="45.87315" lon="4.77228">
        <ele>244</ele>
        <time>2018-02-12T14:45:05Z</time>
      </trkpt>
      <trkpt lat="45.87311" lon="4.77228">
        <ele>244</ele>
        <time>2018-02-12T14:45:06Z</time>
      </trkpt>
      <trkpt lat="45.87302" lon="4.77228">
        <ele>244</ele>
        <time>2018-02-12T14:45:08Z</time>
      </trkpt>
      <trkpt lat="45.87298" lon="4.77227">
        <ele>244</ele>
        <time>2018-02-12T14:45:09Z</time>
      </trkpt>
      <trkpt lat="45.8729" lon="4.77222">
        <ele>244</ele>
        <time>2018-02-12T14:45:11Z</time>
      </trkpt>
      <trkpt lat="45.87287" lon="4.77219">
        <ele>244</ele>
        <time>2018-02-12T14:45:12Z</time>
      </trkpt>
      <trkpt lat="45.87283" lon="4.77212">
        <ele>244</ele>
        <time>2018-02-12T14:45:13Z</time>
      </trkpt>
      <trkpt lat="45.87281" lon="4.77206">
        <ele>244</ele>
        <time>2018-02-12T14:45:14Z</time>
      </trkpt>
      <trkpt lat="45.87278" lon="4.77199">
        <ele>244</ele>
        <time>2018-02-12T14:45:15Z</time>
      </trkpt>
      <trkpt lat="45.87277" lon="4.77193">
        <ele>244</ele>
        <time>2018-02-12T14:45:16Z</time>
      </trkpt>
      <trkpt lat="45.87274" lon="4.77181">
        <ele>244</ele>
        <time>2018-02-12T14:45:18Z</time>
      </trkpt>
      <trkpt lat="45.87273" lon="4.77174">
        <ele>244</ele>
        <time>2018-02-12T14:45:19Z</time>
      </trkpt>
      <trkpt lat="45.87272" lon="4.77167">
        <ele>244</ele>
        <time>2018-02-12T14:45:20Z</time>
      </trkpt>
      <trkpt lat="45.87272" lon="4.77159">
        <ele>242</ele>
        <time>2018-02-12T14:45:21Z</time>
      </trkpt>
      <trkpt lat="45.87271" lon="4.77152">
        <ele>242</ele>
        <time>2018-02-12T14:45:22Z</time>
      </trkpt>
      <trkpt lat="45.87271" lon="4.77146">
        <ele>241</ele>
        <time>2018-02-12T14:45:23Z</time>
      </trkpt>
      <trkpt lat="45.8727" lon="4.77133">
        <ele>241</ele>
        <time>2018-02-12T14:45:25Z</time>
      </trkpt>
      <trkpt lat="45.8727" lon="4.77127">
        <ele>241</ele>
        <time>2018-02-12T14:45:26Z</time>
      </trkpt>
      <trkpt lat="45.8727" lon="4.77118">
        <ele>240</ele>
        <time>2018-02-12T14:45:27Z</time>
      </trkpt>
      <trkpt lat="45.87271" lon="4.77111">
        <ele>240</ele>
        <time>2018-02-12T14:45:28Z</time>
      </trkpt>
      <trkpt lat="45.8727" lon="4.77104">
        <ele>240</ele>
        <time>2018-02-12T14:45:29Z</time>
      </trkpt>
      <trkpt lat="45.87271" lon="4.77095">
        <ele>240</ele>
        <time>2018-02-12T14:45:30Z</time>
      </trkpt>
      <trkpt lat="45.87271" lon="4.77087">
        <ele>240</ele>
        <time>2018-02-12T14:45:31Z</time>
      </trkpt>
      <trkpt lat="45.8727" lon="4.7708">
        <ele>239</ele>
        <time>2018-02-12T14:45:32Z</time>
      </trkpt>
      <trkpt lat="45.8727" lon="4.77072">
        <ele>239</ele>
        <time>2018-02-12T14:45:33Z</time>
      </trkpt>
      <trkpt lat="45.87269" lon="4.77065">
        <ele>239</ele>
        <time>2018-02-12T14:45:34Z</time>
      </trkpt>
      <trkpt lat="45.87269" lon="4.77058">
        <ele>239</ele>
        <time>2018-02-12T14:45:35Z</time>
      </trkpt>
      <trkpt lat="45.87268" lon="4.77051">
        <ele>239</ele>
        <time>2018-02-12T14:45:36Z</time>
      </trkpt>
      <trkpt lat="45.87268" lon="4.77038">
        <ele>239</ele>
        <time>2018-02-12T14:45:38Z</time>
      </trkpt>
      <trkpt lat="45.87268" lon="4.77032">
        <ele>239</ele>
        <time>2018-02-12T14:45:39Z</time>
      </trkpt>
      <trkpt lat="45.87268" lon="4.77026">
        <ele>239</ele>
        <time>2018-02-12T14:45:40Z</time>
      </trkpt>
      <trkpt lat="45.87268" lon="4.77019">
        <ele>239</ele>
        <time>2018-02-12T14:45:41Z</time>
      </trkpt>
      <trkpt lat="45.87268" lon="4.77012">
        <ele>239</ele>
        <time>2018-02-12T14:45:42Z</time>
      </trkpt>
      <trkpt lat="45.87268" lon="4.77004">
        <ele>239</ele>
        <time>2018-02-12T14:45:43Z</time>
      </trkpt>
      <trkpt lat="45.87268" lon="4.76998">
        <ele>240</ele>
        <time>2018-02-12T14:45:44Z</time>
      </trkpt>
      <trkpt lat="45.87268" lon="4.76991">
        <ele>240</ele>
        <time>2018-02-12T14:45:45Z</time>
      </trkpt>
      <trkpt lat="45.87268" lon="4.76979">
        <ele>240</ele>
        <time>2018-02-12T14:45:47Z</time>
      </trkpt>
      <trkpt lat="45.87268" lon="4.76973">
        <ele>240</ele>
        <time>2018-02-12T14:45:48Z</time>
      </trkpt>
      <trkpt lat="45.87267" lon="4.7696">
        <ele>240</ele>
        <time>2018-02-12T14:45:50Z</time>
      </trkpt>
      <trkpt lat="45.87268" lon="4.76953">
        <ele>240</ele>
        <time>2018-02-12T14:45:51Z</time>
      </trkpt>
      <trkpt lat="45.87267" lon="4.76946">
        <ele>240</ele>
        <time>2018-02-12T14:45:52Z</time>
      </trkpt>
      <trkpt lat="45.87267" lon="4.76939">
        <ele>241</ele>
        <time>2018-02-12T14:45:53Z</time>
      </trkpt>
      <trkpt lat="45.87266" lon="4.76931">
        <ele>241</ele>
        <time>2018-02-12T14:45:54Z</time>
      </trkpt>
      <trkpt lat="45.87266" lon="4.76924">
        <ele>241</ele>
        <time>2018-02-12T14:45:55Z</time>
      </trkpt>
      <trkpt lat="45.87266" lon="4.76917">
        <ele>241</ele>
        <time>2018-02-12T14:45:56Z</time>
      </trkpt>
      <trkpt lat="45.87266" lon="4.76909">
        <ele>241</ele>
        <time>2018-02-12T14:45:57Z</time>
      </trkpt>
      <trkpt lat="45.87266" lon="4.76901">
        <ele>240</ele>
        <time>2018-02-12T14:45:58Z</time>
      </trkpt>
      <trkpt lat="45.87265" lon="4.76893">
        <ele>240</ele>
        <time>2018-02-12T14:45:59Z</time>
      </trkpt>
      <trkpt lat="45.87265" lon="4.76884">
        <ele>240</ele>
        <time>2018-02-12T14:46:00Z</time>
      </trkpt>
      <trkpt lat="45.87265" lon="4.76876">
        <ele>240</ele>
        <time>2018-02-12T14:46:01Z</time>
      </trkpt>
      <trkpt lat="45.87264" lon="4.76867">
        <ele>239</ele>
        <time>2018-02-12T14:46:02Z</time>
      </trkpt>
      <trkpt lat="45.87263" lon="4.76858">
        <ele>239</ele>
        <time>2018-02-12T14:46:03Z</time>
      </trkpt>
      <trkpt lat="45.87263" lon="4.76849">
        <ele>239</ele>
        <time>2018-02-12T14:46:04Z</time>
      </trkpt>
      <trkpt lat="45.87264" lon="4.76841">
        <ele>239</ele>
        <time>2018-02-12T14:46:05Z</time>
      </trkpt>
      <trkpt lat="45.87264" lon="4.76833">
        <ele>237</ele>
        <time>2018-02-12T14:46:06Z</time>
      </trkpt>
      <trkpt lat="45.87263" lon="4.76825">
        <ele>237</ele>
        <time>2018-02-12T14:46:07Z</time>
      </trkpt>
      <trkpt lat="45.87263" lon="4.76816">
        <ele>237</ele>
        <time>2018-02-12T14:46:08Z</time>
      </trkpt>
      <trkpt lat="45.87263" lon="4.76806">
        <ele>237</ele>
        <time>2018-02-12T14:46:09Z</time>
      </trkpt>
      <trkpt lat="45.87263" lon="4.76797">
        <ele>236</ele>
        <time>2018-02-12T14:46:10Z</time>
      </trkpt>
      <trkpt lat="45.87263" lon="4.76788">
        <ele>236</ele>
        <time>2018-02-12T14:46:11Z</time>
      </trkpt>
      <trkpt lat="45.87263" lon="4.76778">
        <ele>236</ele>
        <time>2018-02-12T14:46:12Z</time>
      </trkpt>
      <trkpt lat="45.87262" lon="4.76769">
        <ele>236</ele>
        <time>2018-02-12T14:46:13Z</time>
      </trkpt>
      <trkpt lat="45.87262" lon="4.76759">
        <ele>236</ele>
        <time>2018-02-12T14:46:14Z</time>
      </trkpt>
      <trkpt lat="45.87262" lon="4.7675">
        <ele>235</ele>
        <time>2018-02-12T14:46:15Z</time>
      </trkpt>
      <trkpt lat="45.87262" lon="4.76742">
        <ele>235</ele>
        <time>2018-02-12T14:46:16Z</time>
      </trkpt>
      <trkpt lat="45.87262" lon="4.76733">
        <ele>235</ele>
        <time>2018-02-12T14:46:17Z</time>
      </trkpt>
      <trkpt lat="45.87262" lon="4.76724">
        <ele>234</ele>
        <time>2018-02-12T14:46:18Z</time>
      </trkpt>
      <trkpt lat="45.87262" lon="4.76716">
        <ele>234</ele>
        <time>2018-02-12T14:46:19Z</time>
      </trkpt>
      <trkpt lat="45.87262" lon="4.76708">
        <ele>234</ele>
        <time>2018-02-12T14:46:20Z</time>
      </trkpt>
      <trkpt lat="45.87262" lon="4.76699">
        <ele>234</ele>
        <time>2018-02-12T14:46:21Z</time>
      </trkpt>
      <trkpt lat="45.87261" lon="4.76691">
        <ele>234</ele>
        <time>2018-02-12T14:46:22Z</time>
      </trkpt>
      <trkpt lat="45.87261" lon="4.76683">
        <ele>234</ele>
        <time>2018-02-12T14:46:23Z</time>
      </trkpt>
      <trkpt lat="45.87261" lon="4.76675">
        <ele>234</ele>
        <time>2018-02-12T14:46:24Z</time>
      </trkpt>
      <trkpt lat="45.87261" lon="4.76668">
        <ele>234</ele>
        <time>2018-02-12T14:46:25Z</time>
      </trkpt>
      <trkpt lat="45.87261" lon="4.7666">
        <ele>234</ele>
        <time>2018-02-12T14:46:26Z</time>
      </trkpt>
      <trkpt lat="45.87261" lon="4.76652">
        <ele>234</ele>
        <time>2018-02-12T14:46:27Z</time>
      </trkpt>
      <trkpt lat="45.87261" lon="4.76644">
        <ele>234</ele>
        <time>2018-02-12T14:46:28Z</time>
      </trkpt>
      <trkpt lat="45.87261" lon="4.76637">
        <ele>234</ele>
        <time>2018-02-12T14:46:29Z</time>
      </trkpt>
      <trkpt lat="45.87261" lon="4.76629">
        <ele>234</ele>
        <time>2018-02-12T14:46:30Z</time>
      </trkpt>
      <trkpt lat="45.87262" lon="4.76621">
        <ele>234</ele>
        <time>2018-02-12T14:46:31Z</time>
      </trkpt>
      <trkpt lat="45.87261" lon="4.76613">
        <ele>234</ele>
        <time>2018-02-12T14:46:32Z</time>
      </trkpt>
      <trkpt lat="45.8726" lon="4.76605">
        <ele>235</ele>
        <time>2018-02-12T14:46:33Z</time>
      </trkpt>
      <trkpt lat="45.87259" lon="4.76597">
        <ele>235</ele>
        <time>2018-02-12T14:46:34Z</time>
      </trkpt>
      <trkpt lat="45.87259" lon="4.76589">
        <ele>235</ele>
        <time>2018-02-12T14:46:35Z</time>
      </trkpt>
      <trkpt lat="45.87259" lon="4.76582">
        <ele>236</ele>
        <time>2018-02-12T14:46:36Z</time>
      </trkpt>
      <trkpt lat="45.87258" lon="4.76574">
        <ele>236</ele>
        <time>2018-02-12T14:46:37Z</time>
      </trkpt>
      <trkpt lat="45.87258" lon="4.76565">
        <ele>236</ele>
        <time>2018-02-12T14:46:38Z</time>
      </trkpt>
      <trkpt lat="45.87258" lon="4.76558">
        <ele>235</ele>
        <time>2018-02-12T14:46:39Z</time>
      </trkpt>
      <trkpt lat="45.87258" lon="4.76551">
        <ele>235</ele>
        <time>2018-02-12T14:46:40Z</time>
      </trkpt>
      <trkpt lat="45.87257" lon="4.76544">
        <ele>236</ele>
        <time>2018-02-12T14:46:41Z</time>
      </trkpt>
      <trkpt lat="45.87257" lon="4.76537">
        <ele>236</ele>
        <time>2018-02-12T14:46:42Z</time>
      </trkpt>
      <trkpt lat="45.87256" lon="4.7653">
        <ele>236</ele>
        <time>2018-02-12T14:46:43Z</time>
      </trkpt>
      <trkpt lat="45.87256" lon="4.76524">
        <ele>236</ele>
        <time>2018-02-12T14:46:44Z</time>
      </trkpt>
      <trkpt lat="45.87256" lon="4.76517">
        <ele>236</ele>
        <time>2018-02-12T14:46:45Z</time>
      </trkpt>
      <trkpt lat="45.87258" lon="4.76509">
        <ele>236</ele>
        <time>2018-02-12T14:46:46Z</time>
      </trkpt>
      <trkpt lat="45.87258" lon="4.76502">
        <ele>236</ele>
        <time>2018-02-12T14:46:47Z</time>
      </trkpt>
      <trkpt lat="45.87257" lon="4.76494">
        <ele>236</ele>
        <time>2018-02-12T14:46:48Z</time>
      </trkpt>
      <trkpt lat="45.87257" lon="4.76488">
        <ele>236</ele>
        <time>2018-02-12T14:46:49Z</time>
      </trkpt>
      <trkpt lat="45.87257" lon="4.76481">
        <ele>236</ele>
        <time>2018-02-12T14:46:50Z</time>
      </trkpt>
      <trkpt lat="45.87257" lon="4.76474">
        <ele>236</ele>
        <time>2018-02-12T14:46:51Z</time>
      </trkpt>
      <trkpt lat="45.87257" lon="4.76468">
        <ele>235</ele>
        <time>2018-02-12T14:46:52Z</time>
      </trkpt>
      <trkpt lat="45.87257" lon="4.7646">
        <ele>235</ele>
        <time>2018-02-12T14:46:53Z</time>
      </trkpt>
      <trkpt lat="45.87256" lon="4.76453">
        <ele>235</ele>
        <time>2018-02-12T14:46:54Z</time>
      </trkpt>
      <trkpt lat="45.87256" lon="4.76445">
        <ele>235</ele>
        <time>2018-02-12T14:46:55Z</time>
      </trkpt>
      <trkpt lat="45.87256" lon="4.76438">
        <ele>235</ele>
        <time>2018-02-12T14:46:56Z</time>
      </trkpt>
      <trkpt lat="45.87256" lon="4.7643">
        <ele>235</ele>
        <time>2018-02-12T14:46:57Z</time>
      </trkpt>
      <trkpt lat="45.87255" lon="4.76422">
        <ele>236</ele>
        <time>2018-02-12T14:46:58Z</time>
      </trkpt>
      <trkpt lat="45.87255" lon="4.76414">
        <ele>235</ele>
        <time>2018-02-12T14:46:59Z</time>
      </trkpt>
      <trkpt lat="45.87255" lon="4.76407">
        <ele>235</ele>
        <time>2018-02-12T14:47:00Z</time>
      </trkpt>
      <trkpt lat="45.87254" lon="4.76399">
        <ele>234</ele>
        <time>2018-02-12T14:47:01Z</time>
      </trkpt>
      <trkpt lat="45.87254" lon="4.76391">
        <ele>234</ele>
        <time>2018-02-12T14:47:02Z</time>
      </trkpt>
      <trkpt lat="45.87254" lon="4.76384">
        <ele>234</ele>
        <time>2018-02-12T14:47:03Z</time>
      </trkpt>
      <trkpt lat="45.87254" lon="4.76377">
        <ele>234</ele>
        <time>2018-02-12T14:47:04Z</time>
      </trkpt>
      <trkpt lat="45.87254" lon="4.7637">
        <ele>234</ele>
        <time>2018-02-12T14:47:05Z</time>
      </trkpt>
      <trkpt lat="45.87253" lon="4.76362">
        <ele>234</ele>
        <time>2018-02-12T14:47:06Z</time>
      </trkpt>
      <trkpt lat="45.87253" lon="4.76355">
        <ele>234</ele>
        <time>2018-02-12T14:47:07Z</time>
      </trkpt>
      <trkpt lat="45.87252" lon="4.76348">
        <ele>234</ele>
        <time>2018-02-12T14:47:08Z</time>
      </trkpt>
      <trkpt lat="45.87251" lon="4.7634">
        <ele>234</ele>
        <time>2018-02-12T14:47:09Z</time>
      </trkpt>
      <trkpt lat="45.87251" lon="4.76333">
        <ele>234</ele>
        <time>2018-02-12T14:47:10Z</time>
      </trkpt>
      <trkpt lat="45.87251" lon="4.76326">
        <ele>234</ele>
        <time>2018-02-12T14:47:11Z</time>
      </trkpt>
      <trkpt lat="45.87251" lon="4.76318">
        <ele>233</ele>
        <time>2018-02-12T14:47:12Z</time>
      </trkpt>
      <trkpt lat="45.8725" lon="4.76311">
        <ele>233</ele>
        <time>2018-02-12T14:47:13Z</time>
      </trkpt>
      <trkpt lat="45.8725" lon="4.76303">
        <ele>233</ele>
        <time>2018-02-12T14:47:14Z</time>
      </trkpt>
      <trkpt lat="45.8725" lon="4.76296">
        <ele>233</ele>
        <time>2018-02-12T14:47:15Z</time>
      </trkpt>
      <trkpt lat="45.8725" lon="4.76289">
        <ele>233</ele>
        <time>2018-02-12T14:47:16Z</time>
      </trkpt>
      <trkpt lat="45.8725" lon="4.76282">
        <ele>233</ele>
        <time>2018-02-12T14:47:17Z</time>
      </trkpt>
      <trkpt lat="45.8725" lon="4.76274">
        <ele>236</ele>
        <time>2018-02-12T14:47:18Z</time>
      </trkpt>
      <trkpt lat="45.87249" lon="4.76267">
        <ele>236</ele>
        <time>2018-02-12T14:47:19Z</time>
      </trkpt>
      <trkpt lat="45.87249" lon="4.76259">
        <ele>235</ele>
        <time>2018-02-12T14:47:20Z</time>
      </trkpt>
      <trkpt lat="45.87249" lon="4.76251">
        <ele>235</ele>
        <time>2018-02-12T14:47:21Z</time>
      </trkpt>
      <trkpt lat="45.87249" lon="4.76244">
        <ele>235</ele>
        <time>2018-02-12T14:47:22Z</time>
      </trkpt>
      <trkpt lat="45.87248" lon="4.76236">
        <ele>235</ele>
        <time>2018-02-12T14:47:23Z</time>
      </trkpt>
      <trkpt lat="45.87247" lon="4.76228">
        <ele>235</ele>
        <time>2018-02-12T14:47:24Z</time>
      </trkpt>
      <trkpt lat="45.87247" lon="4.7622">
        <ele>235</ele>
        <time>2018-02-12T14:47:25Z</time>
      </trkpt>
      <trkpt lat="45.87247" lon="4.76211">
        <ele>234</ele>
        <time>2018-02-12T14:47:26Z</time>
      </trkpt>
      <trkpt lat="45.87247" lon="4.76203">
        <ele>234</ele>
        <time>2018-02-12T14:47:27Z</time>
      </trkpt>
      <trkpt lat="45.87246" lon="4.76195">
        <ele>234</ele>
        <time>2018-02-12T14:47:28Z</time>
      </trkpt>
      <trkpt lat="45.87246" lon="4.76187">
        <ele>234</ele>
        <time>2018-02-12T14:47:29Z</time>
      </trkpt>
      <trkpt lat="45.87246" lon="4.76178">
        <ele>233</ele>
        <time>2018-02-12T14:47:30Z</time>
      </trkpt>
      <trkpt lat="45.87246" lon="4.7617">
        <ele>232</ele>
        <time>2018-02-12T14:47:31Z</time>
      </trkpt>
      <trkpt lat="45.87246" lon="4.76163">
        <ele>232</ele>
        <time>2018-02-12T14:47:32Z</time>
      </trkpt>
      <trkpt lat="45.87246" lon="4.76155">
        <ele>232</ele>
        <time>2018-02-12T14:47:33Z</time>
      </trkpt>
      <trkpt lat="45.87245" lon="4.76147">
        <ele>232</ele>
        <time>2018-02-12T14:47:34Z</time>
      </trkpt>
      <trkpt lat="45.87245" lon="4.7614">
        <ele>232</ele>
        <time>2018-02-12T14:47:35Z</time>
      </trkpt>
      <trkpt lat="45.87245" lon="4.76131">
        <ele>232</ele>
        <time>2018-02-12T14:47:36Z</time>
      </trkpt>
      <trkpt lat="45.87245" lon="4.76123">
        <ele>232</ele>
        <time>2018-02-12T14:47:37Z</time>
      </trkpt>
      <trkpt lat="45.87244" lon="4.76115">
        <ele>232</ele>
        <time>2018-02-12T14:47:38Z</time>
      </trkpt>
      <trkpt lat="45.87243" lon="4.76106">
        <ele>232</ele>
        <time>2018-02-12T14:47:39Z</time>
      </trkpt>
      <trkpt lat="45.87243" lon="4.76098">
        <ele>231</ele>
        <time>2018-02-12T14:47:40Z</time>
      </trkpt>
      <trkpt lat="45.87243" lon="4.76089">
        <ele>231</ele>
        <time>2018-02-12T14:47:41Z</time>
      </trkpt>
      <trkpt lat="45.87243" lon="4.76082">
        <ele>230</ele>
        <time>2018-02-12T14:47:42Z</time>
      </trkpt>
      <trkpt lat="45.87242" lon="4.76074">
        <ele>230</ele>
        <time>2018-02-12T14:47:43Z</time>
      </trkpt>
      <trkpt lat="45.87242" lon="4.76066">
        <ele>230</ele>
        <time>2018-02-12T14:47:44Z</time>
      </trkpt>
      <trkpt lat="45.87242" lon="4.76058">
        <ele>230</ele>
        <time>2018-02-12T14:47:45Z</time>
      </trkpt>
      <trkpt lat="45.87242" lon="4.76049">
        <ele>230</ele>
        <time>2018-02-12T14:47:46Z</time>
      </trkpt>
      <trkpt lat="45.8724" lon="4.76041">
        <ele>230</ele>
        <time>2018-02-12T14:47:47Z</time>
      </trkpt>
      <trkpt lat="45.8724" lon="4.76034">
        <ele>230</ele>
        <time>2018-02-12T14:47:48Z</time>
      </trkpt>
      <trkpt lat="45.87239" lon="4.76025">
        <ele>230</ele>
        <time>2018-02-12T14:47:49Z</time>
      </trkpt>
      <trkpt lat="45.87237" lon="4.76017">
        <ele>230</ele>
        <time>2018-02-12T14:47:50Z</time>
      </trkpt>
      <trkpt lat="45.87236" lon="4.76008">
        <ele>229</ele>
        <time>2018-02-12T14:47:51Z</time>
      </trkpt>
      <trkpt lat="45.87235" lon="4.76">
        <ele>228</ele>
        <time>2018-02-12T14:47:52Z</time>
      </trkpt>
      <trkpt lat="45.87234" lon="4.75991">
        <ele>228</ele>
        <time>2018-02-12T14:47:53Z</time>
      </trkpt>
      <trkpt lat="45.87233" lon="4.75982">
        <ele>228</ele>
        <time>2018-02-12T14:47:54Z</time>
      </trkpt>
      <trkpt lat="45.87232" lon="4.75972">
        <ele>228</ele>
        <time>2018-02-12T14:47:55Z</time>
      </trkpt>
      <trkpt lat="45.8723" lon="4.75964">
        <ele>228</ele>
        <time>2018-02-12T14:47:56Z</time>
      </trkpt>
      <trkpt lat="45.87229" lon="4.75955">
        <ele>228</ele>
        <time>2018-02-12T14:47:57Z</time>
      </trkpt>
      <trkpt lat="45.87228" lon="4.75946">
        <ele>228</ele>
        <time>2018-02-12T14:47:58Z</time>
      </trkpt>
      <trkpt lat="45.87227" lon="4.75936">
        <ele>228</ele>
        <time>2018-02-12T14:47:59Z</time>
      </trkpt>
      <trkpt lat="45.87226" lon="4.75927">
        <ele>228</ele>
        <time>2018-02-12T14:48:00Z</time>
      </trkpt>
      <trkpt lat="45.87224" lon="4.75917">
        <ele>228</ele>
        <time>2018-02-12T14:48:01Z</time>
      </trkpt>
      <trkpt lat="45.87224" lon="4.75907">
        <ele>227</ele>
        <time>2018-02-12T14:48:02Z</time>
      </trkpt>
      <trkpt lat="45.87223" lon="4.75897">
        <ele>227</ele>
        <time>2018-02-12T14:48:03Z</time>
      </trkpt>
      <trkpt lat="45.87222" lon="4.75888">
        <ele>227</ele>
        <time>2018-02-12T14:48:04Z</time>
      </trkpt>
      <trkpt lat="45.87222" lon="4.75878">
        <ele>226</ele>
        <time>2018-02-12T14:48:05Z</time>
      </trkpt>
      <trkpt lat="45.87221" lon="4.75867">
        <ele>226</ele>
        <time>2018-02-12T14:48:06Z</time>
      </trkpt>
      <trkpt lat="45.87219" lon="4.75856">
        <ele>226</ele>
        <time>2018-02-12T14:48:07Z</time>
      </trkpt>
      <trkpt lat="45.87218" lon="4.75845">
        <ele>226</ele>
        <time>2018-02-12T14:48:08Z</time>
      </trkpt>
      <trkpt lat="45.87217" lon="4.75835">
        <ele>226</ele>
        <time>2018-02-12T14:48:09Z</time>
      </trkpt>
      <trkpt lat="45.87215" lon="4.75824">
        <ele>225</ele>
        <time>2018-02-12T14:48:10Z</time>
      </trkpt>
      <trkpt lat="45.87212" lon="4.75815">
        <ele>224</ele>
        <time>2018-02-12T14:48:11Z</time>
      </trkpt>
      <trkpt lat="45.8721" lon="4.75805">
        <ele>224</ele>
        <time>2018-02-12T14:48:12Z</time>
      </trkpt>
      <trkpt lat="45.87207" lon="4.75796">
        <ele>224</ele>
        <time>2018-02-12T14:48:13Z</time>
      </trkpt>
      <trkpt lat="45.87204" lon="4.75785">
        <ele>224</ele>
        <time>2018-02-12T14:48:14Z</time>
      </trkpt>
      <trkpt lat="45.87202" lon="4.75776">
        <ele>224</ele>
        <time>2018-02-12T14:48:15Z</time>
      </trkpt>
      <trkpt lat="45.87199" lon="4.75766">
        <ele>224</ele>
        <time>2018-02-12T14:48:16Z</time>
      </trkpt>
      <trkpt lat="45.87196" lon="4.75756">
        <ele>224</ele>
        <time>2018-02-12T14:48:17Z</time>
      </trkpt>
      <trkpt lat="45.87192" lon="4.75748">
        <ele>223</ele>
        <time>2018-02-12T14:48:18Z</time>
      </trkpt>
      <trkpt lat="45.8719" lon="4.7574">
        <ele>223</ele>
        <time>2018-02-12T14:48:19Z</time>
      </trkpt>
      <trkpt lat="45.87187" lon="4.7573">
        <ele>223</ele>
        <time>2018-02-12T14:48:20Z</time>
      </trkpt>
      <trkpt lat="45.87185" lon="4.75722">
        <ele>223</ele>
        <time>2018-02-12T14:48:21Z</time>
      </trkpt>
      <trkpt lat="45.87183" lon="4.75713">
        <ele>223</ele>
        <time>2018-02-12T14:48:22Z</time>
      </trkpt>
      <trkpt lat="45.87182" lon="4.75705">
        <ele>223</ele>
        <time>2018-02-12T14:48:23Z</time>
      </trkpt>
      <trkpt lat="45.87181" lon="4.75697">
        <ele>223</ele>
        <time>2018-02-12T14:48:24Z</time>
      </trkpt>
      <trkpt lat="45.8718" lon="4.75689">
        <ele>223</ele>
        <time>2018-02-12T14:48:25Z</time>
      </trkpt>
      <trkpt lat="45.87178" lon="4.75681">
        <ele>223</ele>
        <time>2018-02-12T14:48:26Z</time>
      </trkpt>
      <trkpt lat="45.87177" lon="4.75673">
        <ele>223</ele>
        <time>2018-02-12T14:48:27Z</time>
      </trkpt>
      <trkpt lat="45.87177" lon="4.75664">
        <ele>223</ele>
        <time>2018-02-12T14:48:28Z</time>
      </trkpt>
      <trkpt lat="45.87176" lon="4.75656">
        <ele>222</ele>
        <time>2018-02-12T14:48:29Z</time>
      </trkpt>
      <trkpt lat="45.87177" lon="4.75647">
        <ele>222</ele>
        <time>2018-02-12T14:48:30Z</time>
      </trkpt>
      <trkpt lat="45.87178" lon="4.75638">
        <ele>222</ele>
        <time>2018-02-12T14:48:31Z</time>
      </trkpt>
      <trkpt lat="45.87178" lon="4.7563">
        <ele>222</ele>
        <time>2018-02-12T14:48:32Z</time>
      </trkpt>
      <trkpt lat="45.87178" lon="4.75621">
        <ele>222</ele>
        <time>2018-02-12T14:48:33Z</time>
      </trkpt>
      <trkpt lat="45.87178" lon="4.75612">
        <ele>222</ele>
        <time>2018-02-12T14:48:34Z</time>
      </trkpt>
      <trkpt lat="45.87178" lon="4.75603">
        <ele>222</ele>
        <time>2018-02-12T14:48:35Z</time>
      </trkpt>
      <trkpt lat="45.87179" lon="4.75593">
        <ele>222</ele>
        <time>2018-02-12T14:48:36Z</time>
      </trkpt>
      <trkpt lat="45.87179" lon="4.75584">
        <ele>222</ele>
        <time>2018-02-12T14:48:37Z</time>
      </trkpt>
      <trkpt lat="45.87179" lon="4.75575">
        <ele>222</ele>
        <time>2018-02-12T14:48:38Z</time>
      </trkpt>
      <trkpt lat="45.87179" lon="4.75567">
        <ele>222</ele>
        <time>2018-02-12T14:48:39Z</time>
      </trkpt>
      <trkpt lat="45.87179" lon="4.75557">
        <ele>222</ele>
        <time>2018-02-12T14:48:40Z</time>
      </trkpt>
      <trkpt lat="45.87178" lon="4.75549">
        <ele>222</ele>
        <time>2018-02-12T14:48:41Z</time>
      </trkpt>
      <trkpt lat="45.87178" lon="4.7554">
        <ele>222</ele>
        <time>2018-02-12T14:48:42Z</time>
      </trkpt>
      <trkpt lat="45.87178" lon="4.75531">
        <ele>222</ele>
        <time>2018-02-12T14:48:43Z</time>
      </trkpt>
      <trkpt lat="45.87178" lon="4.75522">
        <ele>222</ele>
        <time>2018-02-12T14:48:44Z</time>
      </trkpt>
      <trkpt lat="45.87178" lon="4.75513">
        <ele>222</ele>
        <time>2018-02-12T14:48:45Z</time>
      </trkpt>
      <trkpt lat="45.87178" lon="4.75505">
        <ele>223</ele>
        <time>2018-02-12T14:48:46Z</time>
      </trkpt>
      <trkpt lat="45.87179" lon="4.75496">
        <ele>223</ele>
        <time>2018-02-12T14:48:47Z</time>
      </trkpt>
      <trkpt lat="45.87179" lon="4.75488">
        <ele>223</ele>
        <time>2018-02-12T14:48:48Z</time>
      </trkpt>
      <trkpt lat="45.87178" lon="4.75479">
        <ele>222</ele>
        <time>2018-02-12T14:48:49Z</time>
      </trkpt>
      <trkpt lat="45.87179" lon="4.7547">
        <ele>222</ele>
        <time>2018-02-12T14:48:50Z</time>
      </trkpt>
      <trkpt lat="45.87179" lon="4.75461">
        <ele>222</ele>
        <time>2018-02-12T14:48:51Z</time>
      </trkpt>
      <trkpt lat="45.87179" lon="4.75453">
        <ele>222</ele>
        <time>2018-02-12T14:48:52Z</time>
      </trkpt>
      <trkpt lat="45.87178" lon="4.75443">
        <ele>222</ele>
        <time>2018-02-12T14:48:53Z</time>
      </trkpt>
      <trkpt lat="45.87178" lon="4.75435">
        <ele>222</ele>
        <time>2018-02-12T14:48:54Z</time>
      </trkpt>
      <trkpt lat="45.87177" lon="4.75427">
        <ele>223</ele>
        <time>2018-02-12T14:48:55Z</time>
      </trkpt>
      <trkpt lat="45.87177" lon="4.75419">
        <ele>223</ele>
        <time>2018-02-12T14:48:56Z</time>
      </trkpt>
      <trkpt lat="45.87177" lon="4.75412">
        <ele>223</ele>
        <time>2018-02-12T14:48:57Z</time>
      </trkpt>
      <trkpt lat="45.87176" lon="4.75404">
        <ele>223</ele>
        <time>2018-02-12T14:48:58Z</time>
      </trkpt>
      <trkpt lat="45.87177" lon="4.75396">
        <ele>223</ele>
        <time>2018-02-12T14:48:59Z</time>
      </trkpt>
      <trkpt lat="45.87177" lon="4.75389">
        <ele>223</ele>
        <time>2018-02-12T14:49:00Z</time>
      </trkpt>
      <trkpt lat="45.87177" lon="4.75382">
        <ele>223</ele>
        <time>2018-02-12T14:49:01Z</time>
      </trkpt>
      <trkpt lat="45.87178" lon="4.75374">
        <ele>223</ele>
        <time>2018-02-12T14:49:02Z</time>
      </trkpt>
      <trkpt lat="45.87178" lon="4.75367">
        <ele>223</ele>
        <time>2018-02-12T14:49:03Z</time>
      </trkpt>
      <trkpt lat="45.87178" lon="4.7536">
        <ele>223</ele>
        <time>2018-02-12T14:49:04Z</time>
      </trkpt>
      <trkpt lat="45.87177" lon="4.75354">
        <ele>223</ele>
        <time>2018-02-12T14:49:05Z</time>
      </trkpt>
      <trkpt lat="45.87177" lon="4.75347">
        <ele>223</ele>
        <time>2018-02-12T14:49:06Z</time>
      </trkpt>
      <trkpt lat="45.87177" lon="4.75341">
        <ele>223</ele>
        <time>2018-02-12T14:49:07Z</time>
      </trkpt>
      <trkpt lat="45.87177" lon="4.75334">
        <ele>224</ele>
        <time>2018-02-12T14:49:08Z</time>
      </trkpt>
      <trkpt lat="45.87176" lon="4.75327">
        <ele>224</ele>
        <time>2018-02-12T14:49:09Z</time>
      </trkpt>
      <trkpt lat="45.87174" lon="4.75315">
        <ele>223</ele>
        <time>2018-02-12T14:49:11Z</time>
      </trkpt>
      <trkpt lat="45.87174" lon="4.75309">
        <ele>223</ele>
        <time>2018-02-12T14:49:12Z</time>
      </trkpt>
      <trkpt lat="45.87173" lon="4.75303">
        <ele>223</ele>
        <time>2018-02-12T14:49:13Z</time>
      </trkpt>
      <trkpt lat="45.87172" lon="4.75296">
        <ele>223</ele>
        <time>2018-02-12T14:49:14Z</time>
      </trkpt>
      <trkpt lat="45.87171" lon="4.75284">
        <ele>223</ele>
        <time>2018-02-12T14:49:16Z</time>
      </trkpt>
      <trkpt lat="45.8717" lon="4.75278">
        <ele>223</ele>
        <time>2018-02-12T14:49:17Z</time>
      </trkpt>
      <trkpt lat="45.87168" lon="4.75272">
        <ele>223</ele>
        <time>2018-02-12T14:49:18Z</time>
      </trkpt>
      <trkpt lat="45.87167" lon="4.75265">
        <ele>223</ele>
        <time>2018-02-12T14:49:19Z</time>
      </trkpt>
      <trkpt lat="45.87165" lon="4.75254">
        <ele>223</ele>
        <time>2018-02-12T14:49:21Z</time>
      </trkpt>
      <trkpt lat="45.87163" lon="4.75247">
        <ele>223</ele>
        <time>2018-02-12T14:49:22Z</time>
      </trkpt>
      <trkpt lat="45.87162" lon="4.75241">
        <ele>224</ele>
        <time>2018-02-12T14:49:23Z</time>
      </trkpt>
      <trkpt lat="45.87161" lon="4.75233">
        <ele>224</ele>
        <time>2018-02-12T14:49:24Z</time>
      </trkpt>
      <trkpt lat="45.8716" lon="4.75227">
        <ele>224</ele>
        <time>2018-02-12T14:49:25Z</time>
      </trkpt>
      <trkpt lat="45.87159" lon="4.7522">
        <ele>225</ele>
        <time>2018-02-12T14:49:26Z</time>
      </trkpt>
      <trkpt lat="45.87157" lon="4.75213">
        <ele>225</ele>
        <time>2018-02-12T14:49:27Z</time>
      </trkpt>
      <trkpt lat="45.87156" lon="4.75206">
        <ele>225</ele>
        <time>2018-02-12T14:49:28Z</time>
      </trkpt>
      <trkpt lat="45.87154" lon="4.75199">
        <ele>225</ele>
        <time>2018-02-12T14:49:29Z</time>
      </trkpt>
      <trkpt lat="45.87153" lon="4.75193">
        <ele>225</ele>
        <time>2018-02-12T14:49:30Z</time>
      </trkpt>
      <trkpt lat="45.87151" lon="4.75186">
        <ele>225</ele>
        <time>2018-02-12T14:49:31Z</time>
      </trkpt>
      <trkpt lat="45.87149" lon="4.75178">
        <ele>225</ele>
        <time>2018-02-12T14:49:32Z</time>
      </trkpt>
      <trkpt lat="45.87148" lon="4.75171">
        <ele>225</ele>
        <time>2018-02-12T14:49:33Z</time>
      </trkpt>
      <trkpt lat="45.87146" lon="4.75165">
        <ele>225</ele>
        <time>2018-02-12T14:49:34Z</time>
      </trkpt>
      <trkpt lat="45.87144" lon="4.75153">
        <ele>225</ele>
        <time>2018-02-12T14:49:36Z</time>
      </trkpt>
      <trkpt lat="45.87143" lon="4.75147">
        <ele>225</ele>
        <time>2018-02-12T14:49:37Z</time>
      </trkpt>
      <trkpt lat="45.87141" lon="4.7514">
        <ele>225</ele>
        <time>2018-02-12T14:49:38Z</time>
      </trkpt>
      <trkpt lat="45.8714" lon="4.75133">
        <ele>225</ele>
        <time>2018-02-12T14:49:39Z</time>
      </trkpt>
      <trkpt lat="45.87138" lon="4.75121">
        <ele>225</ele>
        <time>2018-02-12T14:49:41Z</time>
      </trkpt>
      <trkpt lat="45.87137" lon="4.75115">
        <ele>225</ele>
        <time>2018-02-12T14:49:42Z</time>
      </trkpt>
      <trkpt lat="45.87136" lon="4.75108">
        <ele>225</ele>
        <time>2018-02-12T14:49:43Z</time>
      </trkpt>
      <trkpt lat="45.87135" lon="4.75102">
        <ele>225</ele>
        <time>2018-02-12T14:49:44Z</time>
      </trkpt>
      <trkpt lat="45.87134" lon="4.75095">
        <ele>225</ele>
        <time>2018-02-12T14:49:45Z</time>
      </trkpt>
      <trkpt lat="45.87133" lon="4.75088">
        <ele>225</ele>
        <time>2018-02-12T14:49:46Z</time>
      </trkpt>
      <trkpt lat="45.87133" lon="4.75081">
        <ele>225</ele>
        <time>2018-02-12T14:49:47Z</time>
      </trkpt>
      <trkpt lat="45.87132" lon="4.75074">
        <ele>225</ele>
        <time>2018-02-12T14:49:48Z</time>
      </trkpt>
      <trkpt lat="45.87131" lon="4.75066">
        <ele>225</ele>
        <time>2018-02-12T14:49:49Z</time>
      </trkpt>
      <trkpt lat="45.8713" lon="4.75059">
        <ele>225</ele>
        <time>2018-02-12T14:49:50Z</time>
      </trkpt>
      <trkpt lat="45.87129" lon="4.75051">
        <ele>225</ele>
        <time>2018-02-12T14:49:51Z</time>
      </trkpt>
      <trkpt lat="45.87128" lon="4.75044">
        <ele>225</ele>
        <time>2018-02-12T14:49:52Z</time>
      </trkpt>
      <trkpt lat="45.87128" lon="4.75037">
        <ele>226</ele>
        <time>2018-02-12T14:49:53Z</time>
      </trkpt>
      <trkpt lat="45.87127" lon="4.75029">
        <ele>226</ele>
        <time>2018-02-12T14:49:54Z</time>
      </trkpt>
      <trkpt lat="45.87127" lon="4.7502">
        <ele>226</ele>
        <time>2018-02-12T14:49:55Z</time>
      </trkpt>
      <trkpt lat="45.87127" lon="4.75012">
        <ele>226</ele>
        <time>2018-02-12T14:49:56Z</time>
      </trkpt>
      <trkpt lat="45.87128" lon="4.75004">
        <ele>226</ele>
        <time>2018-02-12T14:49:57Z</time>
      </trkpt>
      <trkpt lat="45.87128" lon="4.74995">
        <ele>226</ele>
        <time>2018-02-12T14:49:58Z</time>
      </trkpt>
      <trkpt lat="45.87128" lon="4.74986">
        <ele>226</ele>
        <time>2018-02-12T14:49:59Z</time>
      </trkpt>
      <trkpt lat="45.87129" lon="4.74978">
        <ele>226</ele>
        <time>2018-02-12T14:50:00Z</time>
      </trkpt>
      <trkpt lat="45.8713" lon="4.74969">
        <ele>226</ele>
        <time>2018-02-12T14:50:01Z</time>
      </trkpt>
      <trkpt lat="45.8713" lon="4.74961">
        <ele>226</ele>
        <time>2018-02-12T14:50:02Z</time>
      </trkpt>
      <trkpt lat="45.87133" lon="4.74953">
        <ele>226</ele>
        <time>2018-02-12T14:50:03Z</time>
      </trkpt>
      <trkpt lat="45.87138" lon="4.74945">
        <ele>226</ele>
        <time>2018-02-12T14:50:04Z</time>
      </trkpt>
      <trkpt lat="45.87141" lon="4.74939">
        <ele>226</ele>
        <time>2018-02-12T14:50:05Z</time>
      </trkpt>
      <trkpt lat="45.87143" lon="4.74931">
        <ele>226</ele>
        <time>2018-02-12T14:50:06Z</time>
      </trkpt>
      <trkpt lat="45.87144" lon="4.74923">
        <ele>226</ele>
        <time>2018-02-12T14:50:07Z</time>
      </trkpt>
      <trkpt lat="45.87144" lon="4.74915">
        <ele>225</ele>
        <time>2018-02-12T14:50:08Z</time>
      </trkpt>
      <trkpt lat="45.87142" lon="4.74906">
        <ele>225</ele>
        <time>2018-02-12T14:50:09Z</time>
      </trkpt>
      <trkpt lat="45.87139" lon="4.749">
        <ele>225</ele>
        <time>2018-02-12T14:50:10Z</time>
      </trkpt>
      <trkpt lat="45.87137" lon="4.74892">
        <ele>225</ele>
        <time>2018-02-12T14:50:11Z</time>
      </trkpt>
      <trkpt lat="45.87135" lon="4.74884">
        <ele>225</ele>
        <time>2018-02-12T14:50:12Z</time>
      </trkpt>
      <trkpt lat="45.87134" lon="4.74876">
        <ele>225</ele>
        <time>2018-02-12T14:50:13Z</time>
      </trkpt>
      <trkpt lat="45.87134" lon="4.74868">
        <ele>225</ele>
        <time>2018-02-12T14:50:14Z</time>
      </trkpt>
      <trkpt lat="45.87134" lon="4.74859">
        <ele>224</ele>
        <time>2018-02-12T14:50:15Z</time>
      </trkpt>
      <trkpt lat="45.87133" lon="4.7485">
        <ele>224</ele>
        <time>2018-02-12T14:50:16Z</time>
      </trkpt>
      <trkpt lat="45.87132" lon="4.74841">
        <ele>224</ele>
        <time>2018-02-12T14:50:17Z</time>
      </trkpt>
      <trkpt lat="45.87132" lon="4.74833">
        <ele>223</ele>
        <time>2018-02-12T14:50:18Z</time>
      </trkpt>
      <trkpt lat="45.87132" lon="4.74824">
        <ele>223</ele>
        <time>2018-02-12T14:50:19Z</time>
      </trkpt>
      <trkpt lat="45.87133" lon="4.74815">
        <ele>223</ele>
        <time>2018-02-12T14:50:20Z</time>
      </trkpt>
      <trkpt lat="45.87132" lon="4.74807">
        <ele>222</ele>
        <time>2018-02-12T14:50:21Z</time>
      </trkpt>
      <trkpt lat="45.87131" lon="4.74798">
        <ele>222</ele>
        <time>2018-02-12T14:50:22Z</time>
      </trkpt>
      <trkpt lat="45.87129" lon="4.74788">
        <ele>222</ele>
        <time>2018-02-12T14:50:23Z</time>
      </trkpt>
      <trkpt lat="45.87129" lon="4.7478">
        <ele>222</ele>
        <time>2018-02-12T14:50:24Z</time>
      </trkpt>
      <trkpt lat="45.87128" lon="4.74771">
        <ele>222</ele>
        <time>2018-02-12T14:50:25Z</time>
      </trkpt>
      <trkpt lat="45.87129" lon="4.7476">
        <ele>222</ele>
        <time>2018-02-12T14:50:26Z</time>
      </trkpt>
      <trkpt lat="45.87128" lon="4.74751">
        <ele>222</ele>
        <time>2018-02-12T14:50:27Z</time>
      </trkpt>
      <trkpt lat="45.87127" lon="4.74742">
        <ele>221</ele>
        <time>2018-02-12T14:50:28Z</time>
      </trkpt>
      <trkpt lat="45.87126" lon="4.74733">
        <ele>221</ele>
        <time>2018-02-12T14:50:29Z</time>
      </trkpt>
      <trkpt lat="45.87126" lon="4.74724">
        <ele>221</ele>
        <time>2018-02-12T14:50:30Z</time>
      </trkpt>
      <trkpt lat="45.87125" lon="4.74715">
        <ele>221</ele>
        <time>2018-02-12T14:50:31Z</time>
      </trkpt>
      <trkpt lat="45.87124" lon="4.74705">
        <ele>221</ele>
        <time>2018-02-12T14:50:32Z</time>
      </trkpt>
      <trkpt lat="45.87124" lon="4.74696">
        <ele>221</ele>
        <time>2018-02-12T14:50:33Z</time>
      </trkpt>
      <trkpt lat="45.87124" lon="4.74687">
        <ele>221</ele>
        <time>2018-02-12T14:50:34Z</time>
      </trkpt>
      <trkpt lat="45.87123" lon="4.74679">
        <ele>221</ele>
        <time>2018-02-12T14:50:35Z</time>
      </trkpt>
      <trkpt lat="45.87122" lon="4.7467">
        <ele>221</ele>
        <time>2018-02-12T14:50:36Z</time>
      </trkpt>
      <trkpt lat="45.87122" lon="4.74662">
        <ele>222</ele>
        <time>2018-02-12T14:50:37Z</time>
      </trkpt>
      <trkpt lat="45.87121" lon="4.74655">
        <ele>222</ele>
        <time>2018-02-12T14:50:38Z</time>
      </trkpt>
      <trkpt lat="45.8712" lon="4.74647">
        <ele>222</ele>
        <time>2018-02-12T14:50:39Z</time>
      </trkpt>
      <trkpt lat="45.87119" lon="4.74638">
        <ele>222</ele>
        <time>2018-02-12T14:50:40Z</time>
      </trkpt>
      <trkpt lat="45.87119" lon="4.74631">
        <ele>222</ele>
        <time>2018-02-12T14:50:41Z</time>
      </trkpt>
      <trkpt lat="45.87118" lon="4.74623">
        <ele>222</ele>
        <time>2018-02-12T14:50:42Z</time>
      </trkpt>
      <trkpt lat="45.87117" lon="4.74616">
        <ele>222</ele>
        <time>2018-02-12T14:50:43Z</time>
      </trkpt>
      <trkpt lat="45.87117" lon="4.74608">
        <ele>222</ele>
        <time>2018-02-12T14:50:44Z</time>
      </trkpt>
      <trkpt lat="45.87116" lon="4.74601">
        <ele>222</ele>
        <time>2018-02-12T14:50:45Z</time>
      </trkpt>
      <trkpt lat="45.87116" lon="4.74594">
        <ele>222</ele>
        <time>2018-02-12T14:50:46Z</time>
      </trkpt>
      <trkpt lat="45.87115" lon="4.74586">
        <ele>222</ele>
        <time>2018-02-12T14:50:47Z</time>
      </trkpt>
      <trkpt lat="45.87113" lon="4.7458">
        <ele>221</ele>
        <time>2018-02-12T14:50:48Z</time>
      </trkpt>
      <trkpt lat="45.87111" lon="4.74573">
        <ele>221</ele>
        <time>2018-02-12T14:50:49Z</time>
      </trkpt>
      <trkpt lat="45.87108" lon="4.74567">
        <ele>220</ele>
        <time>2018-02-12T14:50:50Z</time>
      </trkpt>
      <trkpt lat="45.87104" lon="4.74556">
        <ele>220</ele>
        <time>2018-02-12T14:50:52Z</time>
      </trkpt>
      <trkpt lat="45.87103" lon="4.74551">
        <ele>220</ele>
        <time>2018-02-12T14:50:53Z</time>
      </trkpt>
      <trkpt lat="45.87106" lon="4.7454">
        <ele>220</ele>
        <time>2018-02-12T14:50:55Z</time>
      </trkpt>
      <trkpt lat="45.87109" lon="4.74535">
        <ele>220</ele>
        <time>2018-02-12T14:50:56Z</time>
      </trkpt>
      <trkpt lat="45.87112" lon="4.7453">
        <ele>220</ele>
        <time>2018-02-12T14:50:57Z</time>
      </trkpt>
      <trkpt lat="45.87114" lon="4.74524">
        <ele>220</ele>
        <time>2018-02-12T14:50:58Z</time>
      </trkpt>
      <trkpt lat="45.87115" lon="4.74518">
        <ele>219</ele>
        <time>2018-02-12T14:50:59Z</time>
      </trkpt>
      <trkpt lat="45.87115" lon="4.74511">
        <ele>219</ele>
        <time>2018-02-12T14:51:00Z</time>
      </trkpt>
      <trkpt lat="45.87114" lon="4.74504">
        <ele>219</ele>
        <time>2018-02-12T14:51:01Z</time>
      </trkpt>
      <trkpt lat="45.87112" lon="4.74498">
        <ele>218</ele>
        <time>2018-02-12T14:51:02Z</time>
      </trkpt>
      <trkpt lat="45.87109" lon="4.74492">
        <ele>218</ele>
        <time>2018-02-12T14:51:03Z</time>
      </trkpt>
      <trkpt lat="45.87107" lon="4.74486">
        <ele>218</ele>
        <time>2018-02-12T14:51:04Z</time>
      </trkpt>
      <trkpt lat="45.87106" lon="4.74479">
        <ele>218</ele>
        <time>2018-02-12T14:51:05Z</time>
      </trkpt>
      <trkpt lat="45.87105" lon="4.74472">
        <ele>218</ele>
        <time>2018-02-12T14:51:06Z</time>
      </trkpt>
      <trkpt lat="45.87104" lon="4.74465">
        <ele>218</ele>
        <time>2018-02-12T14:51:07Z</time>
      </trkpt>
      <trkpt lat="45.87103" lon="4.74458">
        <ele>218</ele>
        <time>2018-02-12T14:51:08Z</time>
      </trkpt>
      <trkpt lat="45.87102" lon="4.74449">
        <ele>218</ele>
        <time>2018-02-12T14:51:09Z</time>
      </trkpt>
      <trkpt lat="45.87101" lon="4.74441">
        <ele>218</ele>
        <time>2018-02-12T14:51:10Z</time>
      </trkpt>
      <trkpt lat="45.87099" lon="4.74434">
        <ele>218</ele>
        <time>2018-02-12T14:51:11Z</time>
      </trkpt>
      <trkpt lat="45.87097" lon="4.74424">
        <ele>218</ele>
        <time>2018-02-12T14:51:12Z</time>
      </trkpt>
      <trkpt lat="45.87095" lon="4.74415">
        <ele>218</ele>
        <time>2018-02-12T14:51:13Z</time>
      </trkpt>
      <trkpt lat="45.87094" lon="4.74406">
        <ele>218</ele>
        <time>2018-02-12T14:51:14Z</time>
      </trkpt>
      <trkpt lat="45.87093" lon="4.74398">
        <ele>218</ele>
        <time>2018-02-12T14:51:15Z</time>
      </trkpt>
      <trkpt lat="45.87092" lon="4.7439">
        <ele>218</ele>
        <time>2018-02-12T14:51:16Z</time>
      </trkpt>
      <trkpt lat="45.87091" lon="4.74383">
        <ele>218</ele>
        <time>2018-02-12T14:51:17Z</time>
      </trkpt>
      <trkpt lat="45.87089" lon="4.74375">
        <ele>218</ele>
        <time>2018-02-12T14:51:18Z</time>
      </trkpt>
      <trkpt lat="45.87087" lon="4.74368">
        <ele>218</ele>
        <time>2018-02-12T14:51:19Z</time>
      </trkpt>
      <trkpt lat="45.87086" lon="4.74359">
        <ele>218</ele>
        <time>2018-02-12T14:51:20Z</time>
      </trkpt>
      <trkpt lat="45.87084" lon="4.7435">
        <ele>218</ele>
        <time>2018-02-12T14:51:21Z</time>
      </trkpt>
      <trkpt lat="45.87082" lon="4.74341">
        <ele>219</ele>
        <time>2018-02-12T14:51:22Z</time>
      </trkpt>
      <trkpt lat="45.8708" lon="4.74332">
        <ele>219</ele>
        <time>2018-02-12T14:51:23Z</time>
      </trkpt>
      <trkpt lat="45.87079" lon="4.74323">
        <ele>218</ele>
        <time>2018-02-12T14:51:24Z</time>
      </trkpt>
      <trkpt lat="45.87078" lon="4.74314">
        <ele>218</ele>
        <time>2018-02-12T14:51:25Z</time>
      </trkpt>
      <trkpt lat="45.87077" lon="4.74305">
        <ele>218</ele>
        <time>2018-02-12T14:51:26Z</time>
      </trkpt>
      <trkpt lat="45.87076" lon="4.74295">
        <ele>217</ele>
        <time>2018-02-12T14:51:27Z</time>
      </trkpt>
      <trkpt lat="45.87075" lon="4.74285">
        <ele>217</ele>
        <time>2018-02-12T14:51:28Z</time>
      </trkpt>
      <trkpt lat="45.87075" lon="4.74276">
        <ele>217</ele>
        <time>2018-02-12T14:51:29Z</time>
      </trkpt>
      <trkpt lat="45.87075" lon="4.74265">
        <ele>216</ele>
        <time>2018-02-12T14:51:30Z</time>
      </trkpt>
      <trkpt lat="45.87074" lon="4.74255">
        <ele>215</ele>
        <time>2018-02-12T14:51:31Z</time>
      </trkpt>
      <trkpt lat="45.87074" lon="4.74245">
        <ele>214</ele>
        <time>2018-02-12T14:51:32Z</time>
      </trkpt>
      <trkpt lat="45.87074" lon="4.74236">
        <ele>214</ele>
        <time>2018-02-12T14:51:33Z</time>
      </trkpt>
      <trkpt lat="45.87073" lon="4.74225">
        <ele>214</ele>
        <time>2018-02-12T14:51:34Z</time>
      </trkpt>
      <trkpt lat="45.87074" lon="4.74214">
        <ele>214</ele>
        <time>2018-02-12T14:51:35Z</time>
      </trkpt>
      <trkpt lat="45.87074" lon="4.74202">
        <ele>213</ele>
        <time>2018-02-12T14:51:36Z</time>
      </trkpt>
      <trkpt lat="45.87074" lon="4.74192">
        <ele>213</ele>
        <time>2018-02-12T14:51:37Z</time>
      </trkpt>
      <trkpt lat="45.87074" lon="4.74181">
        <ele>212</ele>
        <time>2018-02-12T14:51:38Z</time>
      </trkpt>
      <trkpt lat="45.87074" lon="4.74171">
        <ele>212</ele>
        <time>2018-02-12T14:51:39Z</time>
      </trkpt>
      <trkpt lat="45.87074" lon="4.74161">
        <ele>212</ele>
        <time>2018-02-12T14:51:40Z</time>
      </trkpt>
      <trkpt lat="45.87074" lon="4.74152">
        <ele>212</ele>
        <time>2018-02-12T14:51:41Z</time>
      </trkpt>
      <trkpt lat="45.87074" lon="4.74144">
        <ele>212</ele>
        <time>2018-02-12T14:51:42Z</time>
      </trkpt>
      <trkpt lat="45.87074" lon="4.74136">
        <ele>212</ele>
        <time>2018-02-12T14:51:43Z</time>
      </trkpt>
      <trkpt lat="45.87074" lon="4.74128">
        <ele>212</ele>
        <time>2018-02-12T14:51:44Z</time>
      </trkpt>
      <trkpt lat="45.87074" lon="4.7412">
        <ele>212</ele>
        <time>2018-02-12T14:51:45Z</time>
      </trkpt>
      <trkpt lat="45.87075" lon="4.74112">
        <ele>212</ele>
        <time>2018-02-12T14:51:46Z</time>
      </trkpt>
      <trkpt lat="45.87075" lon="4.74104">
        <ele>212</ele>
        <time>2018-02-12T14:51:47Z</time>
      </trkpt>
      <trkpt lat="45.87074" lon="4.74096">
        <ele>212</ele>
        <time>2018-02-12T14:51:48Z</time>
      </trkpt>
      <trkpt lat="45.87075" lon="4.74087">
        <ele>212</ele>
        <time>2018-02-12T14:51:49Z</time>
      </trkpt>
      <trkpt lat="45.87075" lon="4.74079">
        <ele>213</ele>
        <time>2018-02-12T14:51:50Z</time>
      </trkpt>
      <trkpt lat="45.87075" lon="4.74072">
        <ele>213</ele>
        <time>2018-02-12T14:51:51Z</time>
      </trkpt>
      <trkpt lat="45.87074" lon="4.74065">
        <ele>214</ele>
        <time>2018-02-12T14:51:52Z</time>
      </trkpt>
      <trkpt lat="45.87074" lon="4.74057">
        <ele>214</ele>
        <time>2018-02-12T14:51:53Z</time>
      </trkpt>
      <trkpt lat="45.87074" lon="4.7405">
        <ele>214</ele>
        <time>2018-02-12T14:51:54Z</time>
      </trkpt>
      <trkpt lat="45.87074" lon="4.74043">
        <ele>215</ele>
        <time>2018-02-12T14:51:55Z</time>
      </trkpt>
      <trkpt lat="45.87074" lon="4.74035">
        <ele>215</ele>
        <time>2018-02-12T14:51:56Z</time>
      </trkpt>
      <trkpt lat="45.87074" lon="4.74028">
        <ele>215</ele>
        <time>2018-02-12T14:51:57Z</time>
      </trkpt>
      <trkpt lat="45.87074" lon="4.74021">
        <ele>215</ele>
        <time>2018-02-12T14:51:58Z</time>
      </trkpt>
      <trkpt lat="45.87073" lon="4.74014">
        <ele>215</ele>
        <time>2018-02-12T14:51:59Z</time>
      </trkpt>
      <trkpt lat="45.87073" lon="4.74008">
        <ele>216</ele>
        <time>2018-02-12T14:52:00Z</time>
      </trkpt>
      <trkpt lat="45.87074" lon="4.73998">
        <ele>217</ele>
        <time>2018-02-12T14:52:01Z</time>
      </trkpt>
      <trkpt lat="45.87075" lon="4.73992">
        <ele>217</ele>
        <time>2018-02-12T14:52:02Z</time>
      </trkpt>
      <trkpt lat="45.87074" lon="4.7398">
        <ele>217</ele>
        <time>2018-02-12T14:52:04Z</time>
      </trkpt>
      <trkpt lat="45.87074" lon="4.73974">
        <ele>217</ele>
        <time>2018-02-12T14:52:05Z</time>
      </trkpt>
      <trkpt lat="45.87075" lon="4.73968">
        <ele>217</ele>
        <time>2018-02-12T14:52:06Z</time>
      </trkpt>
      <trkpt lat="45.87075" lon="4.73961">
        <ele>217</ele>
        <time>2018-02-12T14:52:07Z</time>
      </trkpt>
      <trkpt lat="45.87075" lon="4.73948">
        <ele>218</ele>
        <time>2018-02-12T14:52:09Z</time>
      </trkpt>
      <trkpt lat="45.87074" lon="4.73942">
        <ele>218</ele>
        <time>2018-02-12T14:52:10Z</time>
      </trkpt>
      <trkpt lat="45.87074" lon="4.73935">
        <ele>218</ele>
        <time>2018-02-12T14:52:11Z</time>
      </trkpt>
      <trkpt lat="45.87073" lon="4.73927">
        <ele>218</ele>
        <time>2018-02-12T14:52:12Z</time>
      </trkpt>
      <trkpt lat="45.87072" lon="4.7392">
        <ele>218</ele>
        <time>2018-02-12T14:52:13Z</time>
      </trkpt>
      <trkpt lat="45.87072" lon="4.73913">
        <ele>218</ele>
        <time>2018-02-12T14:52:14Z</time>
      </trkpt>
      <trkpt lat="45.87072" lon="4.73906">
        <ele>218</ele>
        <time>2018-02-12T14:52:15Z</time>
      </trkpt>
      <trkpt lat="45.87071" lon="4.73898">
        <ele>218</ele>
        <time>2018-02-12T14:52:16Z</time>
      </trkpt>
      <trkpt lat="45.87071" lon="4.73891">
        <ele>218</ele>
        <time>2018-02-12T14:52:17Z</time>
      </trkpt>
      <trkpt lat="45.8707" lon="4.73883">
        <ele>218</ele>
        <time>2018-02-12T14:52:18Z</time>
      </trkpt>
      <trkpt lat="45.8707" lon="4.73876">
        <ele>218</ele>
        <time>2018-02-12T14:52:19Z</time>
      </trkpt>
      <trkpt lat="45.8707" lon="4.73868">
        <ele>218</ele>
        <time>2018-02-12T14:52:20Z</time>
      </trkpt>
      <trkpt lat="45.87071" lon="4.73861">
        <ele>218</ele>
        <time>2018-02-12T14:52:21Z</time>
      </trkpt>
      <trkpt lat="45.87071" lon="4.73854">
        <ele>218</ele>
        <time>2018-02-12T14:52:22Z</time>
      </trkpt>
      <trkpt lat="45.8707" lon="4.73847">
        <ele>218</ele>
        <time>2018-02-12T14:52:23Z</time>
      </trkpt>
      <trkpt lat="45.8707" lon="4.73841">
        <ele>218</ele>
        <time>2018-02-12T14:52:24Z</time>
      </trkpt>
      <trkpt lat="45.8707" lon="4.73833">
        <ele>217</ele>
        <time>2018-02-12T14:52:25Z</time>
      </trkpt>
      <trkpt lat="45.8707" lon="4.73826">
        <ele>217</ele>
        <time>2018-02-12T14:52:26Z</time>
      </trkpt>
      <trkpt lat="45.8707" lon="4.73817">
        <ele>217</ele>
        <time>2018-02-12T14:52:27Z</time>
      </trkpt>
      <trkpt lat="45.8707" lon="4.73808">
        <ele>217</ele>
        <time>2018-02-12T14:52:28Z</time>
      </trkpt>
      <trkpt lat="45.87071" lon="4.738">
        <ele>217</ele>
        <time>2018-02-12T14:52:29Z</time>
      </trkpt>
      <trkpt lat="45.87071" lon="4.73793">
        <ele>217</ele>
        <time>2018-02-12T14:52:30Z</time>
      </trkpt>
      <trkpt lat="45.87072" lon="4.73786">
        <ele>217</ele>
        <time>2018-02-12T14:52:31Z</time>
      </trkpt>
      <trkpt lat="45.87073" lon="4.73778">
        <ele>217</ele>
        <time>2018-02-12T14:52:32Z</time>
      </trkpt>
      <trkpt lat="45.87074" lon="4.7377">
        <ele>217</ele>
        <time>2018-02-12T14:52:33Z</time>
      </trkpt>
      <trkpt lat="45.87074" lon="4.73763">
        <ele>216</ele>
        <time>2018-02-12T14:52:34Z</time>
      </trkpt>
      <trkpt lat="45.87074" lon="4.73756">
        <ele>216</ele>
        <time>2018-02-12T14:52:35Z</time>
      </trkpt>
      <trkpt lat="45.87075" lon="4.73748">
        <ele>216</ele>
        <time>2018-02-12T14:52:36Z</time>
      </trkpt>
      <trkpt lat="45.87075" lon="4.73741">
        <ele>216</ele>
        <time>2018-02-12T14:52:37Z</time>
      </trkpt>
      <trkpt lat="45.87076" lon="4.73734">
        <ele>216</ele>
        <time>2018-02-12T14:52:38Z</time>
      </trkpt>
      <trkpt lat="45.87077" lon="4.73727">
        <ele>216</ele>
        <time>2018-02-12T14:52:39Z</time>
      </trkpt>
      <trkpt lat="45.87078" lon="4.73719">
        <ele>217</ele>
        <time>2018-02-12T14:52:40Z</time>
      </trkpt>
      <trkpt lat="45.87079" lon="4.73712">
        <ele>217</ele>
        <time>2018-02-12T14:52:41Z</time>
      </trkpt>
      <trkpt lat="45.8708" lon="4.73704">
        <ele>217</ele>
        <time>2018-02-12T14:52:42Z</time>
      </trkpt>
      <trkpt lat="45.87081" lon="4.73697">
        <ele>217</ele>
        <time>2018-02-12T14:52:43Z</time>
      </trkpt>
      <trkpt lat="45.87082" lon="4.7369">
        <ele>217</ele>
        <time>2018-02-12T14:52:44Z</time>
      </trkpt>
      <trkpt lat="45.87083" lon="4.73682">
        <ele>217</ele>
        <time>2018-02-12T14:52:45Z</time>
      </trkpt>
      <trkpt lat="45.87084" lon="4.73674">
        <ele>215</ele>
        <time>2018-02-12T14:52:46Z</time>
      </trkpt>
      <trkpt lat="45.87085" lon="4.73666">
        <ele>216</ele>
        <time>2018-02-12T14:52:47Z</time>
      </trkpt>
      <trkpt lat="45.87087" lon="4.73658">
        <ele>215</ele>
        <time>2018-02-12T14:52:48Z</time>
      </trkpt>
      <trkpt lat="45.87087" lon="4.7365">
        <ele>215</ele>
        <time>2018-02-12T14:52:49Z</time>
      </trkpt>
      <trkpt lat="45.87088" lon="4.73642">
        <ele>214</ele>
        <time>2018-02-12T14:52:50Z</time>
      </trkpt>
      <trkpt lat="45.8709" lon="4.73633">
        <ele>214</ele>
        <time>2018-02-12T14:52:51Z</time>
      </trkpt>
      <trkpt lat="45.87091" lon="4.73624">
        <ele>214</ele>
        <time>2018-02-12T14:52:52Z</time>
      </trkpt>
      <trkpt lat="45.87092" lon="4.73616">
        <ele>214</ele>
        <time>2018-02-12T14:52:53Z</time>
      </trkpt>
      <trkpt lat="45.87094" lon="4.73608">
        <ele>214</ele>
        <time>2018-02-12T14:52:54Z</time>
      </trkpt>
      <trkpt lat="45.87095" lon="4.736">
        <ele>214</ele>
        <time>2018-02-12T14:52:55Z</time>
      </trkpt>
      <trkpt lat="45.87096" lon="4.73592">
        <ele>214</ele>
        <time>2018-02-12T14:52:56Z</time>
      </trkpt>
      <trkpt lat="45.87097" lon="4.73584">
        <ele>214</ele>
        <time>2018-02-12T14:52:57Z</time>
      </trkpt>
      <trkpt lat="45.87098" lon="4.73574">
        <ele>214</ele>
        <time>2018-02-12T14:52:58Z</time>
      </trkpt>
      <trkpt lat="45.87098" lon="4.73566">
        <ele>213</ele>
        <time>2018-02-12T14:52:59Z</time>
      </trkpt>
      <trkpt lat="45.87099" lon="4.73557">
        <ele>213</ele>
        <time>2018-02-12T14:53:00Z</time>
      </trkpt>
      <trkpt lat="45.871" lon="4.73549">
        <ele>213</ele>
        <time>2018-02-12T14:53:01Z</time>
      </trkpt>
      <trkpt lat="45.871" lon="4.73541">
        <ele>213</ele>
        <time>2018-02-12T14:53:02Z</time>
      </trkpt>
      <trkpt lat="45.87101" lon="4.73533">
        <ele>213</ele>
        <time>2018-02-12T14:53:03Z</time>
      </trkpt>
      <trkpt lat="45.87101" lon="4.73525">
        <ele>213</ele>
        <time>2018-02-12T14:53:04Z</time>
      </trkpt>
      <trkpt lat="45.87102" lon="4.73515">
        <ele>213</ele>
        <time>2018-02-12T14:53:05Z</time>
      </trkpt>
      <trkpt lat="45.87103" lon="4.73507">
        <ele>213</ele>
        <time>2018-02-12T14:53:06Z</time>
      </trkpt>
      <trkpt lat="45.87102" lon="4.73498">
        <ele>213</ele>
        <time>2018-02-12T14:53:07Z</time>
      </trkpt>
      <trkpt lat="45.87102" lon="4.7349">
        <ele>212</ele>
        <time>2018-02-12T14:53:08Z</time>
      </trkpt>
      <trkpt lat="45.87102" lon="4.73481">
        <ele>212</ele>
        <time>2018-02-12T14:53:09Z</time>
      </trkpt>
      <trkpt lat="45.87102" lon="4.73472">
        <ele>212</ele>
        <time>2018-02-12T14:53:10Z</time>
      </trkpt>
      <trkpt lat="45.87103" lon="4.73464">
        <ele>212</ele>
        <time>2018-02-12T14:53:11Z</time>
      </trkpt>
      <trkpt lat="45.87104" lon="4.73454">
        <ele>212</ele>
        <time>2018-02-12T14:53:12Z</time>
      </trkpt>
      <trkpt lat="45.87105" lon="4.73446">
        <ele>212</ele>
        <time>2018-02-12T14:53:13Z</time>
      </trkpt>
      <trkpt lat="45.87106" lon="4.73436">
        <ele>212</ele>
        <time>2018-02-12T14:53:14Z</time>
      </trkpt>
      <trkpt lat="45.87106" lon="4.73426">
        <ele>212</ele>
        <time>2018-02-12T14:53:15Z</time>
      </trkpt>
      <trkpt lat="45.87106" lon="4.73417">
        <ele>212</ele>
        <time>2018-02-12T14:53:16Z</time>
      </trkpt>
      <trkpt lat="45.87107" lon="4.73407">
        <ele>212</ele>
        <time>2018-02-12T14:53:17Z</time>
      </trkpt>
      <trkpt lat="45.87107" lon="4.73398">
        <ele>211</ele>
        <time>2018-02-12T14:53:18Z</time>
      </trkpt>
      <trkpt lat="45.87108" lon="4.73389">
        <ele>211</ele>
        <time>2018-02-12T14:53:19Z</time>
      </trkpt>
      <trkpt lat="45.87109" lon="4.7338">
        <ele>211</ele>
        <time>2018-02-12T14:53:20Z</time>
      </trkpt>
      <trkpt lat="45.8711" lon="4.73373">
        <ele>211</ele>
        <time>2018-02-12T14:53:21Z</time>
      </trkpt>
      <trkpt lat="45.87111" lon="4.73363">
        <ele>211</ele>
        <time>2018-02-12T14:53:22Z</time>
      </trkpt>
      <trkpt lat="45.87113" lon="4.73354">
        <ele>210</ele>
        <time>2018-02-12T14:53:23Z</time>
      </trkpt>
      <trkpt lat="45.87113" lon="4.73345">
        <ele>210</ele>
        <time>2018-02-12T14:53:24Z</time>
      </trkpt>
      <trkpt lat="45.87114" lon="4.73336">
        <ele>210</ele>
        <time>2018-02-12T14:53:25Z</time>
      </trkpt>
      <trkpt lat="45.87114" lon="4.73328">
        <ele>209</ele>
        <time>2018-02-12T14:53:26Z</time>
      </trkpt>
      <trkpt lat="45.87115" lon="4.7332">
        <ele>209</ele>
        <time>2018-02-12T14:53:27Z</time>
      </trkpt>
      <trkpt lat="45.87116" lon="4.73311">
        <ele>209</ele>
        <time>2018-02-12T14:53:28Z</time>
      </trkpt>
      <trkpt lat="45.87117" lon="4.73303">
        <ele>208</ele>
        <time>2018-02-12T14:53:29Z</time>
      </trkpt>
      <trkpt lat="45.87118" lon="4.73293">
        <ele>208</ele>
        <time>2018-02-12T14:53:30Z</time>
      </trkpt>
      <trkpt lat="45.8712" lon="4.73285">
        <ele>208</ele>
        <time>2018-02-12T14:53:31Z</time>
      </trkpt>
      <trkpt lat="45.87121" lon="4.73276">
        <ele>208</ele>
        <time>2018-02-12T14:53:32Z</time>
      </trkpt>
      <trkpt lat="45.87121" lon="4.73268">
        <ele>208</ele>
        <time>2018-02-12T14:53:33Z</time>
      </trkpt>
      <trkpt lat="45.87123" lon="4.7326">
        <ele>208</ele>
        <time>2018-02-12T14:53:34Z</time>
      </trkpt>
      <trkpt lat="45.87125" lon="4.73252">
        <ele>208</ele>
        <time>2018-02-12T14:53:35Z</time>
      </trkpt>
      <trkpt lat="45.87128" lon="4.73243">
        <ele>206</ele>
        <time>2018-02-12T14:53:36Z</time>
      </trkpt>
      <trkpt lat="45.8713" lon="4.73235">
        <ele>206</ele>
        <time>2018-02-12T14:53:37Z</time>
      </trkpt>
      <trkpt lat="45.87133" lon="4.73228">
        <ele>206</ele>
        <time>2018-02-12T14:53:38Z</time>
      </trkpt>
      <trkpt lat="45.87136" lon="4.73219">
        <ele>206</ele>
        <time>2018-02-12T14:53:39Z</time>
      </trkpt>
      <trkpt lat="45.8714" lon="4.7321">
        <ele>206</ele>
        <time>2018-02-12T14:53:40Z</time>
      </trkpt>
      <trkpt lat="45.87143" lon="4.73202">
        <ele>206</ele>
        <time>2018-02-12T14:53:41Z</time>
      </trkpt>
      <trkpt lat="45.87147" lon="4.73193">
        <ele>205</ele>
        <time>2018-02-12T14:53:42Z</time>
      </trkpt>
      <trkpt lat="45.8715" lon="4.73184">
        <ele>205</ele>
        <time>2018-02-12T14:53:43Z</time>
      </trkpt>
      <trkpt lat="45.87155" lon="4.73175">
        <ele>204</ele>
        <time>2018-02-12T14:53:44Z</time>
      </trkpt>
      <trkpt lat="45.87158" lon="4.73166">
        <ele>204</ele>
        <time>2018-02-12T14:53:45Z</time>
      </trkpt>
      <trkpt lat="45.87161" lon="4.73157">
        <ele>204</ele>
        <time>2018-02-12T14:53:46Z</time>
      </trkpt>
      <trkpt lat="45.87162" lon="4.73147">
        <ele>204</ele>
        <time>2018-02-12T14:53:47Z</time>
      </trkpt>
      <trkpt lat="45.87164" lon="4.73137">
        <ele>204</ele>
        <time>2018-02-12T14:53:48Z</time>
      </trkpt>
      <trkpt lat="45.87165" lon="4.73127">
        <ele>204</ele>
        <time>2018-02-12T14:53:49Z</time>
      </trkpt>
      <trkpt lat="45.87166" lon="4.73117">
        <ele>204</ele>
        <time>2018-02-12T14:53:50Z</time>
      </trkpt>
      <trkpt lat="45.87167" lon="4.73106">
        <ele>202</ele>
        <time>2018-02-12T14:53:51Z</time>
      </trkpt>
      <trkpt lat="45.87167" lon="4.73096">
        <ele>202</ele>
        <time>2018-02-12T14:53:52Z</time>
      </trkpt>
      <trkpt lat="45.87168" lon="4.73086">
        <ele>203</ele>
        <time>2018-02-12T14:53:53Z</time>
      </trkpt>
      <trkpt lat="45.87168" lon="4.73076">
        <ele>202</ele>
        <time>2018-02-12T14:53:54Z</time>
      </trkpt>
      <trkpt lat="45.87168" lon="4.73065">
        <ele>202</ele>
        <time>2018-02-12T14:53:55Z</time>
      </trkpt>
      <trkpt lat="45.87168" lon="4.73055">
        <ele>201</ele>
        <time>2018-02-12T14:53:56Z</time>
      </trkpt>
      <trkpt lat="45.87168" lon="4.73045">
        <ele>201</ele>
        <time>2018-02-12T14:53:57Z</time>
      </trkpt>
      <trkpt lat="45.87169" lon="4.73035">
        <ele>201</ele>
        <time>2018-02-12T14:53:58Z</time>
      </trkpt>
      <trkpt lat="45.87168" lon="4.73025">
        <ele>202</ele>
        <time>2018-02-12T14:53:59Z</time>
      </trkpt>
      <trkpt lat="45.87169" lon="4.73013">
        <ele>202</ele>
        <time>2018-02-12T14:54:00Z</time>
      </trkpt>
      <trkpt lat="45.87169" lon="4.73003">
        <ele>203</ele>
        <time>2018-02-12T14:54:01Z</time>
      </trkpt>
      <trkpt lat="45.87168" lon="4.72993">
        <ele>203</ele>
        <time>2018-02-12T14:54:02Z</time>
      </trkpt>
      <trkpt lat="45.87168" lon="4.72984">
        <ele>202</ele>
        <time>2018-02-12T14:54:03Z</time>
      </trkpt>
      <trkpt lat="45.87169" lon="4.72974">
        <ele>202</ele>
        <time>2018-02-12T14:54:04Z</time>
      </trkpt>
      <trkpt lat="45.87169" lon="4.72965">
        <ele>202</ele>
        <time>2018-02-12T14:54:05Z</time>
      </trkpt>
      <trkpt lat="45.8717" lon="4.72954">
        <ele>201</ele>
        <time>2018-02-12T14:54:06Z</time>
      </trkpt>
      <trkpt lat="45.8717" lon="4.72944">
        <ele>202</ele>
        <time>2018-02-12T14:54:07Z</time>
      </trkpt>
      <trkpt lat="45.87171" lon="4.72934">
        <ele>202</ele>
        <time>2018-02-12T14:54:08Z</time>
      </trkpt>
      <trkpt lat="45.87171" lon="4.72924">
        <ele>203</ele>
        <time>2018-02-12T14:54:09Z</time>
      </trkpt>
      <trkpt lat="45.87171" lon="4.72914">
        <ele>203</ele>
        <time>2018-02-12T14:54:10Z</time>
      </trkpt>
      <trkpt lat="45.87171" lon="4.72902">
        <ele>202</ele>
        <time>2018-02-12T14:54:11Z</time>
      </trkpt>
      <trkpt lat="45.87171" lon="4.7289">
        <ele>201</ele>
        <time>2018-02-12T14:54:12Z</time>
      </trkpt>
      <trkpt lat="45.87171" lon="4.72879">
        <ele>200</ele>
        <time>2018-02-12T14:54:13Z</time>
      </trkpt>
      <trkpt lat="45.87172" lon="4.72868">
        <ele>200</ele>
        <time>2018-02-12T14:54:14Z</time>
      </trkpt>
      <trkpt lat="45.87172" lon="4.72857">
        <ele>200</ele>
        <time>2018-02-12T14:54:15Z</time>
      </trkpt>
      <trkpt lat="45.87172" lon="4.72846">
        <ele>201</ele>
        <time>2018-02-12T14:54:16Z</time>
      </trkpt>
      <trkpt lat="45.87171" lon="4.72834">
        <ele>201</ele>
        <time>2018-02-12T14:54:17Z</time>
      </trkpt>
      <trkpt lat="45.87171" lon="4.72823">
        <ele>200</ele>
        <time>2018-02-12T14:54:18Z</time>
      </trkpt>
      <trkpt lat="45.87172" lon="4.72812">
        <ele>200</ele>
        <time>2018-02-12T14:54:19Z</time>
      </trkpt>
      <trkpt lat="45.87172" lon="4.72801">
        <ele>199</ele>
        <time>2018-02-12T14:54:20Z</time>
      </trkpt>
      <trkpt lat="45.87172" lon="4.7279">
        <ele>199</ele>
        <time>2018-02-12T14:54:21Z</time>
      </trkpt>
      <trkpt lat="45.87172" lon="4.72779">
        <ele>199</ele>
        <time>2018-02-12T14:54:22Z</time>
      </trkpt>
      <trkpt lat="45.87172" lon="4.72768">
        <ele>200</ele>
        <time>2018-02-12T14:54:23Z</time>
      </trkpt>
      <trkpt lat="45.87173" lon="4.72757">
        <ele>200</ele>
        <time>2018-02-12T14:54:24Z</time>
      </trkpt>
      <trkpt lat="45.87174" lon="4.72747">
        <ele>200</ele>
        <time>2018-02-12T14:54:25Z</time>
      </trkpt>
      <trkpt lat="45.87175" lon="4.72737">
        <ele>200</ele>
        <time>2018-02-12T14:54:26Z</time>
      </trkpt>
      <trkpt lat="45.87176" lon="4.72729">
        <ele>199</ele>
        <time>2018-02-12T14:54:27Z</time>
      </trkpt>
      <trkpt lat="45.87178" lon="4.72719">
        <ele>199</ele>
        <time>2018-02-12T14:54:28Z</time>
      </trkpt>
      <trkpt lat="45.8718" lon="4.72709">
        <ele>199</ele>
        <time>2018-02-12T14:54:29Z</time>
      </trkpt>
      <trkpt lat="45.87182" lon="4.727">
        <ele>199</ele>
        <time>2018-02-12T14:54:30Z</time>
      </trkpt>
      <trkpt lat="45.87184" lon="4.72691">
        <ele>199</ele>
        <time>2018-02-12T14:54:31Z</time>
      </trkpt>
      <trkpt lat="45.87186" lon="4.72682">
        <ele>199</ele>
        <time>2018-02-12T14:54:32Z</time>
      </trkpt>
      <trkpt lat="45.87188" lon="4.72673">
        <ele>199</ele>
        <time>2018-02-12T14:54:33Z</time>
      </trkpt>
      <trkpt lat="45.87191" lon="4.72664">
        <ele>199</ele>
        <time>2018-02-12T14:54:34Z</time>
      </trkpt>
      <trkpt lat="45.87193" lon="4.72656">
        <ele>199</ele>
        <time>2018-02-12T14:54:35Z</time>
      </trkpt>
      <trkpt lat="45.87195" lon="4.72647">
        <ele>199</ele>
        <time>2018-02-12T14:54:36Z</time>
      </trkpt>
      <trkpt lat="45.87198" lon="4.72639">
        <ele>199</ele>
        <time>2018-02-12T14:54:37Z</time>
      </trkpt>
      <trkpt lat="45.872" lon="4.72629">
        <ele>199</ele>
        <time>2018-02-12T14:54:38Z</time>
      </trkpt>
      <trkpt lat="45.87202" lon="4.72619">
        <ele>199</ele>
        <time>2018-02-12T14:54:39Z</time>
      </trkpt>
      <trkpt lat="45.87205" lon="4.7261">
        <ele>199</ele>
        <time>2018-02-12T14:54:40Z</time>
      </trkpt>
      <trkpt lat="45.87207" lon="4.726">
        <ele>199</ele>
        <time>2018-02-12T14:54:41Z</time>
      </trkpt>
      <trkpt lat="45.87209" lon="4.72591">
        <ele>199</ele>
        <time>2018-02-12T14:54:42Z</time>
      </trkpt>
      <trkpt lat="45.8721" lon="4.7258">
        <ele>199</ele>
        <time>2018-02-12T14:54:43Z</time>
      </trkpt>
      <trkpt lat="45.8721" lon="4.7257">
        <ele>199</ele>
        <time>2018-02-12T14:54:44Z</time>
      </trkpt>
      <trkpt lat="45.87211" lon="4.72558">
        <ele>198</ele>
        <time>2018-02-12T14:54:45Z</time>
      </trkpt>
      <trkpt lat="45.8721" lon="4.72548">
        <ele>198</ele>
        <time>2018-02-12T14:54:46Z</time>
      </trkpt>
      <trkpt lat="45.8721" lon="4.72538">
        <ele>198</ele>
        <time>2018-02-12T14:54:47Z</time>
      </trkpt>
      <trkpt lat="45.87209" lon="4.72526">
        <ele>198</ele>
        <time>2018-02-12T14:54:48Z</time>
      </trkpt>
      <trkpt lat="45.87207" lon="4.72515">
        <ele>198</ele>
        <time>2018-02-12T14:54:49Z</time>
      </trkpt>
      <trkpt lat="45.87206" lon="4.72504">
        <ele>198</ele>
        <time>2018-02-12T14:54:50Z</time>
      </trkpt>
      <trkpt lat="45.87204" lon="4.72494">
        <ele>195</ele>
        <time>2018-02-12T14:54:51Z</time>
      </trkpt>
      <trkpt lat="45.87201" lon="4.72484">
        <ele>195</ele>
        <time>2018-02-12T14:54:52Z</time>
      </trkpt>
      <trkpt lat="45.87197" lon="4.72475">
        <ele>195</ele>
        <time>2018-02-12T14:54:53Z</time>
      </trkpt>
      <trkpt lat="45.87194" lon="4.72467">
        <ele>195</ele>
        <time>2018-02-12T14:54:54Z</time>
      </trkpt>
      <trkpt lat="45.8719" lon="4.72458">
        <ele>195</ele>
        <time>2018-02-12T14:54:55Z</time>
      </trkpt>
      <trkpt lat="45.87186" lon="4.72449">
        <ele>194</ele>
        <time>2018-02-12T14:54:56Z</time>
      </trkpt>
      <trkpt lat="45.87183" lon="4.7244">
        <ele>194</ele>
        <time>2018-02-12T14:54:57Z</time>
      </trkpt>
      <trkpt lat="45.87178" lon="4.72432">
        <ele>194</ele>
        <time>2018-02-12T14:54:58Z</time>
      </trkpt>
      <trkpt lat="45.87175" lon="4.72423">
        <ele>194</ele>
        <time>2018-02-12T14:54:59Z</time>
      </trkpt>
      <trkpt lat="45.87171" lon="4.72415">
        <ele>193</ele>
        <time>2018-02-12T14:55:00Z</time>
      </trkpt>
      <trkpt lat="45.87167" lon="4.72406">
        <ele>192</ele>
        <time>2018-02-12T14:55:01Z</time>
      </trkpt>
      <trkpt lat="45.87164" lon="4.72399">
        <ele>196</ele>
        <time>2018-02-12T14:55:02Z</time>
      </trkpt>
      <trkpt lat="45.87161" lon="4.72392">
        <ele>197</ele>
        <time>2018-02-12T14:55:03Z</time>
      </trkpt>
      <trkpt lat="45.87157" lon="4.72384">
        <ele>197</ele>
        <time>2018-02-12T14:55:04Z</time>
      </trkpt>
      <trkpt lat="45.87154" lon="4.72377">
        <ele>197</ele>
        <time>2018-02-12T14:55:05Z</time>
      </trkpt>
      <trkpt lat="45.87151" lon="4.72369">
        <ele>197</ele>
        <time>2018-02-12T14:55:06Z</time>
      </trkpt>
      <trkpt lat="45.87148" lon="4.72361">
        <ele>197</ele>
        <time>2018-02-12T14:55:07Z</time>
      </trkpt>
      <trkpt lat="45.87144" lon="4.72353">
        <ele>197</ele>
        <time>2018-02-12T14:55:08Z</time>
      </trkpt>
      <trkpt lat="45.87141" lon="4.72346">
        <ele>197</ele>
        <time>2018-02-12T14:55:09Z</time>
      </trkpt>
      <trkpt lat="45.87138" lon="4.72338">
        <ele>197</ele>
        <time>2018-02-12T14:55:10Z</time>
      </trkpt>
      <trkpt lat="45.87134" lon="4.72331">
        <ele>195</ele>
        <time>2018-02-12T14:55:11Z</time>
      </trkpt>
      <trkpt lat="45.87131" lon="4.72323">
        <ele>196</ele>
        <time>2018-02-12T14:55:12Z</time>
      </trkpt>
      <trkpt lat="45.87127" lon="4.72315">
        <ele>196</ele>
        <time>2018-02-12T14:55:13Z</time>
      </trkpt>
      <trkpt lat="45.87123" lon="4.72308">
        <ele>197</ele>
        <time>2018-02-12T14:55:14Z</time>
      </trkpt>
      <trkpt lat="45.87119" lon="4.72301">
        <ele>197</ele>
        <time>2018-02-12T14:55:15Z</time>
      </trkpt>
      <trkpt lat="45.87114" lon="4.72293">
        <ele>197</ele>
        <time>2018-02-12T14:55:16Z</time>
      </trkpt>
      <trkpt lat="45.8711" lon="4.72286">
        <ele>197</ele>
        <time>2018-02-12T14:55:17Z</time>
      </trkpt>
      <trkpt lat="45.87105" lon="4.72279">
        <ele>197</ele>
        <time>2018-02-12T14:55:18Z</time>
      </trkpt>
      <trkpt lat="45.871" lon="4.72273">
        <ele>197</ele>
        <time>2018-02-12T14:55:19Z</time>
      </trkpt>
      <trkpt lat="45.87094" lon="4.72266">
        <ele>198</ele>
        <time>2018-02-12T14:55:20Z</time>
      </trkpt>
      <trkpt lat="45.87089" lon="4.72259">
        <ele>198</ele>
        <time>2018-02-12T14:55:21Z</time>
      </trkpt>
      <trkpt lat="45.87083" lon="4.72252">
        <ele>200</ele>
        <time>2018-02-12T14:55:22Z</time>
      </trkpt>
      <trkpt lat="45.87077" lon="4.72245">
        <ele>200</ele>
        <time>2018-02-12T14:55:23Z</time>
      </trkpt>
      <trkpt lat="45.87071" lon="4.7224">
        <ele>200</ele>
        <time>2018-02-12T14:55:24Z</time>
      </trkpt>
      <trkpt lat="45.87065" lon="4.72233">
        <ele>200</ele>
        <time>2018-02-12T14:55:25Z</time>
      </trkpt>
      <trkpt lat="45.87059" lon="4.72226">
        <ele>200</ele>
        <time>2018-02-12T14:55:26Z</time>
      </trkpt>
      <trkpt lat="45.87052" lon="4.72221">
        <ele>201</ele>
        <time>2018-02-12T14:55:27Z</time>
      </trkpt>
      <trkpt lat="45.87046" lon="4.72216">
        <ele>201</ele>
        <time>2018-02-12T14:55:28Z</time>
      </trkpt>
      <trkpt lat="45.8704" lon="4.7221">
        <ele>201</ele>
        <time>2018-02-12T14:55:29Z</time>
      </trkpt>
      <trkpt lat="45.87033" lon="4.72205">
        <ele>201</ele>
        <time>2018-02-12T14:55:30Z</time>
      </trkpt>
      <trkpt lat="45.87026" lon="4.72201">
        <ele>201</ele>
        <time>2018-02-12T14:55:31Z</time>
      </trkpt>
      <trkpt lat="45.8702" lon="4.72197">
        <ele>201</ele>
        <time>2018-02-12T14:55:32Z</time>
      </trkpt>
      <trkpt lat="45.87013" lon="4.72192">
        <ele>201</ele>
        <time>2018-02-12T14:55:33Z</time>
      </trkpt>
      <trkpt lat="45.87006" lon="4.72188">
        <ele>201</ele>
        <time>2018-02-12T14:55:34Z</time>
      </trkpt>
      <trkpt lat="45.87" lon="4.72184">
        <ele>207</ele>
        <time>2018-02-12T14:55:35Z</time>
      </trkpt>
      <trkpt lat="45.86994" lon="4.72179">
        <ele>206</ele>
        <time>2018-02-12T14:55:36Z</time>
      </trkpt>
      <trkpt lat="45.86987" lon="4.72175">
        <ele>206</ele>
        <time>2018-02-12T14:55:37Z</time>
      </trkpt>
      <trkpt lat="45.8698" lon="4.7217">
        <ele>207</ele>
        <time>2018-02-12T14:55:38Z</time>
      </trkpt>
      <trkpt lat="45.86973" lon="4.72166">
        <ele>201</ele>
        <time>2018-02-12T14:55:39Z</time>
      </trkpt>
      <trkpt lat="45.86967" lon="4.72161">
        <ele>201</ele>
        <time>2018-02-12T14:55:40Z</time>
      </trkpt>
      <trkpt lat="45.8696" lon="4.72156">
        <ele>201</ele>
        <time>2018-02-12T14:55:41Z</time>
      </trkpt>
      <trkpt lat="45.86953" lon="4.72152">
        <ele>202</ele>
        <time>2018-02-12T14:55:42Z</time>
      </trkpt>
      <trkpt lat="45.86946" lon="4.72147">
        <ele>202</ele>
        <time>2018-02-12T14:55:43Z</time>
      </trkpt>
      <trkpt lat="45.86939" lon="4.72143">
        <ele>202</ele>
        <time>2018-02-12T14:55:44Z</time>
      </trkpt>
      <trkpt lat="45.86931" lon="4.7214">
        <ele>202</ele>
        <time>2018-02-12T14:55:45Z</time>
      </trkpt>
      <trkpt lat="45.86924" lon="4.72136">
        <ele>202</ele>
        <time>2018-02-12T14:55:46Z</time>
      </trkpt>
      <trkpt lat="45.86917" lon="4.72132">
        <ele>201</ele>
        <time>2018-02-12T14:55:47Z</time>
      </trkpt>
      <trkpt lat="45.86911" lon="4.72129">
        <ele>203</ele>
        <time>2018-02-12T14:55:48Z</time>
      </trkpt>
      <trkpt lat="45.86904" lon="4.72125">
        <ele>202</ele>
        <time>2018-02-12T14:55:49Z</time>
      </trkpt>
      <trkpt lat="45.86896" lon="4.72122">
        <ele>202</ele>
        <time>2018-02-12T14:55:50Z</time>
      </trkpt>
      <trkpt lat="45.86889" lon="4.72118">
        <ele>202</ele>
        <time>2018-02-12T14:55:51Z</time>
      </trkpt>
      <trkpt lat="45.86882" lon="4.72115">
        <ele>201</ele>
        <time>2018-02-12T14:55:52Z</time>
      </trkpt>
      <trkpt lat="45.86874" lon="4.72112">
        <ele>201</ele>
        <time>2018-02-12T14:55:53Z</time>
      </trkpt>
      <trkpt lat="45.86867" lon="4.72108">
        <ele>201</ele>
        <time>2018-02-12T14:55:54Z</time>
      </trkpt>
      <trkpt lat="45.86859" lon="4.72105">
        <ele>200</ele>
        <time>2018-02-12T14:55:55Z</time>
      </trkpt>
      <trkpt lat="45.86853" lon="4.72105">
        <ele>200</ele>
        <time>2018-02-12T14:55:56Z</time>
      </trkpt>
      <trkpt lat="45.86846" lon="4.72102">
        <ele>199</ele>
        <time>2018-02-12T14:55:57Z</time>
      </trkpt>
      <trkpt lat="45.86839" lon="4.72099">
        <ele>198</ele>
        <time>2018-02-12T14:55:58Z</time>
      </trkpt>
      <trkpt lat="45.86833" lon="4.72097">
        <ele>198</ele>
        <time>2018-02-12T14:55:59Z</time>
      </trkpt>
      <trkpt lat="45.86826" lon="4.72095">
        <ele>198</ele>
        <time>2018-02-12T14:56:00Z</time>
      </trkpt>
      <trkpt lat="45.86821" lon="4.72092">
        <ele>198</ele>
        <time>2018-02-12T14:56:01Z</time>
      </trkpt>
      <trkpt lat="45.86815" lon="4.7209">
        <ele>199</ele>
        <time>2018-02-12T14:56:02Z</time>
      </trkpt>
      <trkpt lat="45.86808" lon="4.72087">
        <ele>200</ele>
        <time>2018-02-12T14:56:03Z</time>
      </trkpt>
      <trkpt lat="45.86802" lon="4.72085">
        <ele>201</ele>
        <time>2018-02-12T14:56:04Z</time>
      </trkpt>
      <trkpt lat="45.86795" lon="4.72082">
        <ele>194</ele>
        <time>2018-02-12T14:56:05Z</time>
      </trkpt>
      <trkpt lat="45.86789" lon="4.72079">
        <ele>194</ele>
        <time>2018-02-12T14:56:06Z</time>
      </trkpt>
      <trkpt lat="45.86783" lon="4.72076">
        <ele>194</ele>
        <time>2018-02-12T14:56:07Z</time>
      </trkpt>
      <trkpt lat="45.86778" lon="4.72073">
        <ele>195</ele>
        <time>2018-02-12T14:56:08Z</time>
      </trkpt>
      <trkpt lat="45.86772" lon="4.72071">
        <ele>195</ele>
        <time>2018-02-12T14:56:09Z</time>
      </trkpt>
      <trkpt lat="45.86766" lon="4.72068">
        <ele>195</ele>
        <time>2018-02-12T14:56:10Z</time>
      </trkpt>
      <trkpt lat="45.8676" lon="4.72067">
        <ele>195</ele>
        <time>2018-02-12T14:56:11Z</time>
      </trkpt>
      <trkpt lat="45.86754" lon="4.72064">
        <ele>195</ele>
        <time>2018-02-12T14:56:12Z</time>
      </trkpt>
      <trkpt lat="45.86747" lon="4.7206">
        <ele>197</ele>
        <time>2018-02-12T14:56:13Z</time>
      </trkpt>
      <trkpt lat="45.86741" lon="4.72058">
        <ele>197</ele>
        <time>2018-02-12T14:56:14Z</time>
      </trkpt>
      <trkpt lat="45.86736" lon="4.72056">
        <ele>197</ele>
        <time>2018-02-12T14:56:15Z</time>
      </trkpt>
      <trkpt lat="45.8673" lon="4.72053">
        <ele>197</ele>
        <time>2018-02-12T14:56:16Z</time>
      </trkpt>
      <trkpt lat="45.86725" lon="4.72049">
        <ele>197</ele>
        <time>2018-02-12T14:56:17Z</time>
      </trkpt>
      <trkpt lat="45.8672" lon="4.72046">
        <ele>197</ele>
        <time>2018-02-12T14:56:18Z</time>
      </trkpt>
      <trkpt lat="45.86714" lon="4.72043">
        <ele>197</ele>
        <time>2018-02-12T14:56:19Z</time>
      </trkpt>
      <trkpt lat="45.86708" lon="4.72039">
        <ele>197</ele>
        <time>2018-02-12T14:56:20Z</time>
      </trkpt>
      <trkpt lat="45.86704" lon="4.72034">
        <ele>197</ele>
        <time>2018-02-12T14:56:21Z</time>
      </trkpt>
      <trkpt lat="45.86699" lon="4.72031">
        <ele>197</ele>
        <time>2018-02-12T14:56:22Z</time>
      </trkpt>
      <trkpt lat="45.86693" lon="4.72027">
        <ele>197</ele>
        <time>2018-02-12T14:56:23Z</time>
      </trkpt>
      <trkpt lat="45.86688" lon="4.72022">
        <ele>197</ele>
        <time>2018-02-12T14:56:24Z</time>
      </trkpt>
      <trkpt lat="45.86683" lon="4.72019">
        <ele>196</ele>
        <time>2018-02-12T14:56:25Z</time>
      </trkpt>
      <trkpt lat="45.86678" lon="4.72014">
        <ele>196</ele>
        <time>2018-02-12T14:56:26Z</time>
      </trkpt>
      <trkpt lat="45.86673" lon="4.7201">
        <ele>196</ele>
        <time>2018-02-12T14:56:27Z</time>
      </trkpt>
      <trkpt lat="45.86667" lon="4.72006">
        <ele>195</ele>
        <time>2018-02-12T14:56:28Z</time>
      </trkpt>
      <trkpt lat="45.86662" lon="4.72001">
        <ele>196</ele>
        <time>2018-02-12T14:56:29Z</time>
      </trkpt>
      <trkpt lat="45.86657" lon="4.71997">
        <ele>195</ele>
        <time>2018-02-12T14:56:30Z</time>
      </trkpt>
      <trkpt lat="45.86652" lon="4.71993">
        <ele>195</ele>
        <time>2018-02-12T14:56:31Z</time>
      </trkpt>
      <trkpt lat="45.86647" lon="4.7199">
        <ele>195</ele>
        <time>2018-02-12T14:56:32Z</time>
      </trkpt>
      <trkpt lat="45.86642" lon="4.71985">
        <ele>195</ele>
        <time>2018-02-12T14:56:33Z</time>
      </trkpt>
      <trkpt lat="45.86636" lon="4.71981">
        <ele>195</ele>
        <time>2018-02-12T14:56:34Z</time>
      </trkpt>
      <trkpt lat="45.86631" lon="4.71976">
        <ele>195</ele>
        <time>2018-02-12T14:56:35Z</time>
      </trkpt>
      <trkpt lat="45.86625" lon="4.71973">
        <ele>195</ele>
        <time>2018-02-12T14:56:36Z</time>
      </trkpt>
      <trkpt lat="45.86621" lon="4.71968">
        <ele>195</ele>
        <time>2018-02-12T14:56:37Z</time>
      </trkpt>
      <trkpt lat="45.86616" lon="4.71965">
        <ele>195</ele>
        <time>2018-02-12T14:56:38Z</time>
      </trkpt>
      <trkpt lat="45.8661" lon="4.71962">
        <ele>195</ele>
        <time>2018-02-12T14:56:39Z</time>
      </trkpt>
      <trkpt lat="45.86605" lon="4.71957">
        <ele>194</ele>
        <time>2018-02-12T14:56:40Z</time>
      </trkpt>
      <trkpt lat="45.86599" lon="4.71953">
        <ele>194</ele>
        <time>2018-02-12T14:56:41Z</time>
      </trkpt>
      <trkpt lat="45.86594" lon="4.71949">
        <ele>194</ele>
        <time>2018-02-12T14:56:42Z</time>
      </trkpt>
      <trkpt lat="45.86589" lon="4.71945">
        <ele>194</ele>
        <time>2018-02-12T14:56:43Z</time>
      </trkpt>
      <trkpt lat="45.86584" lon="4.71941">
        <ele>194</ele>
        <time>2018-02-12T14:56:44Z</time>
      </trkpt>
      <trkpt lat="45.86579" lon="4.71938">
        <ele>195</ele>
        <time>2018-02-12T14:56:45Z</time>
      </trkpt>
      <trkpt lat="45.86573" lon="4.71934">
        <ele>195</ele>
        <time>2018-02-12T14:56:46Z</time>
      </trkpt>
      <trkpt lat="45.86568" lon="4.7193">
        <ele>195</ele>
        <time>2018-02-12T14:56:47Z</time>
      </trkpt>
      <trkpt lat="45.86563" lon="4.71926">
        <ele>196</ele>
        <time>2018-02-12T14:56:48Z</time>
      </trkpt>
      <trkpt lat="45.86558" lon="4.71922">
        <ele>196</ele>
        <time>2018-02-12T14:56:49Z</time>
      </trkpt>
      <trkpt lat="45.86553" lon="4.71918">
        <ele>196</ele>
        <time>2018-02-12T14:56:50Z</time>
      </trkpt>
      <trkpt lat="45.86549" lon="4.71913">
        <ele>195</ele>
        <time>2018-02-12T14:56:51Z</time>
      </trkpt>
      <trkpt lat="45.86544" lon="4.7191">
        <ele>195</ele>
        <time>2018-02-12T14:56:52Z</time>
      </trkpt>
      <trkpt lat="45.86539" lon="4.71906">
        <ele>195</ele>
        <time>2018-02-12T14:56:53Z</time>
      </trkpt>
      <trkpt lat="45.86533" lon="4.71901">
        <ele>195</ele>
        <time>2018-02-12T14:56:54Z</time>
      </trkpt>
      <trkpt lat="45.86528" lon="4.71897">
        <ele>195</ele>
        <time>2018-02-12T14:56:55Z</time>
      </trkpt>
      <trkpt lat="45.86524" lon="4.71893">
        <ele>195</ele>
        <time>2018-02-12T14:56:56Z</time>
      </trkpt>
      <trkpt lat="45.86518" lon="4.71888">
        <ele>195</ele>
        <time>2018-02-12T14:56:57Z</time>
      </trkpt>
      <trkpt lat="45.86513" lon="4.71884">
        <ele>195</ele>
        <time>2018-02-12T14:56:58Z</time>
      </trkpt>
      <trkpt lat="45.86508" lon="4.71881">
        <ele>195</ele>
        <time>2018-02-12T14:56:59Z</time>
      </trkpt>
      <trkpt lat="45.86503" lon="4.71877">
        <ele>195</ele>
        <time>2018-02-12T14:57:00Z</time>
      </trkpt>
      <trkpt lat="45.865" lon="4.71872">
        <ele>199</ele>
        <time>2018-02-12T14:57:01Z</time>
      </trkpt>
      <trkpt lat="45.86495" lon="4.71868">
        <ele>198</ele>
        <time>2018-02-12T14:57:02Z</time>
      </trkpt>
      <trkpt lat="45.8649" lon="4.71863">
        <ele>198</ele>
        <time>2018-02-12T14:57:03Z</time>
      </trkpt>
      <trkpt lat="45.86485" lon="4.71859">
        <ele>198</ele>
        <time>2018-02-12T14:57:04Z</time>
      </trkpt>
      <trkpt lat="45.8648" lon="4.71855">
        <ele>198</ele>
        <time>2018-02-12T14:57:05Z</time>
      </trkpt>
      <trkpt lat="45.86475" lon="4.71851">
        <ele>199</ele>
        <time>2018-02-12T14:57:06Z</time>
      </trkpt>
      <trkpt lat="45.8647" lon="4.71846">
        <ele>199</ele>
        <time>2018-02-12T14:57:07Z</time>
      </trkpt>
      <trkpt lat="45.86465" lon="4.71844">
        <ele>199</ele>
        <time>2018-02-12T14:57:08Z</time>
      </trkpt>
      <trkpt lat="45.86459" lon="4.7184">
        <ele>200</ele>
        <time>2018-02-12T14:57:09Z</time>
      </trkpt>
      <trkpt lat="45.86455" lon="4.71836">
        <ele>200</ele>
        <time>2018-02-12T14:57:10Z</time>
      </trkpt>
      <trkpt lat="45.86449" lon="4.71831">
        <ele>197</ele>
        <time>2018-02-12T14:57:11Z</time>
      </trkpt>
      <trkpt lat="45.86444" lon="4.71827">
        <ele>197</ele>
        <time>2018-02-12T14:57:12Z</time>
      </trkpt>
      <trkpt lat="45.8644" lon="4.71823">
        <ele>198</ele>
        <time>2018-02-12T14:57:13Z</time>
      </trkpt>
      <trkpt lat="45.86435" lon="4.71819">
        <ele>198</ele>
        <time>2018-02-12T14:57:14Z</time>
      </trkpt>
      <trkpt lat="45.86432" lon="4.71815">
        <ele>198</ele>
        <time>2018-02-12T14:57:15Z</time>
      </trkpt>
      <trkpt lat="45.86427" lon="4.71812">
        <ele>198</ele>
        <time>2018-02-12T14:57:16Z</time>
      </trkpt>
      <trkpt lat="45.86422" lon="4.71808">
        <ele>198</ele>
        <time>2018-02-12T14:57:17Z</time>
      </trkpt>
      <trkpt lat="45.86416" lon="4.71806">
        <ele>200</ele>
        <time>2018-02-12T14:57:18Z</time>
      </trkpt>
      <trkpt lat="45.86412" lon="4.71802">
        <ele>199</ele>
        <time>2018-02-12T14:57:19Z</time>
      </trkpt>
      <trkpt lat="45.86407" lon="4.71798">
        <ele>199</ele>
        <time>2018-02-12T14:57:20Z</time>
      </trkpt>
      <trkpt lat="45.86402" lon="4.71794">
        <ele>199</ele>
        <time>2018-02-12T14:57:21Z</time>
      </trkpt>
      <trkpt lat="45.86397" lon="4.7179">
        <ele>199</ele>
        <time>2018-02-12T14:57:22Z</time>
      </trkpt>
      <trkpt lat="45.86392" lon="4.71786">
        <ele>198</ele>
        <time>2018-02-12T14:57:23Z</time>
      </trkpt>
      <trkpt lat="45.86387" lon="4.71782">
        <ele>198</ele>
        <time>2018-02-12T14:57:24Z</time>
      </trkpt>
      <trkpt lat="45.86381" lon="4.71778">
        <ele>198</ele>
        <time>2018-02-12T14:57:25Z</time>
      </trkpt>
      <trkpt lat="45.86377" lon="4.71774">
        <ele>198</ele>
        <time>2018-02-12T14:57:26Z</time>
      </trkpt>
      <trkpt lat="45.86371" lon="4.7177">
        <ele>198</ele>
        <time>2018-02-12T14:57:27Z</time>
      </trkpt>
      <trkpt lat="45.86367" lon="4.71766">
        <ele>198</ele>
        <time>2018-02-12T14:57:28Z</time>
      </trkpt>
      <trkpt lat="45.86362" lon="4.71762">
        <ele>198</ele>
        <time>2018-02-12T14:57:29Z</time>
      </trkpt>
      <trkpt lat="45.86357" lon="4.71759">
        <ele>198</ele>
        <time>2018-02-12T14:57:30Z</time>
      </trkpt>
      <trkpt lat="45.86352" lon="4.71755">
        <ele>197</ele>
        <time>2018-02-12T14:57:31Z</time>
      </trkpt>
      <trkpt lat="45.86347" lon="4.71751">
        <ele>197</ele>
        <time>2018-02-12T14:57:32Z</time>
      </trkpt>
      <trkpt lat="45.86343" lon="4.71747">
        <ele>195</ele>
        <time>2018-02-12T14:57:33Z</time>
      </trkpt>
      <trkpt lat="45.86338" lon="4.71743">
        <ele>195</ele>
        <time>2018-02-12T14:57:34Z</time>
      </trkpt>
      <trkpt lat="45.86333" lon="4.7174">
        <ele>196</ele>
        <time>2018-02-12T14:57:35Z</time>
      </trkpt>
      <trkpt lat="45.86328" lon="4.71736">
        <ele>196</ele>
        <time>2018-02-12T14:57:36Z</time>
      </trkpt>
      <trkpt lat="45.86324" lon="4.71732">
        <ele>196</ele>
        <time>2018-02-12T14:57:37Z</time>
      </trkpt>
      <trkpt lat="45.86319" lon="4.71728">
        <ele>196</ele>
        <time>2018-02-12T14:57:38Z</time>
      </trkpt>
      <trkpt lat="45.86314" lon="4.71724">
        <ele>196</ele>
        <time>2018-02-12T14:57:39Z</time>
      </trkpt>
      <trkpt lat="45.86309" lon="4.7172">
        <ele>196</ele>
        <time>2018-02-12T14:57:40Z</time>
      </trkpt>
      <trkpt lat="45.86304" lon="4.71716">
        <ele>196</ele>
        <time>2018-02-12T14:57:41Z</time>
      </trkpt>
      <trkpt lat="45.863" lon="4.71712">
        <ele>195</ele>
        <time>2018-02-12T14:57:42Z</time>
      </trkpt>
      <trkpt lat="45.86295" lon="4.71709">
        <ele>195</ele>
        <time>2018-02-12T14:57:43Z</time>
      </trkpt>
      <trkpt lat="45.86291" lon="4.71705">
        <ele>195</ele>
        <time>2018-02-12T14:57:44Z</time>
      </trkpt>
      <trkpt lat="45.86286" lon="4.71701">
        <ele>195</ele>
        <time>2018-02-12T14:57:45Z</time>
      </trkpt>
      <trkpt lat="45.86281" lon="4.71698">
        <ele>195</ele>
        <time>2018-02-12T14:57:46Z</time>
      </trkpt>
      <trkpt lat="45.86276" lon="4.71694">
        <ele>195</ele>
        <time>2018-02-12T14:57:47Z</time>
      </trkpt>
      <trkpt lat="45.86271" lon="4.7169">
        <ele>195</ele>
        <time>2018-02-12T14:57:48Z</time>
      </trkpt>
      <trkpt lat="45.86266" lon="4.71686">
        <ele>195</ele>
        <time>2018-02-12T14:57:49Z</time>
      </trkpt>
      <trkpt lat="45.86262" lon="4.71681">
        <ele>195</ele>
        <time>2018-02-12T14:57:50Z</time>
      </trkpt>
      <trkpt lat="45.86257" lon="4.71677">
        <ele>195</ele>
        <time>2018-02-12T14:57:51Z</time>
      </trkpt>
      <trkpt lat="45.86253" lon="4.71673">
        <ele>195</ele>
        <time>2018-02-12T14:57:52Z</time>
      </trkpt>
      <trkpt lat="45.86247" lon="4.7167">
        <ele>195</ele>
        <time>2018-02-12T14:57:53Z</time>
      </trkpt>
      <trkpt lat="45.86242" lon="4.71665">
        <ele>195</ele>
        <time>2018-02-12T14:57:54Z</time>
      </trkpt>
      <trkpt lat="45.86237" lon="4.71662">
        <ele>195</ele>
        <time>2018-02-12T14:57:55Z</time>
      </trkpt>
      <trkpt lat="45.86232" lon="4.7166">
        <ele>195</ele>
        <time>2018-02-12T14:57:56Z</time>
      </trkpt>
      <trkpt lat="45.86227" lon="4.71656">
        <ele>195</ele>
        <time>2018-02-12T14:57:57Z</time>
      </trkpt>
      <trkpt lat="45.86222" lon="4.71653">
        <ele>195</ele>
        <time>2018-02-12T14:57:58Z</time>
      </trkpt>
      <trkpt lat="45.86217" lon="4.71647">
        <ele>195</ele>
        <time>2018-02-12T14:57:59Z</time>
      </trkpt>
      <trkpt lat="45.86215" lon="4.71641">
        <ele>195</ele>
        <time>2018-02-12T14:58:00Z</time>
      </trkpt>
      <trkpt lat="45.86214" lon="4.71635">
        <ele>195</ele>
        <time>2018-02-12T14:58:01Z</time>
      </trkpt>
      <trkpt lat="45.86212" lon="4.71629">
        <ele>195</ele>
        <time>2018-02-12T14:58:02Z</time>
      </trkpt>
      <trkpt lat="45.8621" lon="4.71617">
        <ele>195</ele>
        <time>2018-02-12T14:58:04Z</time>
      </trkpt>
      <trkpt lat="45.86208" lon="4.7161">
        <ele>195</ele>
        <time>2018-02-12T14:58:05Z</time>
      </trkpt>
      <trkpt lat="45.86205" lon="4.71606">
        <ele>195</ele>
        <time>2018-02-12T14:58:06Z</time>
      </trkpt>
      <trkpt lat="45.86201" lon="4.71601">
        <ele>195</ele>
        <time>2018-02-12T14:58:07Z</time>
      </trkpt>
      <trkpt lat="45.86197" lon="4.71597">
        <ele>195</ele>
        <time>2018-02-12T14:58:08Z</time>
      </trkpt>
      <trkpt lat="45.86194" lon="4.71592">
        <ele>195</ele>
        <time>2018-02-12T14:58:09Z</time>
      </trkpt>
      <trkpt lat="45.8619" lon="4.71587">
        <ele>195</ele>
        <time>2018-02-12T14:58:10Z</time>
      </trkpt>
      <trkpt lat="45.86186" lon="4.71581">
        <ele>195</ele>
        <time>2018-02-12T14:58:11Z</time>
      </trkpt>
      <trkpt lat="45.86182" lon="4.71576">
        <ele>195</ele>
        <time>2018-02-12T14:58:12Z</time>
      </trkpt>
      <trkpt lat="45.86179" lon="4.71571">
        <ele>195</ele>
        <time>2018-02-12T14:58:13Z</time>
      </trkpt>
      <trkpt lat="45.86176" lon="4.71565">
        <ele>195</ele>
        <time>2018-02-12T14:58:14Z</time>
      </trkpt>
      <trkpt lat="45.86173" lon="4.71559">
        <ele>195</ele>
        <time>2018-02-12T14:58:15Z</time>
      </trkpt>
      <trkpt lat="45.8617" lon="4.71553">
        <ele>195</ele>
        <time>2018-02-12T14:58:16Z</time>
      </trkpt>
      <trkpt lat="45.86167" lon="4.71548">
        <ele>195</ele>
        <time>2018-02-12T14:58:17Z</time>
      </trkpt>
      <trkpt lat="45.86164" lon="4.71543">
        <ele>196</ele>
        <time>2018-02-12T14:58:18Z</time>
      </trkpt>
      <trkpt lat="45.86161" lon="4.71538">
        <ele>195</ele>
        <time>2018-02-12T14:58:19Z</time>
      </trkpt>
      <trkpt lat="45.86157" lon="4.71532">
        <ele>195</ele>
        <time>2018-02-12T14:58:20Z</time>
      </trkpt>
      <trkpt lat="45.86154" lon="4.71526">
        <ele>195</ele>
        <time>2018-02-12T14:58:21Z</time>
      </trkpt>
      <trkpt lat="45.86152" lon="4.7152">
        <ele>195</ele>
        <time>2018-02-12T14:58:22Z</time>
      </trkpt>
      <trkpt lat="45.86149" lon="4.71514">
        <ele>195</ele>
        <time>2018-02-12T14:58:23Z</time>
      </trkpt>
      <trkpt lat="45.86147" lon="4.71507">
        <ele>195</ele>
        <time>2018-02-12T14:58:24Z</time>
      </trkpt>
      <trkpt lat="45.86144" lon="4.71501">
        <ele>195</ele>
        <time>2018-02-12T14:58:25Z</time>
      </trkpt>
      <trkpt lat="45.86141" lon="4.71495">
        <ele>195</ele>
        <time>2018-02-12T14:58:26Z</time>
      </trkpt>
      <trkpt lat="45.86139" lon="4.71488">
        <ele>195</ele>
        <time>2018-02-12T14:58:27Z</time>
      </trkpt>
      <trkpt lat="45.86136" lon="4.71482">
        <ele>195</ele>
        <time>2018-02-12T14:58:28Z</time>
      </trkpt>
      <trkpt lat="45.86134" lon="4.71476">
        <ele>195</ele>
        <time>2018-02-12T14:58:29Z</time>
      </trkpt>
      <trkpt lat="45.86132" lon="4.7147">
        <ele>195</ele>
        <time>2018-02-12T14:58:30Z</time>
      </trkpt>
      <trkpt lat="45.8613" lon="4.71463">
        <ele>195</ele>
        <time>2018-02-12T14:58:31Z</time>
      </trkpt>
      <trkpt lat="45.86129" lon="4.71457">
        <ele>195</ele>
        <time>2018-02-12T14:58:32Z</time>
      </trkpt>
      <trkpt lat="45.86126" lon="4.7145">
        <ele>195</ele>
        <time>2018-02-12T14:58:33Z</time>
      </trkpt>
      <trkpt lat="45.86124" lon="4.71444">
        <ele>195</ele>
        <time>2018-02-12T14:58:34Z</time>
      </trkpt>
      <trkpt lat="45.86123" lon="4.71437">
        <ele>195</ele>
        <time>2018-02-12T14:58:35Z</time>
      </trkpt>
      <trkpt lat="45.86121" lon="4.71431">
        <ele>195</ele>
        <time>2018-02-12T14:58:36Z</time>
      </trkpt>
      <trkpt lat="45.8612" lon="4.71424">
        <ele>195</ele>
        <time>2018-02-12T14:58:37Z</time>
      </trkpt>
      <trkpt lat="45.86119" lon="4.71417">
        <ele>195</ele>
        <time>2018-02-12T14:58:38Z</time>
      </trkpt>
      <trkpt lat="45.86118" lon="4.71411">
        <ele>196</ele>
        <time>2018-02-12T14:58:39Z</time>
      </trkpt>
      <trkpt lat="45.86117" lon="4.71404">
        <ele>196</ele>
        <time>2018-02-12T14:58:40Z</time>
      </trkpt>
      <trkpt lat="45.86116" lon="4.71397">
        <ele>196</ele>
        <time>2018-02-12T14:58:41Z</time>
      </trkpt>
      <trkpt lat="45.86117" lon="4.7139">
        <ele>196</ele>
        <time>2018-02-12T14:58:42Z</time>
      </trkpt>
      <trkpt lat="45.86116" lon="4.71384">
        <ele>196</ele>
        <time>2018-02-12T14:58:43Z</time>
      </trkpt>
      <trkpt lat="45.86115" lon="4.71378">
        <ele>196</ele>
        <time>2018-02-12T14:58:44Z</time>
      </trkpt>
      <trkpt lat="45.86113" lon="4.71371">
        <ele>196</ele>
        <time>2018-02-12T14:58:45Z</time>
      </trkpt>
      <trkpt lat="45.8611" lon="4.71359">
        <ele>196</ele>
        <time>2018-02-12T14:58:47Z</time>
      </trkpt>
      <trkpt lat="45.8611" lon="4.71352">
        <ele>196</ele>
        <time>2018-02-12T14:58:48Z</time>
      </trkpt>
      <trkpt lat="45.86109" lon="4.71345">
        <ele>196</ele>
        <time>2018-02-12T14:58:49Z</time>
      </trkpt>
      <trkpt lat="45.86108" lon="4.71339">
        <ele>196</ele>
        <time>2018-02-12T14:58:50Z</time>
      </trkpt>
      <trkpt lat="45.86108" lon="4.71331">
        <ele>196</ele>
        <time>2018-02-12T14:58:51Z</time>
      </trkpt>
      <trkpt lat="45.86106" lon="4.71325">
        <ele>196</ele>
        <time>2018-02-12T14:58:52Z</time>
      </trkpt>
      <trkpt lat="45.86104" lon="4.71312">
        <ele>197</ele>
        <time>2018-02-12T14:58:54Z</time>
      </trkpt>
      <trkpt lat="45.86102" lon="4.71306">
        <ele>197</ele>
        <time>2018-02-12T14:58:55Z</time>
      </trkpt>
      <trkpt lat="45.861" lon="4.71294">
        <ele>197</ele>
        <time>2018-02-12T14:58:57Z</time>
      </trkpt>
      <trkpt lat="45.861" lon="4.71288">
        <ele>197</ele>
        <time>2018-02-12T14:58:58Z</time>
      </trkpt>
      <trkpt lat="45.86096" lon="4.71277">
        <ele>197</ele>
        <time>2018-02-12T14:59:00Z</time>
      </trkpt>
      <trkpt lat="45.86093" lon="4.71273">
        <ele>197</ele>
        <time>2018-02-12T14:59:01Z</time>
      </trkpt>
      <trkpt lat="45.86089" lon="4.71263">
        <ele>197</ele>
        <time>2018-02-12T14:59:03Z</time>
      </trkpt>
      <trkpt lat="45.86086" lon="4.71258">
        <ele>198</ele>
        <time>2018-02-12T14:59:04Z</time>
      </trkpt>
      <trkpt lat="45.86085" lon="4.71251">
        <ele>198</ele>
        <time>2018-02-12T14:59:05Z</time>
      </trkpt>
      <trkpt lat="45.86085" lon="4.71244">
        <ele>198</ele>
        <time>2018-02-12T14:59:06Z</time>
      </trkpt>
      <trkpt lat="45.86085" lon="4.71237">
        <ele>197</ele>
        <time>2018-02-12T14:59:07Z</time>
      </trkpt>
      <trkpt lat="45.86085" lon="4.7123">
        <ele>197</ele>
        <time>2018-02-12T14:59:08Z</time>
      </trkpt>
      <trkpt lat="45.86087" lon="4.71218">
        <ele>197</ele>
        <time>2018-02-12T14:59:10Z</time>
      </trkpt>
      <trkpt lat="45.86088" lon="4.71212">
        <ele>197</ele>
        <time>2018-02-12T14:59:11Z</time>
      </trkpt>
      <trkpt lat="45.86089" lon="4.71201">
        <ele>197</ele>
        <time>2018-02-12T14:59:13Z</time>
      </trkpt>
      <trkpt lat="45.8609" lon="4.71194">
        <ele>197</ele>
        <time>2018-02-12T14:59:14Z</time>
      </trkpt>
      <trkpt lat="45.8609" lon="4.71182">
        <ele>197</ele>
        <time>2018-02-12T14:59:16Z</time>
      </trkpt>
      <trkpt lat="45.86091" lon="4.71176">
        <ele>197</ele>
        <time>2018-02-12T14:59:17Z</time>
      </trkpt>
      <trkpt lat="45.86092" lon="4.71165">
        <ele>197</ele>
        <time>2018-02-12T14:59:19Z</time>
      </trkpt>
      <trkpt lat="45.86093" lon="4.7116">
        <ele>197</ele>
        <time>2018-02-12T14:59:20Z</time>
      </trkpt>
      <trkpt lat="45.86092" lon="4.71154">
        <ele>197</ele>
        <time>2018-02-12T14:59:21Z</time>
      </trkpt>
      <trkpt lat="45.86089" lon="4.71148">
        <ele>197</ele>
        <time>2018-02-12T14:59:22Z</time>
      </trkpt>
      <trkpt lat="45.86086" lon="4.71139">
        <ele>197</ele>
        <time>2018-02-12T14:59:24Z</time>
      </trkpt>
      <trkpt lat="45.86081" lon="4.71139">
        <ele>197</ele>
        <time>2018-02-12T14:59:25Z</time>
      </trkpt>
      <trkpt lat="45.86076" lon="4.71133">
        <ele>197</ele>
        <time>2018-02-12T14:59:26Z</time>
      </trkpt>
      <trkpt lat="45.86071" lon="4.71128">
        <ele>197</ele>
        <time>2018-02-12T14:59:27Z</time>
      </trkpt>
      <trkpt lat="45.86065" lon="4.7112">
        <ele>197</ele>
        <time>2018-02-12T14:59:29Z</time>
      </trkpt>
      <trkpt lat="45.8606" lon="4.71117">
        <ele>197</ele>
        <time>2018-02-12T14:59:30Z</time>
      </trkpt>
      <trkpt lat="45.86054" lon="4.71108">
        <ele>197</ele>
        <time>2018-02-12T14:59:32Z</time>
      </trkpt>
      <trkpt lat="45.86051" lon="4.71103">
        <ele>197</ele>
        <time>2018-02-12T14:59:33Z</time>
      </trkpt>
      <trkpt lat="45.86048" lon="4.71099">
        <ele>197</ele>
        <time>2018-02-12T14:59:34Z</time>
      </trkpt>
      <trkpt lat="45.86044" lon="4.71094">
        <ele>197</ele>
        <time>2018-02-12T14:59:35Z</time>
      </trkpt>
      <trkpt lat="45.86042" lon="4.71088">
        <ele>197</ele>
        <time>2018-02-12T14:59:36Z</time>
      </trkpt>
      <trkpt lat="45.8604" lon="4.71081">
        <ele>197</ele>
        <time>2018-02-12T14:59:37Z</time>
      </trkpt>
      <trkpt lat="45.86039" lon="4.71075">
        <ele>197</ele>
        <time>2018-02-12T14:59:38Z</time>
      </trkpt>
      <trkpt lat="45.86038" lon="4.71069">
        <ele>197</ele>
        <time>2018-02-12T14:59:39Z</time>
      </trkpt>
      <trkpt lat="45.86037" lon="4.71062">
        <ele>197</ele>
        <time>2018-02-12T14:59:40Z</time>
      </trkpt>
      <trkpt lat="45.86037" lon="4.71055">
        <ele>197</ele>
        <time>2018-02-12T14:59:41Z</time>
      </trkpt>
      <trkpt lat="45.86034" lon="4.71043">
        <ele>197</ele>
        <time>2018-02-12T14:59:43Z</time>
      </trkpt>
      <trkpt lat="45.86032" lon="4.71037">
        <ele>197</ele>
        <time>2018-02-12T14:59:44Z</time>
      </trkpt>
      <trkpt lat="45.86028" lon="4.71026">
        <ele>197</ele>
        <time>2018-02-12T14:59:46Z</time>
      </trkpt>
      <trkpt lat="45.86026" lon="4.7102">
        <ele>197</ele>
        <time>2018-02-12T14:59:47Z</time>
      </trkpt>
      <trkpt lat="45.86024" lon="4.71016">
        <ele>197</ele>
        <time>2018-02-12T14:59:48Z</time>
      </trkpt>
      <trkpt lat="45.8602" lon="4.7101">
        <ele>197</ele>
        <time>2018-02-12T14:59:49Z</time>
      </trkpt>
      <trkpt lat="45.86016" lon="4.71005">
        <ele>197</ele>
        <time>2018-02-12T14:59:50Z</time>
      </trkpt>
      <trkpt lat="45.86012" lon="4.71">
        <ele>197</ele>
        <time>2018-02-12T14:59:51Z</time>
      </trkpt>
      <trkpt lat="45.86007" lon="4.70995">
        <ele>197</ele>
        <time>2018-02-12T14:59:52Z</time>
      </trkpt>
      <trkpt lat="45.86003" lon="4.70992">
        <ele>197</ele>
        <time>2018-02-12T14:59:53Z</time>
      </trkpt>
      <trkpt lat="45.85998" lon="4.70987">
        <ele>197</ele>
        <time>2018-02-12T14:59:54Z</time>
      </trkpt>
      <trkpt lat="45.85994" lon="4.70984">
        <ele>197</ele>
        <time>2018-02-12T14:59:55Z</time>
      </trkpt>
      <trkpt lat="45.85989" lon="4.70981">
        <ele>197</ele>
        <time>2018-02-12T14:59:56Z</time>
      </trkpt>
      <trkpt lat="45.85984" lon="4.70977">
        <ele>197</ele>
        <time>2018-02-12T14:59:57Z</time>
      </trkpt>
      <trkpt lat="45.85979" lon="4.70976">
        <ele>197</ele>
        <time>2018-02-12T14:59:58Z</time>
      </trkpt>
      <trkpt lat="45.85965" lon="4.70971">
        <ele>197</ele>
        <time>2018-02-12T15:00:01Z</time>
      </trkpt>
      <trkpt lat="45.8596" lon="4.70973">
        <ele>197</ele>
        <time>2018-02-12T15:00:02Z</time>
      </trkpt>
      <trkpt lat="45.85955" lon="4.70974">
        <ele>197</ele>
        <time>2018-02-12T15:00:03Z</time>
      </trkpt>
      <trkpt lat="45.85946" lon="4.70972">
        <ele>197</ele>
        <time>2018-02-12T15:00:05Z</time>
      </trkpt>
      <trkpt lat="45.85942" lon="4.7097">
        <ele>197</ele>
        <time>2018-02-12T15:00:06Z</time>
      </trkpt>
      <trkpt lat="45.8594" lon="4.70959">
        <ele>197</ele>
        <time>2018-02-12T15:00:08Z</time>
      </trkpt>
      <trkpt lat="45.85941" lon="4.70954">
        <ele>197</ele>
        <time>2018-02-12T15:00:09Z</time>
      </trkpt>
      <trkpt lat="45.85945" lon="4.70944">
        <ele>197</ele>
        <time>2018-02-12T15:00:11Z</time>
      </trkpt>
      <trkpt lat="45.85946" lon="4.70937">
        <ele>197</ele>
        <time>2018-02-12T15:00:12Z</time>
      </trkpt>
      <trkpt lat="45.85949" lon="4.70926">
        <ele>197</ele>
        <time>2018-02-12T15:00:14Z</time>
      </trkpt>
      <trkpt lat="45.8595" lon="4.70921">
        <ele>197</ele>
        <time>2018-02-12T15:00:15Z</time>
      </trkpt>
      <trkpt lat="45.85953" lon="4.70909">
        <ele>197</ele>
        <time>2018-02-12T15:00:17Z</time>
      </trkpt>
      <trkpt lat="45.85955" lon="4.70904">
        <ele>197</ele>
        <time>2018-02-12T15:00:18Z</time>
      </trkpt>
      <trkpt lat="45.85957" lon="4.70894">
        <ele>197</ele>
        <time>2018-02-12T15:00:20Z</time>
      </trkpt>
      <trkpt lat="45.85958" lon="4.70888">
        <ele>197</ele>
        <time>2018-02-12T15:00:21Z</time>
      </trkpt>
      <trkpt lat="45.85961" lon="4.70876">
        <ele>197</ele>
        <time>2018-02-12T15:00:23Z</time>
      </trkpt>
      <trkpt lat="45.85962" lon="4.7087">
        <ele>196</ele>
        <time>2018-02-12T15:00:24Z</time>
      </trkpt>
      <trkpt lat="45.85963" lon="4.70862">
        <ele>196</ele>
        <time>2018-02-12T15:00:25Z</time>
      </trkpt>
      <trkpt lat="45.85963" lon="4.70854">
        <ele>196</ele>
        <time>2018-02-12T15:00:26Z</time>
      </trkpt>
      <trkpt lat="45.85963" lon="4.70847">
        <ele>196</ele>
        <time>2018-02-12T15:00:27Z</time>
      </trkpt>
      <trkpt lat="45.85964" lon="4.7084">
        <ele>196</ele>
        <time>2018-02-12T15:00:28Z</time>
      </trkpt>
      <trkpt lat="45.85962" lon="4.70832">
        <ele>196</ele>
        <time>2018-02-12T15:00:29Z</time>
      </trkpt>
      <trkpt lat="45.85961" lon="4.70825">
        <ele>196</ele>
        <time>2018-02-12T15:00:30Z</time>
      </trkpt>
      <trkpt lat="45.85959" lon="4.70818">
        <ele>195</ele>
        <time>2018-02-12T15:00:31Z</time>
      </trkpt>
      <trkpt lat="45.85959" lon="4.70811">
        <ele>195</ele>
        <time>2018-02-12T15:00:32Z</time>
      </trkpt>
      <trkpt lat="45.85956" lon="4.70803">
        <ele>195</ele>
        <time>2018-02-12T15:00:34Z</time>
      </trkpt>
      <trkpt lat="45.85957" lon="4.7079">
        <ele>195</ele>
        <time>2018-02-12T15:00:35Z</time>
      </trkpt>
      <trkpt lat="45.85957" lon="4.70782">
        <ele>195</ele>
        <time>2018-02-12T15:00:36Z</time>
      </trkpt>
      <trkpt lat="45.85959" lon="4.70772">
        <ele>195</ele>
        <time>2018-02-12T15:00:37Z</time>
      </trkpt>
      <trkpt lat="45.85959" lon="4.70765">
        <ele>195</ele>
        <time>2018-02-12T15:00:38Z</time>
      </trkpt>
      <trkpt lat="45.8596" lon="4.70758">
        <ele>195</ele>
        <time>2018-02-12T15:00:39Z</time>
      </trkpt>
      <trkpt lat="45.8596" lon="4.70751">
        <ele>195</ele>
        <time>2018-02-12T15:00:40Z</time>
      </trkpt>
      <trkpt lat="45.85961" lon="4.70743">
        <ele>194</ele>
        <time>2018-02-12T15:00:41Z</time>
      </trkpt>
      <trkpt lat="45.85962" lon="4.7073">
        <ele>194</ele>
        <time>2018-02-12T15:00:43Z</time>
      </trkpt>
      <trkpt lat="45.85963" lon="4.70724">
        <ele>194</ele>
        <time>2018-02-12T15:00:44Z</time>
      </trkpt>
      <trkpt lat="45.85964" lon="4.70718">
        <ele>194</ele>
        <time>2018-02-12T15:00:45Z</time>
      </trkpt>
      <trkpt lat="45.85964" lon="4.70711">
        <ele>194</ele>
        <time>2018-02-12T15:00:46Z</time>
      </trkpt>
      <trkpt lat="45.85966" lon="4.70699">
        <ele>194</ele>
        <time>2018-02-12T15:00:48Z</time>
      </trkpt>
      <trkpt lat="45.85966" lon="4.70693">
        <ele>194</ele>
        <time>2018-02-12T15:00:49Z</time>
      </trkpt>
      <trkpt lat="45.85964" lon="4.70685">
        <ele>194</ele>
        <time>2018-02-12T15:00:50Z</time>
      </trkpt>
      <trkpt lat="45.85962" lon="4.70677">
        <ele>194</ele>
        <time>2018-02-12T15:00:51Z</time>
      </trkpt>
      <trkpt lat="45.85959" lon="4.70671">
        <ele>194</ele>
        <time>2018-02-12T15:00:52Z</time>
      </trkpt>
      <trkpt lat="45.85955" lon="4.70665">
        <ele>194</ele>
        <time>2018-02-12T15:00:53Z</time>
      </trkpt>
      <trkpt lat="45.85952" lon="4.7066">
        <ele>194</ele>
        <time>2018-02-12T15:00:54Z</time>
      </trkpt>
      <trkpt lat="45.85948" lon="4.70655">
        <ele>194</ele>
        <time>2018-02-12T15:00:55Z</time>
      </trkpt>
      <trkpt lat="45.85944" lon="4.70649">
        <ele>194</ele>
        <time>2018-02-12T15:00:56Z</time>
      </trkpt>
      <trkpt lat="45.85941" lon="4.70643">
        <ele>194</ele>
        <time>2018-02-12T15:00:57Z</time>
      </trkpt>
      <trkpt lat="45.85937" lon="4.70637">
        <ele>194</ele>
        <time>2018-02-12T15:00:58Z</time>
      </trkpt>
      <trkpt lat="45.85934" lon="4.70631">
        <ele>194</ele>
        <time>2018-02-12T15:00:59Z</time>
      </trkpt>
      <trkpt lat="45.8593" lon="4.70625">
        <ele>194</ele>
        <time>2018-02-12T15:01:00Z</time>
      </trkpt>
      <trkpt lat="45.85927" lon="4.70619">
        <ele>194</ele>
        <time>2018-02-12T15:01:01Z</time>
      </trkpt>
      <trkpt lat="45.85923" lon="4.70614">
        <ele>194</ele>
        <time>2018-02-12T15:01:02Z</time>
      </trkpt>
      <trkpt lat="45.8592" lon="4.70608">
        <ele>194</ele>
        <time>2018-02-12T15:01:03Z</time>
      </trkpt>
      <trkpt lat="45.85917" lon="4.70603">
        <ele>195</ele>
        <time>2018-02-12T15:01:04Z</time>
      </trkpt>
      <trkpt lat="45.85913" lon="4.70598">
        <ele>195</ele>
        <time>2018-02-12T15:01:05Z</time>
      </trkpt>
      <trkpt lat="45.8591" lon="4.70594">
        <ele>195</ele>
        <time>2018-02-12T15:01:06Z</time>
      </trkpt>
      <trkpt lat="45.85906" lon="4.70591">
        <ele>195</ele>
        <time>2018-02-12T15:01:07Z</time>
      </trkpt>
      <trkpt lat="45.85897" lon="4.70586">
        <ele>195</ele>
        <time>2018-02-12T15:01:09Z</time>
      </trkpt>
      <trkpt lat="45.85893" lon="4.70583">
        <ele>195</ele>
        <time>2018-02-12T15:01:10Z</time>
      </trkpt>
      <trkpt lat="45.85889" lon="4.7058">
        <ele>195</ele>
        <time>2018-02-12T15:01:11Z</time>
      </trkpt>
      <trkpt lat="45.85884" lon="4.70579">
        <ele>195</ele>
        <time>2018-02-12T15:01:12Z</time>
      </trkpt>
      <trkpt lat="45.85879" lon="4.70578">
        <ele>195</ele>
        <time>2018-02-12T15:01:13Z</time>
      </trkpt>
      <trkpt lat="45.85875" lon="4.70577">
        <ele>195</ele>
        <time>2018-02-12T15:01:14Z</time>
      </trkpt>
      <trkpt lat="45.85869" lon="4.70576">
        <ele>195</ele>
        <time>2018-02-12T15:01:15Z</time>
      </trkpt>
      <trkpt lat="45.85864" lon="4.70574">
        <ele>195</ele>
        <time>2018-02-12T15:01:16Z</time>
      </trkpt>
      <trkpt lat="45.85859" lon="4.70573">
        <ele>195</ele>
        <time>2018-02-12T15:01:17Z</time>
      </trkpt>
      <trkpt lat="45.85854" lon="4.70572">
        <ele>195</ele>
        <time>2018-02-12T15:01:18Z</time>
      </trkpt>
      <trkpt lat="45.8585" lon="4.70571">
        <ele>195</ele>
        <time>2018-02-12T15:01:19Z</time>
      </trkpt>
      <trkpt lat="45.85845" lon="4.70568">
        <ele>195</ele>
        <time>2018-02-12T15:01:20Z</time>
      </trkpt>
      <trkpt lat="45.85839" lon="4.70566">
        <ele>195</ele>
        <time>2018-02-12T15:01:21Z</time>
      </trkpt>
      <trkpt lat="45.85834" lon="4.70565">
        <ele>195</ele>
        <time>2018-02-12T15:01:22Z</time>
      </trkpt>
      <trkpt lat="45.85829" lon="4.70562">
        <ele>195</ele>
        <time>2018-02-12T15:01:23Z</time>
      </trkpt>
      <trkpt lat="45.85823" lon="4.7056">
        <ele>195</ele>
        <time>2018-02-12T15:01:24Z</time>
      </trkpt>
      <trkpt lat="45.85818" lon="4.70558">
        <ele>195</ele>
        <time>2018-02-12T15:01:25Z</time>
      </trkpt>
      <trkpt lat="45.85814" lon="4.70556">
        <ele>195</ele>
        <time>2018-02-12T15:01:26Z</time>
      </trkpt>
      <trkpt lat="45.85806" lon="4.70551">
        <ele>195</ele>
        <time>2018-02-12T15:01:28Z</time>
      </trkpt>
      <trkpt lat="45.85802" lon="4.7055">
        <ele>195</ele>
        <time>2018-02-12T15:01:29Z</time>
      </trkpt>
      <trkpt lat="45.85797" lon="4.70548">
        <ele>195</ele>
        <time>2018-02-12T15:01:30Z</time>
      </trkpt>
      <trkpt lat="45.85792" lon="4.70547">
        <ele>195</ele>
        <time>2018-02-12T15:01:31Z</time>
      </trkpt>
      <trkpt lat="45.85788" lon="4.70544">
        <ele>196</ele>
        <time>2018-02-12T15:01:32Z</time>
      </trkpt>
      <trkpt lat="45.85784" lon="4.70541">
        <ele>196</ele>
        <time>2018-02-12T15:01:33Z</time>
      </trkpt>
      <trkpt lat="45.8578" lon="4.70538">
        <ele>196</ele>
        <time>2018-02-12T15:01:34Z</time>
      </trkpt>
      <trkpt lat="45.85776" lon="4.70535">
        <ele>196</ele>
        <time>2018-02-12T15:01:35Z</time>
      </trkpt>
      <trkpt lat="45.85771" lon="4.70532">
        <ele>196</ele>
        <time>2018-02-12T15:01:36Z</time>
      </trkpt>
      <trkpt lat="45.85767" lon="4.70529">
        <ele>196</ele>
        <time>2018-02-12T15:01:37Z</time>
      </trkpt>
      <trkpt lat="45.85763" lon="4.70525">
        <ele>196</ele>
        <time>2018-02-12T15:01:38Z</time>
      </trkpt>
      <trkpt lat="45.85758" lon="4.70522">
        <ele>196</ele>
        <time>2018-02-12T15:01:39Z</time>
      </trkpt>
      <trkpt lat="45.85751" lon="4.70516">
        <ele>196</ele>
        <time>2018-02-12T15:01:41Z</time>
      </trkpt>
      <trkpt lat="45.85746" lon="4.70513">
        <ele>196</ele>
        <time>2018-02-12T15:01:42Z</time>
      </trkpt>
      <trkpt lat="45.8574" lon="4.70506">
        <ele>196</ele>
        <time>2018-02-12T15:01:44Z</time>
      </trkpt>
      <trkpt lat="45.85737" lon="4.70502">
        <ele>196</ele>
        <time>2018-02-12T15:01:45Z</time>
      </trkpt>
      <trkpt lat="45.85732" lon="4.70493">
        <ele>196</ele>
        <time>2018-02-12T15:01:47Z</time>
      </trkpt>
      <trkpt lat="45.85729" lon="4.70489">
        <ele>196</ele>
        <time>2018-02-12T15:01:48Z</time>
      </trkpt>
      <trkpt lat="45.85726" lon="4.70478">
        <ele>196</ele>
        <time>2018-02-12T15:01:50Z</time>
      </trkpt>
      <trkpt lat="45.85725" lon="4.70471">
        <ele>196</ele>
        <time>2018-02-12T15:01:51Z</time>
      </trkpt>
      <trkpt lat="45.85724" lon="4.70465">
        <ele>196</ele>
        <time>2018-02-12T15:01:52Z</time>
      </trkpt>
      <trkpt lat="45.85723" lon="4.70458">
        <ele>196</ele>
        <time>2018-02-12T15:01:53Z</time>
      </trkpt>
      <trkpt lat="45.85722" lon="4.7045">
        <ele>196</ele>
        <time>2018-02-12T15:01:54Z</time>
      </trkpt>
      <trkpt lat="45.85721" lon="4.70444">
        <ele>196</ele>
        <time>2018-02-12T15:01:55Z</time>
      </trkpt>
      <trkpt lat="45.8572" lon="4.70437">
        <ele>196</ele>
        <time>2018-02-12T15:01:56Z</time>
      </trkpt>
      <trkpt lat="45.85718" lon="4.70431">
        <ele>196</ele>
        <time>2018-02-12T15:01:57Z</time>
      </trkpt>
      <trkpt lat="45.85718" lon="4.70424">
        <ele>196</ele>
        <time>2018-02-12T15:01:58Z</time>
      </trkpt>
      <trkpt lat="45.85717" lon="4.70416">
        <ele>196</ele>
        <time>2018-02-12T15:01:59Z</time>
      </trkpt>
      <trkpt lat="45.85716" lon="4.70409">
        <ele>196</ele>
        <time>2018-02-12T15:02:00Z</time>
      </trkpt>
      <trkpt lat="45.85715" lon="4.70402">
        <ele>196</ele>
        <time>2018-02-12T15:02:01Z</time>
      </trkpt>
      <trkpt lat="45.85715" lon="4.70395">
        <ele>196</ele>
        <time>2018-02-12T15:02:02Z</time>
      </trkpt>
      <trkpt lat="45.85714" lon="4.70389">
        <ele>196</ele>
        <time>2018-02-12T15:02:03Z</time>
      </trkpt>
      <trkpt lat="45.85714" lon="4.70382">
        <ele>196</ele>
        <time>2018-02-12T15:02:04Z</time>
      </trkpt>
      <trkpt lat="45.85714" lon="4.70375">
        <ele>196</ele>
        <time>2018-02-12T15:02:05Z</time>
      </trkpt>
      <trkpt lat="45.85713" lon="4.70367">
        <ele>196</ele>
        <time>2018-02-12T15:02:06Z</time>
      </trkpt>
      <trkpt lat="45.85712" lon="4.7036">
        <ele>196</ele>
        <time>2018-02-12T15:02:07Z</time>
      </trkpt>
      <trkpt lat="45.85712" lon="4.70353">
        <ele>196</ele>
        <time>2018-02-12T15:02:08Z</time>
      </trkpt>
      <trkpt lat="45.85711" lon="4.70347">
        <ele>196</ele>
        <time>2018-02-12T15:02:09Z</time>
      </trkpt>
      <trkpt lat="45.8571" lon="4.7034">
        <ele>196</ele>
        <time>2018-02-12T15:02:10Z</time>
      </trkpt>
      <trkpt lat="45.85709" lon="4.70334">
        <ele>196</ele>
        <time>2018-02-12T15:02:11Z</time>
      </trkpt>
      <trkpt lat="45.85708" lon="4.70326">
        <ele>197</ele>
        <time>2018-02-12T15:02:12Z</time>
      </trkpt>
      <trkpt lat="45.85707" lon="4.70319">
        <ele>197</ele>
        <time>2018-02-12T15:02:13Z</time>
      </trkpt>
      <trkpt lat="45.85706" lon="4.70312">
        <ele>197</ele>
        <time>2018-02-12T15:02:14Z</time>
      </trkpt>
      <trkpt lat="45.85706" lon="4.70306">
        <ele>197</ele>
        <time>2018-02-12T15:02:15Z</time>
      </trkpt>
      <trkpt lat="45.85705" lon="4.70299">
        <ele>197</ele>
        <time>2018-02-12T15:02:16Z</time>
      </trkpt>
      <trkpt lat="45.85704" lon="4.70293">
        <ele>197</ele>
        <time>2018-02-12T15:02:17Z</time>
      </trkpt>
      <trkpt lat="45.85704" lon="4.70284">
        <ele>197</ele>
        <time>2018-02-12T15:02:18Z</time>
      </trkpt>
      <trkpt lat="45.85704" lon="4.70277">
        <ele>197</ele>
        <time>2018-02-12T15:02:19Z</time>
      </trkpt>
      <trkpt lat="45.85704" lon="4.7027">
        <ele>197</ele>
        <time>2018-02-12T15:02:20Z</time>
      </trkpt>
      <trkpt lat="45.85703" lon="4.70262">
        <ele>197</ele>
        <time>2018-02-12T15:02:21Z</time>
      </trkpt>
      <trkpt lat="45.85703" lon="4.70255">
        <ele>197</ele>
        <time>2018-02-12T15:02:22Z</time>
      </trkpt>
      <trkpt lat="45.85702" lon="4.70249">
        <ele>197</ele>
        <time>2018-02-12T15:02:23Z</time>
      </trkpt>
      <trkpt lat="45.85701" lon="4.70242">
        <ele>197</ele>
        <time>2018-02-12T15:02:24Z</time>
      </trkpt>
      <trkpt lat="45.85699" lon="4.70234">
        <ele>197</ele>
        <time>2018-02-12T15:02:25Z</time>
      </trkpt>
      <trkpt lat="45.85699" lon="4.70226">
        <ele>197</ele>
        <time>2018-02-12T15:02:26Z</time>
      </trkpt>
      <trkpt lat="45.85697" lon="4.70219">
        <ele>197</ele>
        <time>2018-02-12T15:02:27Z</time>
      </trkpt>
      <trkpt lat="45.85695" lon="4.70211">
        <ele>197</ele>
        <time>2018-02-12T15:02:28Z</time>
      </trkpt>
      <trkpt lat="45.85694" lon="4.70203">
        <ele>197</ele>
        <time>2018-02-12T15:02:29Z</time>
      </trkpt>
      <trkpt lat="45.85692" lon="4.70195">
        <ele>197</ele>
        <time>2018-02-12T15:02:30Z</time>
      </trkpt>
      <trkpt lat="45.8569" lon="4.70186">
        <ele>197</ele>
        <time>2018-02-12T15:02:31Z</time>
      </trkpt>
      <trkpt lat="45.85688" lon="4.7018">
        <ele>197</ele>
        <time>2018-02-12T15:02:32Z</time>
      </trkpt>
      <trkpt lat="45.85686" lon="4.70172">
        <ele>197</ele>
        <time>2018-02-12T15:02:33Z</time>
      </trkpt>
      <trkpt lat="45.85684" lon="4.70164">
        <ele>197</ele>
        <time>2018-02-12T15:02:34Z</time>
      </trkpt>
      <trkpt lat="45.85683" lon="4.70156">
        <ele>197</ele>
        <time>2018-02-12T15:02:35Z</time>
      </trkpt>
      <trkpt lat="45.85681" lon="4.70149">
        <ele>197</ele>
        <time>2018-02-12T15:02:36Z</time>
      </trkpt>
      <trkpt lat="45.8568" lon="4.70141">
        <ele>197</ele>
        <time>2018-02-12T15:02:37Z</time>
      </trkpt>
      <trkpt lat="45.85679" lon="4.70133">
        <ele>197</ele>
        <time>2018-02-12T15:02:38Z</time>
      </trkpt>
      <trkpt lat="45.85679" lon="4.70123">
        <ele>197</ele>
        <time>2018-02-12T15:02:39Z</time>
      </trkpt>
      <trkpt lat="45.85679" lon="4.70115">
        <ele>197</ele>
        <time>2018-02-12T15:02:40Z</time>
      </trkpt>
      <trkpt lat="45.85679" lon="4.70107">
        <ele>196</ele>
        <time>2018-02-12T15:02:41Z</time>
      </trkpt>
      <trkpt lat="45.8568" lon="4.701">
        <ele>196</ele>
        <time>2018-02-12T15:02:42Z</time>
      </trkpt>
      <trkpt lat="45.85681" lon="4.70092">
        <ele>196</ele>
        <time>2018-02-12T15:02:43Z</time>
      </trkpt>
      <trkpt lat="45.85682" lon="4.70086">
        <ele>196</ele>
        <time>2018-02-12T15:02:44Z</time>
      </trkpt>
      <trkpt lat="45.85683" lon="4.7008">
        <ele>196</ele>
        <time>2018-02-12T15:02:45Z</time>
      </trkpt>
      <trkpt lat="45.85685" lon="4.70068">
        <ele>196</ele>
        <time>2018-02-12T15:02:47Z</time>
      </trkpt>
      <trkpt lat="45.85687" lon="4.70062">
        <ele>195</ele>
        <time>2018-02-12T15:02:48Z</time>
      </trkpt>
      <trkpt lat="45.85689" lon="4.70051">
        <ele>195</ele>
        <time>2018-02-12T15:02:50Z</time>
      </trkpt>
      <trkpt lat="45.85691" lon="4.70045">
        <ele>195</ele>
        <time>2018-02-12T15:02:51Z</time>
      </trkpt>
      <trkpt lat="45.85692" lon="4.70039">
        <ele>195</ele>
        <time>2018-02-12T15:02:52Z</time>
      </trkpt>
      <trkpt lat="45.85693" lon="4.7003">
        <ele>195</ele>
        <time>2018-02-12T15:02:53Z</time>
      </trkpt>
      <trkpt lat="45.85693" lon="4.70023">
        <ele>195</ele>
        <time>2018-02-12T15:02:54Z</time>
      </trkpt>
      <trkpt lat="45.85694" lon="4.70015">
        <ele>195</ele>
        <time>2018-02-12T15:02:55Z</time>
      </trkpt>
      <trkpt lat="45.85693" lon="4.70005">
        <ele>195</ele>
        <time>2018-02-12T15:02:56Z</time>
      </trkpt>
      <trkpt lat="45.85693" lon="4.69997">
        <ele>195</ele>
        <time>2018-02-12T15:02:57Z</time>
      </trkpt>
      <trkpt lat="45.85692" lon="4.69989">
        <ele>195</ele>
        <time>2018-02-12T15:02:58Z</time>
      </trkpt>
      <trkpt lat="45.85691" lon="4.6998">
        <ele>195</ele>
        <time>2018-02-12T15:02:59Z</time>
      </trkpt>
      <trkpt lat="45.85689" lon="4.69972">
        <ele>195</ele>
        <time>2018-02-12T15:03:00Z</time>
      </trkpt>
      <trkpt lat="45.85688" lon="4.69963">
        <ele>195</ele>
        <time>2018-02-12T15:03:01Z</time>
      </trkpt>
      <trkpt lat="45.85686" lon="4.69955">
        <ele>195</ele>
        <time>2018-02-12T15:03:02Z</time>
      </trkpt>
      <trkpt lat="45.85684" lon="4.69947">
        <ele>195</ele>
        <time>2018-02-12T15:03:03Z</time>
      </trkpt>
      <trkpt lat="45.85681" lon="4.69939">
        <ele>195</ele>
        <time>2018-02-12T15:03:04Z</time>
      </trkpt>
      <trkpt lat="45.85679" lon="4.69932">
        <ele>195</ele>
        <time>2018-02-12T15:03:05Z</time>
      </trkpt>
      <trkpt lat="45.85677" lon="4.69924">
        <ele>195</ele>
        <time>2018-02-12T15:03:06Z</time>
      </trkpt>
      <trkpt lat="45.85675" lon="4.69917">
        <ele>195</ele>
        <time>2018-02-12T15:03:07Z</time>
      </trkpt>
      <trkpt lat="45.85674" lon="4.6991">
        <ele>195</ele>
        <time>2018-02-12T15:03:08Z</time>
      </trkpt>
      <trkpt lat="45.85672" lon="4.69904">
        <ele>195</ele>
        <time>2018-02-12T15:03:09Z</time>
      </trkpt>
      <trkpt lat="45.8567" lon="4.69897">
        <ele>195</ele>
        <time>2018-02-12T15:03:10Z</time>
      </trkpt>
      <trkpt lat="45.8567" lon="4.6989">
        <ele>195</ele>
        <time>2018-02-12T15:03:11Z</time>
      </trkpt>
      <trkpt lat="45.85669" lon="4.69883">
        <ele>195</ele>
        <time>2018-02-12T15:03:12Z</time>
      </trkpt>
      <trkpt lat="45.85668" lon="4.69876">
        <ele>195</ele>
        <time>2018-02-12T15:03:13Z</time>
      </trkpt>
      <trkpt lat="45.85668" lon="4.69869">
        <ele>195</ele>
        <time>2018-02-12T15:03:14Z</time>
      </trkpt>
      <trkpt lat="45.85667" lon="4.69862">
        <ele>195</ele>
        <time>2018-02-12T15:03:15Z</time>
      </trkpt>
      <trkpt lat="45.85666" lon="4.69855">
        <ele>195</ele>
        <time>2018-02-12T15:03:16Z</time>
      </trkpt>
      <trkpt lat="45.85666" lon="4.69847">
        <ele>195</ele>
        <time>2018-02-12T15:03:17Z</time>
      </trkpt>
      <trkpt lat="45.85665" lon="4.6984">
        <ele>195</ele>
        <time>2018-02-12T15:03:18Z</time>
      </trkpt>
      <trkpt lat="45.85665" lon="4.69833">
        <ele>195</ele>
        <time>2018-02-12T15:03:19Z</time>
      </trkpt>
      <trkpt lat="45.85664" lon="4.69826">
        <ele>195</ele>
        <time>2018-02-12T15:03:20Z</time>
      </trkpt>
      <trkpt lat="45.85663" lon="4.69819">
        <ele>195</ele>
        <time>2018-02-12T15:03:21Z</time>
      </trkpt>
      <trkpt lat="45.85663" lon="4.69811">
        <ele>195</ele>
        <time>2018-02-12T15:03:22Z</time>
      </trkpt>
      <trkpt lat="45.85662" lon="4.69804">
        <ele>195</ele>
        <time>2018-02-12T15:03:23Z</time>
      </trkpt>
      <trkpt lat="45.85661" lon="4.69797">
        <ele>195</ele>
        <time>2018-02-12T15:03:24Z</time>
      </trkpt>
      <trkpt lat="45.85661" lon="4.69791">
        <ele>195</ele>
        <time>2018-02-12T15:03:25Z</time>
      </trkpt>
      <trkpt lat="45.85659" lon="4.69784">
        <ele>195</ele>
        <time>2018-02-12T15:03:26Z</time>
      </trkpt>
      <trkpt lat="45.85658" lon="4.69777">
        <ele>195</ele>
        <time>2018-02-12T15:03:27Z</time>
      </trkpt>
      <trkpt lat="45.85657" lon="4.6977">
        <ele>195</ele>
        <time>2018-02-12T15:03:28Z</time>
      </trkpt>
      <trkpt lat="45.85656" lon="4.69762">
        <ele>195</ele>
        <time>2018-02-12T15:03:29Z</time>
      </trkpt>
      <trkpt lat="45.85655" lon="4.69755">
        <ele>195</ele>
        <time>2018-02-12T15:03:30Z</time>
      </trkpt>
      <trkpt lat="45.85655" lon="4.69748">
        <ele>195</ele>
        <time>2018-02-12T15:03:31Z</time>
      </trkpt>
      <trkpt lat="45.85654" lon="4.69741">
        <ele>195</ele>
        <time>2018-02-12T15:03:32Z</time>
      </trkpt>
      <trkpt lat="45.85653" lon="4.69733">
        <ele>195</ele>
        <time>2018-02-12T15:03:33Z</time>
      </trkpt>
      <trkpt lat="45.85653" lon="4.69726">
        <ele>195</ele>
        <time>2018-02-12T15:03:34Z</time>
      </trkpt>
      <trkpt lat="45.85652" lon="4.69719">
        <ele>196</ele>
        <time>2018-02-12T15:03:35Z</time>
      </trkpt>
      <trkpt lat="45.85652" lon="4.69711">
        <ele>196</ele>
        <time>2018-02-12T15:03:36Z</time>
      </trkpt>
      <trkpt lat="45.85651" lon="4.69704">
        <ele>196</ele>
        <time>2018-02-12T15:03:37Z</time>
      </trkpt>
      <trkpt lat="45.85649" lon="4.69696">
        <ele>196</ele>
        <time>2018-02-12T15:03:38Z</time>
      </trkpt>
      <trkpt lat="45.85648" lon="4.69689">
        <ele>196</ele>
        <time>2018-02-12T15:03:39Z</time>
      </trkpt>
      <trkpt lat="45.85648" lon="4.69681">
        <ele>196</ele>
        <time>2018-02-12T15:03:40Z</time>
      </trkpt>
      <trkpt lat="45.85647" lon="4.69673">
        <ele>196</ele>
        <time>2018-02-12T15:03:41Z</time>
      </trkpt>
      <trkpt lat="45.85646" lon="4.69666">
        <ele>197</ele>
        <time>2018-02-12T15:03:42Z</time>
      </trkpt>
      <trkpt lat="45.85647" lon="4.69658">
        <ele>197</ele>
        <time>2018-02-12T15:03:43Z</time>
      </trkpt>
      <trkpt lat="45.85646" lon="4.6965">
        <ele>197</ele>
        <time>2018-02-12T15:03:44Z</time>
      </trkpt>
      <trkpt lat="45.85646" lon="4.69643">
        <ele>197</ele>
        <time>2018-02-12T15:03:45Z</time>
      </trkpt>
      <trkpt lat="45.85645" lon="4.69635">
        <ele>197</ele>
        <time>2018-02-12T15:03:46Z</time>
      </trkpt>
      <trkpt lat="45.85644" lon="4.69627">
        <ele>197</ele>
        <time>2018-02-12T15:03:47Z</time>
      </trkpt>
      <trkpt lat="45.85642" lon="4.6962">
        <ele>197</ele>
        <time>2018-02-12T15:03:48Z</time>
      </trkpt>
      <trkpt lat="45.85642" lon="4.69613">
        <ele>197</ele>
        <time>2018-02-12T15:03:49Z</time>
      </trkpt>
      <trkpt lat="45.85641" lon="4.69606">
        <ele>197</ele>
        <time>2018-02-12T15:03:50Z</time>
      </trkpt>
      <trkpt lat="45.8564" lon="4.69599">
        <ele>197</ele>
        <time>2018-02-12T15:03:51Z</time>
      </trkpt>
      <trkpt lat="45.8564" lon="4.69592">
        <ele>197</ele>
        <time>2018-02-12T15:03:52Z</time>
      </trkpt>
      <trkpt lat="45.85639" lon="4.69585">
        <ele>197</ele>
        <time>2018-02-12T15:03:53Z</time>
      </trkpt>
      <trkpt lat="45.85639" lon="4.69577">
        <ele>198</ele>
        <time>2018-02-12T15:03:54Z</time>
      </trkpt>
      <trkpt lat="45.85638" lon="4.6957">
        <ele>198</ele>
        <time>2018-02-12T15:03:55Z</time>
      </trkpt>
      <trkpt lat="45.85637" lon="4.69563">
        <ele>198</ele>
        <time>2018-02-12T15:03:56Z</time>
      </trkpt>
      <trkpt lat="45.85636" lon="4.69556">
        <ele>198</ele>
        <time>2018-02-12T15:03:57Z</time>
      </trkpt>
      <trkpt lat="45.85635" lon="4.6955">
        <ele>198</ele>
        <time>2018-02-12T15:03:58Z</time>
      </trkpt>
      <trkpt lat="45.85635" lon="4.69543">
        <ele>198</ele>
        <time>2018-02-12T15:03:59Z</time>
      </trkpt>
      <trkpt lat="45.85634" lon="4.69536">
        <ele>198</ele>
        <time>2018-02-12T15:04:00Z</time>
      </trkpt>
      <trkpt lat="45.85633" lon="4.69529">
        <ele>198</ele>
        <time>2018-02-12T15:04:01Z</time>
      </trkpt>
      <trkpt lat="45.85633" lon="4.69521">
        <ele>198</ele>
        <time>2018-02-12T15:04:02Z</time>
      </trkpt>
      <trkpt lat="45.85632" lon="4.69513">
        <ele>198</ele>
        <time>2018-02-12T15:04:03Z</time>
      </trkpt>
      <trkpt lat="45.85631" lon="4.69501">
        <ele>198</ele>
        <time>2018-02-12T15:04:05Z</time>
      </trkpt>
      <trkpt lat="45.85631" lon="4.69495">
        <ele>198</ele>
        <time>2018-02-12T15:04:06Z</time>
      </trkpt>
      <trkpt lat="45.8563" lon="4.69487">
        <ele>198</ele>
        <time>2018-02-12T15:04:07Z</time>
      </trkpt>
      <trkpt lat="45.8563" lon="4.69481">
        <ele>198</ele>
        <time>2018-02-12T15:04:08Z</time>
      </trkpt>
      <trkpt lat="45.85629" lon="4.69474">
        <ele>198</ele>
        <time>2018-02-12T15:04:09Z</time>
      </trkpt>
      <trkpt lat="45.85628" lon="4.69467">
        <ele>198</ele>
        <time>2018-02-12T15:04:10Z</time>
      </trkpt>
      <trkpt lat="45.85628" lon="4.6946">
        <ele>198</ele>
        <time>2018-02-12T15:04:11Z</time>
      </trkpt>
      <trkpt lat="45.85627" lon="4.69453">
        <ele>198</ele>
        <time>2018-02-12T15:04:12Z</time>
      </trkpt>
      <trkpt lat="45.85626" lon="4.69446">
        <ele>198</ele>
        <time>2018-02-12T15:04:13Z</time>
      </trkpt>
      <trkpt lat="45.85626" lon="4.69437">
        <ele>198</ele>
        <time>2018-02-12T15:04:14Z</time>
      </trkpt>
      <trkpt lat="45.85626" lon="4.69432">
        <ele>198</ele>
        <time>2018-02-12T15:04:15Z</time>
      </trkpt>
      <trkpt lat="45.85625" lon="4.69425">
        <ele>198</ele>
        <time>2018-02-12T15:04:16Z</time>
      </trkpt>
      <trkpt lat="45.85624" lon="4.69412">
        <ele>198</ele>
        <time>2018-02-12T15:04:18Z</time>
      </trkpt>
      <trkpt lat="45.85622" lon="4.69405">
        <ele>198</ele>
        <time>2018-02-12T15:04:19Z</time>
      </trkpt>
      <trkpt lat="45.85622" lon="4.69397">
        <ele>198</ele>
        <time>2018-02-12T15:04:20Z</time>
      </trkpt>
      <trkpt lat="45.85622" lon="4.6939">
        <ele>198</ele>
        <time>2018-02-12T15:04:21Z</time>
      </trkpt>
      <trkpt lat="45.85621" lon="4.69383">
        <ele>198</ele>
        <time>2018-02-12T15:04:22Z</time>
      </trkpt>
      <trkpt lat="45.8562" lon="4.69376">
        <ele>198</ele>
        <time>2018-02-12T15:04:23Z</time>
      </trkpt>
      <trkpt lat="45.8562" lon="4.69369">
        <ele>198</ele>
        <time>2018-02-12T15:04:24Z</time>
      </trkpt>
      <trkpt lat="45.85619" lon="4.69362">
        <ele>198</ele>
        <time>2018-02-12T15:04:25Z</time>
      </trkpt>
      <trkpt lat="45.85618" lon="4.69355">
        <ele>198</ele>
        <time>2018-02-12T15:04:26Z</time>
      </trkpt>
      <trkpt lat="45.85617" lon="4.69348">
        <ele>198</ele>
        <time>2018-02-12T15:04:27Z</time>
      </trkpt>
      <trkpt lat="45.85617" lon="4.69341">
        <ele>198</ele>
        <time>2018-02-12T15:04:28Z</time>
      </trkpt>
      <trkpt lat="45.85616" lon="4.69333">
        <ele>198</ele>
        <time>2018-02-12T15:04:29Z</time>
      </trkpt>
      <trkpt lat="45.85614" lon="4.69326">
        <ele>198</ele>
        <time>2018-02-12T15:04:30Z</time>
      </trkpt>
      <trkpt lat="45.85613" lon="4.69319">
        <ele>198</ele>
        <time>2018-02-12T15:04:31Z</time>
      </trkpt>
      <trkpt lat="45.85612" lon="4.69313">
        <ele>198</ele>
        <time>2018-02-12T15:04:32Z</time>
      </trkpt>
      <trkpt lat="45.85611" lon="4.69306">
        <ele>198</ele>
        <time>2018-02-12T15:04:33Z</time>
      </trkpt>
      <trkpt lat="45.85611" lon="4.69299">
        <ele>198</ele>
        <time>2018-02-12T15:04:34Z</time>
      </trkpt>
      <trkpt lat="45.85611" lon="4.69292">
        <ele>198</ele>
        <time>2018-02-12T15:04:35Z</time>
      </trkpt>
      <trkpt lat="45.85613" lon="4.6928">
        <ele>198</ele>
        <time>2018-02-12T15:04:37Z</time>
      </trkpt>
      <trkpt lat="45.85613" lon="4.69274">
        <ele>198</ele>
        <time>2018-02-12T15:04:38Z</time>
      </trkpt>
      <trkpt lat="45.85613" lon="4.69261">
        <ele>198</ele>
        <time>2018-02-12T15:04:40Z</time>
      </trkpt>
      <trkpt lat="45.85611" lon="4.69254">
        <ele>198</ele>
        <time>2018-02-12T15:04:41Z</time>
      </trkpt>
      <trkpt lat="45.85609" lon="4.69248">
        <ele>199</ele>
        <time>2018-02-12T15:04:42Z</time>
      </trkpt>
      <trkpt lat="45.85607" lon="4.69241">
        <ele>199</ele>
        <time>2018-02-12T15:04:43Z</time>
      </trkpt>
      <trkpt lat="45.85606" lon="4.69234">
        <ele>199</ele>
        <time>2018-02-12T15:04:44Z</time>
      </trkpt>
      <trkpt lat="45.85605" lon="4.69226">
        <ele>199</ele>
        <time>2018-02-12T15:04:45Z</time>
      </trkpt>
      <trkpt lat="45.85604" lon="4.69219">
        <ele>199</ele>
        <time>2018-02-12T15:04:46Z</time>
      </trkpt>
      <trkpt lat="45.85603" lon="4.69212">
        <ele>199</ele>
        <time>2018-02-12T15:04:47Z</time>
      </trkpt>
      <trkpt lat="45.85602" lon="4.69204">
        <ele>199</ele>
        <time>2018-02-12T15:04:48Z</time>
      </trkpt>
      <trkpt lat="45.85602" lon="4.69196">
        <ele>199</ele>
        <time>2018-02-12T15:04:49Z</time>
      </trkpt>
      <trkpt lat="45.85601" lon="4.69189">
        <ele>199</ele>
        <time>2018-02-12T15:04:50Z</time>
      </trkpt>
      <trkpt lat="45.856" lon="4.69181">
        <ele>199</ele>
        <time>2018-02-12T15:04:51Z</time>
      </trkpt>
      <trkpt lat="45.856" lon="4.69173">
        <ele>199</ele>
        <time>2018-02-12T15:04:52Z</time>
      </trkpt>
      <trkpt lat="45.85599" lon="4.69166">
        <ele>199</ele>
        <time>2018-02-12T15:04:53Z</time>
      </trkpt>
      <trkpt lat="45.85598" lon="4.69158">
        <ele>199</ele>
        <time>2018-02-12T15:04:54Z</time>
      </trkpt>
      <trkpt lat="45.85598" lon="4.6915">
        <ele>199</ele>
        <time>2018-02-12T15:04:55Z</time>
      </trkpt>
      <trkpt lat="45.85598" lon="4.69142">
        <ele>199</ele>
        <time>2018-02-12T15:04:56Z</time>
      </trkpt>
      <trkpt lat="45.85597" lon="4.69135">
        <ele>198</ele>
        <time>2018-02-12T15:04:57Z</time>
      </trkpt>
      <trkpt lat="45.85596" lon="4.69128">
        <ele>198</ele>
        <time>2018-02-12T15:04:58Z</time>
      </trkpt>
      <trkpt lat="45.85596" lon="4.69122">
        <ele>198</ele>
        <time>2018-02-12T15:04:59Z</time>
      </trkpt>
      <trkpt lat="45.85595" lon="4.69114">
        <ele>198</ele>
        <time>2018-02-12T15:05:00Z</time>
      </trkpt>
      <trkpt lat="45.85594" lon="4.69106">
        <ele>199</ele>
        <time>2018-02-12T15:05:01Z</time>
      </trkpt>
      <trkpt lat="45.85593" lon="4.69098">
        <ele>199</ele>
        <time>2018-02-12T15:05:02Z</time>
      </trkpt>
      <trkpt lat="45.85592" lon="4.69091">
        <ele>199</ele>
        <time>2018-02-12T15:05:03Z</time>
      </trkpt>
      <trkpt lat="45.85592" lon="4.69083">
        <ele>199</ele>
        <time>2018-02-12T15:05:04Z</time>
      </trkpt>
      <trkpt lat="45.85592" lon="4.69074">
        <ele>199</ele>
        <time>2018-02-12T15:05:05Z</time>
      </trkpt>
      <trkpt lat="45.85591" lon="4.69066">
        <ele>199</ele>
        <time>2018-02-12T15:05:06Z</time>
      </trkpt>
      <trkpt lat="45.85591" lon="4.69058">
        <ele>199</ele>
        <time>2018-02-12T15:05:07Z</time>
      </trkpt>
      <trkpt lat="45.8559" lon="4.6905">
        <ele>199</ele>
        <time>2018-02-12T15:05:08Z</time>
      </trkpt>
      <trkpt lat="45.85589" lon="4.69043">
        <ele>199</ele>
        <time>2018-02-12T15:05:09Z</time>
      </trkpt>
      <trkpt lat="45.85588" lon="4.69035">
        <ele>199</ele>
        <time>2018-02-12T15:05:10Z</time>
      </trkpt>
      <trkpt lat="45.85588" lon="4.69027">
        <ele>199</ele>
        <time>2018-02-12T15:05:11Z</time>
      </trkpt>
      <trkpt lat="45.85587" lon="4.69018">
        <ele>199</ele>
        <time>2018-02-12T15:05:12Z</time>
      </trkpt>
      <trkpt lat="45.85586" lon="4.69011">
        <ele>200</ele>
        <time>2018-02-12T15:05:13Z</time>
      </trkpt>
      <trkpt lat="45.85585" lon="4.69003">
        <ele>200</ele>
        <time>2018-02-12T15:05:14Z</time>
      </trkpt>
      <trkpt lat="45.85585" lon="4.68994">
        <ele>200</ele>
        <time>2018-02-12T15:05:15Z</time>
      </trkpt>
      <trkpt lat="45.85584" lon="4.68986">
        <ele>200</ele>
        <time>2018-02-12T15:05:16Z</time>
      </trkpt>
      <trkpt lat="45.85583" lon="4.68977">
        <ele>200</ele>
        <time>2018-02-12T15:05:17Z</time>
      </trkpt>
      <trkpt lat="45.85583" lon="4.68969">
        <ele>200</ele>
        <time>2018-02-12T15:05:18Z</time>
      </trkpt>
      <trkpt lat="45.85582" lon="4.68961">
        <ele>200</ele>
        <time>2018-02-12T15:05:19Z</time>
      </trkpt>
      <trkpt lat="45.85582" lon="4.68953">
        <ele>200</ele>
        <time>2018-02-12T15:05:20Z</time>
      </trkpt>
      <trkpt lat="45.85581" lon="4.68945">
        <ele>200</ele>
        <time>2018-02-12T15:05:21Z</time>
      </trkpt>
      <trkpt lat="45.8558" lon="4.68935">
        <ele>200</ele>
        <time>2018-02-12T15:05:22Z</time>
      </trkpt>
      <trkpt lat="45.85579" lon="4.68927">
        <ele>200</ele>
        <time>2018-02-12T15:05:23Z</time>
      </trkpt>
      <trkpt lat="45.85578" lon="4.6892">
        <ele>200</ele>
        <time>2018-02-12T15:05:24Z</time>
      </trkpt>
      <trkpt lat="45.85578" lon="4.68912">
        <ele>200</ele>
        <time>2018-02-12T15:05:25Z</time>
      </trkpt>
      <trkpt lat="45.85577" lon="4.68903">
        <ele>200</ele>
        <time>2018-02-12T15:05:26Z</time>
      </trkpt>
      <trkpt lat="45.85576" lon="4.68895">
        <ele>200</ele>
        <time>2018-02-12T15:05:27Z</time>
      </trkpt>
      <trkpt lat="45.85575" lon="4.68887">
        <ele>200</ele>
        <time>2018-02-12T15:05:28Z</time>
      </trkpt>
      <trkpt lat="45.85575" lon="4.68879">
        <ele>200</ele>
        <time>2018-02-12T15:05:29Z</time>
      </trkpt>
      <trkpt lat="45.85575" lon="4.68871">
        <ele>200</ele>
        <time>2018-02-12T15:05:30Z</time>
      </trkpt>
      <trkpt lat="45.85574" lon="4.68863">
        <ele>200</ele>
        <time>2018-02-12T15:05:31Z</time>
      </trkpt>
      <trkpt lat="45.85573" lon="4.68855">
        <ele>200</ele>
        <time>2018-02-12T15:05:32Z</time>
      </trkpt>
      <trkpt lat="45.85573" lon="4.68847">
        <ele>200</ele>
        <time>2018-02-12T15:05:33Z</time>
      </trkpt>
      <trkpt lat="45.85572" lon="4.68839">
        <ele>200</ele>
        <time>2018-02-12T15:05:34Z</time>
      </trkpt>
      <trkpt lat="45.85571" lon="4.68831">
        <ele>200</ele>
        <time>2018-02-12T15:05:35Z</time>
      </trkpt>
      <trkpt lat="45.8557" lon="4.68823">
        <ele>200</ele>
        <time>2018-02-12T15:05:36Z</time>
      </trkpt>
      <trkpt lat="45.85569" lon="4.68814">
        <ele>200</ele>
        <time>2018-02-12T15:05:37Z</time>
      </trkpt>
      <trkpt lat="45.85568" lon="4.68806">
        <ele>200</ele>
        <time>2018-02-12T15:05:38Z</time>
      </trkpt>
      <trkpt lat="45.85567" lon="4.68798">
        <ele>200</ele>
        <time>2018-02-12T15:05:39Z</time>
      </trkpt>
      <trkpt lat="45.85566" lon="4.68789">
        <ele>200</ele>
        <time>2018-02-12T15:05:40Z</time>
      </trkpt>
      <trkpt lat="45.85565" lon="4.6878">
        <ele>200</ele>
        <time>2018-02-12T15:05:41Z</time>
      </trkpt>
      <trkpt lat="45.85565" lon="4.6877">
        <ele>200</ele>
        <time>2018-02-12T15:05:42Z</time>
      </trkpt>
      <trkpt lat="45.85565" lon="4.68762">
        <ele>200</ele>
        <time>2018-02-12T15:05:43Z</time>
      </trkpt>
      <trkpt lat="45.85564" lon="4.68754">
        <ele>200</ele>
        <time>2018-02-12T15:05:44Z</time>
      </trkpt>
      <trkpt lat="45.85564" lon="4.68745">
        <ele>200</ele>
        <time>2018-02-12T15:05:45Z</time>
      </trkpt>
      <trkpt lat="45.85562" lon="4.68737">
        <ele>200</ele>
        <time>2018-02-12T15:05:46Z</time>
      </trkpt>
      <trkpt lat="45.85561" lon="4.68729">
        <ele>200</ele>
        <time>2018-02-12T15:05:47Z</time>
      </trkpt>
      <trkpt lat="45.8556" lon="4.68721">
        <ele>200</ele>
        <time>2018-02-12T15:05:48Z</time>
      </trkpt>
      <trkpt lat="45.85559" lon="4.68713">
        <ele>200</ele>
        <time>2018-02-12T15:05:49Z</time>
      </trkpt>
      <trkpt lat="45.85558" lon="4.68705">
        <ele>200</ele>
        <time>2018-02-12T15:05:50Z</time>
      </trkpt>
      <trkpt lat="45.85557" lon="4.68695">
        <ele>200</ele>
        <time>2018-02-12T15:05:51Z</time>
      </trkpt>
      <trkpt lat="45.85556" lon="4.68687">
        <ele>200</ele>
        <time>2018-02-12T15:05:52Z</time>
      </trkpt>
      <trkpt lat="45.85555" lon="4.68679">
        <ele>200</ele>
        <time>2018-02-12T15:05:53Z</time>
      </trkpt>
      <trkpt lat="45.85554" lon="4.68671">
        <ele>200</ele>
        <time>2018-02-12T15:05:54Z</time>
      </trkpt>
      <trkpt lat="45.85553" lon="4.68662">
        <ele>200</ele>
        <time>2018-02-12T15:05:55Z</time>
      </trkpt>
      <trkpt lat="45.85552" lon="4.68655">
        <ele>201</ele>
        <time>2018-02-12T15:05:56Z</time>
      </trkpt>
      <trkpt lat="45.85552" lon="4.68646">
        <ele>201</ele>
        <time>2018-02-12T15:05:57Z</time>
      </trkpt>
      <trkpt lat="45.85552" lon="4.68637">
        <ele>201</ele>
        <time>2018-02-12T15:05:58Z</time>
      </trkpt>
      <trkpt lat="45.85551" lon="4.68629">
        <ele>201</ele>
        <time>2018-02-12T15:05:59Z</time>
      </trkpt>
      <trkpt lat="45.85551" lon="4.6862">
        <ele>201</ele>
        <time>2018-02-12T15:06:00Z</time>
      </trkpt>
      <trkpt lat="45.8555" lon="4.68612">
        <ele>201</ele>
        <time>2018-02-12T15:06:01Z</time>
      </trkpt>
      <trkpt lat="45.85548" lon="4.68605">
        <ele>201</ele>
        <time>2018-02-12T15:06:02Z</time>
      </trkpt>
      <trkpt lat="45.85548" lon="4.68596">
        <ele>201</ele>
        <time>2018-02-12T15:06:03Z</time>
      </trkpt>
      <trkpt lat="45.85546" lon="4.68589">
        <ele>201</ele>
        <time>2018-02-12T15:06:04Z</time>
      </trkpt>
      <trkpt lat="45.85546" lon="4.68581">
        <ele>201</ele>
        <time>2018-02-12T15:06:05Z</time>
      </trkpt>
      <trkpt lat="45.85545" lon="4.68573">
        <ele>201</ele>
        <time>2018-02-12T15:06:06Z</time>
      </trkpt>
      <trkpt lat="45.85544" lon="4.68565">
        <ele>201</ele>
        <time>2018-02-12T15:06:07Z</time>
      </trkpt>
      <trkpt lat="45.85543" lon="4.68557">
        <ele>201</ele>
        <time>2018-02-12T15:06:08Z</time>
      </trkpt>
      <trkpt lat="45.85543" lon="4.68549">
        <ele>201</ele>
        <time>2018-02-12T15:06:09Z</time>
      </trkpt>
      <trkpt lat="45.85543" lon="4.68538">
        <ele>201</ele>
        <time>2018-02-12T15:06:10Z</time>
      </trkpt>
      <trkpt lat="45.85543" lon="4.68531">
        <ele>201</ele>
        <time>2018-02-12T15:06:11Z</time>
      </trkpt>
      <trkpt lat="45.85542" lon="4.68524">
        <ele>201</ele>
        <time>2018-02-12T15:06:12Z</time>
      </trkpt>
      <trkpt lat="45.85541" lon="4.68517">
        <ele>201</ele>
        <time>2018-02-12T15:06:13Z</time>
      </trkpt>
      <trkpt lat="45.85539" lon="4.68508">
        <ele>201</ele>
        <time>2018-02-12T15:06:14Z</time>
      </trkpt>
      <trkpt lat="45.85539" lon="4.685">
        <ele>200</ele>
        <time>2018-02-12T15:06:15Z</time>
      </trkpt>
      <trkpt lat="45.85538" lon="4.68491">
        <ele>200</ele>
        <time>2018-02-12T15:06:16Z</time>
      </trkpt>
      <trkpt lat="45.85538" lon="4.68482">
        <ele>200</ele>
        <time>2018-02-12T15:06:17Z</time>
      </trkpt>
      <trkpt lat="45.85538" lon="4.68474">
        <ele>200</ele>
        <time>2018-02-12T15:06:18Z</time>
      </trkpt>
      <trkpt lat="45.85537" lon="4.68466">
        <ele>200</ele>
        <time>2018-02-12T15:06:19Z</time>
      </trkpt>
      <trkpt lat="45.85536" lon="4.68458">
        <ele>200</ele>
        <time>2018-02-12T15:06:20Z</time>
      </trkpt>
      <trkpt lat="45.85535" lon="4.6845">
        <ele>200</ele>
        <time>2018-02-12T15:06:21Z</time>
      </trkpt>
      <trkpt lat="45.85535" lon="4.68441">
        <ele>200</ele>
        <time>2018-02-12T15:06:22Z</time>
      </trkpt>
      <trkpt lat="45.85534" lon="4.68433">
        <ele>200</ele>
        <time>2018-02-12T15:06:23Z</time>
      </trkpt>
      <trkpt lat="45.85534" lon="4.68425">
        <ele>200</ele>
        <time>2018-02-12T15:06:24Z</time>
      </trkpt>
      <trkpt lat="45.85533" lon="4.68417">
        <ele>200</ele>
        <time>2018-02-12T15:06:25Z</time>
      </trkpt>
      <trkpt lat="45.85532" lon="4.68409">
        <ele>200</ele>
        <time>2018-02-12T15:06:26Z</time>
      </trkpt>
      <trkpt lat="45.85531" lon="4.684">
        <ele>200</ele>
        <time>2018-02-12T15:06:27Z</time>
      </trkpt>
      <trkpt lat="45.85531" lon="4.68392">
        <ele>200</ele>
        <time>2018-02-12T15:06:28Z</time>
      </trkpt>
      <trkpt lat="45.8553" lon="4.68384">
        <ele>200</ele>
        <time>2018-02-12T15:06:29Z</time>
      </trkpt>
      <trkpt lat="45.85529" lon="4.68376">
        <ele>201</ele>
        <time>2018-02-12T15:06:30Z</time>
      </trkpt>
      <trkpt lat="45.85528" lon="4.68368">
        <ele>201</ele>
        <time>2018-02-12T15:06:31Z</time>
      </trkpt>
      <trkpt lat="45.85528" lon="4.68361">
        <ele>201</ele>
        <time>2018-02-12T15:06:32Z</time>
      </trkpt>
      <trkpt lat="45.85528" lon="4.68353">
        <ele>201</ele>
        <time>2018-02-12T15:06:33Z</time>
      </trkpt>
      <trkpt lat="45.85527" lon="4.68345">
        <ele>201</ele>
        <time>2018-02-12T15:06:34Z</time>
      </trkpt>
      <trkpt lat="45.85527" lon="4.68337">
        <ele>201</ele>
        <time>2018-02-12T15:06:35Z</time>
      </trkpt>
      <trkpt lat="45.85526" lon="4.68328">
        <ele>202</ele>
        <time>2018-02-12T15:06:36Z</time>
      </trkpt>
      <trkpt lat="45.85526" lon="4.68321">
        <ele>202</ele>
        <time>2018-02-12T15:06:37Z</time>
      </trkpt>
      <trkpt lat="45.85525" lon="4.68308">
        <ele>202</ele>
        <time>2018-02-12T15:06:39Z</time>
      </trkpt>
      <trkpt lat="45.85526" lon="4.683">
        <ele>202</ele>
        <time>2018-02-12T15:06:40Z</time>
      </trkpt>
      <trkpt lat="45.85525" lon="4.68293">
        <ele>202</ele>
        <time>2018-02-12T15:06:41Z</time>
      </trkpt>
      <trkpt lat="45.85524" lon="4.68286">
        <ele>202</ele>
        <time>2018-02-12T15:06:42Z</time>
      </trkpt>
      <trkpt lat="45.85525" lon="4.68278">
        <ele>202</ele>
        <time>2018-02-12T15:06:43Z</time>
      </trkpt>
      <trkpt lat="45.85524" lon="4.68271">
        <ele>202</ele>
        <time>2018-02-12T15:06:44Z</time>
      </trkpt>
      <trkpt lat="45.85522" lon="4.68263">
        <ele>202</ele>
        <time>2018-02-12T15:06:45Z</time>
      </trkpt>
      <trkpt lat="45.85521" lon="4.68256">
        <ele>202</ele>
        <time>2018-02-12T15:06:46Z</time>
      </trkpt>
      <trkpt lat="45.85521" lon="4.68249">
        <ele>203</ele>
        <time>2018-02-12T15:06:47Z</time>
      </trkpt>
      <trkpt lat="45.85521" lon="4.68242">
        <ele>203</ele>
        <time>2018-02-12T15:06:48Z</time>
      </trkpt>
      <trkpt lat="45.85518" lon="4.68231">
        <ele>203</ele>
        <time>2018-02-12T15:06:50Z</time>
      </trkpt>
      <trkpt lat="45.85518" lon="4.68226">
        <ele>203</ele>
        <time>2018-02-12T15:06:51Z</time>
      </trkpt>
      <trkpt lat="45.85517" lon="4.68219">
        <ele>203</ele>
        <time>2018-02-12T15:06:52Z</time>
      </trkpt>
      <trkpt lat="45.85516" lon="4.68213">
        <ele>203</ele>
        <time>2018-02-12T15:06:53Z</time>
      </trkpt>
      <trkpt lat="45.85514" lon="4.68201">
        <ele>203</ele>
        <time>2018-02-12T15:06:55Z</time>
      </trkpt>
      <trkpt lat="45.85514" lon="4.68194">
        <ele>203</ele>
        <time>2018-02-12T15:06:56Z</time>
      </trkpt>
      <trkpt lat="45.85513" lon="4.68189">
        <ele>203</ele>
        <time>2018-02-12T15:06:57Z</time>
      </trkpt>
      <trkpt lat="45.85512" lon="4.68181">
        <ele>203</ele>
        <time>2018-02-12T15:06:58Z</time>
      </trkpt>
      <trkpt lat="45.85513" lon="4.68173">
        <ele>204</ele>
        <time>2018-02-12T15:06:59Z</time>
      </trkpt>
      <trkpt lat="45.85512" lon="4.68167">
        <ele>204</ele>
        <time>2018-02-12T15:07:00Z</time>
      </trkpt>
      <trkpt lat="45.85509" lon="4.68156">
        <ele>203</ele>
        <time>2018-02-12T15:07:03Z</time>
      </trkpt>
      <trkpt lat="45.85509" lon="4.68153">
        <ele>203</ele>
        <time>2018-02-12T15:07:04Z</time>
      </trkpt>
      <trkpt lat="45.85508" lon="4.68143">
        <ele>203</ele>
        <time>2018-02-12T15:07:07Z</time>
      </trkpt>
      <trkpt lat="45.85507" lon="4.68139">
        <ele>203</ele>
        <time>2018-02-12T15:07:08Z</time>
      </trkpt>
      <trkpt lat="45.85506" lon="4.68131">
        <ele>203</ele>
        <time>2018-02-12T15:07:10Z</time>
      </trkpt>
      <trkpt lat="45.85505" lon="4.68126">
        <ele>203</ele>
        <time>2018-02-12T15:07:11Z</time>
      </trkpt>
      <trkpt lat="45.85504" lon="4.68117">
        <ele>203</ele>
        <time>2018-02-12T15:07:13Z</time>
      </trkpt>
      <trkpt lat="45.85504" lon="4.68112">
        <ele>203</ele>
        <time>2018-02-12T15:07:14Z</time>
      </trkpt>
      <trkpt lat="45.85504" lon="4.68103">
        <ele>203</ele>
        <time>2018-02-12T15:07:16Z</time>
      </trkpt>
      <trkpt lat="45.85503" lon="4.68098">
        <ele>203</ele>
        <time>2018-02-12T15:07:17Z</time>
      </trkpt>
      <trkpt lat="45.85502" lon="4.68089">
        <ele>204</ele>
        <time>2018-02-12T15:07:19Z</time>
      </trkpt>
      <trkpt lat="45.85502" lon="4.68084">
        <ele>204</ele>
        <time>2018-02-12T15:07:20Z</time>
      </trkpt>
      <trkpt lat="45.85501" lon="4.68075">
        <ele>204</ele>
        <time>2018-02-12T15:07:22Z</time>
      </trkpt>
      <trkpt lat="45.85501" lon="4.6807">
        <ele>203</ele>
        <time>2018-02-12T15:07:23Z</time>
      </trkpt>
      <trkpt lat="45.855" lon="4.68059">
        <ele>206</ele>
        <time>2018-02-12T15:07:25Z</time>
      </trkpt>
      <trkpt lat="45.855" lon="4.68053">
        <ele>206</ele>
        <time>2018-02-12T15:07:26Z</time>
      </trkpt>
      <trkpt lat="45.85499" lon="4.68043">
        <ele>206</ele>
        <time>2018-02-12T15:07:28Z</time>
      </trkpt>
      <trkpt lat="45.85498" lon="4.68037">
        <ele>206</ele>
        <time>2018-02-12T15:07:29Z</time>
      </trkpt>
      <trkpt lat="45.85497" lon="4.68026">
        <ele>207</ele>
        <time>2018-02-12T15:07:31Z</time>
      </trkpt>
      <trkpt lat="45.85497" lon="4.6802">
        <ele>207</ele>
        <time>2018-02-12T15:07:32Z</time>
      </trkpt>
      <trkpt lat="45.85499" lon="4.6801">
        <ele>206</ele>
        <time>2018-02-12T15:07:34Z</time>
      </trkpt>
      <trkpt lat="45.85502" lon="4.68005">
        <ele>205</ele>
        <time>2018-02-12T15:07:35Z</time>
      </trkpt>
      <trkpt lat="45.85508" lon="4.67997">
        <ele>206</ele>
        <time>2018-02-12T15:07:37Z</time>
      </trkpt>
      <trkpt lat="45.85514" lon="4.67994">
        <ele>206</ele>
        <time>2018-02-12T15:07:38Z</time>
      </trkpt>
      <trkpt lat="45.85518" lon="4.67989">
        <ele>206</ele>
        <time>2018-02-12T15:07:39Z</time>
      </trkpt>
      <trkpt lat="45.85522" lon="4.67986">
        <ele>205</ele>
        <time>2018-02-12T15:07:40Z</time>
      </trkpt>
      <trkpt lat="45.85529" lon="4.67978">
        <ele>205</ele>
        <time>2018-02-12T15:07:42Z</time>
      </trkpt>
      <trkpt lat="45.85533" lon="4.67975">
        <ele>205</ele>
        <time>2018-02-12T15:07:43Z</time>
      </trkpt>
      <trkpt lat="45.8554" lon="4.67968">
        <ele>205</ele>
        <time>2018-02-12T15:07:45Z</time>
      </trkpt>
      <trkpt lat="45.85544" lon="4.67964">
        <ele>205</ele>
        <time>2018-02-12T15:07:46Z</time>
      </trkpt>
      <trkpt lat="45.85549" lon="4.67954">
        <ele>205</ele>
        <time>2018-02-12T15:07:48Z</time>
      </trkpt>
      <trkpt lat="45.85553" lon="4.67951">
        <ele>205</ele>
        <time>2018-02-12T15:07:49Z</time>
      </trkpt>
      <trkpt lat="45.8556" lon="4.67943">
        <ele>205</ele>
        <time>2018-02-12T15:07:51Z</time>
      </trkpt>
      <trkpt lat="45.85563" lon="4.6794">
        <ele>205</ele>
        <time>2018-02-12T15:07:52Z</time>
      </trkpt>
      <trkpt lat="45.8557" lon="4.67937">
        <ele>205</ele>
        <time>2018-02-12T15:07:54Z</time>
      </trkpt>
      <trkpt lat="45.85574" lon="4.6794">
        <ele>205</ele>
        <time>2018-02-12T15:07:55Z</time>
      </trkpt>
      <trkpt lat="45.85579" lon="4.67949">
        <ele>204</ele>
        <time>2018-02-12T15:07:57Z</time>
      </trkpt>
      <trkpt lat="45.85582" lon="4.67955">
        <ele>204</ele>
        <time>2018-02-12T15:07:58Z</time>
      </trkpt>
      <trkpt lat="45.85585" lon="4.67961">
        <ele>203</ele>
        <time>2018-02-12T15:07:59Z</time>
      </trkpt>
      <trkpt lat="45.85588" lon="4.67966">
        <ele>203</ele>
        <time>2018-02-12T15:08:00Z</time>
      </trkpt>
      <trkpt lat="45.8559" lon="4.67973">
        <ele>203</ele>
        <time>2018-02-12T15:08:01Z</time>
      </trkpt>
      <trkpt lat="45.85593" lon="4.67979">
        <ele>203</ele>
        <time>2018-02-12T15:08:02Z</time>
      </trkpt>
      <trkpt lat="45.85596" lon="4.67987">
        <ele>202</ele>
        <time>2018-02-12T15:08:03Z</time>
      </trkpt>
      <trkpt lat="45.85599" lon="4.67994">
        <ele>202</ele>
        <time>2018-02-12T15:08:04Z</time>
      </trkpt>
      <trkpt lat="45.85602" lon="4.68">
        <ele>202</ele>
        <time>2018-02-12T15:08:05Z</time>
      </trkpt>
      <trkpt lat="45.85604" lon="4.68006">
        <ele>201</ele>
        <time>2018-02-12T15:08:06Z</time>
      </trkpt>
      <trkpt lat="45.85607" lon="4.68016">
        <ele>201</ele>
        <time>2018-02-12T15:08:08Z</time>
      </trkpt>
      <trkpt lat="45.85609" lon="4.6802">
        <ele>201</ele>
        <time>2018-02-12T15:08:09Z</time>
      </trkpt>
      <trkpt lat="45.85612" lon="4.68031">
        <ele>201</ele>
        <time>2018-02-12T15:08:13Z</time>
      </trkpt>
      <trkpt lat="45.85614" lon="4.68031">
        <ele>201</ele>
        <time>2018-02-12T15:08:14Z</time>
      </trkpt>
      <trkpt lat="45.8562" lon="4.68039">
        <ele>201</ele>
        <time>2018-02-12T15:10:32Z</time>
      </trkpt>
      <trkpt lat="45.85622" lon="4.68041">
        <ele>200</ele>
        <time>2018-02-12T15:10:33Z</time>
      </trkpt>
      <trkpt lat="45.85629" lon="4.68049">
        <ele>200</ele>
        <time>2018-02-12T15:10:37Z</time>
      </trkpt>
      <trkpt lat="45.8563" lon="4.68051">
        <ele>200</ele>
        <time>2018-02-12T15:10:38Z</time>
      </trkpt>
      <trkpt lat="45.85637" lon="4.68059">
        <ele>200</ele>
        <time>2018-02-12T15:10:44Z</time>
      </trkpt>
      <trkpt lat="45.85638" lon="4.68061">
        <ele>200</ele>
        <time>2018-02-12T15:10:45Z</time>
      </trkpt>
      <trkpt lat="45.85643" lon="4.68071">
        <ele>200</ele>
        <time>2018-02-12T15:11:02Z</time>
      </trkpt>
      <trkpt lat="45.85643" lon="4.68071">
        <ele>200</ele>
        <time>2018-02-12T15:11:03Z</time>
      </trkpt>
      <trkpt lat="45.85636" lon="4.68064">
        <ele>200</ele>
        <time>2018-02-12T15:12:34Z</time>
      </trkpt>
      <trkpt lat="45.85635" lon="4.68063">
        <ele>200</ele>
        <time>2018-02-12T15:12:35Z</time>
      </trkpt>
      <trkpt lat="45.8563" lon="4.68052">
        <ele>200</ele>
        <time>2018-02-12T15:12:40Z</time>
      </trkpt>
      <trkpt lat="45.8563" lon="4.6805">
        <ele>200</ele>
        <time>2018-02-12T15:12:41Z</time>
      </trkpt>
      <trkpt lat="45.85623" lon="4.68043">
        <ele>200</ele>
        <time>2018-02-12T15:12:51Z</time>
      </trkpt>
      <trkpt lat="45.85622" lon="4.68042">
        <ele>200</ele>
        <time>2018-02-12T15:12:52Z</time>
      </trkpt>
      <trkpt lat="45.85615" lon="4.68037">
        <ele>200</ele>
        <time>2018-02-12T15:18:16Z</time>
      </trkpt>
      <trkpt lat="45.85614" lon="4.68037">
        <ele>200</ele>
        <time>2018-02-12T15:18:17Z</time>
      </trkpt>
      <trkpt lat="45.85617" lon="4.68035">
        <ele>201</ele>
        <time>2018-02-12T15:18:48Z</time>
      </trkpt>
      <trkpt lat="45.85617" lon="4.68036">
        <ele>201</ele>
        <time>2018-02-12T15:18:49Z</time>
      </trkpt>
      <trkpt lat="45.85617" lon="4.68039">
        <ele>200</ele>
        <time>2018-02-12T15:20:26Z</time>
      </trkpt>
      <trkpt lat="45.85617" lon="4.68039">
        <ele>200</ele>
        <time>2018-02-12T15:20:27Z</time>
      </trkpt>
      <trkpt lat="45.85625" lon="4.68038">
        <ele>201</ele>
        <time>2018-02-12T15:21:26Z</time>
      </trkpt>
      <trkpt lat="45.85626" lon="4.68039">
        <ele>201</ele>
        <time>2018-02-12T15:21:27Z</time>
      </trkpt>
      <trkpt lat="45.85632" lon="4.68048">
        <ele>200</ele>
        <time>2018-02-12T15:21:33Z</time>
      </trkpt>
      <trkpt lat="45.85634" lon="4.68051">
        <ele>200</ele>
        <time>2018-02-12T15:21:34Z</time>
      </trkpt>
      <trkpt lat="45.85638" lon="4.6806">
        <ele>200</ele>
        <time>2018-02-12T15:21:38Z</time>
      </trkpt>
      <trkpt lat="45.8564" lon="4.68063">
        <ele>200</ele>
        <time>2018-02-12T15:21:39Z</time>
      </trkpt>
      <trkpt lat="45.85647" lon="4.68072">
        <ele>200</ele>
        <time>2018-02-12T15:21:42Z</time>
      </trkpt>
      <trkpt lat="45.85649" lon="4.68075">
        <ele>200</ele>
        <time>2018-02-12T15:21:43Z</time>
      </trkpt>
      <trkpt lat="45.85653" lon="4.68082">
        <ele>200</ele>
        <time>2018-02-12T15:21:45Z</time>
      </trkpt>
      <trkpt lat="45.85656" lon="4.68085">
        <ele>200</ele>
        <time>2018-02-12T15:21:46Z</time>
      </trkpt>
      <trkpt lat="45.85661" lon="4.68093">
        <ele>200</ele>
        <time>2018-02-12T15:21:48Z</time>
      </trkpt>
      <trkpt lat="45.85664" lon="4.68097">
        <ele>200</ele>
        <time>2018-02-12T15:21:49Z</time>
      </trkpt>
      <trkpt lat="45.85669" lon="4.68105">
        <ele>200</ele>
        <time>2018-02-12T15:21:51Z</time>
      </trkpt>
      <trkpt lat="45.85672" lon="4.68108">
        <ele>200</ele>
        <time>2018-02-12T15:21:52Z</time>
      </trkpt>
      <trkpt lat="45.85678" lon="4.68114">
        <ele>200</ele>
        <time>2018-02-12T15:21:54Z</time>
      </trkpt>
      <trkpt lat="45.85681" lon="4.68118">
        <ele>200</ele>
        <time>2018-02-12T15:21:55Z</time>
      </trkpt>
      <trkpt lat="45.85688" lon="4.68125">
        <ele>200</ele>
        <time>2018-02-12T15:21:57Z</time>
      </trkpt>
      <trkpt lat="45.85691" lon="4.68129">
        <ele>200</ele>
        <time>2018-02-12T15:21:58Z</time>
      </trkpt>
      <trkpt lat="45.85697" lon="4.68135">
        <ele>200</ele>
        <time>2018-02-12T15:22:00Z</time>
      </trkpt>
      <trkpt lat="45.857" lon="4.68138">
        <ele>200</ele>
        <time>2018-02-12T15:22:01Z</time>
      </trkpt>
      <trkpt lat="45.85703" lon="4.68142">
        <ele>200</ele>
        <time>2018-02-12T15:22:02Z</time>
      </trkpt>
      <trkpt lat="45.85707" lon="4.68146">
        <ele>200</ele>
        <time>2018-02-12T15:22:03Z</time>
      </trkpt>
      <trkpt lat="45.85711" lon="4.6815">
        <ele>200</ele>
        <time>2018-02-12T15:22:04Z</time>
      </trkpt>
      <trkpt lat="45.85714" lon="4.68155">
        <ele>200</ele>
        <time>2018-02-12T15:22:05Z</time>
      </trkpt>
      <trkpt lat="45.8572" lon="4.68163">
        <ele>200</ele>
        <time>2018-02-12T15:22:07Z</time>
      </trkpt>
      <trkpt lat="45.85724" lon="4.68167">
        <ele>199</ele>
        <time>2018-02-12T15:22:08Z</time>
      </trkpt>
      <trkpt lat="45.8573" lon="4.68177">
        <ele>199</ele>
        <time>2018-02-12T15:22:10Z</time>
      </trkpt>
      <trkpt lat="45.85734" lon="4.68181">
        <ele>199</ele>
        <time>2018-02-12T15:22:11Z</time>
      </trkpt>
      <trkpt lat="45.85738" lon="4.68185">
        <ele>199</ele>
        <time>2018-02-12T15:22:12Z</time>
      </trkpt>
      <trkpt lat="45.85742" lon="4.68191">
        <ele>199</ele>
        <time>2018-02-12T15:22:13Z</time>
      </trkpt>
      <trkpt lat="45.85746" lon="4.68195">
        <ele>199</ele>
        <time>2018-02-12T15:22:14Z</time>
      </trkpt>
      <trkpt lat="45.8575" lon="4.682">
        <ele>202</ele>
        <time>2018-02-12T15:22:15Z</time>
      </trkpt>
      <trkpt lat="45.85757" lon="4.68208">
        <ele>202</ele>
        <time>2018-02-12T15:22:17Z</time>
      </trkpt>
      <trkpt lat="45.8576" lon="4.68212">
        <ele>202</ele>
        <time>2018-02-12T15:22:18Z</time>
      </trkpt>
      <trkpt lat="45.85764" lon="4.68216">
        <ele>202</ele>
        <time>2018-02-12T15:22:19Z</time>
      </trkpt>
      <trkpt lat="45.85767" lon="4.68221">
        <ele>202</ele>
        <time>2018-02-12T15:22:20Z</time>
      </trkpt>
      <trkpt lat="45.8577" lon="4.68224">
        <ele>202</ele>
        <time>2018-02-12T15:22:21Z</time>
      </trkpt>
      <trkpt lat="45.85774" lon="4.6823">
        <ele>202</ele>
        <time>2018-02-12T15:22:22Z</time>
      </trkpt>
      <trkpt lat="45.85777" lon="4.68235">
        <ele>202</ele>
        <time>2018-02-12T15:22:23Z</time>
      </trkpt>
      <trkpt lat="45.85781" lon="4.68239">
        <ele>202</ele>
        <time>2018-02-12T15:22:24Z</time>
      </trkpt>
      <trkpt lat="45.85785" lon="4.68245">
        <ele>202</ele>
        <time>2018-02-12T15:22:25Z</time>
      </trkpt>
      <trkpt lat="45.85788" lon="4.6825">
        <ele>202</ele>
        <time>2018-02-12T15:22:26Z</time>
      </trkpt>
      <trkpt lat="45.85795" lon="4.68258">
        <ele>201</ele>
        <time>2018-02-12T15:22:28Z</time>
      </trkpt>
      <trkpt lat="45.85798" lon="4.68263">
        <ele>201</ele>
        <time>2018-02-12T15:22:29Z</time>
      </trkpt>
      <trkpt lat="45.85802" lon="4.68268">
        <ele>201</ele>
        <time>2018-02-12T15:22:30Z</time>
      </trkpt>
      <trkpt lat="45.85805" lon="4.68272">
        <ele>201</ele>
        <time>2018-02-12T15:22:31Z</time>
      </trkpt>
      <trkpt lat="45.85809" lon="4.68277">
        <ele>201</ele>
        <time>2018-02-12T15:22:32Z</time>
      </trkpt>
      <trkpt lat="45.85813" lon="4.68281">
        <ele>201</ele>
        <time>2018-02-12T15:22:33Z</time>
      </trkpt>
      <trkpt lat="45.85816" lon="4.68286">
        <ele>201</ele>
        <time>2018-02-12T15:22:34Z</time>
      </trkpt>
      <trkpt lat="45.85819" lon="4.68291">
        <ele>201</ele>
        <time>2018-02-12T15:22:35Z</time>
      </trkpt>
      <trkpt lat="45.85822" lon="4.68296">
        <ele>201</ele>
        <time>2018-02-12T15:22:36Z</time>
      </trkpt>
      <trkpt lat="45.85825" lon="4.68302">
        <ele>201</ele>
        <time>2018-02-12T15:22:37Z</time>
      </trkpt>
      <trkpt lat="45.85831" lon="4.68311">
        <ele>200</ele>
        <time>2018-02-12T15:22:39Z</time>
      </trkpt>
      <trkpt lat="45.85834" lon="4.68315">
        <ele>202</ele>
        <time>2018-02-12T15:22:40Z</time>
      </trkpt>
      <trkpt lat="45.85836" lon="4.68321">
        <ele>202</ele>
        <time>2018-02-12T15:22:41Z</time>
      </trkpt>
      <trkpt lat="45.85839" lon="4.68326">
        <ele>201</ele>
        <time>2018-02-12T15:22:42Z</time>
      </trkpt>
      <trkpt lat="45.85841" lon="4.68332">
        <ele>201</ele>
        <time>2018-02-12T15:22:43Z</time>
      </trkpt>
      <trkpt lat="45.85843" lon="4.68337">
        <ele>200</ele>
        <time>2018-02-12T15:22:44Z</time>
      </trkpt>
      <trkpt lat="45.85846" lon="4.68343">
        <ele>201</ele>
        <time>2018-02-12T15:22:45Z</time>
      </trkpt>
      <trkpt lat="45.85849" lon="4.68349">
        <ele>201</ele>
        <time>2018-02-12T15:22:46Z</time>
      </trkpt>
      <trkpt lat="45.85851" lon="4.68355">
        <ele>201</ele>
        <time>2018-02-12T15:22:47Z</time>
      </trkpt>
      <trkpt lat="45.85853" lon="4.68363">
        <ele>201</ele>
        <time>2018-02-12T15:22:48Z</time>
      </trkpt>
      <trkpt lat="45.85857" lon="4.68367">
        <ele>201</ele>
        <time>2018-02-12T15:22:49Z</time>
      </trkpt>
      <trkpt lat="45.8586" lon="4.68379">
        <ele>201</ele>
        <time>2018-02-12T15:22:50Z</time>
      </trkpt>
      <trkpt lat="45.85862" lon="4.68387">
        <ele>201</ele>
        <time>2018-02-12T15:22:51Z</time>
      </trkpt>
      <trkpt lat="45.85864" lon="4.68394">
        <ele>201</ele>
        <time>2018-02-12T15:22:52Z</time>
      </trkpt>
      <trkpt lat="45.85866" lon="4.684">
        <ele>201</ele>
        <time>2018-02-12T15:22:53Z</time>
      </trkpt>
      <trkpt lat="45.85868" lon="4.68407">
        <ele>201</ele>
        <time>2018-02-12T15:22:54Z</time>
      </trkpt>
      <trkpt lat="45.85869" lon="4.68418">
        <ele>200</ele>
        <time>2018-02-12T15:22:56Z</time>
      </trkpt>
      <trkpt lat="45.85871" lon="4.68424">
        <ele>200</ele>
        <time>2018-02-12T15:22:57Z</time>
      </trkpt>
      <trkpt lat="45.85873" lon="4.68435">
        <ele>200</ele>
        <time>2018-02-12T15:22:59Z</time>
      </trkpt>
      <trkpt lat="45.85874" lon="4.68439">
        <ele>200</ele>
        <time>2018-02-12T15:23:00Z</time>
      </trkpt>
      <trkpt lat="45.85875" lon="4.68451">
        <ele>201</ele>
        <time>2018-02-12T15:23:02Z</time>
      </trkpt>
      <trkpt lat="45.85876" lon="4.68457">
        <ele>201</ele>
        <time>2018-02-12T15:23:03Z</time>
      </trkpt>
      <trkpt lat="45.85877" lon="4.68464">
        <ele>201</ele>
        <time>2018-02-12T15:23:04Z</time>
      </trkpt>
      <trkpt lat="45.85877" lon="4.68471">
        <ele>201</ele>
        <time>2018-02-12T15:23:05Z</time>
      </trkpt>
      <trkpt lat="45.85878" lon="4.68478">
        <ele>201</ele>
        <time>2018-02-12T15:23:06Z</time>
      </trkpt>
      <trkpt lat="45.85879" lon="4.68485">
        <ele>201</ele>
        <time>2018-02-12T15:23:07Z</time>
      </trkpt>
      <trkpt lat="45.8588" lon="4.68492">
        <ele>201</ele>
        <time>2018-02-12T15:23:08Z</time>
      </trkpt>
      <trkpt lat="45.85881" lon="4.68498">
        <ele>201</ele>
        <time>2018-02-12T15:23:09Z</time>
      </trkpt>
      <trkpt lat="45.85883" lon="4.6851">
        <ele>200</ele>
        <time>2018-02-12T15:23:11Z</time>
      </trkpt>
      <trkpt lat="45.85884" lon="4.68516">
        <ele>200</ele>
        <time>2018-02-12T15:23:12Z</time>
      </trkpt>
      <trkpt lat="45.85885" lon="4.68522">
        <ele>200</ele>
        <time>2018-02-12T15:23:13Z</time>
      </trkpt>
      <trkpt lat="45.85886" lon="4.6853">
        <ele>200</ele>
        <time>2018-02-12T15:23:14Z</time>
      </trkpt>
      <trkpt lat="45.85887" lon="4.68537">
        <ele>200</ele>
        <time>2018-02-12T15:23:15Z</time>
      </trkpt>
      <trkpt lat="45.85888" lon="4.68544">
        <ele>200</ele>
        <time>2018-02-12T15:23:16Z</time>
      </trkpt>
      <trkpt lat="45.85888" lon="4.68551">
        <ele>200</ele>
        <time>2018-02-12T15:23:17Z</time>
      </trkpt>
      <trkpt lat="45.85889" lon="4.68559">
        <ele>200</ele>
        <time>2018-02-12T15:23:18Z</time>
      </trkpt>
      <trkpt lat="45.8589" lon="4.68566">
        <ele>200</ele>
        <time>2018-02-12T15:23:19Z</time>
      </trkpt>
      <trkpt lat="45.8589" lon="4.68572">
        <ele>199</ele>
        <time>2018-02-12T15:23:20Z</time>
      </trkpt>
      <trkpt lat="45.85891" lon="4.68578">
        <ele>199</ele>
        <time>2018-02-12T15:23:21Z</time>
      </trkpt>
      <trkpt lat="45.85891" lon="4.68585">
        <ele>199</ele>
        <time>2018-02-12T15:23:22Z</time>
      </trkpt>
      <trkpt lat="45.85893" lon="4.68592">
        <ele>199</ele>
        <time>2018-02-12T15:23:23Z</time>
      </trkpt>
      <trkpt lat="45.85894" lon="4.68598">
        <ele>199</ele>
        <time>2018-02-12T15:23:24Z</time>
      </trkpt>
      <trkpt lat="45.85895" lon="4.68607">
        <ele>199</ele>
        <time>2018-02-12T15:23:25Z</time>
      </trkpt>
      <trkpt lat="45.85896" lon="4.68613">
        <ele>199</ele>
        <time>2018-02-12T15:23:26Z</time>
      </trkpt>
      <trkpt lat="45.85896" lon="4.6862">
        <ele>199</ele>
        <time>2018-02-12T15:23:27Z</time>
      </trkpt>
      <trkpt lat="45.85896" lon="4.68627">
        <ele>198</ele>
        <time>2018-02-12T15:23:28Z</time>
      </trkpt>
      <trkpt lat="45.85897" lon="4.68633">
        <ele>198</ele>
        <time>2018-02-12T15:23:29Z</time>
      </trkpt>
      <trkpt lat="45.85896" lon="4.68641">
        <ele>198</ele>
        <time>2018-02-12T15:23:30Z</time>
      </trkpt>
      <trkpt lat="45.85895" lon="4.68646">
        <ele>198</ele>
        <time>2018-02-12T15:23:31Z</time>
      </trkpt>
      <trkpt lat="45.85895" lon="4.68655">
        <ele>198</ele>
        <time>2018-02-12T15:23:32Z</time>
      </trkpt>
      <trkpt lat="45.85896" lon="4.68665">
        <ele>198</ele>
        <time>2018-02-12T15:23:33Z</time>
      </trkpt>
      <trkpt lat="45.85895" lon="4.68673">
        <ele>198</ele>
        <time>2018-02-12T15:23:34Z</time>
      </trkpt>
      <trkpt lat="45.85894" lon="4.68682">
        <ele>198</ele>
        <time>2018-02-12T15:23:35Z</time>
      </trkpt>
      <trkpt lat="45.85894" lon="4.6869">
        <ele>198</ele>
        <time>2018-02-12T15:23:36Z</time>
      </trkpt>
      <trkpt lat="45.85895" lon="4.68697">
        <ele>198</ele>
        <time>2018-02-12T15:23:37Z</time>
      </trkpt>
      <trkpt lat="45.85895" lon="4.68705">
        <ele>198</ele>
        <time>2018-02-12T15:23:38Z</time>
      </trkpt>
      <trkpt lat="45.85893" lon="4.68711">
        <ele>198</ele>
        <time>2018-02-12T15:23:39Z</time>
      </trkpt>
      <trkpt lat="45.85891" lon="4.68719">
        <ele>198</ele>
        <time>2018-02-12T15:23:40Z</time>
      </trkpt>
      <trkpt lat="45.85888" lon="4.68725">
        <ele>198</ele>
        <time>2018-02-12T15:23:41Z</time>
      </trkpt>
      <trkpt lat="45.85886" lon="4.68733">
        <ele>198</ele>
        <time>2018-02-12T15:23:42Z</time>
      </trkpt>
      <trkpt lat="45.85884" lon="4.68739">
        <ele>198</ele>
        <time>2018-02-12T15:23:43Z</time>
      </trkpt>
      <trkpt lat="45.85884" lon="4.68747">
        <ele>198</ele>
        <time>2018-02-12T15:23:44Z</time>
      </trkpt>
      <trkpt lat="45.85883" lon="4.68754">
        <ele>198</ele>
        <time>2018-02-12T15:23:45Z</time>
      </trkpt>
      <trkpt lat="45.85882" lon="4.68762">
        <ele>198</ele>
        <time>2018-02-12T15:23:46Z</time>
      </trkpt>
      <trkpt lat="45.85881" lon="4.68769">
        <ele>198</ele>
        <time>2018-02-12T15:23:47Z</time>
      </trkpt>
      <trkpt lat="45.85879" lon="4.68777">
        <ele>198</ele>
        <time>2018-02-12T15:23:48Z</time>
      </trkpt>
      <trkpt lat="45.85878" lon="4.68785">
        <ele>198</ele>
        <time>2018-02-12T15:23:49Z</time>
      </trkpt>
      <trkpt lat="45.85877" lon="4.68792">
        <ele>198</ele>
        <time>2018-02-12T15:23:50Z</time>
      </trkpt>
      <trkpt lat="45.85875" lon="4.68798">
        <ele>198</ele>
        <time>2018-02-12T15:23:51Z</time>
      </trkpt>
      <trkpt lat="45.85874" lon="4.68806">
        <ele>198</ele>
        <time>2018-02-12T15:23:52Z</time>
      </trkpt>
      <trkpt lat="45.85874" lon="4.68815">
        <ele>198</ele>
        <time>2018-02-12T15:23:53Z</time>
      </trkpt>
      <trkpt lat="45.85873" lon="4.68823">
        <ele>198</ele>
        <time>2018-02-12T15:23:54Z</time>
      </trkpt>
      <trkpt lat="45.85872" lon="4.68831">
        <ele>198</ele>
        <time>2018-02-12T15:23:55Z</time>
      </trkpt>
      <trkpt lat="45.85872" lon="4.68838">
        <ele>198</ele>
        <time>2018-02-12T15:23:56Z</time>
      </trkpt>
      <trkpt lat="45.85871" lon="4.68846">
        <ele>198</ele>
        <time>2018-02-12T15:23:57Z</time>
      </trkpt>
      <trkpt lat="45.8587" lon="4.68854">
        <ele>198</ele>
        <time>2018-02-12T15:23:58Z</time>
      </trkpt>
      <trkpt lat="45.8587" lon="4.68862">
        <ele>198</ele>
        <time>2018-02-12T15:23:59Z</time>
      </trkpt>
      <trkpt lat="45.8587" lon="4.68869">
        <ele>198</ele>
        <time>2018-02-12T15:24:00Z</time>
      </trkpt>
      <trkpt lat="45.85869" lon="4.68877">
        <ele>197</ele>
        <time>2018-02-12T15:24:01Z</time>
      </trkpt>
      <trkpt lat="45.85868" lon="4.68885">
        <ele>197</ele>
        <time>2018-02-12T15:24:02Z</time>
      </trkpt>
      <trkpt lat="45.85868" lon="4.68891">
        <ele>197</ele>
        <time>2018-02-12T15:24:03Z</time>
      </trkpt>
      <trkpt lat="45.85868" lon="4.68898">
        <ele>197</ele>
        <time>2018-02-12T15:24:04Z</time>
      </trkpt>
      <trkpt lat="45.85867" lon="4.68906">
        <ele>197</ele>
        <time>2018-02-12T15:24:05Z</time>
      </trkpt>
      <trkpt lat="45.85866" lon="4.68913">
        <ele>197</ele>
        <time>2018-02-12T15:24:06Z</time>
      </trkpt>
      <trkpt lat="45.85866" lon="4.68921">
        <ele>197</ele>
        <time>2018-02-12T15:24:07Z</time>
      </trkpt>
      <trkpt lat="45.85866" lon="4.68928">
        <ele>197</ele>
        <time>2018-02-12T15:24:08Z</time>
      </trkpt>
      <trkpt lat="45.85866" lon="4.68935">
        <ele>197</ele>
        <time>2018-02-12T15:24:09Z</time>
      </trkpt>
      <trkpt lat="45.85866" lon="4.68942">
        <ele>197</ele>
        <time>2018-02-12T15:24:10Z</time>
      </trkpt>
      <trkpt lat="45.85866" lon="4.6895">
        <ele>197</ele>
        <time>2018-02-12T15:24:11Z</time>
      </trkpt>
      <trkpt lat="45.85866" lon="4.68958">
        <ele>197</ele>
        <time>2018-02-12T15:24:12Z</time>
      </trkpt>
      <trkpt lat="45.85868" lon="4.68966">
        <ele>197</ele>
        <time>2018-02-12T15:24:13Z</time>
      </trkpt>
      <trkpt lat="45.85868" lon="4.68974">
        <ele>197</ele>
        <time>2018-02-12T15:24:14Z</time>
      </trkpt>
      <trkpt lat="45.85868" lon="4.68981">
        <ele>197</ele>
        <time>2018-02-12T15:24:15Z</time>
      </trkpt>
      <trkpt lat="45.8587" lon="4.68989">
        <ele>197</ele>
        <time>2018-02-12T15:24:16Z</time>
      </trkpt>
      <trkpt lat="45.85871" lon="4.68997">
        <ele>197</ele>
        <time>2018-02-12T15:24:17Z</time>
      </trkpt>
      <trkpt lat="45.85873" lon="4.69004">
        <ele>197</ele>
        <time>2018-02-12T15:24:18Z</time>
      </trkpt>
      <trkpt lat="45.85876" lon="4.69012">
        <ele>198</ele>
        <time>2018-02-12T15:24:19Z</time>
      </trkpt>
      <trkpt lat="45.85878" lon="4.69019">
        <ele>198</ele>
        <time>2018-02-12T15:24:20Z</time>
      </trkpt>
      <trkpt lat="45.85881" lon="4.6903">
        <ele>198</ele>
        <time>2018-02-12T15:24:22Z</time>
      </trkpt>
      <trkpt lat="45.85883" lon="4.69035">
        <ele>198</ele>
        <time>2018-02-12T15:24:23Z</time>
      </trkpt>
      <trkpt lat="45.85889" lon="4.69045">
        <ele>198</ele>
        <time>2018-02-12T15:24:25Z</time>
      </trkpt>
      <trkpt lat="45.85891" lon="4.69052">
        <ele>198</ele>
        <time>2018-02-12T15:24:26Z</time>
      </trkpt>
      <trkpt lat="45.85894" lon="4.69057">
        <ele>198</ele>
        <time>2018-02-12T15:24:27Z</time>
      </trkpt>
      <trkpt lat="45.85897" lon="4.69061">
        <ele>198</ele>
        <time>2018-02-12T15:24:28Z</time>
      </trkpt>
      <trkpt lat="45.85901" lon="4.69065">
        <ele>198</ele>
        <time>2018-02-12T15:24:29Z</time>
      </trkpt>
      <trkpt lat="45.85905" lon="4.69069">
        <ele>198</ele>
        <time>2018-02-12T15:24:30Z</time>
      </trkpt>
      <trkpt lat="45.85913" lon="4.69075">
        <ele>198</ele>
        <time>2018-02-12T15:24:32Z</time>
      </trkpt>
      <trkpt lat="45.85917" lon="4.69078">
        <ele>198</ele>
        <time>2018-02-12T15:24:33Z</time>
      </trkpt>
      <trkpt lat="45.85921" lon="4.69081">
        <ele>198</ele>
        <time>2018-02-12T15:24:34Z</time>
      </trkpt>
      <trkpt lat="45.85927" lon="4.69084">
        <ele>198</ele>
        <time>2018-02-12T15:24:35Z</time>
      </trkpt>
      <trkpt lat="45.85932" lon="4.69086">
        <ele>198</ele>
        <time>2018-02-12T15:24:36Z</time>
      </trkpt>
      <trkpt lat="45.85936" lon="4.69089">
        <ele>197</ele>
        <time>2018-02-12T15:24:37Z</time>
      </trkpt>
      <trkpt lat="45.85941" lon="4.69091">
        <ele>197</ele>
        <time>2018-02-12T15:24:38Z</time>
      </trkpt>
      <trkpt lat="45.85946" lon="4.69092">
        <ele>197</ele>
        <time>2018-02-12T15:24:39Z</time>
      </trkpt>
      <trkpt lat="45.85951" lon="4.69093">
        <ele>197</ele>
        <time>2018-02-12T15:24:40Z</time>
      </trkpt>
      <trkpt lat="45.85957" lon="4.69095">
        <ele>197</ele>
        <time>2018-02-12T15:24:41Z</time>
      </trkpt>
      <trkpt lat="45.85962" lon="4.69095">
        <ele>197</ele>
        <time>2018-02-12T15:24:42Z</time>
      </trkpt>
      <trkpt lat="45.85967" lon="4.69096">
        <ele>197</ele>
        <time>2018-02-12T15:24:43Z</time>
      </trkpt>
      <trkpt lat="45.85972" lon="4.69096">
        <ele>197</ele>
        <time>2018-02-12T15:24:44Z</time>
      </trkpt>
      <trkpt lat="45.85977" lon="4.69096">
        <ele>197</ele>
        <time>2018-02-12T15:24:45Z</time>
      </trkpt>
      <trkpt lat="45.85982" lon="4.69096">
        <ele>197</ele>
        <time>2018-02-12T15:24:46Z</time>
      </trkpt>
      <trkpt lat="45.85987" lon="4.69096">
        <ele>197</ele>
        <time>2018-02-12T15:24:47Z</time>
      </trkpt>
      <trkpt lat="45.85992" lon="4.69096">
        <ele>196</ele>
        <time>2018-02-12T15:24:48Z</time>
      </trkpt>
      <trkpt lat="45.85997" lon="4.69095">
        <ele>196</ele>
        <time>2018-02-12T15:24:49Z</time>
      </trkpt>
      <trkpt lat="45.86003" lon="4.69095">
        <ele>196</ele>
        <time>2018-02-12T15:24:50Z</time>
      </trkpt>
      <trkpt lat="45.86008" lon="4.69094">
        <ele>196</ele>
        <time>2018-02-12T15:24:51Z</time>
      </trkpt>
      <trkpt lat="45.86013" lon="4.69094">
        <ele>197</ele>
        <time>2018-02-12T15:24:52Z</time>
      </trkpt>
      <trkpt lat="45.86018" lon="4.69094">
        <ele>197</ele>
        <time>2018-02-12T15:24:53Z</time>
      </trkpt>
      <trkpt lat="45.86027" lon="4.69092">
        <ele>197</ele>
        <time>2018-02-12T15:24:55Z</time>
      </trkpt>
      <trkpt lat="45.86031" lon="4.69093">
        <ele>197</ele>
        <time>2018-02-12T15:24:56Z</time>
      </trkpt>
      <trkpt lat="45.86036" lon="4.69092">
        <ele>197</ele>
        <time>2018-02-12T15:24:57Z</time>
      </trkpt>
      <trkpt lat="45.86042" lon="4.69092">
        <ele>197</ele>
        <time>2018-02-12T15:24:58Z</time>
      </trkpt>
      <trkpt lat="45.86046" lon="4.6909">
        <ele>197</ele>
        <time>2018-02-12T15:24:59Z</time>
      </trkpt>
      <trkpt lat="45.86052" lon="4.6909">
        <ele>197</ele>
        <time>2018-02-12T15:25:00Z</time>
      </trkpt>
      <trkpt lat="45.86056" lon="4.69089">
        <ele>197</ele>
        <time>2018-02-12T15:25:01Z</time>
      </trkpt>
      <trkpt lat="45.86061" lon="4.69088">
        <ele>198</ele>
        <time>2018-02-12T15:25:02Z</time>
      </trkpt>
      <trkpt lat="45.86066" lon="4.69087">
        <ele>198</ele>
        <time>2018-02-12T15:25:03Z</time>
      </trkpt>
      <trkpt lat="45.86071" lon="4.69087">
        <ele>198</ele>
        <time>2018-02-12T15:25:04Z</time>
      </trkpt>
      <trkpt lat="45.86075" lon="4.69086">
        <ele>198</ele>
        <time>2018-02-12T15:25:05Z</time>
      </trkpt>
      <trkpt lat="45.8608" lon="4.69086">
        <ele>198</ele>
        <time>2018-02-12T15:25:06Z</time>
      </trkpt>
      <trkpt lat="45.86085" lon="4.69086">
        <ele>198</ele>
        <time>2018-02-12T15:25:07Z</time>
      </trkpt>
      <trkpt lat="45.8609" lon="4.69085">
        <ele>199</ele>
        <time>2018-02-12T15:25:08Z</time>
      </trkpt>
      <trkpt lat="45.86099" lon="4.69085">
        <ele>200</ele>
        <time>2018-02-12T15:25:10Z</time>
      </trkpt>
      <trkpt lat="45.86103" lon="4.69084">
        <ele>200</ele>
        <time>2018-02-12T15:25:11Z</time>
      </trkpt>
      <trkpt lat="45.86112" lon="4.69084">
        <ele>201</ele>
        <time>2018-02-12T15:25:13Z</time>
      </trkpt>
      <trkpt lat="45.86116" lon="4.69083">
        <ele>202</ele>
        <time>2018-02-12T15:25:14Z</time>
      </trkpt>
      <trkpt lat="45.86123" lon="4.69082">
        <ele>202</ele>
        <time>2018-02-12T15:25:16Z</time>
      </trkpt>
      <trkpt lat="45.86127" lon="4.69081">
        <ele>203</ele>
        <time>2018-02-12T15:25:17Z</time>
      </trkpt>
      <trkpt lat="45.86134" lon="4.69081">
        <ele>203</ele>
        <time>2018-02-12T15:25:19Z</time>
      </trkpt>
      <trkpt lat="45.86137" lon="4.6908">
        <ele>203</ele>
        <time>2018-02-12T15:25:20Z</time>
      </trkpt>
      <trkpt lat="45.86143" lon="4.69079">
        <ele>204</ele>
        <time>2018-02-12T15:25:22Z</time>
      </trkpt>
      <trkpt lat="45.86146" lon="4.69078">
        <ele>204</ele>
        <time>2018-02-12T15:25:23Z</time>
      </trkpt>
      <trkpt lat="45.86152" lon="4.69077">
        <ele>204</ele>
        <time>2018-02-12T15:25:25Z</time>
      </trkpt>
      <trkpt lat="45.86155" lon="4.69077">
        <ele>204</ele>
        <time>2018-02-12T15:25:26Z</time>
      </trkpt>
      <trkpt lat="45.86164" lon="4.69076">
        <ele>205</ele>
        <time>2018-02-12T15:25:29Z</time>
      </trkpt>
      <trkpt lat="45.86166" lon="4.69076">
        <ele>205</ele>
        <time>2018-02-12T15:25:30Z</time>
      </trkpt>
      <trkpt lat="45.86174" lon="4.69076">
        <ele>207</ele>
        <time>2018-02-12T15:25:33Z</time>
      </trkpt>
      <trkpt lat="45.86176" lon="4.69077">
        <ele>207</ele>
        <time>2018-02-12T15:25:34Z</time>
      </trkpt>
      <trkpt lat="45.86184" lon="4.69075">
        <ele>208</ele>
        <time>2018-02-12T15:25:37Z</time>
      </trkpt>
      <trkpt lat="45.86187" lon="4.69075">
        <ele>208</ele>
        <time>2018-02-12T15:25:38Z</time>
      </trkpt>
      <trkpt lat="45.86194" lon="4.69072">
        <ele>209</ele>
        <time>2018-02-12T15:25:41Z</time>
      </trkpt>
      <trkpt lat="45.86197" lon="4.69072">
        <ele>209</ele>
        <time>2018-02-12T15:25:42Z</time>
      </trkpt>
      <trkpt lat="45.86205" lon="4.69071">
        <ele>210</ele>
        <time>2018-02-12T15:25:46Z</time>
      </trkpt>
      <trkpt lat="45.86207" lon="4.69071">
        <ele>210</ele>
        <time>2018-02-12T15:25:47Z</time>
      </trkpt>
      <trkpt lat="45.86215" lon="4.69072">
        <ele>210</ele>
        <time>2018-02-12T15:25:51Z</time>
      </trkpt>
      <trkpt lat="45.86217" lon="4.69073">
        <ele>210</ele>
        <time>2018-02-12T15:25:52Z</time>
      </trkpt>
      <trkpt lat="45.86225" lon="4.69076">
        <ele>210</ele>
        <time>2018-02-12T15:25:56Z</time>
      </trkpt>
      <trkpt lat="45.86228" lon="4.69077">
        <ele>210</ele>
        <time>2018-02-12T15:25:57Z</time>
      </trkpt>
      <trkpt lat="45.86236" lon="4.69077">
        <ele>211</ele>
        <time>2018-02-12T15:26:01Z</time>
      </trkpt>
      <trkpt lat="45.86238" lon="4.69077">
        <ele>211</ele>
        <time>2018-02-12T15:26:02Z</time>
      </trkpt>
      <trkpt lat="45.86246" lon="4.69078">
        <ele>211</ele>
        <time>2018-02-12T15:26:06Z</time>
      </trkpt>
      <trkpt lat="45.86248" lon="4.69079">
        <ele>211</ele>
        <time>2018-02-12T15:26:07Z</time>
      </trkpt>
      <trkpt lat="45.86256" lon="4.69079">
        <ele>212</ele>
        <time>2018-02-12T15:26:10Z</time>
      </trkpt>
      <trkpt lat="45.86258" lon="4.6908">
        <ele>212</ele>
        <time>2018-02-12T15:26:11Z</time>
      </trkpt>
      <trkpt lat="45.86266" lon="4.69083">
        <ele>213</ele>
        <time>2018-02-12T15:26:15Z</time>
      </trkpt>
      <trkpt lat="45.86269" lon="4.69084">
        <ele>212</ele>
        <time>2018-02-12T15:26:16Z</time>
      </trkpt>
      <trkpt lat="45.86276" lon="4.69086">
        <ele>213</ele>
        <time>2018-02-12T15:26:19Z</time>
      </trkpt>
      <trkpt lat="45.86278" lon="4.69087">
        <ele>213</ele>
        <time>2018-02-12T15:26:20Z</time>
      </trkpt>
      <trkpt lat="45.86285" lon="4.69091">
        <ele>213</ele>
        <time>2018-02-12T15:26:23Z</time>
      </trkpt>
      <trkpt lat="45.86287" lon="4.69093">
        <ele>213</ele>
        <time>2018-02-12T15:26:24Z</time>
      </trkpt>
      <trkpt lat="45.86294" lon="4.69099">
        <ele>214</ele>
        <time>2018-02-12T15:26:27Z</time>
      </trkpt>
      <trkpt lat="45.86297" lon="4.69101">
        <ele>214</ele>
        <time>2018-02-12T15:26:28Z</time>
      </trkpt>
      <trkpt lat="45.86303" lon="4.69106">
        <ele>214</ele>
        <time>2018-02-12T15:26:31Z</time>
      </trkpt>
      <trkpt lat="45.86305" lon="4.69108">
        <ele>214</ele>
        <time>2018-02-12T15:26:32Z</time>
      </trkpt>
      <trkpt lat="45.86311" lon="4.69114">
        <ele>214</ele>
        <time>2018-02-12T15:26:35Z</time>
      </trkpt>
      <trkpt lat="45.86313" lon="4.69116">
        <ele>214</ele>
        <time>2018-02-12T15:26:36Z</time>
      </trkpt>
      <trkpt lat="45.8632" lon="4.69123">
        <ele>214</ele>
        <time>2018-02-12T15:26:40Z</time>
      </trkpt>
      <trkpt lat="45.86322" lon="4.69125">
        <ele>214</ele>
        <time>2018-02-12T15:26:41Z</time>
      </trkpt>
      <trkpt lat="45.86328" lon="4.69134">
        <ele>215</ele>
        <time>2018-02-12T15:26:45Z</time>
      </trkpt>
      <trkpt lat="45.8633" lon="4.69136">
        <ele>215</ele>
        <time>2018-02-12T15:26:46Z</time>
      </trkpt>
      <trkpt lat="45.86335" lon="4.69145">
        <ele>217</ele>
        <time>2018-02-12T15:26:50Z</time>
      </trkpt>
      <trkpt lat="45.86337" lon="4.69147">
        <ele>217</ele>
        <time>2018-02-12T15:26:51Z</time>
      </trkpt>
      <trkpt lat="45.86342" lon="4.69157">
        <ele>217</ele>
        <time>2018-02-12T15:26:55Z</time>
      </trkpt>
      <trkpt lat="45.86344" lon="4.6916">
        <ele>217</ele>
        <time>2018-02-12T15:26:56Z</time>
      </trkpt>
      <trkpt lat="45.8635" lon="4.69167">
        <ele>218</ele>
        <time>2018-02-12T15:27:00Z</time>
      </trkpt>
      <trkpt lat="45.86351" lon="4.6917">
        <ele>218</ele>
        <time>2018-02-12T15:27:01Z</time>
      </trkpt>
      <trkpt lat="45.86356" lon="4.69178">
        <ele>218</ele>
        <time>2018-02-12T15:27:05Z</time>
      </trkpt>
      <trkpt lat="45.86357" lon="4.69181">
        <ele>218</ele>
        <time>2018-02-12T15:27:06Z</time>
      </trkpt>
      <trkpt lat="45.86362" lon="4.69192">
        <ele>218</ele>
        <time>2018-02-12T15:27:10Z</time>
      </trkpt>
      <trkpt lat="45.86363" lon="4.69195">
        <ele>218</ele>
        <time>2018-02-12T15:27:11Z</time>
      </trkpt>
      <trkpt lat="45.86367" lon="4.69204">
        <ele>219</ele>
        <time>2018-02-12T15:27:14Z</time>
      </trkpt>
      <trkpt lat="45.86369" lon="4.69207">
        <ele>219</ele>
        <time>2018-02-12T15:27:15Z</time>
      </trkpt>
      <trkpt lat="45.86373" lon="4.69216">
        <ele>219</ele>
        <time>2018-02-12T15:27:18Z</time>
      </trkpt>
      <trkpt lat="45.86374" lon="4.6922">
        <ele>219</ele>
        <time>2018-02-12T15:27:19Z</time>
      </trkpt>
      <trkpt lat="45.86377" lon="4.69227">
        <ele>219</ele>
        <time>2018-02-12T15:27:21Z</time>
      </trkpt>
      <trkpt lat="45.86379" lon="4.69231">
        <ele>219</ele>
        <time>2018-02-12T15:27:22Z</time>
      </trkpt>
      <trkpt lat="45.86383" lon="4.69238">
        <ele>219</ele>
        <time>2018-02-12T15:27:24Z</time>
      </trkpt>
      <trkpt lat="45.86385" lon="4.69242">
        <ele>219</ele>
        <time>2018-02-12T15:27:25Z</time>
      </trkpt>
      <trkpt lat="45.86388" lon="4.6925">
        <ele>219</ele>
        <time>2018-02-12T15:27:27Z</time>
      </trkpt>
      <trkpt lat="45.8639" lon="4.69255">
        <ele>219</ele>
        <time>2018-02-12T15:27:28Z</time>
      </trkpt>
      <trkpt lat="45.86393" lon="4.69264">
        <ele>219</ele>
        <time>2018-02-12T15:27:30Z</time>
      </trkpt>
      <trkpt lat="45.86395" lon="4.69269">
        <ele>219</ele>
        <time>2018-02-12T15:27:31Z</time>
      </trkpt>
      <trkpt lat="45.86399" lon="4.69278">
        <ele>219</ele>
        <time>2018-02-12T15:27:33Z</time>
      </trkpt>
      <trkpt lat="45.86402" lon="4.69282">
        <ele>219</ele>
        <time>2018-02-12T15:27:34Z</time>
      </trkpt>
      <trkpt lat="45.86406" lon="4.69293">
        <ele>219</ele>
        <time>2018-02-12T15:27:36Z</time>
      </trkpt>
      <trkpt lat="45.86409" lon="4.69298">
        <ele>219</ele>
        <time>2018-02-12T15:27:37Z</time>
      </trkpt>
      <trkpt lat="45.86413" lon="4.69308">
        <ele>219</ele>
        <time>2018-02-12T15:27:39Z</time>
      </trkpt>
      <trkpt lat="45.86415" lon="4.69313">
        <ele>219</ele>
        <time>2018-02-12T15:27:40Z</time>
      </trkpt>
      <trkpt lat="45.86419" lon="4.69323">
        <ele>219</ele>
        <time>2018-02-12T15:27:42Z</time>
      </trkpt>
      <trkpt lat="45.8642" lon="4.69328">
        <ele>219</ele>
        <time>2018-02-12T15:27:43Z</time>
      </trkpt>
      <trkpt lat="45.86422" lon="4.69333">
        <ele>219</ele>
        <time>2018-02-12T15:27:44Z</time>
      </trkpt>
      <trkpt lat="45.86424" lon="4.6934">
        <ele>219</ele>
        <time>2018-02-12T15:27:45Z</time>
      </trkpt>
      <trkpt lat="45.86427" lon="4.69346">
        <ele>219</ele>
        <time>2018-02-12T15:27:46Z</time>
      </trkpt>
      <trkpt lat="45.86429" lon="4.69351">
        <ele>219</ele>
        <time>2018-02-12T15:27:47Z</time>
      </trkpt>
      <trkpt lat="45.86434" lon="4.69361">
        <ele>219</ele>
        <time>2018-02-12T15:27:49Z</time>
      </trkpt>
      <trkpt lat="45.86436" lon="4.69368">
        <ele>219</ele>
        <time>2018-02-12T15:27:50Z</time>
      </trkpt>
      <trkpt lat="45.86439" lon="4.69372">
        <ele>219</ele>
        <time>2018-02-12T15:27:51Z</time>
      </trkpt>
      <trkpt lat="45.86442" lon="4.69378">
        <ele>219</ele>
        <time>2018-02-12T15:27:52Z</time>
      </trkpt>
      <trkpt lat="45.86444" lon="4.69386">
        <ele>219</ele>
        <time>2018-02-12T15:27:53Z</time>
      </trkpt>
      <trkpt lat="45.86448" lon="4.69391">
        <ele>219</ele>
        <time>2018-02-12T15:27:54Z</time>
      </trkpt>
      <trkpt lat="45.86451" lon="4.69396">
        <ele>219</ele>
        <time>2018-02-12T15:27:55Z</time>
      </trkpt>
      <trkpt lat="45.86454" lon="4.694">
        <ele>219</ele>
        <time>2018-02-12T15:27:56Z</time>
      </trkpt>
      <trkpt lat="45.86457" lon="4.69406">
        <ele>219</ele>
        <time>2018-02-12T15:27:57Z</time>
      </trkpt>
      <trkpt lat="45.86461" lon="4.69411">
        <ele>219</ele>
        <time>2018-02-12T15:27:58Z</time>
      </trkpt>
      <trkpt lat="45.86467" lon="4.69419">
        <ele>218</ele>
        <time>2018-02-12T15:28:00Z</time>
      </trkpt>
      <trkpt lat="45.8647" lon="4.69425">
        <ele>218</ele>
        <time>2018-02-12T15:28:01Z</time>
      </trkpt>
      <trkpt lat="45.86474" lon="4.69429">
        <ele>218</ele>
        <time>2018-02-12T15:28:02Z</time>
      </trkpt>
      <trkpt lat="45.86477" lon="4.69434">
        <ele>218</ele>
        <time>2018-02-12T15:28:03Z</time>
      </trkpt>
      <trkpt lat="45.86481" lon="4.6944">
        <ele>218</ele>
        <time>2018-02-12T15:28:04Z</time>
      </trkpt>
      <trkpt lat="45.86484" lon="4.69445">
        <ele>218</ele>
        <time>2018-02-12T15:28:05Z</time>
      </trkpt>
      <trkpt lat="45.86487" lon="4.69451">
        <ele>218</ele>
        <time>2018-02-12T15:28:06Z</time>
      </trkpt>
      <trkpt lat="45.86489" lon="4.69456">
        <ele>218</ele>
        <time>2018-02-12T15:28:07Z</time>
      </trkpt>
      <trkpt lat="45.86495" lon="4.69465">
        <ele>218</ele>
        <time>2018-02-12T15:28:09Z</time>
      </trkpt>
      <trkpt lat="45.86498" lon="4.69469">
        <ele>218</ele>
        <time>2018-02-12T15:28:10Z</time>
      </trkpt>
      <trkpt lat="45.86504" lon="4.69478">
        <ele>219</ele>
        <time>2018-02-12T15:28:12Z</time>
      </trkpt>
      <trkpt lat="45.86507" lon="4.69483">
        <ele>219</ele>
        <time>2018-02-12T15:28:13Z</time>
      </trkpt>
      <trkpt lat="45.86513" lon="4.69492">
        <ele>219</ele>
        <time>2018-02-12T15:28:15Z</time>
      </trkpt>
      <trkpt lat="45.86516" lon="4.69497">
        <ele>219</ele>
        <time>2018-02-12T15:28:16Z</time>
      </trkpt>
      <trkpt lat="45.86519" lon="4.69502">
        <ele>218</ele>
        <time>2018-02-12T15:28:17Z</time>
      </trkpt>
      <trkpt lat="45.86522" lon="4.69507">
        <ele>219</ele>
        <time>2018-02-12T15:28:18Z</time>
      </trkpt>
      <trkpt lat="45.86525" lon="4.69511">
        <ele>219</ele>
        <time>2018-02-12T15:28:19Z</time>
      </trkpt>
      <trkpt lat="45.86529" lon="4.69516">
        <ele>219</ele>
        <time>2018-02-12T15:28:20Z</time>
      </trkpt>
      <trkpt lat="45.86532" lon="4.69521">
        <ele>219</ele>
        <time>2018-02-12T15:28:21Z</time>
      </trkpt>
      <trkpt lat="45.86536" lon="4.69527">
        <ele>219</ele>
        <time>2018-02-12T15:28:22Z</time>
      </trkpt>
      <trkpt lat="45.86539" lon="4.69531">
        <ele>219</ele>
        <time>2018-02-12T15:28:23Z</time>
      </trkpt>
      <trkpt lat="45.86542" lon="4.69536">
        <ele>219</ele>
        <time>2018-02-12T15:28:24Z</time>
      </trkpt>
      <trkpt lat="45.86546" lon="4.69541">
        <ele>219</ele>
        <time>2018-02-12T15:28:25Z</time>
      </trkpt>
      <trkpt lat="45.86549" lon="4.69547">
        <ele>219</ele>
        <time>2018-02-12T15:28:26Z</time>
      </trkpt>
      <trkpt lat="45.86552" lon="4.69552">
        <ele>219</ele>
        <time>2018-02-12T15:28:27Z</time>
      </trkpt>
      <trkpt lat="45.86557" lon="4.69558">
        <ele>219</ele>
        <time>2018-02-12T15:28:28Z</time>
      </trkpt>
      <trkpt lat="45.86561" lon="4.69563">
        <ele>219</ele>
        <time>2018-02-12T15:28:29Z</time>
      </trkpt>
      <trkpt lat="45.86565" lon="4.69569">
        <ele>219</ele>
        <time>2018-02-12T15:28:30Z</time>
      </trkpt>
      <trkpt lat="45.86569" lon="4.69575">
        <ele>219</ele>
        <time>2018-02-12T15:28:31Z</time>
      </trkpt>
      <trkpt lat="45.86573" lon="4.69581">
        <ele>219</ele>
        <time>2018-02-12T15:28:32Z</time>
      </trkpt>
      <trkpt lat="45.86576" lon="4.69587">
        <ele>219</ele>
        <time>2018-02-12T15:28:33Z</time>
      </trkpt>
      <trkpt lat="45.8658" lon="4.69592">
        <ele>219</ele>
        <time>2018-02-12T15:28:34Z</time>
      </trkpt>
      <trkpt lat="45.86583" lon="4.69597">
        <ele>219</ele>
        <time>2018-02-12T15:28:35Z</time>
      </trkpt>
      <trkpt lat="45.86586" lon="4.69602">
        <ele>219</ele>
        <time>2018-02-12T15:28:36Z</time>
      </trkpt>
      <trkpt lat="45.86589" lon="4.69607">
        <ele>219</ele>
        <time>2018-02-12T15:28:37Z</time>
      </trkpt>
      <trkpt lat="45.86593" lon="4.69612">
        <ele>219</ele>
        <time>2018-02-12T15:28:38Z</time>
      </trkpt>
      <trkpt lat="45.86597" lon="4.69618">
        <ele>219</ele>
        <time>2018-02-12T15:28:39Z</time>
      </trkpt>
      <trkpt lat="45.866" lon="4.69623">
        <ele>219</ele>
        <time>2018-02-12T15:28:40Z</time>
      </trkpt>
      <trkpt lat="45.86604" lon="4.69628">
        <ele>219</ele>
        <time>2018-02-12T15:28:41Z</time>
      </trkpt>
      <trkpt lat="45.86608" lon="4.69634">
        <ele>219</ele>
        <time>2018-02-12T15:28:42Z</time>
      </trkpt>
      <trkpt lat="45.86612" lon="4.6964">
        <ele>219</ele>
        <time>2018-02-12T15:28:43Z</time>
      </trkpt>
      <trkpt lat="45.86615" lon="4.69646">
        <ele>219</ele>
        <time>2018-02-12T15:28:44Z</time>
      </trkpt>
      <trkpt lat="45.86618" lon="4.6965">
        <ele>219</ele>
        <time>2018-02-12T15:28:45Z</time>
      </trkpt>
      <trkpt lat="45.86622" lon="4.69656">
        <ele>219</ele>
        <time>2018-02-12T15:28:46Z</time>
      </trkpt>
      <trkpt lat="45.86627" lon="4.6966">
        <ele>218</ele>
        <time>2018-02-12T15:28:47Z</time>
      </trkpt>
      <trkpt lat="45.8663" lon="4.69665">
        <ele>218</ele>
        <time>2018-02-12T15:28:48Z</time>
      </trkpt>
      <trkpt lat="45.86634" lon="4.69669">
        <ele>218</ele>
        <time>2018-02-12T15:28:49Z</time>
      </trkpt>
      <trkpt lat="45.86638" lon="4.69674">
        <ele>218</ele>
        <time>2018-02-12T15:28:50Z</time>
      </trkpt>
      <trkpt lat="45.86642" lon="4.69679">
        <ele>218</ele>
        <time>2018-02-12T15:28:51Z</time>
      </trkpt>
      <trkpt lat="45.86646" lon="4.69684">
        <ele>218</ele>
        <time>2018-02-12T15:28:52Z</time>
      </trkpt>
      <trkpt lat="45.8665" lon="4.69688">
        <ele>218</ele>
        <time>2018-02-12T15:28:53Z</time>
      </trkpt>
      <trkpt lat="45.86654" lon="4.69693">
        <ele>218</ele>
        <time>2018-02-12T15:28:54Z</time>
      </trkpt>
      <trkpt lat="45.86658" lon="4.69697">
        <ele>218</ele>
        <time>2018-02-12T15:28:55Z</time>
      </trkpt>
      <trkpt lat="45.86663" lon="4.697">
        <ele>218</ele>
        <time>2018-02-12T15:28:56Z</time>
      </trkpt>
      <trkpt lat="45.86666" lon="4.69705">
        <ele>218</ele>
        <time>2018-02-12T15:28:57Z</time>
      </trkpt>
      <trkpt lat="45.8667" lon="4.6971">
        <ele>217</ele>
        <time>2018-02-12T15:28:58Z</time>
      </trkpt>
      <trkpt lat="45.86675" lon="4.69714">
        <ele>217</ele>
        <time>2018-02-12T15:28:59Z</time>
      </trkpt>
      <trkpt lat="45.86679" lon="4.69718">
        <ele>217</ele>
        <time>2018-02-12T15:29:00Z</time>
      </trkpt>
      <trkpt lat="45.86684" lon="4.69722">
        <ele>217</ele>
        <time>2018-02-12T15:29:01Z</time>
      </trkpt>
      <trkpt lat="45.86689" lon="4.69725">
        <ele>217</ele>
        <time>2018-02-12T15:29:02Z</time>
      </trkpt>
      <trkpt lat="45.86693" lon="4.69729">
        <ele>217</ele>
        <time>2018-02-12T15:29:03Z</time>
      </trkpt>
      <trkpt lat="45.86696" lon="4.69733">
        <ele>217</ele>
        <time>2018-02-12T15:29:04Z</time>
      </trkpt>
      <trkpt lat="45.86701" lon="4.69738">
        <ele>217</ele>
        <time>2018-02-12T15:29:05Z</time>
      </trkpt>
      <trkpt lat="45.86705" lon="4.69742">
        <ele>217</ele>
        <time>2018-02-12T15:29:06Z</time>
      </trkpt>
      <trkpt lat="45.86709" lon="4.69745">
        <ele>217</ele>
        <time>2018-02-12T15:29:07Z</time>
      </trkpt>
      <trkpt lat="45.86714" lon="4.6975">
        <ele>217</ele>
        <time>2018-02-12T15:29:08Z</time>
      </trkpt>
      <trkpt lat="45.86718" lon="4.69754">
        <ele>217</ele>
        <time>2018-02-12T15:29:09Z</time>
      </trkpt>
      <trkpt lat="45.86722" lon="4.69759">
        <ele>217</ele>
        <time>2018-02-12T15:29:10Z</time>
      </trkpt>
      <trkpt lat="45.86727" lon="4.69765">
        <ele>217</ele>
        <time>2018-02-12T15:29:11Z</time>
      </trkpt>
      <trkpt lat="45.86732" lon="4.69768">
        <ele>217</ele>
        <time>2018-02-12T15:29:12Z</time>
      </trkpt>
      <trkpt lat="45.86736" lon="4.69771">
        <ele>217</ele>
        <time>2018-02-12T15:29:13Z</time>
      </trkpt>
      <trkpt lat="45.86741" lon="4.69775">
        <ele>217</ele>
        <time>2018-02-12T15:29:14Z</time>
      </trkpt>
      <trkpt lat="45.86745" lon="4.69778">
        <ele>217</ele>
        <time>2018-02-12T15:29:15Z</time>
      </trkpt>
      <trkpt lat="45.86749" lon="4.69783">
        <ele>217</ele>
        <time>2018-02-12T15:29:16Z</time>
      </trkpt>
      <trkpt lat="45.86753" lon="4.69787">
        <ele>217</ele>
        <time>2018-02-12T15:29:17Z</time>
      </trkpt>
      <trkpt lat="45.86757" lon="4.69791">
        <ele>217</ele>
        <time>2018-02-12T15:29:18Z</time>
      </trkpt>
      <trkpt lat="45.86763" lon="4.69796">
        <ele>217</ele>
        <time>2018-02-12T15:29:19Z</time>
      </trkpt>
      <trkpt lat="45.86767" lon="4.698">
        <ele>217</ele>
        <time>2018-02-12T15:29:20Z</time>
      </trkpt>
      <trkpt lat="45.86772" lon="4.69804">
        <ele>217</ele>
        <time>2018-02-12T15:29:21Z</time>
      </trkpt>
      <trkpt lat="45.86776" lon="4.69808">
        <ele>217</ele>
        <time>2018-02-12T15:29:22Z</time>
      </trkpt>
      <trkpt lat="45.8678" lon="4.69811">
        <ele>217</ele>
        <time>2018-02-12T15:29:23Z</time>
      </trkpt>
      <trkpt lat="45.86785" lon="4.69815">
        <ele>217</ele>
        <time>2018-02-12T15:29:24Z</time>
      </trkpt>
      <trkpt lat="45.86789" lon="4.6982">
        <ele>217</ele>
        <time>2018-02-12T15:29:25Z</time>
      </trkpt>
      <trkpt lat="45.86793" lon="4.69824">
        <ele>217</ele>
        <time>2018-02-12T15:29:26Z</time>
      </trkpt>
      <trkpt lat="45.86798" lon="4.69827">
        <ele>217</ele>
        <time>2018-02-12T15:29:27Z</time>
      </trkpt>
      <trkpt lat="45.86802" lon="4.6983">
        <ele>217</ele>
        <time>2018-02-12T15:29:28Z</time>
      </trkpt>
      <trkpt lat="45.86808" lon="4.69834">
        <ele>217</ele>
        <time>2018-02-12T15:29:29Z</time>
      </trkpt>
      <trkpt lat="45.86812" lon="4.69838">
        <ele>217</ele>
        <time>2018-02-12T15:29:30Z</time>
      </trkpt>
      <trkpt lat="45.86816" lon="4.69844">
        <ele>217</ele>
        <time>2018-02-12T15:29:31Z</time>
      </trkpt>
      <trkpt lat="45.86821" lon="4.69848">
        <ele>217</ele>
        <time>2018-02-12T15:29:32Z</time>
      </trkpt>
      <trkpt lat="45.86826" lon="4.69852">
        <ele>217</ele>
        <time>2018-02-12T15:29:33Z</time>
      </trkpt>
      <trkpt lat="45.8683" lon="4.69857">
        <ele>217</ele>
        <time>2018-02-12T15:29:34Z</time>
      </trkpt>
      <trkpt lat="45.86835" lon="4.69862">
        <ele>217</ele>
        <time>2018-02-12T15:29:35Z</time>
      </trkpt>
      <trkpt lat="45.86839" lon="4.69866">
        <ele>217</ele>
        <time>2018-02-12T15:29:36Z</time>
      </trkpt>
      <trkpt lat="45.86843" lon="4.6987">
        <ele>217</ele>
        <time>2018-02-12T15:29:37Z</time>
      </trkpt>
      <trkpt lat="45.86848" lon="4.69874">
        <ele>217</ele>
        <time>2018-02-12T15:29:38Z</time>
      </trkpt>
      <trkpt lat="45.86853" lon="4.69878">
        <ele>217</ele>
        <time>2018-02-12T15:29:39Z</time>
      </trkpt>
      <trkpt lat="45.86857" lon="4.69883">
        <ele>217</ele>
        <time>2018-02-12T15:29:40Z</time>
      </trkpt>
      <trkpt lat="45.86861" lon="4.69887">
        <ele>217</ele>
        <time>2018-02-12T15:29:41Z</time>
      </trkpt>
      <trkpt lat="45.86865" lon="4.69891">
        <ele>217</ele>
        <time>2018-02-12T15:29:42Z</time>
      </trkpt>
      <trkpt lat="45.8687" lon="4.69898">
        <ele>217</ele>
        <time>2018-02-12T15:29:43Z</time>
      </trkpt>
      <trkpt lat="45.86874" lon="4.69902">
        <ele>217</ele>
        <time>2018-02-12T15:29:44Z</time>
      </trkpt>
      <trkpt lat="45.86879" lon="4.69905">
        <ele>217</ele>
        <time>2018-02-12T15:29:45Z</time>
      </trkpt>
      <trkpt lat="45.86883" lon="4.69907">
        <ele>217</ele>
        <time>2018-02-12T15:29:46Z</time>
      </trkpt>
      <trkpt lat="45.86888" lon="4.6991">
        <ele>217</ele>
        <time>2018-02-12T15:29:47Z</time>
      </trkpt>
      <trkpt lat="45.86894" lon="4.69912">
        <ele>217</ele>
        <time>2018-02-12T15:29:48Z</time>
      </trkpt>
      <trkpt lat="45.86901" lon="4.69918">
        <ele>217</ele>
        <time>2018-02-12T15:29:50Z</time>
      </trkpt>
      <trkpt lat="45.86905" lon="4.69923">
        <ele>217</ele>
        <time>2018-02-12T15:29:51Z</time>
      </trkpt>
      <trkpt lat="45.86911" lon="4.69927">
        <ele>217</ele>
        <time>2018-02-12T15:29:52Z</time>
      </trkpt>
      <trkpt lat="45.86914" lon="4.69931">
        <ele>217</ele>
        <time>2018-02-12T15:29:53Z</time>
      </trkpt>
      <trkpt lat="45.86921" lon="4.69938">
        <ele>217</ele>
        <time>2018-02-12T15:29:55Z</time>
      </trkpt>
      <trkpt lat="45.86925" lon="4.69941">
        <ele>217</ele>
        <time>2018-02-12T15:29:56Z</time>
      </trkpt>
      <trkpt lat="45.86929" lon="4.69944">
        <ele>217</ele>
        <time>2018-02-12T15:29:57Z</time>
      </trkpt>
      <trkpt lat="45.86933" lon="4.69947">
        <ele>217</ele>
        <time>2018-02-12T15:29:58Z</time>
      </trkpt>
      <trkpt lat="45.86937" lon="4.69951">
        <ele>217</ele>
        <time>2018-02-12T15:29:59Z</time>
      </trkpt>
      <trkpt lat="45.86941" lon="4.69954">
        <ele>217</ele>
        <time>2018-02-12T15:30:00Z</time>
      </trkpt>
      <trkpt lat="45.86945" lon="4.69957">
        <ele>217</ele>
        <time>2018-02-12T15:30:01Z</time>
      </trkpt>
      <trkpt lat="45.86949" lon="4.69961">
        <ele>217</ele>
        <time>2018-02-12T15:30:02Z</time>
      </trkpt>
      <trkpt lat="45.86954" lon="4.69963">
        <ele>217</ele>
        <time>2018-02-12T15:30:03Z</time>
      </trkpt>
      <trkpt lat="45.86958" lon="4.69967">
        <ele>217</ele>
        <time>2018-02-12T15:30:04Z</time>
      </trkpt>
      <trkpt lat="45.86962" lon="4.69971">
        <ele>217</ele>
        <time>2018-02-12T15:30:05Z</time>
      </trkpt>
      <trkpt lat="45.86966" lon="4.69975">
        <ele>217</ele>
        <time>2018-02-12T15:30:06Z</time>
      </trkpt>
      <trkpt lat="45.8697" lon="4.6998">
        <ele>217</ele>
        <time>2018-02-12T15:30:07Z</time>
      </trkpt>
      <trkpt lat="45.86972" lon="4.69985">
        <ele>217</ele>
        <time>2018-02-12T15:30:08Z</time>
      </trkpt>
      <trkpt lat="45.86975" lon="4.69997">
        <ele>217</ele>
        <time>2018-02-12T15:30:10Z</time>
      </trkpt>
      <trkpt lat="45.86978" lon="4.70001">
        <ele>217</ele>
        <time>2018-02-12T15:30:11Z</time>
      </trkpt>
      <trkpt lat="45.86986" lon="4.70006">
        <ele>217</ele>
        <time>2018-02-12T15:30:13Z</time>
      </trkpt>
      <trkpt lat="45.8699" lon="4.70007">
        <ele>217</ele>
        <time>2018-02-12T15:30:14Z</time>
      </trkpt>
      <trkpt lat="45.86998" lon="4.70006">
        <ele>217</ele>
        <time>2018-02-12T15:30:16Z</time>
      </trkpt>
      <trkpt lat="45.87003" lon="4.70005">
        <ele>217</ele>
        <time>2018-02-12T15:30:17Z</time>
      </trkpt>
      <trkpt lat="45.87007" lon="4.70005">
        <ele>217</ele>
        <time>2018-02-12T15:30:18Z</time>
      </trkpt>
      <trkpt lat="45.87012" lon="4.70007">
        <ele>217</ele>
        <time>2018-02-12T15:30:19Z</time>
      </trkpt>
      <trkpt lat="45.8702" lon="4.70011">
        <ele>217</ele>
        <time>2018-02-12T15:30:21Z</time>
      </trkpt>
      <trkpt lat="45.87023" lon="4.70014">
        <ele>217</ele>
        <time>2018-02-12T15:30:22Z</time>
      </trkpt>
      <trkpt lat="45.87029" lon="4.70022">
        <ele>217</ele>
        <time>2018-02-12T15:30:24Z</time>
      </trkpt>
      <trkpt lat="45.87031" lon="4.70025">
        <ele>217</ele>
        <time>2018-02-12T15:30:25Z</time>
      </trkpt>
      <trkpt lat="45.87036" lon="4.70034">
        <ele>217</ele>
        <time>2018-02-12T15:30:27Z</time>
      </trkpt>
      <trkpt lat="45.87039" lon="4.70039">
        <ele>217</ele>
        <time>2018-02-12T15:30:28Z</time>
      </trkpt>
      <trkpt lat="45.87042" lon="4.70045">
        <ele>217</ele>
        <time>2018-02-12T15:30:29Z</time>
      </trkpt>
      <trkpt lat="45.87044" lon="4.7005">
        <ele>217</ele>
        <time>2018-02-12T15:30:30Z</time>
      </trkpt>
      <trkpt lat="45.87047" lon="4.70056">
        <ele>217</ele>
        <time>2018-02-12T15:30:31Z</time>
      </trkpt>
      <trkpt lat="45.87049" lon="4.70061">
        <ele>217</ele>
        <time>2018-02-12T15:30:32Z</time>
      </trkpt>
      <trkpt lat="45.87053" lon="4.70067">
        <ele>217</ele>
        <time>2018-02-12T15:30:33Z</time>
      </trkpt>
      <trkpt lat="45.87056" lon="4.70071">
        <ele>217</ele>
        <time>2018-02-12T15:30:34Z</time>
      </trkpt>
      <trkpt lat="45.87061" lon="4.70081">
        <ele>217</ele>
        <time>2018-02-12T15:30:36Z</time>
      </trkpt>
      <trkpt lat="45.87064" lon="4.70087">
        <ele>217</ele>
        <time>2018-02-12T15:30:37Z</time>
      </trkpt>
      <trkpt lat="45.87067" lon="4.70093">
        <ele>217</ele>
        <time>2018-02-12T15:30:38Z</time>
      </trkpt>
      <trkpt lat="45.8707" lon="4.70096">
        <ele>217</ele>
        <time>2018-02-12T15:30:39Z</time>
      </trkpt>
      <trkpt lat="45.87073" lon="4.70102">
        <ele>217</ele>
        <time>2018-02-12T15:30:40Z</time>
      </trkpt>
      <trkpt lat="45.87075" lon="4.70107">
        <ele>217</ele>
        <time>2018-02-12T15:30:41Z</time>
      </trkpt>
      <trkpt lat="45.87079" lon="4.70111">
        <ele>217</ele>
        <time>2018-02-12T15:30:42Z</time>
      </trkpt>
      <trkpt lat="45.87082" lon="4.70117">
        <ele>217</ele>
        <time>2018-02-12T15:30:43Z</time>
      </trkpt>
      <trkpt lat="45.87088" lon="4.70126">
        <ele>217</ele>
        <time>2018-02-12T15:30:45Z</time>
      </trkpt>
      <trkpt lat="45.8709" lon="4.70131">
        <ele>217</ele>
        <time>2018-02-12T15:30:46Z</time>
      </trkpt>
      <trkpt lat="45.87094" lon="4.70137">
        <ele>217</ele>
        <time>2018-02-12T15:30:47Z</time>
      </trkpt>
      <trkpt lat="45.87097" lon="4.70142">
        <ele>217</ele>
        <time>2018-02-12T15:30:48Z</time>
      </trkpt>
      <trkpt lat="45.871" lon="4.70148">
        <ele>217</ele>
        <time>2018-02-12T15:30:49Z</time>
      </trkpt>
      <trkpt lat="45.87104" lon="4.70154">
        <ele>217</ele>
        <time>2018-02-12T15:30:50Z</time>
      </trkpt>
      <trkpt lat="45.87107" lon="4.70161">
        <ele>217</ele>
        <time>2018-02-12T15:30:51Z</time>
      </trkpt>
      <trkpt lat="45.87111" lon="4.70166">
        <ele>217</ele>
        <time>2018-02-12T15:30:52Z</time>
      </trkpt>
      <trkpt lat="45.87114" lon="4.70171">
        <ele>216</ele>
        <time>2018-02-12T15:30:53Z</time>
      </trkpt>
      <trkpt lat="45.87116" lon="4.70177">
        <ele>216</ele>
        <time>2018-02-12T15:30:54Z</time>
      </trkpt>
      <trkpt lat="45.8712" lon="4.70183">
        <ele>216</ele>
        <time>2018-02-12T15:30:55Z</time>
      </trkpt>
      <trkpt lat="45.87124" lon="4.70189">
        <ele>216</ele>
        <time>2018-02-12T15:30:56Z</time>
      </trkpt>
      <trkpt lat="45.87128" lon="4.70193">
        <ele>216</ele>
        <time>2018-02-12T15:30:57Z</time>
      </trkpt>
      <trkpt lat="45.87132" lon="4.70199">
        <ele>216</ele>
        <time>2018-02-12T15:30:58Z</time>
      </trkpt>
      <trkpt lat="45.87136" lon="4.70204">
        <ele>216</ele>
        <time>2018-02-12T15:30:59Z</time>
      </trkpt>
      <trkpt lat="45.8714" lon="4.7021">
        <ele>216</ele>
        <time>2018-02-12T15:31:00Z</time>
      </trkpt>
      <trkpt lat="45.87144" lon="4.70215">
        <ele>216</ele>
        <time>2018-02-12T15:31:01Z</time>
      </trkpt>
      <trkpt lat="45.87147" lon="4.7022">
        <ele>216</ele>
        <time>2018-02-12T15:31:02Z</time>
      </trkpt>
      <trkpt lat="45.87151" lon="4.70226">
        <ele>216</ele>
        <time>2018-02-12T15:31:03Z</time>
      </trkpt>
      <trkpt lat="45.87155" lon="4.70232">
        <ele>216</ele>
        <time>2018-02-12T15:31:04Z</time>
      </trkpt>
      <trkpt lat="45.87159" lon="4.70237">
        <ele>216</ele>
        <time>2018-02-12T15:31:05Z</time>
      </trkpt>
      <trkpt lat="45.87163" lon="4.70243">
        <ele>216</ele>
        <time>2018-02-12T15:31:06Z</time>
      </trkpt>
      <trkpt lat="45.87168" lon="4.70247">
        <ele>216</ele>
        <time>2018-02-12T15:31:07Z</time>
      </trkpt>
      <trkpt lat="45.87172" lon="4.70254">
        <ele>216</ele>
        <time>2018-02-12T15:31:08Z</time>
      </trkpt>
      <trkpt lat="45.87176" lon="4.70259">
        <ele>216</ele>
        <time>2018-02-12T15:31:09Z</time>
      </trkpt>
      <trkpt lat="45.8718" lon="4.70264">
        <ele>216</ele>
        <time>2018-02-12T15:31:10Z</time>
      </trkpt>
      <trkpt lat="45.87185" lon="4.7027">
        <ele>217</ele>
        <time>2018-02-12T15:31:11Z</time>
      </trkpt>
      <trkpt lat="45.87189" lon="4.70275">
        <ele>217</ele>
        <time>2018-02-12T15:31:12Z</time>
      </trkpt>
      <trkpt lat="45.87194" lon="4.70281">
        <ele>217</ele>
        <time>2018-02-12T15:31:13Z</time>
      </trkpt>
      <trkpt lat="45.87198" lon="4.70286">
        <ele>217</ele>
        <time>2018-02-12T15:31:14Z</time>
      </trkpt>
      <trkpt lat="45.87201" lon="4.70293">
        <ele>217</ele>
        <time>2018-02-12T15:31:15Z</time>
      </trkpt>
      <trkpt lat="45.87207" lon="4.70299">
        <ele>217</ele>
        <time>2018-02-12T15:31:16Z</time>
      </trkpt>
      <trkpt lat="45.87212" lon="4.70306">
        <ele>217</ele>
        <time>2018-02-12T15:31:17Z</time>
      </trkpt>
      <trkpt lat="45.87217" lon="4.70313">
        <ele>217</ele>
        <time>2018-02-12T15:31:18Z</time>
      </trkpt>
      <trkpt lat="45.87221" lon="4.70319">
        <ele>217</ele>
        <time>2018-02-12T15:31:19Z</time>
      </trkpt>
      <trkpt lat="45.87226" lon="4.70325">
        <ele>217</ele>
        <time>2018-02-12T15:31:20Z</time>
      </trkpt>
      <trkpt lat="45.8723" lon="4.7033">
        <ele>217</ele>
        <time>2018-02-12T15:31:21Z</time>
      </trkpt>
      <trkpt lat="45.87234" lon="4.70335">
        <ele>217</ele>
        <time>2018-02-12T15:31:22Z</time>
      </trkpt>
      <trkpt lat="45.87239" lon="4.7034">
        <ele>217</ele>
        <time>2018-02-12T15:31:23Z</time>
      </trkpt>
      <trkpt lat="45.87242" lon="4.70345">
        <ele>217</ele>
        <time>2018-02-12T15:31:24Z</time>
      </trkpt>
      <trkpt lat="45.87246" lon="4.70349">
        <ele>217</ele>
        <time>2018-02-12T15:31:25Z</time>
      </trkpt>
      <trkpt lat="45.8725" lon="4.70353">
        <ele>217</ele>
        <time>2018-02-12T15:31:26Z</time>
      </trkpt>
      <trkpt lat="45.87254" lon="4.70358">
        <ele>216</ele>
        <time>2018-02-12T15:31:27Z</time>
      </trkpt>
      <trkpt lat="45.87257" lon="4.70363">
        <ele>216</ele>
        <time>2018-02-12T15:31:28Z</time>
      </trkpt>
      <trkpt lat="45.8726" lon="4.70368">
        <ele>216</ele>
        <time>2018-02-12T15:31:29Z</time>
      </trkpt>
      <trkpt lat="45.87264" lon="4.70372">
        <ele>216</ele>
        <time>2018-02-12T15:31:30Z</time>
      </trkpt>
      <trkpt lat="45.87267" lon="4.70377">
        <ele>216</ele>
        <time>2018-02-12T15:31:31Z</time>
      </trkpt>
      <trkpt lat="45.87271" lon="4.70383">
        <ele>216</ele>
        <time>2018-02-12T15:31:32Z</time>
      </trkpt>
      <trkpt lat="45.87274" lon="4.7039">
        <ele>216</ele>
        <time>2018-02-12T15:31:33Z</time>
      </trkpt>
      <trkpt lat="45.87277" lon="4.70396">
        <ele>216</ele>
        <time>2018-02-12T15:31:34Z</time>
      </trkpt>
      <trkpt lat="45.8728" lon="4.70403">
        <ele>216</ele>
        <time>2018-02-12T15:31:35Z</time>
      </trkpt>
      <trkpt lat="45.87285" lon="4.70409">
        <ele>216</ele>
        <time>2018-02-12T15:31:36Z</time>
      </trkpt>
      <trkpt lat="45.8729" lon="4.70414">
        <ele>215</ele>
        <time>2018-02-12T15:31:37Z</time>
      </trkpt>
      <trkpt lat="45.87295" lon="4.70418">
        <ele>214</ele>
        <time>2018-02-12T15:31:38Z</time>
      </trkpt>
      <trkpt lat="45.873" lon="4.70422">
        <ele>214</ele>
        <time>2018-02-12T15:31:39Z</time>
      </trkpt>
      <trkpt lat="45.87304" lon="4.70428">
        <ele>214</ele>
        <time>2018-02-12T15:31:40Z</time>
      </trkpt>
      <trkpt lat="45.87307" lon="4.70434">
        <ele>214</ele>
        <time>2018-02-12T15:31:41Z</time>
      </trkpt>
      <trkpt lat="45.8731" lon="4.70442">
        <ele>214</ele>
        <time>2018-02-12T15:31:42Z</time>
      </trkpt>
      <trkpt lat="45.87314" lon="4.70449">
        <ele>214</ele>
        <time>2018-02-12T15:31:43Z</time>
      </trkpt>
      <trkpt lat="45.87318" lon="4.70457">
        <ele>214</ele>
        <time>2018-02-12T15:31:44Z</time>
      </trkpt>
      <trkpt lat="45.87322" lon="4.70463">
        <ele>214</ele>
        <time>2018-02-12T15:31:45Z</time>
      </trkpt>
      <trkpt lat="45.87326" lon="4.70469">
        <ele>214</ele>
        <time>2018-02-12T15:31:46Z</time>
      </trkpt>
      <trkpt lat="45.8733" lon="4.70476">
        <ele>214</ele>
        <time>2018-02-12T15:31:47Z</time>
      </trkpt>
      <trkpt lat="45.87335" lon="4.70482">
        <ele>213</ele>
        <time>2018-02-12T15:31:48Z</time>
      </trkpt>
      <trkpt lat="45.87339" lon="4.70488">
        <ele>213</ele>
        <time>2018-02-12T15:31:49Z</time>
      </trkpt>
      <trkpt lat="45.87342" lon="4.70495">
        <ele>213</ele>
        <time>2018-02-12T15:31:50Z</time>
      </trkpt>
      <trkpt lat="45.87346" lon="4.70503">
        <ele>213</ele>
        <time>2018-02-12T15:31:51Z</time>
      </trkpt>
      <trkpt lat="45.8735" lon="4.7051">
        <ele>212</ele>
        <time>2018-02-12T15:31:52Z</time>
      </trkpt>
      <trkpt lat="45.87354" lon="4.70517">
        <ele>212</ele>
        <time>2018-02-12T15:31:53Z</time>
      </trkpt>
      <trkpt lat="45.87359" lon="4.70523">
        <ele>212</ele>
        <time>2018-02-12T15:31:54Z</time>
      </trkpt>
      <trkpt lat="45.87364" lon="4.70531">
        <ele>212</ele>
        <time>2018-02-12T15:31:55Z</time>
      </trkpt>
      <trkpt lat="45.87369" lon="4.70537">
        <ele>212</ele>
        <time>2018-02-12T15:31:56Z</time>
      </trkpt>
      <trkpt lat="45.87374" lon="4.70544">
        <ele>212</ele>
        <time>2018-02-12T15:31:57Z</time>
      </trkpt>
      <trkpt lat="45.87379" lon="4.70551">
        <ele>212</ele>
        <time>2018-02-12T15:31:58Z</time>
      </trkpt>
      <trkpt lat="45.87384" lon="4.70558">
        <ele>211</ele>
        <time>2018-02-12T15:31:59Z</time>
      </trkpt>
      <trkpt lat="45.8739" lon="4.70566">
        <ele>211</ele>
        <time>2018-02-12T15:32:00Z</time>
      </trkpt>
      <trkpt lat="45.87394" lon="4.70572">
        <ele>211</ele>
        <time>2018-02-12T15:32:01Z</time>
      </trkpt>
      <trkpt lat="45.87399" lon="4.7058">
        <ele>211</ele>
        <time>2018-02-12T15:32:02Z</time>
      </trkpt>
      <trkpt lat="45.87403" lon="4.70585">
        <ele>210</ele>
        <time>2018-02-12T15:32:03Z</time>
      </trkpt>
      <trkpt lat="45.87407" lon="4.70593">
        <ele>210</ele>
        <time>2018-02-12T15:32:04Z</time>
      </trkpt>
      <trkpt lat="45.87411" lon="4.70599">
        <ele>210</ele>
        <time>2018-02-12T15:32:05Z</time>
      </trkpt>
      <trkpt lat="45.87414" lon="4.70606">
        <ele>210</ele>
        <time>2018-02-12T15:32:06Z</time>
      </trkpt>
      <trkpt lat="45.87417" lon="4.70613">
        <ele>210</ele>
        <time>2018-02-12T15:32:07Z</time>
      </trkpt>
      <trkpt lat="45.87418" lon="4.70621">
        <ele>210</ele>
        <time>2018-02-12T15:32:08Z</time>
      </trkpt>
      <trkpt lat="45.87419" lon="4.70629">
        <ele>210</ele>
        <time>2018-02-12T15:32:09Z</time>
      </trkpt>
      <trkpt lat="45.87421" lon="4.70638">
        <ele>209</ele>
        <time>2018-02-12T15:32:10Z</time>
      </trkpt>
      <trkpt lat="45.87422" lon="4.70646">
        <ele>209</ele>
        <time>2018-02-12T15:32:11Z</time>
      </trkpt>
      <trkpt lat="45.87423" lon="4.70653">
        <ele>209</ele>
        <time>2018-02-12T15:32:12Z</time>
      </trkpt>
      <trkpt lat="45.87424" lon="4.70661">
        <ele>208</ele>
        <time>2018-02-12T15:32:13Z</time>
      </trkpt>
      <trkpt lat="45.87425" lon="4.70668">
        <ele>208</ele>
        <time>2018-02-12T15:32:14Z</time>
      </trkpt>
      <trkpt lat="45.87427" lon="4.70673">
        <ele>208</ele>
        <time>2018-02-12T15:32:15Z</time>
      </trkpt>
      <trkpt lat="45.87428" lon="4.70682">
        <ele>209</ele>
        <time>2018-02-12T15:32:16Z</time>
      </trkpt>
      <trkpt lat="45.87429" lon="4.7069">
        <ele>209</ele>
        <time>2018-02-12T15:32:17Z</time>
      </trkpt>
      <trkpt lat="45.8743" lon="4.70696">
        <ele>209</ele>
        <time>2018-02-12T15:32:18Z</time>
      </trkpt>
      <trkpt lat="45.87432" lon="4.70702">
        <ele>209</ele>
        <time>2018-02-12T15:32:19Z</time>
      </trkpt>
      <trkpt lat="45.87432" lon="4.7071">
        <ele>209</ele>
        <time>2018-02-12T15:32:20Z</time>
      </trkpt>
      <trkpt lat="45.87433" lon="4.70716">
        <ele>209</ele>
        <time>2018-02-12T15:32:21Z</time>
      </trkpt>
      <trkpt lat="45.87435" lon="4.70723">
        <ele>209</ele>
        <time>2018-02-12T15:32:22Z</time>
      </trkpt>
      <trkpt lat="45.87435" lon="4.70729">
        <ele>209</ele>
        <time>2018-02-12T15:32:23Z</time>
      </trkpt>
      <trkpt lat="45.87437" lon="4.70738">
        <ele>209</ele>
        <time>2018-02-12T15:32:24Z</time>
      </trkpt>
      <trkpt lat="45.87438" lon="4.70745">
        <ele>209</ele>
        <time>2018-02-12T15:32:25Z</time>
      </trkpt>
      <trkpt lat="45.87438" lon="4.70751">
        <ele>210</ele>
        <time>2018-02-12T15:32:26Z</time>
      </trkpt>
      <trkpt lat="45.87438" lon="4.70757">
        <ele>210</ele>
        <time>2018-02-12T15:32:27Z</time>
      </trkpt>
      <trkpt lat="45.87439" lon="4.70764">
        <ele>210</ele>
        <time>2018-02-12T15:32:28Z</time>
      </trkpt>
      <trkpt lat="45.87442" lon="4.70775">
        <ele>210</ele>
        <time>2018-02-12T15:32:30Z</time>
      </trkpt>
      <trkpt lat="45.87443" lon="4.70781">
        <ele>211</ele>
        <time>2018-02-12T15:32:31Z</time>
      </trkpt>
      <trkpt lat="45.87445" lon="4.70787">
        <ele>211</ele>
        <time>2018-02-12T15:32:32Z</time>
      </trkpt>
      <trkpt lat="45.87446" lon="4.70794">
        <ele>211</ele>
        <time>2018-02-12T15:32:33Z</time>
      </trkpt>
      <trkpt lat="45.87448" lon="4.70805">
        <ele>211</ele>
        <time>2018-02-12T15:32:35Z</time>
      </trkpt>
      <trkpt lat="45.87449" lon="4.70811">
        <ele>211</ele>
        <time>2018-02-12T15:32:36Z</time>
      </trkpt>
      <trkpt lat="45.87451" lon="4.70822">
        <ele>211</ele>
        <time>2018-02-12T15:32:38Z</time>
      </trkpt>
      <trkpt lat="45.87453" lon="4.70828">
        <ele>211</ele>
        <time>2018-02-12T15:32:39Z</time>
      </trkpt>
      <trkpt lat="45.87455" lon="4.70838">
        <ele>213</ele>
        <time>2018-02-12T15:32:41Z</time>
      </trkpt>
      <trkpt lat="45.87456" lon="4.70843">
        <ele>213</ele>
        <time>2018-02-12T15:32:42Z</time>
      </trkpt>
      <trkpt lat="45.87458" lon="4.70854">
        <ele>213</ele>
        <time>2018-02-12T15:32:44Z</time>
      </trkpt>
      <trkpt lat="45.8746" lon="4.70859">
        <ele>213</ele>
        <time>2018-02-12T15:32:45Z</time>
      </trkpt>
      <trkpt lat="45.87462" lon="4.7087">
        <ele>213</ele>
        <time>2018-02-12T15:32:47Z</time>
      </trkpt>
      <trkpt lat="45.87464" lon="4.70877">
        <ele>213</ele>
        <time>2018-02-12T15:32:48Z</time>
      </trkpt>
      <trkpt lat="45.87466" lon="4.70884">
        <ele>214</ele>
        <time>2018-02-12T15:32:49Z</time>
      </trkpt>
      <trkpt lat="45.87467" lon="4.7089">
        <ele>214</ele>
        <time>2018-02-12T15:32:50Z</time>
      </trkpt>
      <trkpt lat="45.87471" lon="4.70901">
        <ele>214</ele>
        <time>2018-02-12T15:32:52Z</time>
      </trkpt>
      <trkpt lat="45.87473" lon="4.70908">
        <ele>214</ele>
        <time>2018-02-12T15:32:53Z</time>
      </trkpt>
      <trkpt lat="45.87477" lon="4.70919">
        <ele>215</ele>
        <time>2018-02-12T15:32:55Z</time>
      </trkpt>
      <trkpt lat="45.87477" lon="4.70925">
        <ele>215</ele>
        <time>2018-02-12T15:32:56Z</time>
      </trkpt>
      <trkpt lat="45.87479" lon="4.70931">
        <ele>215</ele>
        <time>2018-02-12T15:32:57Z</time>
      </trkpt>
      <trkpt lat="45.8748" lon="4.70939">
        <ele>215</ele>
        <time>2018-02-12T15:32:58Z</time>
      </trkpt>
      <trkpt lat="45.87483" lon="4.7095">
        <ele>215</ele>
        <time>2018-02-12T15:33:00Z</time>
      </trkpt>
      <trkpt lat="45.87485" lon="4.70955">
        <ele>215</ele>
        <time>2018-02-12T15:33:01Z</time>
      </trkpt>
      <trkpt lat="45.87487" lon="4.70967">
        <ele>215</ele>
        <time>2018-02-12T15:33:03Z</time>
      </trkpt>
      <trkpt lat="45.8749" lon="4.70971">
        <ele>215</ele>
        <time>2018-02-12T15:33:04Z</time>
      </trkpt>
      <trkpt lat="45.87492" lon="4.70977">
        <ele>215</ele>
        <time>2018-02-12T15:33:05Z</time>
      </trkpt>
      <trkpt lat="45.87495" lon="4.70981">
        <ele>215</ele>
        <time>2018-02-12T15:33:06Z</time>
      </trkpt>
      <trkpt lat="45.87501" lon="4.7099">
        <ele>214</ele>
        <time>2018-02-12T15:33:08Z</time>
      </trkpt>
      <trkpt lat="45.87504" lon="4.70995">
        <ele>214</ele>
        <time>2018-02-12T15:33:09Z</time>
      </trkpt>
      <trkpt lat="45.87509" lon="4.71006">
        <ele>214</ele>
        <time>2018-02-12T15:33:11Z</time>
      </trkpt>
      <trkpt lat="45.87512" lon="4.7101">
        <ele>215</ele>
        <time>2018-02-12T15:33:12Z</time>
      </trkpt>
      <trkpt lat="45.87518" lon="4.71019">
        <ele>215</ele>
        <time>2018-02-12T15:33:14Z</time>
      </trkpt>
      <trkpt lat="45.87519" lon="4.71023">
        <ele>215</ele>
        <time>2018-02-12T15:33:15Z</time>
      </trkpt>
      <trkpt lat="45.87524" lon="4.7103">
        <ele>215</ele>
        <time>2018-02-12T15:33:17Z</time>
      </trkpt>
      <trkpt lat="45.87526" lon="4.71034">
        <ele>215</ele>
        <time>2018-02-12T15:33:18Z</time>
      </trkpt>
      <trkpt lat="45.87531" lon="4.7104">
        <ele>215</ele>
        <time>2018-02-12T15:33:20Z</time>
      </trkpt>
      <trkpt lat="45.87532" lon="4.71044">
        <ele>215</ele>
        <time>2018-02-12T15:33:21Z</time>
      </trkpt>
      <trkpt lat="45.87536" lon="4.71051">
        <ele>215</ele>
        <time>2018-02-12T15:33:23Z</time>
      </trkpt>
      <trkpt lat="45.87538" lon="4.71055">
        <ele>215</ele>
        <time>2018-02-12T15:33:24Z</time>
      </trkpt>
      <trkpt lat="45.87543" lon="4.71062">
        <ele>216</ele>
        <time>2018-02-12T15:33:27Z</time>
      </trkpt>
      <trkpt lat="45.87545" lon="4.71064">
        <ele>216</ele>
        <time>2018-02-12T15:33:28Z</time>
      </trkpt>
      <trkpt lat="45.87553" lon="4.71071">
        <ele>216</ele>
        <time>2018-02-12T15:33:32Z</time>
      </trkpt>
      <trkpt lat="45.87555" lon="4.71072">
        <ele>216</ele>
        <time>2018-02-12T15:33:33Z</time>
      </trkpt>
      <trkpt lat="45.87563" lon="4.71074">
        <ele>216</ele>
        <time>2018-02-12T15:33:43Z</time>
      </trkpt>
      <trkpt lat="45.87564" lon="4.71075">
        <ele>216</ele>
        <time>2018-02-12T15:33:44Z</time>
      </trkpt>
      <trkpt lat="45.87572" lon="4.7108">
        <ele>216</ele>
        <time>2018-02-12T15:33:48Z</time>
      </trkpt>
      <trkpt lat="45.87573" lon="4.71081">
        <ele>216</ele>
        <time>2018-02-12T15:33:49Z</time>
      </trkpt>
      <trkpt lat="45.87579" lon="4.71085">
        <ele>217</ele>
        <time>2018-02-12T15:33:52Z</time>
      </trkpt>
      <trkpt lat="45.87582" lon="4.71086">
        <ele>217</ele>
        <time>2018-02-12T15:33:53Z</time>
      </trkpt>
      <trkpt lat="45.8759" lon="4.71087">
        <ele>218</ele>
        <time>2018-02-12T15:33:56Z</time>
      </trkpt>
      <trkpt lat="45.87593" lon="4.71086">
        <ele>218</ele>
        <time>2018-02-12T15:33:57Z</time>
      </trkpt>
      <trkpt lat="45.876" lon="4.71083">
        <ele>217</ele>
        <time>2018-02-12T15:33:59Z</time>
      </trkpt>
      <trkpt lat="45.87603" lon="4.71081">
        <ele>217</ele>
        <time>2018-02-12T15:34:00Z</time>
      </trkpt>
      <trkpt lat="45.87609" lon="4.71078">
        <ele>217</ele>
        <time>2018-02-12T15:34:02Z</time>
      </trkpt>
      <trkpt lat="45.87612" lon="4.71076">
        <ele>217</ele>
        <time>2018-02-12T15:34:03Z</time>
      </trkpt>
      <trkpt lat="45.87621" lon="4.71074">
        <ele>217</ele>
        <time>2018-02-12T15:34:06Z</time>
      </trkpt>
      <trkpt lat="45.87624" lon="4.71073">
        <ele>217</ele>
        <time>2018-02-12T15:34:07Z</time>
      </trkpt>
      <trkpt lat="45.87632" lon="4.71072">
        <ele>218</ele>
        <time>2018-02-12T15:34:10Z</time>
      </trkpt>
      <trkpt lat="45.87635" lon="4.71072">
        <ele>218</ele>
        <time>2018-02-12T15:34:11Z</time>
      </trkpt>
      <trkpt lat="45.87644" lon="4.7107">
        <ele>218</ele>
        <time>2018-02-12T15:34:14Z</time>
      </trkpt>
      <trkpt lat="45.87646" lon="4.71068">
        <ele>218</ele>
        <time>2018-02-12T15:34:15Z</time>
      </trkpt>
      <trkpt lat="45.87652" lon="4.71065">
        <ele>218</ele>
        <time>2018-02-12T15:34:17Z</time>
      </trkpt>
      <trkpt lat="45.87655" lon="4.71065">
        <ele>218</ele>
        <time>2018-02-12T15:34:18Z</time>
      </trkpt>
      <trkpt lat="45.87663" lon="4.71063">
        <ele>218</ele>
        <time>2018-02-12T15:34:20Z</time>
      </trkpt>
      <trkpt lat="45.87666" lon="4.71062">
        <ele>218</ele>
        <time>2018-02-12T15:34:21Z</time>
      </trkpt>
      <trkpt lat="45.87673" lon="4.7106">
        <ele>220</ele>
        <time>2018-02-12T15:34:23Z</time>
      </trkpt>
      <trkpt lat="45.87676" lon="4.71059">
        <ele>220</ele>
        <time>2018-02-12T15:34:24Z</time>
      </trkpt>
      <trkpt lat="45.87683" lon="4.71057">
        <ele>220</ele>
        <time>2018-02-12T15:34:26Z</time>
      </trkpt>
      <trkpt lat="45.87687" lon="4.71056">
        <ele>220</ele>
        <time>2018-02-12T15:34:27Z</time>
      </trkpt>
      <trkpt lat="45.87694" lon="4.71052">
        <ele>220</ele>
        <time>2018-02-12T15:34:29Z</time>
      </trkpt>
      <trkpt lat="45.87697" lon="4.7105">
        <ele>220</ele>
        <time>2018-02-12T15:34:30Z</time>
      </trkpt>
      <trkpt lat="45.87704" lon="4.71047">
        <ele>220</ele>
        <time>2018-02-12T15:34:32Z</time>
      </trkpt>
      <trkpt lat="45.87708" lon="4.71046">
        <ele>220</ele>
        <time>2018-02-12T15:34:33Z</time>
      </trkpt>
      <trkpt lat="45.87716" lon="4.71042">
        <ele>220</ele>
        <time>2018-02-12T15:34:35Z</time>
      </trkpt>
      <trkpt lat="45.8772" lon="4.71041">
        <ele>220</ele>
        <time>2018-02-12T15:34:36Z</time>
      </trkpt>
      <trkpt lat="45.87728" lon="4.71039">
        <ele>220</ele>
        <time>2018-02-12T15:34:38Z</time>
      </trkpt>
      <trkpt lat="45.87733" lon="4.71037">
        <ele>220</ele>
        <time>2018-02-12T15:34:39Z</time>
      </trkpt>
      <trkpt lat="45.87741" lon="4.71035">
        <ele>220</ele>
        <time>2018-02-12T15:34:41Z</time>
      </trkpt>
      <trkpt lat="45.87745" lon="4.71034">
        <ele>220</ele>
        <time>2018-02-12T15:34:42Z</time>
      </trkpt>
      <trkpt lat="45.87754" lon="4.71031">
        <ele>222</ele>
        <time>2018-02-12T15:34:44Z</time>
      </trkpt>
      <trkpt lat="45.87758" lon="4.71029">
        <ele>222</ele>
        <time>2018-02-12T15:34:45Z</time>
      </trkpt>
      <trkpt lat="45.87767" lon="4.71026">
        <ele>222</ele>
        <time>2018-02-12T15:34:47Z</time>
      </trkpt>
      <trkpt lat="45.8777" lon="4.71025">
        <ele>222</ele>
        <time>2018-02-12T15:34:48Z</time>
      </trkpt>
      <trkpt lat="45.87779" lon="4.71021">
        <ele>222</ele>
        <time>2018-02-12T15:34:50Z</time>
      </trkpt>
      <trkpt lat="45.87783" lon="4.7102">
        <ele>222</ele>
        <time>2018-02-12T15:34:51Z</time>
      </trkpt>
      <trkpt lat="45.8779" lon="4.71017">
        <ele>223</ele>
        <time>2018-02-12T15:34:53Z</time>
      </trkpt>
      <trkpt lat="45.87794" lon="4.71016">
        <ele>223</ele>
        <time>2018-02-12T15:34:54Z</time>
      </trkpt>
      <trkpt lat="45.87802" lon="4.71014">
        <ele>223</ele>
        <time>2018-02-12T15:34:56Z</time>
      </trkpt>
      <trkpt lat="45.87805" lon="4.71012">
        <ele>223</ele>
        <time>2018-02-12T15:34:57Z</time>
      </trkpt>
      <trkpt lat="45.87814" lon="4.7101">
        <ele>223</ele>
        <time>2018-02-12T15:34:59Z</time>
      </trkpt>
      <trkpt lat="45.87817" lon="4.71009">
        <ele>223</ele>
        <time>2018-02-12T15:35:00Z</time>
      </trkpt>
      <trkpt lat="45.87825" lon="4.71006">
        <ele>224</ele>
        <time>2018-02-12T15:35:02Z</time>
      </trkpt>
      <trkpt lat="45.87829" lon="4.71005">
        <ele>224</ele>
        <time>2018-02-12T15:35:03Z</time>
      </trkpt>
      <trkpt lat="45.87836" lon="4.71001">
        <ele>224</ele>
        <time>2018-02-12T15:35:05Z</time>
      </trkpt>
      <trkpt lat="45.87839" lon="4.70999">
        <ele>224</ele>
        <time>2018-02-12T15:35:06Z</time>
      </trkpt>
      <trkpt lat="45.87846" lon="4.70995">
        <ele>224</ele>
        <time>2018-02-12T15:35:08Z</time>
      </trkpt>
      <trkpt lat="45.87849" lon="4.70993">
        <ele>224</ele>
        <time>2018-02-12T15:35:09Z</time>
      </trkpt>
      <trkpt lat="45.87856" lon="4.70989">
        <ele>224</ele>
        <time>2018-02-12T15:35:11Z</time>
      </trkpt>
      <trkpt lat="45.8786" lon="4.70986">
        <ele>224</ele>
        <time>2018-02-12T15:35:12Z</time>
      </trkpt>
      <trkpt lat="45.87868" lon="4.70982">
        <ele>225</ele>
        <time>2018-02-12T15:35:14Z</time>
      </trkpt>
      <trkpt lat="45.87871" lon="4.7098">
        <ele>225</ele>
        <time>2018-02-12T15:35:15Z</time>
      </trkpt>
      <trkpt lat="45.87879" lon="4.70975">
        <ele>225</ele>
        <time>2018-02-12T15:35:17Z</time>
      </trkpt>
      <trkpt lat="45.87882" lon="4.70972">
        <ele>225</ele>
        <time>2018-02-12T15:35:18Z</time>
      </trkpt>
      <trkpt lat="45.8789" lon="4.70967">
        <ele>225</ele>
        <time>2018-02-12T15:35:20Z</time>
      </trkpt>
      <trkpt lat="45.87893" lon="4.70965">
        <ele>225</ele>
        <time>2018-02-12T15:35:21Z</time>
      </trkpt>
      <trkpt lat="45.879" lon="4.70961">
        <ele>225</ele>
        <time>2018-02-12T15:35:23Z</time>
      </trkpt>
      <trkpt lat="45.87903" lon="4.70958">
        <ele>225</ele>
        <time>2018-02-12T15:35:24Z</time>
      </trkpt>
      <trkpt lat="45.8791" lon="4.70954">
        <ele>225</ele>
        <time>2018-02-12T15:35:26Z</time>
      </trkpt>
      <trkpt lat="45.87914" lon="4.70951">
        <ele>225</ele>
        <time>2018-02-12T15:35:27Z</time>
      </trkpt>
      <trkpt lat="45.87921" lon="4.70946">
        <ele>225</ele>
        <time>2018-02-12T15:35:29Z</time>
      </trkpt>
      <trkpt lat="45.87925" lon="4.70944">
        <ele>225</ele>
        <time>2018-02-12T15:35:30Z</time>
      </trkpt>
      <trkpt lat="45.87931" lon="4.70938">
        <ele>225</ele>
        <time>2018-02-12T15:35:32Z</time>
      </trkpt>
      <trkpt lat="45.87935" lon="4.70935">
        <ele>225</ele>
        <time>2018-02-12T15:35:33Z</time>
      </trkpt>
      <trkpt lat="45.87942" lon="4.7093">
        <ele>225</ele>
        <time>2018-02-12T15:35:35Z</time>
      </trkpt>
      <trkpt lat="45.87945" lon="4.70928">
        <ele>225</ele>
        <time>2018-02-12T15:35:36Z</time>
      </trkpt>
      <trkpt lat="45.87952" lon="4.70923">
        <ele>225</ele>
        <time>2018-02-12T15:35:38Z</time>
      </trkpt>
      <trkpt lat="45.87956" lon="4.70921">
        <ele>225</ele>
        <time>2018-02-12T15:35:39Z</time>
      </trkpt>
      <trkpt lat="45.87963" lon="4.70917">
        <ele>225</ele>
        <time>2018-02-12T15:35:41Z</time>
      </trkpt>
      <trkpt lat="45.87966" lon="4.70915">
        <ele>225</ele>
        <time>2018-02-12T15:35:42Z</time>
      </trkpt>
      <trkpt lat="45.87973" lon="4.7091">
        <ele>225</ele>
        <time>2018-02-12T15:35:44Z</time>
      </trkpt>
      <trkpt lat="45.87977" lon="4.70908">
        <ele>225</ele>
        <time>2018-02-12T15:35:45Z</time>
      </trkpt>
      <trkpt lat="45.87984" lon="4.70903">
        <ele>225</ele>
        <time>2018-02-12T15:35:47Z</time>
      </trkpt>
      <trkpt lat="45.87988" lon="4.70901">
        <ele>225</ele>
        <time>2018-02-12T15:35:48Z</time>
      </trkpt>
      <trkpt lat="45.87996" lon="4.70896">
        <ele>225</ele>
        <time>2018-02-12T15:35:50Z</time>
      </trkpt>
      <trkpt lat="45.87999" lon="4.70893">
        <ele>225</ele>
        <time>2018-02-12T15:35:51Z</time>
      </trkpt>
      <trkpt lat="45.88006" lon="4.70889">
        <ele>226</ele>
        <time>2018-02-12T15:35:53Z</time>
      </trkpt>
      <trkpt lat="45.8801" lon="4.70886">
        <ele>226</ele>
        <time>2018-02-12T15:35:54Z</time>
      </trkpt>
      <trkpt lat="45.88017" lon="4.70882">
        <ele>226</ele>
        <time>2018-02-12T15:35:56Z</time>
      </trkpt>
      <trkpt lat="45.8802" lon="4.7088">
        <ele>226</ele>
        <time>2018-02-12T15:35:57Z</time>
      </trkpt>
      <trkpt lat="45.88028" lon="4.70876">
        <ele>226</ele>
        <time>2018-02-12T15:35:59Z</time>
      </trkpt>
      <trkpt lat="45.88031" lon="4.70874">
        <ele>226</ele>
        <time>2018-02-12T15:36:00Z</time>
      </trkpt>
      <trkpt lat="45.88038" lon="4.70869">
        <ele>226</ele>
        <time>2018-02-12T15:36:02Z</time>
      </trkpt>
      <trkpt lat="45.88042" lon="4.70867">
        <ele>227</ele>
        <time>2018-02-12T15:36:03Z</time>
      </trkpt>
      <trkpt lat="45.88049" lon="4.70862">
        <ele>227</ele>
        <time>2018-02-12T15:36:05Z</time>
      </trkpt>
      <trkpt lat="45.88052" lon="4.70859">
        <ele>227</ele>
        <time>2018-02-12T15:36:06Z</time>
      </trkpt>
      <trkpt lat="45.88059" lon="4.70855">
        <ele>227</ele>
        <time>2018-02-12T15:36:08Z</time>
      </trkpt>
      <trkpt lat="45.88063" lon="4.70853">
        <ele>227</ele>
        <time>2018-02-12T15:36:09Z</time>
      </trkpt>
      <trkpt lat="45.8807" lon="4.70849">
        <ele>228</ele>
        <time>2018-02-12T15:36:11Z</time>
      </trkpt>
      <trkpt lat="45.88073" lon="4.70846">
        <ele>228</ele>
        <time>2018-02-12T15:36:12Z</time>
      </trkpt>
      <trkpt lat="45.88081" lon="4.70843">
        <ele>228</ele>
        <time>2018-02-12T15:36:14Z</time>
      </trkpt>
      <trkpt lat="45.88085" lon="4.70843">
        <ele>229</ele>
        <time>2018-02-12T15:36:15Z</time>
      </trkpt>
      <trkpt lat="45.88093" lon="4.70847">
        <ele>229</ele>
        <time>2018-02-12T15:36:17Z</time>
      </trkpt>
      <trkpt lat="45.88097" lon="4.70849">
        <ele>229</ele>
        <time>2018-02-12T15:36:18Z</time>
      </trkpt>
      <trkpt lat="45.88105" lon="4.70852">
        <ele>229</ele>
        <time>2018-02-12T15:36:20Z</time>
      </trkpt>
      <trkpt lat="45.88108" lon="4.7085">
        <ele>229</ele>
        <time>2018-02-12T15:36:21Z</time>
      </trkpt>
      <trkpt lat="45.88114" lon="4.70844">
        <ele>229</ele>
        <time>2018-02-12T15:36:23Z</time>
      </trkpt>
      <trkpt lat="45.88116" lon="4.7084">
        <ele>229</ele>
        <time>2018-02-12T15:36:24Z</time>
      </trkpt>
      <trkpt lat="45.88119" lon="4.70832">
        <ele>230</ele>
        <time>2018-02-12T15:36:26Z</time>
      </trkpt>
      <trkpt lat="45.88121" lon="4.70828">
        <ele>230</ele>
        <time>2018-02-12T15:36:27Z</time>
      </trkpt>
      <trkpt lat="45.88125" lon="4.70819">
        <ele>230</ele>
        <time>2018-02-12T15:36:29Z</time>
      </trkpt>
      <trkpt lat="45.88128" lon="4.70816">
        <ele>230</ele>
        <time>2018-02-12T15:36:30Z</time>
      </trkpt>
      <trkpt lat="45.88133" lon="4.7081">
        <ele>231</ele>
        <time>2018-02-12T15:36:32Z</time>
      </trkpt>
      <trkpt lat="45.88136" lon="4.70807">
        <ele>231</ele>
        <time>2018-02-12T15:36:33Z</time>
      </trkpt>
      <trkpt lat="45.88142" lon="4.70802">
        <ele>231</ele>
        <time>2018-02-12T15:36:35Z</time>
      </trkpt>
      <trkpt lat="45.88145" lon="4.70799">
        <ele>231</ele>
        <time>2018-02-12T15:36:36Z</time>
      </trkpt>
      <trkpt lat="45.88151" lon="4.70793">
        <ele>231</ele>
        <time>2018-02-12T15:36:38Z</time>
      </trkpt>
      <trkpt lat="45.88154" lon="4.7079">
        <ele>231</ele>
        <time>2018-02-12T15:36:39Z</time>
      </trkpt>
      <trkpt lat="45.8816" lon="4.70785">
        <ele>231</ele>
        <time>2018-02-12T15:36:41Z</time>
      </trkpt>
      <trkpt lat="45.88163" lon="4.70783">
        <ele>231</ele>
        <time>2018-02-12T15:36:42Z</time>
      </trkpt>
      <trkpt lat="45.8817" lon="4.70778">
        <ele>232</ele>
        <time>2018-02-12T15:36:44Z</time>
      </trkpt>
      <trkpt lat="45.88173" lon="4.70776">
        <ele>232</ele>
        <time>2018-02-12T15:36:45Z</time>
      </trkpt>
      <trkpt lat="45.88179" lon="4.70772">
        <ele>232</ele>
        <time>2018-02-12T15:36:47Z</time>
      </trkpt>
      <trkpt lat="45.88182" lon="4.7077">
        <ele>232</ele>
        <time>2018-02-12T15:36:48Z</time>
      </trkpt>
      <trkpt lat="45.88188" lon="4.70765">
        <ele>232</ele>
        <time>2018-02-12T15:36:50Z</time>
      </trkpt>
      <trkpt lat="45.88191" lon="4.70763">
        <ele>232</ele>
        <time>2018-02-12T15:36:51Z</time>
      </trkpt>
      <trkpt lat="45.88197" lon="4.70758">
        <ele>232</ele>
        <time>2018-02-12T15:36:53Z</time>
      </trkpt>
      <trkpt lat="45.88201" lon="4.70756">
        <ele>232</ele>
        <time>2018-02-12T15:36:54Z</time>
      </trkpt>
      <trkpt lat="45.88207" lon="4.70752">
        <ele>232</ele>
        <time>2018-02-12T15:36:56Z</time>
      </trkpt>
      <trkpt lat="45.8821" lon="4.7075">
        <ele>235</ele>
        <time>2018-02-12T15:36:57Z</time>
      </trkpt>
      <trkpt lat="45.88216" lon="4.70745">
        <ele>235</ele>
        <time>2018-02-12T15:36:59Z</time>
      </trkpt>
      <trkpt lat="45.8822" lon="4.70743">
        <ele>235</ele>
        <time>2018-02-12T15:37:00Z</time>
      </trkpt>
      <trkpt lat="45.88227" lon="4.70738">
        <ele>235</ele>
        <time>2018-02-12T15:37:02Z</time>
      </trkpt>
      <trkpt lat="45.8823" lon="4.70736">
        <ele>235</ele>
        <time>2018-02-12T15:37:03Z</time>
      </trkpt>
      <trkpt lat="45.88236" lon="4.70731">
        <ele>235</ele>
        <time>2018-02-12T15:37:05Z</time>
      </trkpt>
      <trkpt lat="45.8824" lon="4.70728">
        <ele>235</ele>
        <time>2018-02-12T15:37:06Z</time>
      </trkpt>
      <trkpt lat="45.88246" lon="4.70723">
        <ele>235</ele>
        <time>2018-02-12T15:37:08Z</time>
      </trkpt>
      <trkpt lat="45.8825" lon="4.70721">
        <ele>235</ele>
        <time>2018-02-12T15:37:09Z</time>
      </trkpt>
      <trkpt lat="45.88256" lon="4.70715">
        <ele>234</ele>
        <time>2018-02-12T15:37:11Z</time>
      </trkpt>
      <trkpt lat="45.88259" lon="4.70712">
        <ele>234</ele>
        <time>2018-02-12T15:37:12Z</time>
      </trkpt>
      <trkpt lat="45.88267" lon="4.70706">
        <ele>235</ele>
        <time>2018-02-12T15:37:14Z</time>
      </trkpt>
      <trkpt lat="45.8827" lon="4.70703">
        <ele>235</ele>
        <time>2018-02-12T15:37:15Z</time>
      </trkpt>
      <trkpt lat="45.88278" lon="4.70698">
        <ele>235</ele>
        <time>2018-02-12T15:37:17Z</time>
      </trkpt>
      <trkpt lat="45.88281" lon="4.70695">
        <ele>235</ele>
        <time>2018-02-12T15:37:18Z</time>
      </trkpt>
      <trkpt lat="45.88287" lon="4.7069">
        <ele>235</ele>
        <time>2018-02-12T15:37:20Z</time>
      </trkpt>
      <trkpt lat="45.88291" lon="4.70687">
        <ele>235</ele>
        <time>2018-02-12T15:37:21Z</time>
      </trkpt>
      <trkpt lat="45.88298" lon="4.70681">
        <ele>235</ele>
        <time>2018-02-12T15:37:23Z</time>
      </trkpt>
      <trkpt lat="45.88303" lon="4.70678">
        <ele>235</ele>
        <time>2018-02-12T15:37:24Z</time>
      </trkpt>
      <trkpt lat="45.88308" lon="4.70675">
        <ele>235</ele>
        <time>2018-02-12T15:37:25Z</time>
      </trkpt>
      <trkpt lat="45.88312" lon="4.70671">
        <ele>235</ele>
        <time>2018-02-12T15:37:26Z</time>
      </trkpt>
      <trkpt lat="45.88316" lon="4.70668">
        <ele>235</ele>
        <time>2018-02-12T15:37:27Z</time>
      </trkpt>
      <trkpt lat="45.8832" lon="4.70664">
        <ele>237</ele>
        <time>2018-02-12T15:37:28Z</time>
      </trkpt>
      <trkpt lat="45.88327" lon="4.70658">
        <ele>237</ele>
        <time>2018-02-12T15:37:30Z</time>
      </trkpt>
      <trkpt lat="45.88332" lon="4.70655">
        <ele>237</ele>
        <time>2018-02-12T15:37:31Z</time>
      </trkpt>
      <trkpt lat="45.88337" lon="4.70652">
        <ele>235</ele>
        <time>2018-02-12T15:37:32Z</time>
      </trkpt>
      <trkpt lat="45.88341" lon="4.7065">
        <ele>235</ele>
        <time>2018-02-12T15:37:33Z</time>
      </trkpt>
      <trkpt lat="45.88349" lon="4.70644">
        <ele>235</ele>
        <time>2018-02-12T15:37:35Z</time>
      </trkpt>
      <trkpt lat="45.88353" lon="4.70641">
        <ele>235</ele>
        <time>2018-02-12T15:37:36Z</time>
      </trkpt>
      <trkpt lat="45.88356" lon="4.70638">
        <ele>235</ele>
        <time>2018-02-12T15:37:37Z</time>
      </trkpt>
      <trkpt lat="45.88361" lon="4.70635">
        <ele>235</ele>
        <time>2018-02-12T15:37:38Z</time>
      </trkpt>
      <trkpt lat="45.88365" lon="4.70631">
        <ele>235</ele>
        <time>2018-02-12T15:37:39Z</time>
      </trkpt>
      <trkpt lat="45.88368" lon="4.70628">
        <ele>235</ele>
        <time>2018-02-12T15:37:40Z</time>
      </trkpt>
      <trkpt lat="45.88372" lon="4.70623">
        <ele>235</ele>
        <time>2018-02-12T15:37:41Z</time>
      </trkpt>
      <trkpt lat="45.88377" lon="4.70619">
        <ele>235</ele>
        <time>2018-02-12T15:37:42Z</time>
      </trkpt>
      <trkpt lat="45.88381" lon="4.70616">
        <ele>235</ele>
        <time>2018-02-12T15:37:43Z</time>
      </trkpt>
      <trkpt lat="45.88386" lon="4.70613">
        <ele>235</ele>
        <time>2018-02-12T15:37:44Z</time>
      </trkpt>
      <trkpt lat="45.88391" lon="4.70608">
        <ele>235</ele>
        <time>2018-02-12T15:37:45Z</time>
      </trkpt>
      <trkpt lat="45.88395" lon="4.70604">
        <ele>235</ele>
        <time>2018-02-12T15:37:46Z</time>
      </trkpt>
      <trkpt lat="45.88399" lon="4.706">
        <ele>235</ele>
        <time>2018-02-12T15:37:47Z</time>
      </trkpt>
      <trkpt lat="45.88405" lon="4.70595">
        <ele>235</ele>
        <time>2018-02-12T15:37:48Z</time>
      </trkpt>
      <trkpt lat="45.8841" lon="4.70592">
        <ele>235</ele>
        <time>2018-02-12T15:37:49Z</time>
      </trkpt>
      <trkpt lat="45.88416" lon="4.70589">
        <ele>235</ele>
        <time>2018-02-12T15:37:50Z</time>
      </trkpt>
      <trkpt lat="45.88421" lon="4.70585">
        <ele>234</ele>
        <time>2018-02-12T15:37:51Z</time>
      </trkpt>
      <trkpt lat="45.88426" lon="4.70581">
        <ele>235</ele>
        <time>2018-02-12T15:37:52Z</time>
      </trkpt>
      <trkpt lat="45.88431" lon="4.70577">
        <ele>235</ele>
        <time>2018-02-12T15:37:53Z</time>
      </trkpt>
      <trkpt lat="45.88435" lon="4.70573">
        <ele>234</ele>
        <time>2018-02-12T15:37:54Z</time>
      </trkpt>
      <trkpt lat="45.8844" lon="4.7057">
        <ele>234</ele>
        <time>2018-02-12T15:37:55Z</time>
      </trkpt>
      <trkpt lat="45.88445" lon="4.70566">
        <ele>234</ele>
        <time>2018-02-12T15:37:56Z</time>
      </trkpt>
      <trkpt lat="45.8845" lon="4.70562">
        <ele>234</ele>
        <time>2018-02-12T15:37:57Z</time>
      </trkpt>
      <trkpt lat="45.88454" lon="4.70558">
        <ele>234</ele>
        <time>2018-02-12T15:37:58Z</time>
      </trkpt>
      <trkpt lat="45.88459" lon="4.70555">
        <ele>234</ele>
        <time>2018-02-12T15:37:59Z</time>
      </trkpt>
      <trkpt lat="45.88464" lon="4.7055">
        <ele>234</ele>
        <time>2018-02-12T15:38:00Z</time>
      </trkpt>
      <trkpt lat="45.88468" lon="4.70546">
        <ele>234</ele>
        <time>2018-02-12T15:38:01Z</time>
      </trkpt>
      <trkpt lat="45.88473" lon="4.70542">
        <ele>234</ele>
        <time>2018-02-12T15:38:02Z</time>
      </trkpt>
      <trkpt lat="45.88478" lon="4.70538">
        <ele>234</ele>
        <time>2018-02-12T15:38:03Z</time>
      </trkpt>
      <trkpt lat="45.88483" lon="4.70534">
        <ele>234</ele>
        <time>2018-02-12T15:38:04Z</time>
      </trkpt>
      <trkpt lat="45.88488" lon="4.70531">
        <ele>234</ele>
        <time>2018-02-12T15:38:05Z</time>
      </trkpt>
      <trkpt lat="45.88493" lon="4.70528">
        <ele>233</ele>
        <time>2018-02-12T15:38:06Z</time>
      </trkpt>
      <trkpt lat="45.88499" lon="4.70522">
        <ele>233</ele>
        <time>2018-02-12T15:38:07Z</time>
      </trkpt>
      <trkpt lat="45.88504" lon="4.70517">
        <ele>231</ele>
        <time>2018-02-12T15:38:08Z</time>
      </trkpt>
      <trkpt lat="45.8851" lon="4.70513">
        <ele>231</ele>
        <time>2018-02-12T15:38:09Z</time>
      </trkpt>
      <trkpt lat="45.88515" lon="4.70508">
        <ele>231</ele>
        <time>2018-02-12T15:38:10Z</time>
      </trkpt>
      <trkpt lat="45.8852" lon="4.70504">
        <ele>230</ele>
        <time>2018-02-12T15:38:11Z</time>
      </trkpt>
      <trkpt lat="45.88526" lon="4.70499">
        <ele>232</ele>
        <time>2018-02-12T15:38:12Z</time>
      </trkpt>
      <trkpt lat="45.88531" lon="4.70494">
        <ele>232</ele>
        <time>2018-02-12T15:38:13Z</time>
      </trkpt>
      <trkpt lat="45.88536" lon="4.70489">
        <ele>232</ele>
        <time>2018-02-12T15:38:14Z</time>
      </trkpt>
      <trkpt lat="45.88542" lon="4.70485">
        <ele>232</ele>
        <time>2018-02-12T15:38:15Z</time>
      </trkpt>
      <trkpt lat="45.88548" lon="4.70481">
        <ele>232</ele>
        <time>2018-02-12T15:38:16Z</time>
      </trkpt>
      <trkpt lat="45.88553" lon="4.70477">
        <ele>231</ele>
        <time>2018-02-12T15:38:17Z</time>
      </trkpt>
      <trkpt lat="45.88558" lon="4.70473">
        <ele>231</ele>
        <time>2018-02-12T15:38:18Z</time>
      </trkpt>
      <trkpt lat="45.88564" lon="4.70469">
        <ele>231</ele>
        <time>2018-02-12T15:38:19Z</time>
      </trkpt>
      <trkpt lat="45.88569" lon="4.70464">
        <ele>231</ele>
        <time>2018-02-12T15:38:20Z</time>
      </trkpt>
      <trkpt lat="45.88575" lon="4.70462">
        <ele>231</ele>
        <time>2018-02-12T15:38:21Z</time>
      </trkpt>
      <trkpt lat="45.88579" lon="4.70458">
        <ele>231</ele>
        <time>2018-02-12T15:38:22Z</time>
      </trkpt>
      <trkpt lat="45.88584" lon="4.70455">
        <ele>228</ele>
        <time>2018-02-12T15:38:23Z</time>
      </trkpt>
      <trkpt lat="45.88588" lon="4.7045">
        <ele>228</ele>
        <time>2018-02-12T15:38:24Z</time>
      </trkpt>
      <trkpt lat="45.88593" lon="4.70447">
        <ele>228</ele>
        <time>2018-02-12T15:38:25Z</time>
      </trkpt>
      <trkpt lat="45.88598" lon="4.70442">
        <ele>228</ele>
        <time>2018-02-12T15:38:26Z</time>
      </trkpt>
      <trkpt lat="45.88603" lon="4.70439">
        <ele>228</ele>
        <time>2018-02-12T15:38:27Z</time>
      </trkpt>
      <trkpt lat="45.88609" lon="4.70436">
        <ele>228</ele>
        <time>2018-02-12T15:38:28Z</time>
      </trkpt>
      <trkpt lat="45.88613" lon="4.70432">
        <ele>228</ele>
        <time>2018-02-12T15:38:29Z</time>
      </trkpt>
      <trkpt lat="45.88618" lon="4.70428">
        <ele>228</ele>
        <time>2018-02-12T15:38:30Z</time>
      </trkpt>
      <trkpt lat="45.88622" lon="4.70424">
        <ele>228</ele>
        <time>2018-02-12T15:38:31Z</time>
      </trkpt>
      <trkpt lat="45.88627" lon="4.7042">
        <ele>228</ele>
        <time>2018-02-12T15:38:32Z</time>
      </trkpt>
      <trkpt lat="45.88631" lon="4.70416">
        <ele>230</ele>
        <time>2018-02-12T15:38:33Z</time>
      </trkpt>
      <trkpt lat="45.88636" lon="4.70411">
        <ele>230</ele>
        <time>2018-02-12T15:38:34Z</time>
      </trkpt>
      <trkpt lat="45.88641" lon="4.70407">
        <ele>230</ele>
        <time>2018-02-12T15:38:35Z</time>
      </trkpt>
      <trkpt lat="45.88646" lon="4.70402">
        <ele>230</ele>
        <time>2018-02-12T15:38:36Z</time>
      </trkpt>
      <trkpt lat="45.88651" lon="4.70398">
        <ele>230</ele>
        <time>2018-02-12T15:38:37Z</time>
      </trkpt>
      <trkpt lat="45.88656" lon="4.70395">
        <ele>230</ele>
        <time>2018-02-12T15:38:38Z</time>
      </trkpt>
      <trkpt lat="45.8866" lon="4.70391">
        <ele>230</ele>
        <time>2018-02-12T15:38:39Z</time>
      </trkpt>
      <trkpt lat="45.88665" lon="4.70387">
        <ele>230</ele>
        <time>2018-02-12T15:38:40Z</time>
      </trkpt>
      <trkpt lat="45.88669" lon="4.70382">
        <ele>228</ele>
        <time>2018-02-12T15:38:41Z</time>
      </trkpt>
      <trkpt lat="45.88674" lon="4.70379">
        <ele>228</ele>
        <time>2018-02-12T15:38:42Z</time>
      </trkpt>
      <trkpt lat="45.88679" lon="4.70375">
        <ele>228</ele>
        <time>2018-02-12T15:38:43Z</time>
      </trkpt>
      <trkpt lat="45.88683" lon="4.70372">
        <ele>229</ele>
        <time>2018-02-12T15:38:44Z</time>
      </trkpt>
      <trkpt lat="45.88688" lon="4.70369">
        <ele>229</ele>
        <time>2018-02-12T15:38:45Z</time>
      </trkpt>
      <trkpt lat="45.88693" lon="4.70365">
        <ele>229</ele>
        <time>2018-02-12T15:38:46Z</time>
      </trkpt>
      <trkpt lat="45.88697" lon="4.70361">
        <ele>229</ele>
        <time>2018-02-12T15:38:47Z</time>
      </trkpt>
      <trkpt lat="45.88702" lon="4.70357">
        <ele>229</ele>
        <time>2018-02-12T15:38:48Z</time>
      </trkpt>
      <trkpt lat="45.88706" lon="4.70354">
        <ele>229</ele>
        <time>2018-02-12T15:38:49Z</time>
      </trkpt>
      <trkpt lat="45.88712" lon="4.7035">
        <ele>229</ele>
        <time>2018-02-12T15:38:50Z</time>
      </trkpt>
      <trkpt lat="45.88717" lon="4.70348">
        <ele>229</ele>
        <time>2018-02-12T15:38:51Z</time>
      </trkpt>
      <trkpt lat="45.88721" lon="4.70343">
        <ele>229</ele>
        <time>2018-02-12T15:38:52Z</time>
      </trkpt>
      <trkpt lat="45.88726" lon="4.7034">
        <ele>229</ele>
        <time>2018-02-12T15:38:53Z</time>
      </trkpt>
      <trkpt lat="45.88731" lon="4.70336">
        <ele>229</ele>
        <time>2018-02-12T15:38:54Z</time>
      </trkpt>
      <trkpt lat="45.88736" lon="4.70334">
        <ele>229</ele>
        <time>2018-02-12T15:38:55Z</time>
      </trkpt>
      <trkpt lat="45.88741" lon="4.70331">
        <ele>231</ele>
        <time>2018-02-12T15:38:56Z</time>
      </trkpt>
      <trkpt lat="45.88745" lon="4.70327">
        <ele>231</ele>
        <time>2018-02-12T15:38:57Z</time>
      </trkpt>
      <trkpt lat="45.88749" lon="4.70323">
        <ele>231</ele>
        <time>2018-02-12T15:38:58Z</time>
      </trkpt>
      <trkpt lat="45.88754" lon="4.70319">
        <ele>231</ele>
        <time>2018-02-12T15:38:59Z</time>
      </trkpt>
      <trkpt lat="45.88758" lon="4.70315">
        <ele>232</ele>
        <time>2018-02-12T15:39:00Z</time>
      </trkpt>
      <trkpt lat="45.88762" lon="4.70311">
        <ele>232</ele>
        <time>2018-02-12T15:39:01Z</time>
      </trkpt>
      <trkpt lat="45.88767" lon="4.70307">
        <ele>233</ele>
        <time>2018-02-12T15:39:02Z</time>
      </trkpt>
      <trkpt lat="45.88772" lon="4.70304">
        <ele>233</ele>
        <time>2018-02-12T15:39:03Z</time>
      </trkpt>
      <trkpt lat="45.88776" lon="4.703">
        <ele>233</ele>
        <time>2018-02-12T15:39:04Z</time>
      </trkpt>
      <trkpt lat="45.8878" lon="4.70297">
        <ele>233</ele>
        <time>2018-02-12T15:39:05Z</time>
      </trkpt>
      <trkpt lat="45.88784" lon="4.70294">
        <ele>233</ele>
        <time>2018-02-12T15:39:06Z</time>
      </trkpt>
      <trkpt lat="45.88788" lon="4.70289">
        <ele>234</ele>
        <time>2018-02-12T15:39:07Z</time>
      </trkpt>
      <trkpt lat="45.88793" lon="4.70287">
        <ele>234</ele>
        <time>2018-02-12T15:39:08Z</time>
      </trkpt>
      <trkpt lat="45.88797" lon="4.70283">
        <ele>234</ele>
        <time>2018-02-12T15:39:09Z</time>
      </trkpt>
      <trkpt lat="45.88801" lon="4.70279">
        <ele>234</ele>
        <time>2018-02-12T15:39:10Z</time>
      </trkpt>
      <trkpt lat="45.88806" lon="4.70276">
        <ele>234</ele>
        <time>2018-02-12T15:39:11Z</time>
      </trkpt>
      <trkpt lat="45.88811" lon="4.70274">
        <ele>234</ele>
        <time>2018-02-12T15:39:12Z</time>
      </trkpt>
      <trkpt lat="45.88816" lon="4.7027">
        <ele>235</ele>
        <time>2018-02-12T15:39:13Z</time>
      </trkpt>
      <trkpt lat="45.8882" lon="4.70267">
        <ele>235</ele>
        <time>2018-02-12T15:39:14Z</time>
      </trkpt>
      <trkpt lat="45.88825" lon="4.70264">
        <ele>235</ele>
        <time>2018-02-12T15:39:15Z</time>
      </trkpt>
      <trkpt lat="45.88829" lon="4.7026">
        <ele>236</ele>
        <time>2018-02-12T15:39:16Z</time>
      </trkpt>
      <trkpt lat="45.88834" lon="4.70256">
        <ele>235</ele>
        <time>2018-02-12T15:39:17Z</time>
      </trkpt>
      <trkpt lat="45.88838" lon="4.70253">
        <ele>235</ele>
        <time>2018-02-12T15:39:18Z</time>
      </trkpt>
      <trkpt lat="45.88843" lon="4.7025">
        <ele>238</ele>
        <time>2018-02-12T15:39:19Z</time>
      </trkpt>
      <trkpt lat="45.88848" lon="4.70246">
        <ele>238</ele>
        <time>2018-02-12T15:39:20Z</time>
      </trkpt>
      <trkpt lat="45.88852" lon="4.70242">
        <ele>238</ele>
        <time>2018-02-12T15:39:21Z</time>
      </trkpt>
      <trkpt lat="45.88858" lon="4.70238">
        <ele>238</ele>
        <time>2018-02-12T15:39:22Z</time>
      </trkpt>
      <trkpt lat="45.88863" lon="4.70235">
        <ele>238</ele>
        <time>2018-02-12T15:39:23Z</time>
      </trkpt>
      <trkpt lat="45.88867" lon="4.70231">
        <ele>238</ele>
        <time>2018-02-12T15:39:24Z</time>
      </trkpt>
      <trkpt lat="45.88872" lon="4.70229">
        <ele>238</ele>
        <time>2018-02-12T15:39:25Z</time>
      </trkpt>
      <trkpt lat="45.88877" lon="4.70225">
        <ele>238</ele>
        <time>2018-02-12T15:39:26Z</time>
      </trkpt>
      <trkpt lat="45.88882" lon="4.70222">
        <ele>238</ele>
        <time>2018-02-12T15:39:27Z</time>
      </trkpt>
      <trkpt lat="45.88888" lon="4.70219">
        <ele>238</ele>
        <time>2018-02-12T15:39:28Z</time>
      </trkpt>
      <trkpt lat="45.88893" lon="4.70216">
        <ele>238</ele>
        <time>2018-02-12T15:39:29Z</time>
      </trkpt>
      <trkpt lat="45.889" lon="4.70214">
        <ele>238</ele>
        <time>2018-02-12T15:39:30Z</time>
      </trkpt>
      <trkpt lat="45.88905" lon="4.70211">
        <ele>238</ele>
        <time>2018-02-12T15:39:31Z</time>
      </trkpt>
      <trkpt lat="45.88911" lon="4.70207">
        <ele>239</ele>
        <time>2018-02-12T15:39:32Z</time>
      </trkpt>
      <trkpt lat="45.88917" lon="4.70206">
        <ele>235</ele>
        <time>2018-02-12T15:39:33Z</time>
      </trkpt>
      <trkpt lat="45.88923" lon="4.70203">
        <ele>235</ele>
        <time>2018-02-12T15:39:34Z</time>
      </trkpt>
      <trkpt lat="45.88927" lon="4.70201">
        <ele>235</ele>
        <time>2018-02-12T15:39:35Z</time>
      </trkpt>
      <trkpt lat="45.88933" lon="4.70198">
        <ele>235</ele>
        <time>2018-02-12T15:39:36Z</time>
      </trkpt>
      <trkpt lat="45.88938" lon="4.70195">
        <ele>235</ele>
        <time>2018-02-12T15:39:37Z</time>
      </trkpt>
      <trkpt lat="45.88944" lon="4.70192">
        <ele>235</ele>
        <time>2018-02-12T15:39:38Z</time>
      </trkpt>
      <trkpt lat="45.88949" lon="4.70189">
        <ele>234</ele>
        <time>2018-02-12T15:39:39Z</time>
      </trkpt>
      <trkpt lat="45.88954" lon="4.70187">
        <ele>234</ele>
        <time>2018-02-12T15:39:40Z</time>
      </trkpt>
      <trkpt lat="45.88959" lon="4.70186">
        <ele>234</ele>
        <time>2018-02-12T15:39:41Z</time>
      </trkpt>
      <trkpt lat="45.88964" lon="4.70183">
        <ele>233</ele>
        <time>2018-02-12T15:39:42Z</time>
      </trkpt>
      <trkpt lat="45.8897" lon="4.7018">
        <ele>233</ele>
        <time>2018-02-12T15:39:43Z</time>
      </trkpt>
      <trkpt lat="45.88975" lon="4.70176">
        <ele>233</ele>
        <time>2018-02-12T15:39:44Z</time>
      </trkpt>
      <trkpt lat="45.88981" lon="4.70174">
        <ele>233</ele>
        <time>2018-02-12T15:39:45Z</time>
      </trkpt>
      <trkpt lat="45.88986" lon="4.70171">
        <ele>233</ele>
        <time>2018-02-12T15:39:46Z</time>
      </trkpt>
      <trkpt lat="45.88991" lon="4.70169">
        <ele>232</ele>
        <time>2018-02-12T15:39:47Z</time>
      </trkpt>
      <trkpt lat="45.88997" lon="4.70165">
        <ele>233</ele>
        <time>2018-02-12T15:39:48Z</time>
      </trkpt>
      <trkpt lat="45.89003" lon="4.70162">
        <ele>232</ele>
        <time>2018-02-12T15:39:49Z</time>
      </trkpt>
      <trkpt lat="45.89008" lon="4.70159">
        <ele>232</ele>
        <time>2018-02-12T15:39:50Z</time>
      </trkpt>
      <trkpt lat="45.89013" lon="4.70155">
        <ele>231</ele>
        <time>2018-02-12T15:39:51Z</time>
      </trkpt>
      <trkpt lat="45.89018" lon="4.70152">
        <ele>231</ele>
        <time>2018-02-12T15:39:52Z</time>
      </trkpt>
      <trkpt lat="45.89023" lon="4.70149">
        <ele>231</ele>
        <time>2018-02-12T15:39:53Z</time>
      </trkpt>
      <trkpt lat="45.89028" lon="4.70145">
        <ele>231</ele>
        <time>2018-02-12T15:39:54Z</time>
      </trkpt>
      <trkpt lat="45.89033" lon="4.7014">
        <ele>231</ele>
        <time>2018-02-12T15:39:55Z</time>
      </trkpt>
      <trkpt lat="45.89038" lon="4.70136">
        <ele>231</ele>
        <time>2018-02-12T15:39:56Z</time>
      </trkpt>
      <trkpt lat="45.89043" lon="4.70133">
        <ele>231</ele>
        <time>2018-02-12T15:39:57Z</time>
      </trkpt>
      <trkpt lat="45.89048" lon="4.70129">
        <ele>231</ele>
        <time>2018-02-12T15:39:58Z</time>
      </trkpt>
      <trkpt lat="45.89053" lon="4.70126">
        <ele>230</ele>
        <time>2018-02-12T15:39:59Z</time>
      </trkpt>
      <trkpt lat="45.89058" lon="4.70124">
        <ele>230</ele>
        <time>2018-02-12T15:40:00Z</time>
      </trkpt>
      <trkpt lat="45.89064" lon="4.70121">
        <ele>230</ele>
        <time>2018-02-12T15:40:01Z</time>
      </trkpt>
      <trkpt lat="45.89069" lon="4.70118">
        <ele>230</ele>
        <time>2018-02-12T15:40:02Z</time>
      </trkpt>
      <trkpt lat="45.89074" lon="4.70114">
        <ele>230</ele>
        <time>2018-02-12T15:40:03Z</time>
      </trkpt>
      <trkpt lat="45.8908" lon="4.70112">
        <ele>230</ele>
        <time>2018-02-12T15:40:04Z</time>
      </trkpt>
      <trkpt lat="45.89085" lon="4.70108">
        <ele>228</ele>
        <time>2018-02-12T15:40:05Z</time>
      </trkpt>
      <trkpt lat="45.8909" lon="4.70104">
        <ele>228</ele>
        <time>2018-02-12T15:40:06Z</time>
      </trkpt>
      <trkpt lat="45.89095" lon="4.70101">
        <ele>228</ele>
        <time>2018-02-12T15:40:07Z</time>
      </trkpt>
      <trkpt lat="45.89101" lon="4.70098">
        <ele>228</ele>
        <time>2018-02-12T15:40:08Z</time>
      </trkpt>
      <trkpt lat="45.89106" lon="4.70094">
        <ele>228</ele>
        <time>2018-02-12T15:40:09Z</time>
      </trkpt>
      <trkpt lat="45.89112" lon="4.7009">
        <ele>228</ele>
        <time>2018-02-12T15:40:10Z</time>
      </trkpt>
      <trkpt lat="45.89118" lon="4.70086">
        <ele>228</ele>
        <time>2018-02-12T15:40:11Z</time>
      </trkpt>
      <trkpt lat="45.89124" lon="4.70083">
        <ele>231</ele>
        <time>2018-02-12T15:40:12Z</time>
      </trkpt>
      <trkpt lat="45.8913" lon="4.70079">
        <ele>231</ele>
        <time>2018-02-12T15:40:13Z</time>
      </trkpt>
      <trkpt lat="45.89136" lon="4.70076">
        <ele>231</ele>
        <time>2018-02-12T15:40:14Z</time>
      </trkpt>
      <trkpt lat="45.89142" lon="4.70074">
        <ele>230</ele>
        <time>2018-02-12T15:40:15Z</time>
      </trkpt>
      <trkpt lat="45.89147" lon="4.70071">
        <ele>230</ele>
        <time>2018-02-12T15:40:16Z</time>
      </trkpt>
      <trkpt lat="45.89153" lon="4.70068">
        <ele>230</ele>
        <time>2018-02-12T15:40:17Z</time>
      </trkpt>
      <trkpt lat="45.89159" lon="4.70065">
        <ele>230</ele>
        <time>2018-02-12T15:40:18Z</time>
      </trkpt>
      <trkpt lat="45.89165" lon="4.70062">
        <ele>230</ele>
        <time>2018-02-12T15:40:19Z</time>
      </trkpt>
      <trkpt lat="45.8917" lon="4.7006">
        <ele>229</ele>
        <time>2018-02-12T15:40:20Z</time>
      </trkpt>
      <trkpt lat="45.89176" lon="4.70057">
        <ele>229</ele>
        <time>2018-02-12T15:40:21Z</time>
      </trkpt>
      <trkpt lat="45.89181" lon="4.70054">
        <ele>229</ele>
        <time>2018-02-12T15:40:22Z</time>
      </trkpt>
      <trkpt lat="45.89186" lon="4.70052">
        <ele>229</ele>
        <time>2018-02-12T15:40:23Z</time>
      </trkpt>
      <trkpt lat="45.89191" lon="4.70049">
        <ele>229</ele>
        <time>2018-02-12T15:40:24Z</time>
      </trkpt>
      <trkpt lat="45.89197" lon="4.70046">
        <ele>229</ele>
        <time>2018-02-12T15:40:25Z</time>
      </trkpt>
      <trkpt lat="45.89202" lon="4.70045">
        <ele>229</ele>
        <time>2018-02-12T15:40:26Z</time>
      </trkpt>
      <trkpt lat="45.89207" lon="4.70042">
        <ele>229</ele>
        <time>2018-02-12T15:40:27Z</time>
      </trkpt>
      <trkpt lat="45.89213" lon="4.7004">
        <ele>228</ele>
        <time>2018-02-12T15:40:28Z</time>
      </trkpt>
      <trkpt lat="45.89219" lon="4.70038">
        <ele>228</ele>
        <time>2018-02-12T15:40:29Z</time>
      </trkpt>
      <trkpt lat="45.89224" lon="4.70035">
        <ele>228</ele>
        <time>2018-02-12T15:40:30Z</time>
      </trkpt>
      <trkpt lat="45.89229" lon="4.70034">
        <ele>228</ele>
        <time>2018-02-12T15:40:31Z</time>
      </trkpt>
      <trkpt lat="45.89235" lon="4.70032">
        <ele>228</ele>
        <time>2018-02-12T15:40:32Z</time>
      </trkpt>
      <trkpt lat="45.8924" lon="4.7003">
        <ele>228</ele>
        <time>2018-02-12T15:40:33Z</time>
      </trkpt>
      <trkpt lat="45.89246" lon="4.70028">
        <ele>228</ele>
        <time>2018-02-12T15:40:34Z</time>
      </trkpt>
      <trkpt lat="45.89251" lon="4.70026">
        <ele>227</ele>
        <time>2018-02-12T15:40:35Z</time>
      </trkpt>
      <trkpt lat="45.89256" lon="4.70024">
        <ele>227</ele>
        <time>2018-02-12T15:40:36Z</time>
      </trkpt>
      <trkpt lat="45.89262" lon="4.70022">
        <ele>227</ele>
        <time>2018-02-12T15:40:37Z</time>
      </trkpt>
      <trkpt lat="45.89267" lon="4.7002">
        <ele>226</ele>
        <time>2018-02-12T15:40:38Z</time>
      </trkpt>
      <trkpt lat="45.89273" lon="4.70019">
        <ele>226</ele>
        <time>2018-02-12T15:40:39Z</time>
      </trkpt>
      <trkpt lat="45.89278" lon="4.70017">
        <ele>226</ele>
        <time>2018-02-12T15:40:40Z</time>
      </trkpt>
      <trkpt lat="45.89284" lon="4.70016">
        <ele>226</ele>
        <time>2018-02-12T15:40:41Z</time>
      </trkpt>
      <trkpt lat="45.8929" lon="4.70014">
        <ele>226</ele>
        <time>2018-02-12T15:40:42Z</time>
      </trkpt>
      <trkpt lat="45.89295" lon="4.70011">
        <ele>226</ele>
        <time>2018-02-12T15:40:43Z</time>
      </trkpt>
      <trkpt lat="45.89301" lon="4.7001">
        <ele>226</ele>
        <time>2018-02-12T15:40:44Z</time>
      </trkpt>
      <trkpt lat="45.89306" lon="4.70009">
        <ele>226</ele>
        <time>2018-02-12T15:40:45Z</time>
      </trkpt>
      <trkpt lat="45.89312" lon="4.70007">
        <ele>226</ele>
        <time>2018-02-12T15:40:46Z</time>
      </trkpt>
      <trkpt lat="45.89317" lon="4.70006">
        <ele>226</ele>
        <time>2018-02-12T15:40:47Z</time>
      </trkpt>
      <trkpt lat="45.89323" lon="4.70004">
        <ele>226</ele>
        <time>2018-02-12T15:40:48Z</time>
      </trkpt>
      <trkpt lat="45.89329" lon="4.70003">
        <ele>226</ele>
        <time>2018-02-12T15:40:49Z</time>
      </trkpt>
      <trkpt lat="45.89334" lon="4.70003">
        <ele>226</ele>
        <time>2018-02-12T15:40:50Z</time>
      </trkpt>
      <trkpt lat="45.8934" lon="4.70002">
        <ele>226</ele>
        <time>2018-02-12T15:40:51Z</time>
      </trkpt>
      <trkpt lat="45.89346" lon="4.70001">
        <ele>226</ele>
        <time>2018-02-12T15:40:52Z</time>
      </trkpt>
      <trkpt lat="45.89351" lon="4.7">
        <ele>227</ele>
        <time>2018-02-12T15:40:53Z</time>
      </trkpt>
      <trkpt lat="45.89357" lon="4.7">
        <ele>227</ele>
        <time>2018-02-12T15:40:54Z</time>
      </trkpt>
      <trkpt lat="45.89363" lon="4.7">
        <ele>227</ele>
        <time>2018-02-12T15:40:55Z</time>
      </trkpt>
      <trkpt lat="45.89369" lon="4.7">
        <ele>225</ele>
        <time>2018-02-12T15:40:56Z</time>
      </trkpt>
      <trkpt lat="45.89374" lon="4.7">
        <ele>225</ele>
        <time>2018-02-12T15:40:57Z</time>
      </trkpt>
      <trkpt lat="45.8938" lon="4.70001">
        <ele>225</ele>
        <time>2018-02-12T15:40:58Z</time>
      </trkpt>
      <trkpt lat="45.89386" lon="4.70003">
        <ele>226</ele>
        <time>2018-02-12T15:40:59Z</time>
      </trkpt>
      <trkpt lat="45.89391" lon="4.70005">
        <ele>226</ele>
        <time>2018-02-12T15:41:00Z</time>
      </trkpt>
      <trkpt lat="45.89396" lon="4.70006">
        <ele>226</ele>
        <time>2018-02-12T15:41:01Z</time>
      </trkpt>
      <trkpt lat="45.89403" lon="4.70007">
        <ele>226</ele>
        <time>2018-02-12T15:41:02Z</time>
      </trkpt>
      <trkpt lat="45.89408" lon="4.70008">
        <ele>226</ele>
        <time>2018-02-12T15:41:03Z</time>
      </trkpt>
      <trkpt lat="45.89414" lon="4.7001">
        <ele>226</ele>
        <time>2018-02-12T15:41:04Z</time>
      </trkpt>
      <trkpt lat="45.89421" lon="4.70011">
        <ele>226</ele>
        <time>2018-02-12T15:41:05Z</time>
      </trkpt>
      <trkpt lat="45.89427" lon="4.70013">
        <ele>226</ele>
        <time>2018-02-12T15:41:06Z</time>
      </trkpt>
      <trkpt lat="45.89433" lon="4.70013">
        <ele>225</ele>
        <time>2018-02-12T15:41:07Z</time>
      </trkpt>
      <trkpt lat="45.8944" lon="4.70014">
        <ele>225</ele>
        <time>2018-02-12T15:41:08Z</time>
      </trkpt>
      <trkpt lat="45.89446" lon="4.70015">
        <ele>225</ele>
        <time>2018-02-12T15:41:09Z</time>
      </trkpt>
      <trkpt lat="45.89452" lon="4.70016">
        <ele>225</ele>
        <time>2018-02-12T15:41:10Z</time>
      </trkpt>
      <trkpt lat="45.89458" lon="4.70016">
        <ele>225</ele>
        <time>2018-02-12T15:41:11Z</time>
      </trkpt>
      <trkpt lat="45.89465" lon="4.70019">
        <ele>225</ele>
        <time>2018-02-12T15:41:12Z</time>
      </trkpt>
      <trkpt lat="45.8947" lon="4.7002">
        <ele>225</ele>
        <time>2018-02-12T15:41:13Z</time>
      </trkpt>
      <trkpt lat="45.89476" lon="4.70022">
        <ele>224</ele>
        <time>2018-02-12T15:41:14Z</time>
      </trkpt>
      <trkpt lat="45.89482" lon="4.70023">
        <ele>224</ele>
        <time>2018-02-12T15:41:15Z</time>
      </trkpt>
      <trkpt lat="45.89488" lon="4.70024">
        <ele>224</ele>
        <time>2018-02-12T15:41:16Z</time>
      </trkpt>
      <trkpt lat="45.89494" lon="4.70025">
        <ele>224</ele>
        <time>2018-02-12T15:41:17Z</time>
      </trkpt>
      <trkpt lat="45.89501" lon="4.70026">
        <ele>223</ele>
        <time>2018-02-12T15:41:18Z</time>
      </trkpt>
      <trkpt lat="45.89508" lon="4.70026">
        <ele>223</ele>
        <time>2018-02-12T15:41:19Z</time>
      </trkpt>
      <trkpt lat="45.89515" lon="4.70026">
        <ele>223</ele>
        <time>2018-02-12T15:41:20Z</time>
      </trkpt>
      <trkpt lat="45.89521" lon="4.70027">
        <ele>223</ele>
        <time>2018-02-12T15:41:21Z</time>
      </trkpt>
      <trkpt lat="45.89528" lon="4.70028">
        <ele>223</ele>
        <time>2018-02-12T15:41:22Z</time>
      </trkpt>
      <trkpt lat="45.89534" lon="4.70028">
        <ele>223</ele>
        <time>2018-02-12T15:41:23Z</time>
      </trkpt>
      <trkpt lat="45.89541" lon="4.70029">
        <ele>223</ele>
        <time>2018-02-12T15:41:24Z</time>
      </trkpt>
      <trkpt lat="45.89548" lon="4.70029">
        <ele>222</ele>
        <time>2018-02-12T15:41:25Z</time>
      </trkpt>
      <trkpt lat="45.89554" lon="4.70031">
        <ele>222</ele>
        <time>2018-02-12T15:41:26Z</time>
      </trkpt>
      <trkpt lat="45.89561" lon="4.70033">
        <ele>222</ele>
        <time>2018-02-12T15:41:27Z</time>
      </trkpt>
      <trkpt lat="45.89567" lon="4.70034">
        <ele>222</ele>
        <time>2018-02-12T15:41:28Z</time>
      </trkpt>
      <trkpt lat="45.89572" lon="4.70035">
        <ele>222</ele>
        <time>2018-02-12T15:41:29Z</time>
      </trkpt>
      <trkpt lat="45.89578" lon="4.70036">
        <ele>222</ele>
        <time>2018-02-12T15:41:30Z</time>
      </trkpt>
      <trkpt lat="45.89584" lon="4.70037">
        <ele>222</ele>
        <time>2018-02-12T15:41:31Z</time>
      </trkpt>
      <trkpt lat="45.8959" lon="4.70038">
        <ele>222</ele>
        <time>2018-02-12T15:41:32Z</time>
      </trkpt>
      <trkpt lat="45.89596" lon="4.70039">
        <ele>222</ele>
        <time>2018-02-12T15:41:33Z</time>
      </trkpt>
      <trkpt lat="45.89602" lon="4.70042">
        <ele>222</ele>
        <time>2018-02-12T15:41:34Z</time>
      </trkpt>
      <trkpt lat="45.89608" lon="4.70043">
        <ele>222</ele>
        <time>2018-02-12T15:41:35Z</time>
      </trkpt>
      <trkpt lat="45.89614" lon="4.70044">
        <ele>222</ele>
        <time>2018-02-12T15:41:36Z</time>
      </trkpt>
      <trkpt lat="45.89621" lon="4.70045">
        <ele>222</ele>
        <time>2018-02-12T15:41:37Z</time>
      </trkpt>
      <trkpt lat="45.89627" lon="4.70045">
        <ele>222</ele>
        <time>2018-02-12T15:41:38Z</time>
      </trkpt>
      <trkpt lat="45.89633" lon="4.70047">
        <ele>222</ele>
        <time>2018-02-12T15:41:39Z</time>
      </trkpt>
      <trkpt lat="45.89639" lon="4.70048">
        <ele>222</ele>
        <time>2018-02-12T15:41:40Z</time>
      </trkpt>
      <trkpt lat="45.89645" lon="4.70048">
        <ele>222</ele>
        <time>2018-02-12T15:41:41Z</time>
      </trkpt>
      <trkpt lat="45.89651" lon="4.70049">
        <ele>222</ele>
        <time>2018-02-12T15:41:42Z</time>
      </trkpt>
      <trkpt lat="45.89658" lon="4.70052">
        <ele>222</ele>
        <time>2018-02-12T15:41:43Z</time>
      </trkpt>
      <trkpt lat="45.89664" lon="4.70054">
        <ele>222</ele>
        <time>2018-02-12T15:41:44Z</time>
      </trkpt>
      <trkpt lat="45.8967" lon="4.70055">
        <ele>222</ele>
        <time>2018-02-12T15:41:45Z</time>
      </trkpt>
      <trkpt lat="45.89676" lon="4.70058">
        <ele>222</ele>
        <time>2018-02-12T15:41:46Z</time>
      </trkpt>
      <trkpt lat="45.89681" lon="4.70059">
        <ele>222</ele>
        <time>2018-02-12T15:41:47Z</time>
      </trkpt>
      <trkpt lat="45.89687" lon="4.70061">
        <ele>222</ele>
        <time>2018-02-12T15:41:48Z</time>
      </trkpt>
      <trkpt lat="45.89693" lon="4.70062">
        <ele>221</ele>
        <time>2018-02-12T15:41:49Z</time>
      </trkpt>
      <trkpt lat="45.89698" lon="4.70063">
        <ele>221</ele>
        <time>2018-02-12T15:41:50Z</time>
      </trkpt>
      <trkpt lat="45.89704" lon="4.70064">
        <ele>221</ele>
        <time>2018-02-12T15:41:51Z</time>
      </trkpt>
      <trkpt lat="45.8971" lon="4.70065">
        <ele>221</ele>
        <time>2018-02-12T15:41:52Z</time>
      </trkpt>
      <trkpt lat="45.89715" lon="4.70066">
        <ele>221</ele>
        <time>2018-02-12T15:41:53Z</time>
      </trkpt>
      <trkpt lat="45.8972" lon="4.70066">
        <ele>221</ele>
        <time>2018-02-12T15:41:54Z</time>
      </trkpt>
      <trkpt lat="45.89726" lon="4.70067">
        <ele>221</ele>
        <time>2018-02-12T15:41:55Z</time>
      </trkpt>
      <trkpt lat="45.89731" lon="4.70069">
        <ele>221</ele>
        <time>2018-02-12T15:41:56Z</time>
      </trkpt>
      <trkpt lat="45.89737" lon="4.7007">
        <ele>220</ele>
        <time>2018-02-12T15:41:57Z</time>
      </trkpt>
      <trkpt lat="45.89743" lon="4.70072">
        <ele>220</ele>
        <time>2018-02-12T15:41:58Z</time>
      </trkpt>
      <trkpt lat="45.89748" lon="4.70073">
        <ele>220</ele>
        <time>2018-02-12T15:41:59Z</time>
      </trkpt>
      <trkpt lat="45.89753" lon="4.70073">
        <ele>220</ele>
        <time>2018-02-12T15:42:00Z</time>
      </trkpt>
      <trkpt lat="45.89758" lon="4.70074">
        <ele>220</ele>
        <time>2018-02-12T15:42:01Z</time>
      </trkpt>
      <trkpt lat="45.89762" lon="4.70075">
        <ele>220</ele>
        <time>2018-02-12T15:42:02Z</time>
      </trkpt>
      <trkpt lat="45.8977" lon="4.70072">
        <ele>220</ele>
        <time>2018-02-12T15:42:23Z</time>
      </trkpt>
      <trkpt lat="45.89773" lon="4.70072">
        <ele>220</ele>
        <time>2018-02-12T15:42:24Z</time>
      </trkpt>
      <trkpt lat="45.89779" lon="4.7007">
        <ele>221</ele>
        <time>2018-02-12T15:42:27Z</time>
      </trkpt>
      <trkpt lat="45.89783" lon="4.7007">
        <ele>221</ele>
        <time>2018-02-12T15:42:28Z</time>
      </trkpt>
      <trkpt lat="45.89791" lon="4.7007">
        <ele>221</ele>
        <time>2018-02-12T15:42:30Z</time>
      </trkpt>
      <trkpt lat="45.89795" lon="4.7007">
        <ele>221</ele>
        <time>2018-02-12T15:42:31Z</time>
      </trkpt>
      <trkpt lat="45.89799" lon="4.7007">
        <ele>221</ele>
        <time>2018-02-12T15:42:32Z</time>
      </trkpt>
      <trkpt lat="45.89805" lon="4.70071">
        <ele>221</ele>
        <time>2018-02-12T15:42:33Z</time>
      </trkpt>
      <trkpt lat="45.8981" lon="4.70072">
        <ele>221</ele>
        <time>2018-02-12T15:42:34Z</time>
      </trkpt>
      <trkpt lat="45.89815" lon="4.70073">
        <ele>221</ele>
        <time>2018-02-12T15:42:35Z</time>
      </trkpt>
      <trkpt lat="45.8982" lon="4.70074">
        <ele>221</ele>
        <time>2018-02-12T15:42:36Z</time>
      </trkpt>
      <trkpt lat="45.89826" lon="4.70074">
        <ele>220</ele>
        <time>2018-02-12T15:42:37Z</time>
      </trkpt>
      <trkpt lat="45.89831" lon="4.70076">
        <ele>220</ele>
        <time>2018-02-12T15:42:38Z</time>
      </trkpt>
      <trkpt lat="45.89836" lon="4.70076">
        <ele>220</ele>
        <time>2018-02-12T15:42:39Z</time>
      </trkpt>
      <trkpt lat="45.89841" lon="4.70076">
        <ele>221</ele>
        <time>2018-02-12T15:42:40Z</time>
      </trkpt>
      <trkpt lat="45.89846" lon="4.70079">
        <ele>221</ele>
        <time>2018-02-12T15:42:41Z</time>
      </trkpt>
      <trkpt lat="45.89851" lon="4.70079">
        <ele>221</ele>
        <time>2018-02-12T15:42:42Z</time>
      </trkpt>
      <trkpt lat="45.89855" lon="4.70079">
        <ele>221</ele>
        <time>2018-02-12T15:42:43Z</time>
      </trkpt>
      <trkpt lat="45.8986" lon="4.7008">
        <ele>221</ele>
        <time>2018-02-12T15:42:44Z</time>
      </trkpt>
      <trkpt lat="45.89865" lon="4.7008">
        <ele>221</ele>
        <time>2018-02-12T15:42:45Z</time>
      </trkpt>
      <trkpt lat="45.8987" lon="4.70081">
        <ele>221</ele>
        <time>2018-02-12T15:42:46Z</time>
      </trkpt>
      <trkpt lat="45.89875" lon="4.70079">
        <ele>221</ele>
        <time>2018-02-12T15:42:47Z</time>
      </trkpt>
      <trkpt lat="45.89883" lon="4.7008">
        <ele>221</ele>
        <time>2018-02-12T15:42:49Z</time>
      </trkpt>
      <trkpt lat="45.89887" lon="4.7008">
        <ele>221</ele>
        <time>2018-02-12T15:42:50Z</time>
      </trkpt>
      <trkpt lat="45.89895" lon="4.70081">
        <ele>221</ele>
        <time>2018-02-12T15:42:52Z</time>
      </trkpt>
      <trkpt lat="45.899" lon="4.70081">
        <ele>221</ele>
        <time>2018-02-12T15:42:53Z</time>
      </trkpt>
      <trkpt lat="45.89909" lon="4.70082">
        <ele>221</ele>
        <time>2018-02-12T15:42:55Z</time>
      </trkpt>
      <trkpt lat="45.89913" lon="4.70082">
        <ele>221</ele>
        <time>2018-02-12T15:42:56Z</time>
      </trkpt>
      <trkpt lat="45.8992" lon="4.70081">
        <ele>221</ele>
        <time>2018-02-12T15:42:58Z</time>
      </trkpt>
      <trkpt lat="45.89924" lon="4.70081">
        <ele>222</ele>
        <time>2018-02-12T15:42:59Z</time>
      </trkpt>
      <trkpt lat="45.89932" lon="4.70082">
        <ele>222</ele>
        <time>2018-02-12T15:43:01Z</time>
      </trkpt>
      <trkpt lat="45.89936" lon="4.70082">
        <ele>222</ele>
        <time>2018-02-12T15:43:02Z</time>
      </trkpt>
      <trkpt lat="45.89944" lon="4.70082">
        <ele>222</ele>
        <time>2018-02-12T15:43:04Z</time>
      </trkpt>
      <trkpt lat="45.89948" lon="4.70082">
        <ele>222</ele>
        <time>2018-02-12T15:43:05Z</time>
      </trkpt>
      <trkpt lat="45.89955" lon="4.70083">
        <ele>223</ele>
        <time>2018-02-12T15:43:07Z</time>
      </trkpt>
      <trkpt lat="45.89959" lon="4.70083">
        <ele>221</ele>
        <time>2018-02-12T15:43:08Z</time>
      </trkpt>
      <trkpt lat="45.89967" lon="4.70084">
        <ele>221</ele>
        <time>2018-02-12T15:43:10Z</time>
      </trkpt>
      <trkpt lat="45.89972" lon="4.70085">
        <ele>221</ele>
        <time>2018-02-12T15:43:11Z</time>
      </trkpt>
      <trkpt lat="45.8998" lon="4.70086">
        <ele>221</ele>
        <time>2018-02-12T15:43:13Z</time>
      </trkpt>
      <trkpt lat="45.89985" lon="4.70086">
        <ele>222</ele>
        <time>2018-02-12T15:43:14Z</time>
      </trkpt>
      <trkpt lat="45.89989" lon="4.70087">
        <ele>222</ele>
        <time>2018-02-12T15:43:15Z</time>
      </trkpt>
      <trkpt lat="45.89994" lon="4.70088">
        <ele>222</ele>
        <time>2018-02-12T15:43:16Z</time>
      </trkpt>
      <trkpt lat="45.90002" lon="4.70089">
        <ele>222</ele>
        <time>2018-02-12T15:43:18Z</time>
      </trkpt>
      <trkpt lat="45.90007" lon="4.70089">
        <ele>222</ele>
        <time>2018-02-12T15:43:19Z</time>
      </trkpt>
      <trkpt lat="45.90016" lon="4.70091">
        <ele>222</ele>
        <time>2018-02-12T15:43:21Z</time>
      </trkpt>
      <trkpt lat="45.90021" lon="4.7009">
        <ele>222</ele>
        <time>2018-02-12T15:43:22Z</time>
      </trkpt>
      <trkpt lat="45.90025" lon="4.7009">
        <ele>222</ele>
        <time>2018-02-12T15:43:23Z</time>
      </trkpt>
      <trkpt lat="45.9003" lon="4.70091">
        <ele>222</ele>
        <time>2018-02-12T15:43:24Z</time>
      </trkpt>
      <trkpt lat="45.90038" lon="4.70092">
        <ele>222</ele>
        <time>2018-02-12T15:43:26Z</time>
      </trkpt>
      <trkpt lat="45.90042" lon="4.70092">
        <ele>222</ele>
        <time>2018-02-12T15:43:27Z</time>
      </trkpt>
      <trkpt lat="45.9005" lon="4.70093">
        <ele>222</ele>
        <time>2018-02-12T15:43:29Z</time>
      </trkpt>
      <trkpt lat="45.90053" lon="4.70094">
        <ele>222</ele>
        <time>2018-02-12T15:43:30Z</time>
      </trkpt>
      <trkpt lat="45.90061" lon="4.70094">
        <ele>223</ele>
        <time>2018-02-12T15:43:32Z</time>
      </trkpt>
      <trkpt lat="45.90065" lon="4.70094">
        <ele>223</ele>
        <time>2018-02-12T15:43:33Z</time>
      </trkpt>
      <trkpt lat="45.90073" lon="4.70093">
        <ele>223</ele>
        <time>2018-02-12T15:43:35Z</time>
      </trkpt>
      <trkpt lat="45.90076" lon="4.70093">
        <ele>223</ele>
        <time>2018-02-12T15:43:36Z</time>
      </trkpt>
      <trkpt lat="45.90084" lon="4.70092">
        <ele>224</ele>
        <time>2018-02-12T15:43:38Z</time>
      </trkpt>
      <trkpt lat="45.90088" lon="4.70091">
        <ele>224</ele>
        <time>2018-02-12T15:43:39Z</time>
      </trkpt>
      <trkpt lat="45.90096" lon="4.70089">
        <ele>224</ele>
        <time>2018-02-12T15:43:41Z</time>
      </trkpt>
      <trkpt lat="45.901" lon="4.70088">
        <ele>223</ele>
        <time>2018-02-12T15:43:42Z</time>
      </trkpt>
      <trkpt lat="45.90108" lon="4.70086">
        <ele>223</ele>
        <time>2018-02-12T15:43:44Z</time>
      </trkpt>
      <trkpt lat="45.90113" lon="4.70085">
        <ele>223</ele>
        <time>2018-02-12T15:43:45Z</time>
      </trkpt>
      <trkpt lat="45.90121" lon="4.70083">
        <ele>226</ele>
        <time>2018-02-12T15:43:47Z</time>
      </trkpt>
      <trkpt lat="45.90125" lon="4.70082">
        <ele>226</ele>
        <time>2018-02-12T15:43:48Z</time>
      </trkpt>
      <trkpt lat="45.90134" lon="4.7008">
        <ele>226</ele>
        <time>2018-02-12T15:43:50Z</time>
      </trkpt>
      <trkpt lat="45.90139" lon="4.7008">
        <ele>226</ele>
        <time>2018-02-12T15:43:51Z</time>
      </trkpt>
      <trkpt lat="45.90147" lon="4.70079">
        <ele>226</ele>
        <time>2018-02-12T15:43:53Z</time>
      </trkpt>
      <trkpt lat="45.90151" lon="4.70078">
        <ele>226</ele>
        <time>2018-02-12T15:43:54Z</time>
      </trkpt>
      <trkpt lat="45.90159" lon="4.70077">
        <ele>226</ele>
        <time>2018-02-12T15:43:56Z</time>
      </trkpt>
      <trkpt lat="45.90163" lon="4.70076">
        <ele>226</ele>
        <time>2018-02-12T15:43:57Z</time>
      </trkpt>
      <trkpt lat="45.90171" lon="4.70075">
        <ele>225</ele>
        <time>2018-02-12T15:43:59Z</time>
      </trkpt>
      <trkpt lat="45.90175" lon="4.70074">
        <ele>225</ele>
        <time>2018-02-12T15:44:00Z</time>
      </trkpt>
      <trkpt lat="45.90183" lon="4.70072">
        <ele>226</ele>
        <time>2018-02-12T15:44:02Z</time>
      </trkpt>
      <trkpt lat="45.90187" lon="4.70071">
        <ele>226</ele>
        <time>2018-02-12T15:44:03Z</time>
      </trkpt>
      <trkpt lat="45.90195" lon="4.70069">
        <ele>226</ele>
        <time>2018-02-12T15:44:05Z</time>
      </trkpt>
      <trkpt lat="45.902" lon="4.70068">
        <ele>226</ele>
        <time>2018-02-12T15:44:06Z</time>
      </trkpt>
      <trkpt lat="45.90208" lon="4.70067">
        <ele>226</ele>
        <time>2018-02-12T15:44:08Z</time>
      </trkpt>
      <trkpt lat="45.90212" lon="4.70066">
        <ele>226</ele>
        <time>2018-02-12T15:44:09Z</time>
      </trkpt>
      <trkpt lat="45.9022" lon="4.70065">
        <ele>225</ele>
        <time>2018-02-12T15:44:11Z</time>
      </trkpt>
      <trkpt lat="45.90224" lon="4.70064">
        <ele>225</ele>
        <time>2018-02-12T15:44:12Z</time>
      </trkpt>
      <trkpt lat="45.90233" lon="4.70063">
        <ele>225</ele>
        <time>2018-02-12T15:44:14Z</time>
      </trkpt>
      <trkpt lat="45.90237" lon="4.70062">
        <ele>225</ele>
        <time>2018-02-12T15:44:15Z</time>
      </trkpt>
      <trkpt lat="45.90246" lon="4.70061">
        <ele>225</ele>
        <time>2018-02-12T15:44:17Z</time>
      </trkpt>
      <trkpt lat="45.9025" lon="4.70061">
        <ele>224</ele>
        <time>2018-02-12T15:44:18Z</time>
      </trkpt>
      <trkpt lat="45.90258" lon="4.7006">
        <ele>224</ele>
        <time>2018-02-12T15:44:20Z</time>
      </trkpt>
      <trkpt lat="45.90262" lon="4.70061">
        <ele>224</ele>
        <time>2018-02-12T15:44:21Z</time>
      </trkpt>
      <trkpt lat="45.9027" lon="4.7006">
        <ele>224</ele>
        <time>2018-02-12T15:44:23Z</time>
      </trkpt>
      <trkpt lat="45.90274" lon="4.70059">
        <ele>224</ele>
        <time>2018-02-12T15:44:24Z</time>
      </trkpt>
      <trkpt lat="45.90282" lon="4.70058">
        <ele>224</ele>
        <time>2018-02-12T15:44:26Z</time>
      </trkpt>
      <trkpt lat="45.90286" lon="4.70057">
        <ele>224</ele>
        <time>2018-02-12T15:44:27Z</time>
      </trkpt>
      <trkpt lat="45.90294" lon="4.70055">
        <ele>224</ele>
        <time>2018-02-12T15:44:29Z</time>
      </trkpt>
      <trkpt lat="45.90298" lon="4.70054">
        <ele>224</ele>
        <time>2018-02-12T15:44:30Z</time>
      </trkpt>
      <trkpt lat="45.90306" lon="4.70054">
        <ele>224</ele>
        <time>2018-02-12T15:44:32Z</time>
      </trkpt>
      <trkpt lat="45.9031" lon="4.70053">
        <ele>224</ele>
        <time>2018-02-12T15:44:33Z</time>
      </trkpt>
      <trkpt lat="45.90318" lon="4.70051">
        <ele>224</ele>
        <time>2018-02-12T15:44:35Z</time>
      </trkpt>
      <trkpt lat="45.90322" lon="4.70051">
        <ele>224</ele>
        <time>2018-02-12T15:44:36Z</time>
      </trkpt>
      <trkpt lat="45.90329" lon="4.70049">
        <ele>224</ele>
        <time>2018-02-12T15:44:38Z</time>
      </trkpt>
      <trkpt lat="45.90333" lon="4.70048">
        <ele>224</ele>
        <time>2018-02-12T15:44:39Z</time>
      </trkpt>
      <trkpt lat="45.90341" lon="4.70047">
        <ele>224</ele>
        <time>2018-02-12T15:44:41Z</time>
      </trkpt>
      <trkpt lat="45.90345" lon="4.70046">
        <ele>224</ele>
        <time>2018-02-12T15:44:42Z</time>
      </trkpt>
      <trkpt lat="45.90353" lon="4.70045">
        <ele>224</ele>
        <time>2018-02-12T15:44:44Z</time>
      </trkpt>
      <trkpt lat="45.90358" lon="4.70044">
        <ele>224</ele>
        <time>2018-02-12T15:44:45Z</time>
      </trkpt>
      <trkpt lat="45.90366" lon="4.70043">
        <ele>224</ele>
        <time>2018-02-12T15:44:47Z</time>
      </trkpt>
      <trkpt lat="45.9037" lon="4.70042">
        <ele>224</ele>
        <time>2018-02-12T15:44:48Z</time>
      </trkpt>
      <trkpt lat="45.90379" lon="4.7004">
        <ele>224</ele>
        <time>2018-02-12T15:44:50Z</time>
      </trkpt>
      <trkpt lat="45.90383" lon="4.7004">
        <ele>224</ele>
        <time>2018-02-12T15:44:51Z</time>
      </trkpt>
      <trkpt lat="45.90392" lon="4.70039">
        <ele>225</ele>
        <time>2018-02-12T15:44:53Z</time>
      </trkpt>
      <trkpt lat="45.90397" lon="4.70038">
        <ele>225</ele>
        <time>2018-02-12T15:44:54Z</time>
      </trkpt>
      <trkpt lat="45.90401" lon="4.70038">
        <ele>225</ele>
        <time>2018-02-12T15:44:55Z</time>
      </trkpt>
      <trkpt lat="45.90406" lon="4.70038">
        <ele>225</ele>
        <time>2018-02-12T15:44:56Z</time>
      </trkpt>
      <trkpt lat="45.90415" lon="4.70036">
        <ele>225</ele>
        <time>2018-02-12T15:44:58Z</time>
      </trkpt>
      <trkpt lat="45.90419" lon="4.70035">
        <ele>225</ele>
        <time>2018-02-12T15:44:59Z</time>
      </trkpt>
      <trkpt lat="45.90427" lon="4.70034">
        <ele>225</ele>
        <time>2018-02-12T15:45:01Z</time>
      </trkpt>
      <trkpt lat="45.90431" lon="4.70033">
        <ele>225</ele>
        <time>2018-02-12T15:45:02Z</time>
      </trkpt>
      <trkpt lat="45.90439" lon="4.70033">
        <ele>225</ele>
        <time>2018-02-12T15:45:04Z</time>
      </trkpt>
      <trkpt lat="45.90443" lon="4.70033">
        <ele>225</ele>
        <time>2018-02-12T15:45:05Z</time>
      </trkpt>
      <trkpt lat="45.90451" lon="4.70034">
        <ele>225</ele>
        <time>2018-02-12T15:45:07Z</time>
      </trkpt>
      <trkpt lat="45.90456" lon="4.70035">
        <ele>225</ele>
        <time>2018-02-12T15:45:08Z</time>
      </trkpt>
      <trkpt lat="45.90464" lon="4.70035">
        <ele>225</ele>
        <time>2018-02-12T15:45:10Z</time>
      </trkpt>
      <trkpt lat="45.90469" lon="4.70036">
        <ele>225</ele>
        <time>2018-02-12T15:45:11Z</time>
      </trkpt>
      <trkpt lat="45.90473" lon="4.70036">
        <ele>225</ele>
        <time>2018-02-12T15:45:12Z</time>
      </trkpt>
      <trkpt lat="45.90478" lon="4.70037">
        <ele>225</ele>
        <time>2018-02-12T15:45:13Z</time>
      </trkpt>
      <trkpt lat="45.90482" lon="4.70038">
        <ele>225</ele>
        <time>2018-02-12T15:45:14Z</time>
      </trkpt>
      <trkpt lat="45.90487" lon="4.70038">
        <ele>225</ele>
        <time>2018-02-12T15:45:15Z</time>
      </trkpt>
      <trkpt lat="45.90492" lon="4.70039">
        <ele>224</ele>
        <time>2018-02-12T15:45:16Z</time>
      </trkpt>
      <trkpt lat="45.90497" lon="4.70041">
        <ele>224</ele>
        <time>2018-02-12T15:45:17Z</time>
      </trkpt>
      <trkpt lat="45.90501" lon="4.70042">
        <ele>224</ele>
        <time>2018-02-12T15:45:18Z</time>
      </trkpt>
      <trkpt lat="45.90506" lon="4.70042">
        <ele>224</ele>
        <time>2018-02-12T15:45:19Z</time>
      </trkpt>
      <trkpt lat="45.90511" lon="4.70043">
        <ele>224</ele>
        <time>2018-02-12T15:45:20Z</time>
      </trkpt>
      <trkpt lat="45.90516" lon="4.70044">
        <ele>224</ele>
        <time>2018-02-12T15:45:21Z</time>
      </trkpt>
      <trkpt lat="45.90521" lon="4.70045">
        <ele>224</ele>
        <time>2018-02-12T15:45:22Z</time>
      </trkpt>
      <trkpt lat="45.90526" lon="4.70046">
        <ele>224</ele>
        <time>2018-02-12T15:45:23Z</time>
      </trkpt>
      <trkpt lat="45.90532" lon="4.70048">
        <ele>224</ele>
        <time>2018-02-12T15:45:24Z</time>
      </trkpt>
      <trkpt lat="45.90537" lon="4.70049">
        <ele>224</ele>
        <time>2018-02-12T15:45:25Z</time>
      </trkpt>
      <trkpt lat="45.90542" lon="4.70051">
        <ele>224</ele>
        <time>2018-02-12T15:45:26Z</time>
      </trkpt>
      <trkpt lat="45.90547" lon="4.70053">
        <ele>224</ele>
        <time>2018-02-12T15:45:27Z</time>
      </trkpt>
      <trkpt lat="45.90552" lon="4.70055">
        <ele>223</ele>
        <time>2018-02-12T15:45:28Z</time>
      </trkpt>
      <trkpt lat="45.90557" lon="4.70057">
        <ele>223</ele>
        <time>2018-02-12T15:45:29Z</time>
      </trkpt>
      <trkpt lat="45.90562" lon="4.70059">
        <ele>223</ele>
        <time>2018-02-12T15:45:30Z</time>
      </trkpt>
      <trkpt lat="45.90567" lon="4.70061">
        <ele>223</ele>
        <time>2018-02-12T15:45:31Z</time>
      </trkpt>
      <trkpt lat="45.90572" lon="4.70064">
        <ele>223</ele>
        <time>2018-02-12T15:45:32Z</time>
      </trkpt>
      <trkpt lat="45.90576" lon="4.70067">
        <ele>223</ele>
        <time>2018-02-12T15:45:33Z</time>
      </trkpt>
      <trkpt lat="45.90581" lon="4.70069">
        <ele>222</ele>
        <time>2018-02-12T15:45:34Z</time>
      </trkpt>
      <trkpt lat="45.90586" lon="4.70072">
        <ele>222</ele>
        <time>2018-02-12T15:45:35Z</time>
      </trkpt>
      <trkpt lat="45.90591" lon="4.70075">
        <ele>222</ele>
        <time>2018-02-12T15:45:36Z</time>
      </trkpt>
      <trkpt lat="45.90595" lon="4.70077">
        <ele>223</ele>
        <time>2018-02-12T15:45:37Z</time>
      </trkpt>
      <trkpt lat="45.906" lon="4.7008">
        <ele>223</ele>
        <time>2018-02-12T15:45:38Z</time>
      </trkpt>
      <trkpt lat="45.90605" lon="4.70083">
        <ele>223</ele>
        <time>2018-02-12T15:45:39Z</time>
      </trkpt>
      <trkpt lat="45.9061" lon="4.70086">
        <ele>221</ele>
        <time>2018-02-12T15:45:40Z</time>
      </trkpt>
      <trkpt lat="45.90615" lon="4.70088">
        <ele>221</ele>
        <time>2018-02-12T15:45:41Z</time>
      </trkpt>
      <trkpt lat="45.9062" lon="4.70091">
        <ele>221</ele>
        <time>2018-02-12T15:45:42Z</time>
      </trkpt>
      <trkpt lat="45.90626" lon="4.70094">
        <ele>221</ele>
        <time>2018-02-12T15:45:43Z</time>
      </trkpt>
      <trkpt lat="45.9063" lon="4.70096">
        <ele>221</ele>
        <time>2018-02-12T15:45:44Z</time>
      </trkpt>
      <trkpt lat="45.90636" lon="4.701">
        <ele>221</ele>
        <time>2018-02-12T15:45:45Z</time>
      </trkpt>
      <trkpt lat="45.90642" lon="4.70103">
        <ele>221</ele>
        <time>2018-02-12T15:45:46Z</time>
      </trkpt>
      <trkpt lat="45.90647" lon="4.70107">
        <ele>221</ele>
        <time>2018-02-12T15:45:47Z</time>
      </trkpt>
      <trkpt lat="45.90653" lon="4.7011">
        <ele>221</ele>
        <time>2018-02-12T15:45:48Z</time>
      </trkpt>
      <trkpt lat="45.90658" lon="4.70112">
        <ele>221</ele>
        <time>2018-02-12T15:45:49Z</time>
      </trkpt>
      <trkpt lat="45.90663" lon="4.70115">
        <ele>221</ele>
        <time>2018-02-12T15:45:50Z</time>
      </trkpt>
      <trkpt lat="45.90668" lon="4.70118">
        <ele>222</ele>
        <time>2018-02-12T15:45:51Z</time>
      </trkpt>
      <trkpt lat="45.90673" lon="4.70122">
        <ele>221</ele>
        <time>2018-02-12T15:45:52Z</time>
      </trkpt>
      <trkpt lat="45.90676" lon="4.70125">
        <ele>221</ele>
        <time>2018-02-12T15:45:53Z</time>
      </trkpt>
      <trkpt lat="45.90681" lon="4.7013">
        <ele>221</ele>
        <time>2018-02-12T15:45:54Z</time>
      </trkpt>
      <trkpt lat="45.90685" lon="4.70135">
        <ele>221</ele>
        <time>2018-02-12T15:45:55Z</time>
      </trkpt>
      <trkpt lat="45.90689" lon="4.70139">
        <ele>221</ele>
        <time>2018-02-12T15:45:56Z</time>
      </trkpt>
      <trkpt lat="45.90694" lon="4.70145">
        <ele>220</ele>
        <time>2018-02-12T15:45:57Z</time>
      </trkpt>
      <trkpt lat="45.907" lon="4.70149">
        <ele>220</ele>
        <time>2018-02-12T15:45:58Z</time>
      </trkpt>
      <trkpt lat="45.90706" lon="4.70149">
        <ele>220</ele>
        <time>2018-02-12T15:45:59Z</time>
      </trkpt>
      <trkpt lat="45.90712" lon="4.70148">
        <ele>220</ele>
        <time>2018-02-12T15:46:00Z</time>
      </trkpt>
      <trkpt lat="45.90718" lon="4.70145">
        <ele>220</ele>
        <time>2018-02-12T15:46:01Z</time>
      </trkpt>
      <trkpt lat="45.90723" lon="4.70145">
        <ele>220</ele>
        <time>2018-02-12T15:46:02Z</time>
      </trkpt>
      <trkpt lat="45.90729" lon="4.70146">
        <ele>220</ele>
        <time>2018-02-12T15:46:03Z</time>
      </trkpt>
      <trkpt lat="45.90735" lon="4.70147">
        <ele>220</ele>
        <time>2018-02-12T15:46:04Z</time>
      </trkpt>
      <trkpt lat="45.90741" lon="4.70147">
        <ele>220</ele>
        <time>2018-02-12T15:46:05Z</time>
      </trkpt>
      <trkpt lat="45.90747" lon="4.70148">
        <ele>220</ele>
        <time>2018-02-12T15:46:06Z</time>
      </trkpt>
      <trkpt lat="45.90752" lon="4.70148">
        <ele>219</ele>
        <time>2018-02-12T15:46:07Z</time>
      </trkpt>
      <trkpt lat="45.90758" lon="4.70147">
        <ele>219</ele>
        <time>2018-02-12T15:46:08Z</time>
      </trkpt>
      <trkpt lat="45.90764" lon="4.70147">
        <ele>219</ele>
        <time>2018-02-12T15:46:09Z</time>
      </trkpt>
      <trkpt lat="45.9077" lon="4.70146">
        <ele>219</ele>
        <time>2018-02-12T15:46:10Z</time>
      </trkpt>
      <trkpt lat="45.90777" lon="4.70147">
        <ele>219</ele>
        <time>2018-02-12T15:46:11Z</time>
      </trkpt>
      <trkpt lat="45.90782" lon="4.70147">
        <ele>219</ele>
        <time>2018-02-12T15:46:12Z</time>
      </trkpt>
      <trkpt lat="45.90788" lon="4.70147">
        <ele>219</ele>
        <time>2018-02-12T15:46:13Z</time>
      </trkpt>
      <trkpt lat="45.90792" lon="4.70145">
        <ele>219</ele>
        <time>2018-02-12T15:46:14Z</time>
      </trkpt>
      <trkpt lat="45.90798" lon="4.70145">
        <ele>219</ele>
        <time>2018-02-12T15:46:15Z</time>
      </trkpt>
      <trkpt lat="45.90803" lon="4.70145">
        <ele>219</ele>
        <time>2018-02-12T15:46:16Z</time>
      </trkpt>
      <trkpt lat="45.90809" lon="4.70144">
        <ele>219</ele>
        <time>2018-02-12T15:46:17Z</time>
      </trkpt>
      <trkpt lat="45.90815" lon="4.70144">
        <ele>218</ele>
        <time>2018-02-12T15:46:18Z</time>
      </trkpt>
      <trkpt lat="45.9082" lon="4.70144">
        <ele>218</ele>
        <time>2018-02-12T15:46:19Z</time>
      </trkpt>
      <trkpt lat="45.90825" lon="4.70143">
        <ele>218</ele>
        <time>2018-02-12T15:46:20Z</time>
      </trkpt>
      <trkpt lat="45.9083" lon="4.70143">
        <ele>218</ele>
        <time>2018-02-12T15:46:21Z</time>
      </trkpt>
      <trkpt lat="45.90836" lon="4.70142">
        <ele>218</ele>
        <time>2018-02-12T15:46:22Z</time>
      </trkpt>
      <trkpt lat="45.90841" lon="4.70141">
        <ele>218</ele>
        <time>2018-02-12T15:46:23Z</time>
      </trkpt>
      <trkpt lat="45.90847" lon="4.70141">
        <ele>218</ele>
        <time>2018-02-12T15:46:24Z</time>
      </trkpt>
      <trkpt lat="45.90852" lon="4.7014">
        <ele>218</ele>
        <time>2018-02-12T15:46:25Z</time>
      </trkpt>
      <trkpt lat="45.90858" lon="4.7014">
        <ele>218</ele>
        <time>2018-02-12T15:46:26Z</time>
      </trkpt>
      <trkpt lat="45.90863" lon="4.70139">
        <ele>218</ele>
        <time>2018-02-12T15:46:27Z</time>
      </trkpt>
      <trkpt lat="45.90869" lon="4.70139">
        <ele>218</ele>
        <time>2018-02-12T15:46:28Z</time>
      </trkpt>
      <trkpt lat="45.90874" lon="4.70139">
        <ele>218</ele>
        <time>2018-02-12T15:46:29Z</time>
      </trkpt>
      <trkpt lat="45.90879" lon="4.70138">
        <ele>218</ele>
        <time>2018-02-12T15:46:30Z</time>
      </trkpt>
      <trkpt lat="45.90885" lon="4.70139">
        <ele>218</ele>
        <time>2018-02-12T15:46:31Z</time>
      </trkpt>
      <trkpt lat="45.90891" lon="4.70138">
        <ele>218</ele>
        <time>2018-02-12T15:46:32Z</time>
      </trkpt>
      <trkpt lat="45.90898" lon="4.70139">
        <ele>218</ele>
        <time>2018-02-12T15:46:33Z</time>
      </trkpt>
      <trkpt lat="45.90903" lon="4.70138">
        <ele>218</ele>
        <time>2018-02-12T15:46:34Z</time>
      </trkpt>
      <trkpt lat="45.90909" lon="4.70136">
        <ele>218</ele>
        <time>2018-02-12T15:46:35Z</time>
      </trkpt>
      <trkpt lat="45.90915" lon="4.70136">
        <ele>218</ele>
        <time>2018-02-12T15:46:36Z</time>
      </trkpt>
      <trkpt lat="45.90921" lon="4.70135">
        <ele>218</ele>
        <time>2018-02-12T15:46:37Z</time>
      </trkpt>
      <trkpt lat="45.90927" lon="4.70136">
        <ele>218</ele>
        <time>2018-02-12T15:46:38Z</time>
      </trkpt>
      <trkpt lat="45.90933" lon="4.70136">
        <ele>218</ele>
        <time>2018-02-12T15:46:39Z</time>
      </trkpt>
      <trkpt lat="45.90939" lon="4.70135">
        <ele>219</ele>
        <time>2018-02-12T15:46:40Z</time>
      </trkpt>
      <trkpt lat="45.90945" lon="4.70135">
        <ele>219</ele>
        <time>2018-02-12T15:46:41Z</time>
      </trkpt>
      <trkpt lat="45.90951" lon="4.70137">
        <ele>219</ele>
        <time>2018-02-12T15:46:42Z</time>
      </trkpt>
      <trkpt lat="45.90957" lon="4.70138">
        <ele>219</ele>
        <time>2018-02-12T15:46:43Z</time>
      </trkpt>
      <trkpt lat="45.90964" lon="4.70141">
        <ele>218</ele>
        <time>2018-02-12T15:46:44Z</time>
      </trkpt>
      <trkpt lat="45.90969" lon="4.70143">
        <ele>218</ele>
        <time>2018-02-12T15:46:45Z</time>
      </trkpt>
      <trkpt lat="45.90975" lon="4.70146">
        <ele>218</ele>
        <time>2018-02-12T15:46:46Z</time>
      </trkpt>
      <trkpt lat="45.90982" lon="4.70148">
        <ele>218</ele>
        <time>2018-02-12T15:46:47Z</time>
      </trkpt>
      <trkpt lat="45.90988" lon="4.7015">
        <ele>218</ele>
        <time>2018-02-12T15:46:48Z</time>
      </trkpt>
      <trkpt lat="45.90994" lon="4.70152">
        <ele>217</ele>
        <time>2018-02-12T15:46:49Z</time>
      </trkpt>
      <trkpt lat="45.90999" lon="4.70154">
        <ele>217</ele>
        <time>2018-02-12T15:46:50Z</time>
      </trkpt>
      <trkpt lat="45.91005" lon="4.70156">
        <ele>217</ele>
        <time>2018-02-12T15:46:51Z</time>
      </trkpt>
      <trkpt lat="45.91011" lon="4.70157">
        <ele>217</ele>
        <time>2018-02-12T15:46:52Z</time>
      </trkpt>
      <trkpt lat="45.91016" lon="4.70158">
        <ele>218</ele>
        <time>2018-02-12T15:46:53Z</time>
      </trkpt>
      <trkpt lat="45.91022" lon="4.70159">
        <ele>218</ele>
        <time>2018-02-12T15:46:54Z</time>
      </trkpt>
      <trkpt lat="45.91027" lon="4.7016">
        <ele>218</ele>
        <time>2018-02-12T15:46:55Z</time>
      </trkpt>
      <trkpt lat="45.91032" lon="4.70161">
        <ele>218</ele>
        <time>2018-02-12T15:46:56Z</time>
      </trkpt>
      <trkpt lat="45.91037" lon="4.70163">
        <ele>218</ele>
        <time>2018-02-12T15:46:57Z</time>
      </trkpt>
      <trkpt lat="45.91043" lon="4.70164">
        <ele>218</ele>
        <time>2018-02-12T15:46:58Z</time>
      </trkpt>
      <trkpt lat="45.91048" lon="4.70165">
        <ele>218</ele>
        <time>2018-02-12T15:46:59Z</time>
      </trkpt>
      <trkpt lat="45.91054" lon="4.70168">
        <ele>216</ele>
        <time>2018-02-12T15:47:00Z</time>
      </trkpt>
      <trkpt lat="45.9106" lon="4.70169">
        <ele>216</ele>
        <time>2018-02-12T15:47:01Z</time>
      </trkpt>
      <trkpt lat="45.91066" lon="4.70171">
        <ele>216</ele>
        <time>2018-02-12T15:47:02Z</time>
      </trkpt>
      <trkpt lat="45.91072" lon="4.70173">
        <ele>216</ele>
        <time>2018-02-12T15:47:03Z</time>
      </trkpt>
      <trkpt lat="45.91079" lon="4.70175">
        <ele>216</ele>
        <time>2018-02-12T15:47:04Z</time>
      </trkpt>
      <trkpt lat="45.91085" lon="4.70179">
        <ele>216</ele>
        <time>2018-02-12T15:47:05Z</time>
      </trkpt>
      <trkpt lat="45.9109" lon="4.70181">
        <ele>216</ele>
        <time>2018-02-12T15:47:06Z</time>
      </trkpt>
      <trkpt lat="45.91096" lon="4.70183">
        <ele>216</ele>
        <time>2018-02-12T15:47:07Z</time>
      </trkpt>
      <trkpt lat="45.91102" lon="4.70184">
        <ele>215</ele>
        <time>2018-02-12T15:47:08Z</time>
      </trkpt>
      <trkpt lat="45.91107" lon="4.70187">
        <ele>215</ele>
        <time>2018-02-12T15:47:09Z</time>
      </trkpt>
      <trkpt lat="45.91113" lon="4.70188">
        <ele>215</ele>
        <time>2018-02-12T15:47:10Z</time>
      </trkpt>
      <trkpt lat="45.91119" lon="4.70189">
        <ele>215</ele>
        <time>2018-02-12T15:47:11Z</time>
      </trkpt>
      <trkpt lat="45.91124" lon="4.70191">
        <ele>215</ele>
        <time>2018-02-12T15:47:12Z</time>
      </trkpt>
      <trkpt lat="45.9113" lon="4.70192">
        <ele>215</ele>
        <time>2018-02-12T15:47:13Z</time>
      </trkpt>
      <trkpt lat="45.91136" lon="4.70194">
        <ele>215</ele>
        <time>2018-02-12T15:47:14Z</time>
      </trkpt>
      <trkpt lat="45.91141" lon="4.70196">
        <ele>215</ele>
        <time>2018-02-12T15:47:15Z</time>
      </trkpt>
      <trkpt lat="45.91147" lon="4.70198">
        <ele>215</ele>
        <time>2018-02-12T15:47:16Z</time>
      </trkpt>
      <trkpt lat="45.91152" lon="4.702">
        <ele>215</ele>
        <time>2018-02-12T15:47:17Z</time>
      </trkpt>
      <trkpt lat="45.91158" lon="4.70203">
        <ele>215</ele>
        <time>2018-02-12T15:47:18Z</time>
      </trkpt>
      <trkpt lat="45.91163" lon="4.70204">
        <ele>215</ele>
        <time>2018-02-12T15:47:19Z</time>
      </trkpt>
      <trkpt lat="45.91169" lon="4.70206">
        <ele>214</ele>
        <time>2018-02-12T15:47:20Z</time>
      </trkpt>
      <trkpt lat="45.91174" lon="4.70208">
        <ele>214</ele>
        <time>2018-02-12T15:47:21Z</time>
      </trkpt>
      <trkpt lat="45.9118" lon="4.70211">
        <ele>214</ele>
        <time>2018-02-12T15:47:22Z</time>
      </trkpt>
      <trkpt lat="45.91185" lon="4.70212">
        <ele>214</ele>
        <time>2018-02-12T15:47:23Z</time>
      </trkpt>
      <trkpt lat="45.91192" lon="4.70214">
        <ele>214</ele>
        <time>2018-02-12T15:47:24Z</time>
      </trkpt>
      <trkpt lat="45.91198" lon="4.70216">
        <ele>214</ele>
        <time>2018-02-12T15:47:25Z</time>
      </trkpt>
      <trkpt lat="45.91205" lon="4.70218">
        <ele>214</ele>
        <time>2018-02-12T15:47:26Z</time>
      </trkpt>
      <trkpt lat="45.91211" lon="4.7022">
        <ele>214</ele>
        <time>2018-02-12T15:47:27Z</time>
      </trkpt>
      <trkpt lat="45.91217" lon="4.70223">
        <ele>213</ele>
        <time>2018-02-12T15:47:28Z</time>
      </trkpt>
      <trkpt lat="45.91224" lon="4.70224">
        <ele>213</ele>
        <time>2018-02-12T15:47:29Z</time>
      </trkpt>
      <trkpt lat="45.91229" lon="4.70226">
        <ele>213</ele>
        <time>2018-02-12T15:47:30Z</time>
      </trkpt>
      <trkpt lat="45.91235" lon="4.70228">
        <ele>213</ele>
        <time>2018-02-12T15:47:31Z</time>
      </trkpt>
      <trkpt lat="45.91241" lon="4.70229">
        <ele>213</ele>
        <time>2018-02-12T15:47:32Z</time>
      </trkpt>
      <trkpt lat="45.91247" lon="4.70232">
        <ele>213</ele>
        <time>2018-02-12T15:47:33Z</time>
      </trkpt>
      <trkpt lat="45.91253" lon="4.70234">
        <ele>213</ele>
        <time>2018-02-12T15:47:34Z</time>
      </trkpt>
      <trkpt lat="45.91259" lon="4.70236">
        <ele>213</ele>
        <time>2018-02-12T15:47:35Z</time>
      </trkpt>
      <trkpt lat="45.91265" lon="4.70238">
        <ele>213</ele>
        <time>2018-02-12T15:47:36Z</time>
      </trkpt>
      <trkpt lat="45.9127" lon="4.7024">
        <ele>213</ele>
        <time>2018-02-12T15:47:37Z</time>
      </trkpt>
      <trkpt lat="45.91276" lon="4.70243">
        <ele>213</ele>
        <time>2018-02-12T15:47:38Z</time>
      </trkpt>
      <trkpt lat="45.91281" lon="4.70244">
        <ele>213</ele>
        <time>2018-02-12T15:47:39Z</time>
      </trkpt>
      <trkpt lat="45.91287" lon="4.70246">
        <ele>213</ele>
        <time>2018-02-12T15:47:40Z</time>
      </trkpt>
      <trkpt lat="45.91293" lon="4.70249">
        <ele>214</ele>
        <time>2018-02-12T15:47:41Z</time>
      </trkpt>
      <trkpt lat="45.913" lon="4.70253">
        <ele>210</ele>
        <time>2018-02-12T15:47:42Z</time>
      </trkpt>
      <trkpt lat="45.91307" lon="4.70256">
        <ele>210</ele>
        <time>2018-02-12T15:47:43Z</time>
      </trkpt>
      <trkpt lat="45.91312" lon="4.70261">
        <ele>210</ele>
        <time>2018-02-12T15:47:44Z</time>
      </trkpt>
      <trkpt lat="45.91318" lon="4.70263">
        <ele>210</ele>
        <time>2018-02-12T15:47:45Z</time>
      </trkpt>
      <trkpt lat="45.91324" lon="4.70267">
        <ele>210</ele>
        <time>2018-02-12T15:47:46Z</time>
      </trkpt>
      <trkpt lat="45.91329" lon="4.7027">
        <ele>210</ele>
        <time>2018-02-12T15:47:47Z</time>
      </trkpt>
      <trkpt lat="45.91334" lon="4.70275">
        <ele>210</ele>
        <time>2018-02-12T15:47:48Z</time>
      </trkpt>
      <trkpt lat="45.91339" lon="4.70279">
        <ele>210</ele>
        <time>2018-02-12T15:47:49Z</time>
      </trkpt>
      <trkpt lat="45.91344" lon="4.70284">
        <ele>210</ele>
        <time>2018-02-12T15:47:50Z</time>
      </trkpt>
      <trkpt lat="45.9135" lon="4.70287">
        <ele>210</ele>
        <time>2018-02-12T15:47:51Z</time>
      </trkpt>
      <trkpt lat="45.91355" lon="4.70292">
        <ele>209</ele>
        <time>2018-02-12T15:47:52Z</time>
      </trkpt>
      <trkpt lat="45.9136" lon="4.70296">
        <ele>209</ele>
        <time>2018-02-12T15:47:53Z</time>
      </trkpt>
      <trkpt lat="45.91366" lon="4.703">
        <ele>209</ele>
        <time>2018-02-12T15:47:54Z</time>
      </trkpt>
      <trkpt lat="45.91371" lon="4.70304">
        <ele>209</ele>
        <time>2018-02-12T15:47:55Z</time>
      </trkpt>
      <trkpt lat="45.91376" lon="4.70309">
        <ele>209</ele>
        <time>2018-02-12T15:47:56Z</time>
      </trkpt>
      <trkpt lat="45.91381" lon="4.70312">
        <ele>209</ele>
        <time>2018-02-12T15:47:57Z</time>
      </trkpt>
      <trkpt lat="45.91385" lon="4.70316">
        <ele>209</ele>
        <time>2018-02-12T15:47:58Z</time>
      </trkpt>
      <trkpt lat="45.9139" lon="4.7032">
        <ele>209</ele>
        <time>2018-02-12T15:47:59Z</time>
      </trkpt>
      <trkpt lat="45.91396" lon="4.70323">
        <ele>209</ele>
        <time>2018-02-12T15:48:00Z</time>
      </trkpt>
      <trkpt lat="45.914" lon="4.70327">
        <ele>209</ele>
        <time>2018-02-12T15:48:01Z</time>
      </trkpt>
      <trkpt lat="45.91406" lon="4.70332">
        <ele>208</ele>
        <time>2018-02-12T15:48:02Z</time>
      </trkpt>
      <trkpt lat="45.91412" lon="4.70335">
        <ele>208</ele>
        <time>2018-02-12T15:48:03Z</time>
      </trkpt>
      <trkpt lat="45.91418" lon="4.7034">
        <ele>208</ele>
        <time>2018-02-12T15:48:04Z</time>
      </trkpt>
      <trkpt lat="45.91422" lon="4.70345">
        <ele>207</ele>
        <time>2018-02-12T15:48:05Z</time>
      </trkpt>
      <trkpt lat="45.91429" lon="4.70349">
        <ele>207</ele>
        <time>2018-02-12T15:48:06Z</time>
      </trkpt>
      <trkpt lat="45.91434" lon="4.70352">
        <ele>207</ele>
        <time>2018-02-12T15:48:07Z</time>
      </trkpt>
      <trkpt lat="45.9144" lon="4.70356">
        <ele>207</ele>
        <time>2018-02-12T15:48:08Z</time>
      </trkpt>
      <trkpt lat="45.91445" lon="4.70361">
        <ele>206</ele>
        <time>2018-02-12T15:48:09Z</time>
      </trkpt>
      <trkpt lat="45.9145" lon="4.70365">
        <ele>206</ele>
        <time>2018-02-12T15:48:10Z</time>
      </trkpt>
      <trkpt lat="45.91456" lon="4.7037">
        <ele>206</ele>
        <time>2018-02-12T15:48:11Z</time>
      </trkpt>
      <trkpt lat="45.91462" lon="4.70375">
        <ele>206</ele>
        <time>2018-02-12T15:48:12Z</time>
      </trkpt>
      <trkpt lat="45.91468" lon="4.70379">
        <ele>206</ele>
        <time>2018-02-12T15:48:13Z</time>
      </trkpt>
      <trkpt lat="45.91474" lon="4.70383">
        <ele>206</ele>
        <time>2018-02-12T15:48:14Z</time>
      </trkpt>
      <trkpt lat="45.9148" lon="4.70386">
        <ele>206</ele>
        <time>2018-02-12T15:48:15Z</time>
      </trkpt>
      <trkpt lat="45.91486" lon="4.70391">
        <ele>205</ele>
        <time>2018-02-12T15:48:16Z</time>
      </trkpt>
      <trkpt lat="45.91492" lon="4.70395">
        <ele>205</ele>
        <time>2018-02-12T15:48:17Z</time>
      </trkpt>
      <trkpt lat="45.91497" lon="4.704">
        <ele>205</ele>
        <time>2018-02-12T15:48:18Z</time>
      </trkpt>
      <trkpt lat="45.91501" lon="4.70407">
        <ele>204</ele>
        <time>2018-02-12T15:48:19Z</time>
      </trkpt>
      <trkpt lat="45.91507" lon="4.70412">
        <ele>204</ele>
        <time>2018-02-12T15:48:20Z</time>
      </trkpt>
      <trkpt lat="45.91513" lon="4.70417">
        <ele>203</ele>
        <time>2018-02-12T15:48:21Z</time>
      </trkpt>
      <trkpt lat="45.91519" lon="4.70421">
        <ele>203</ele>
        <time>2018-02-12T15:48:22Z</time>
      </trkpt>
      <trkpt lat="45.91525" lon="4.70426">
        <ele>203</ele>
        <time>2018-02-12T15:48:23Z</time>
      </trkpt>
      <trkpt lat="45.91532" lon="4.70431">
        <ele>203</ele>
        <time>2018-02-12T15:48:24Z</time>
      </trkpt>
      <trkpt lat="45.91538" lon="4.70436">
        <ele>203</ele>
        <time>2018-02-12T15:48:25Z</time>
      </trkpt>
      <trkpt lat="45.91544" lon="4.70441">
        <ele>203</ele>
        <time>2018-02-12T15:48:26Z</time>
      </trkpt>
      <trkpt lat="45.9155" lon="4.70445">
        <ele>203</ele>
        <time>2018-02-12T15:48:27Z</time>
      </trkpt>
      <trkpt lat="45.91555" lon="4.7045">
        <ele>203</ele>
        <time>2018-02-12T15:48:28Z</time>
      </trkpt>
      <trkpt lat="45.91561" lon="4.70454">
        <ele>203</ele>
        <time>2018-02-12T15:48:29Z</time>
      </trkpt>
      <trkpt lat="45.91567" lon="4.70458">
        <ele>203</ele>
        <time>2018-02-12T15:48:30Z</time>
      </trkpt>
      <trkpt lat="45.91573" lon="4.70463">
        <ele>203</ele>
        <time>2018-02-12T15:48:31Z</time>
      </trkpt>
      <trkpt lat="45.91578" lon="4.70468">
        <ele>203</ele>
        <time>2018-02-12T15:48:32Z</time>
      </trkpt>
      <trkpt lat="45.91584" lon="4.70473">
        <ele>202</ele>
        <time>2018-02-12T15:48:33Z</time>
      </trkpt>
      <trkpt lat="45.91588" lon="4.70477">
        <ele>202</ele>
        <time>2018-02-12T15:48:34Z</time>
      </trkpt>
      <trkpt lat="45.91593" lon="4.70481">
        <ele>202</ele>
        <time>2018-02-12T15:48:35Z</time>
      </trkpt>
      <trkpt lat="45.91599" lon="4.70485">
        <ele>202</ele>
        <time>2018-02-12T15:48:36Z</time>
      </trkpt>
      <trkpt lat="45.91605" lon="4.7049">
        <ele>202</ele>
        <time>2018-02-12T15:48:37Z</time>
      </trkpt>
      <trkpt lat="45.9161" lon="4.70495">
        <ele>202</ele>
        <time>2018-02-12T15:48:38Z</time>
      </trkpt>
      <trkpt lat="45.91616" lon="4.70499">
        <ele>202</ele>
        <time>2018-02-12T15:48:39Z</time>
      </trkpt>
      <trkpt lat="45.91622" lon="4.70505">
        <ele>199</ele>
        <time>2018-02-12T15:48:40Z</time>
      </trkpt>
      <trkpt lat="45.91628" lon="4.7051">
        <ele>199</ele>
        <time>2018-02-12T15:48:41Z</time>
      </trkpt>
      <trkpt lat="45.91634" lon="4.70514">
        <ele>199</ele>
        <time>2018-02-12T15:48:42Z</time>
      </trkpt>
      <trkpt lat="45.91639" lon="4.70519">
        <ele>199</ele>
        <time>2018-02-12T15:48:43Z</time>
      </trkpt>
      <trkpt lat="45.91645" lon="4.70523">
        <ele>199</ele>
        <time>2018-02-12T15:48:44Z</time>
      </trkpt>
      <trkpt lat="45.9165" lon="4.70528">
        <ele>198</ele>
        <time>2018-02-12T15:48:45Z</time>
      </trkpt>
      <trkpt lat="45.91655" lon="4.70532">
        <ele>198</ele>
        <time>2018-02-12T15:48:46Z</time>
      </trkpt>
      <trkpt lat="45.9166" lon="4.70537">
        <ele>198</ele>
        <time>2018-02-12T15:48:47Z</time>
      </trkpt>
      <trkpt lat="45.91666" lon="4.70541">
        <ele>198</ele>
        <time>2018-02-12T15:48:48Z</time>
      </trkpt>
      <trkpt lat="45.91671" lon="4.70545">
        <ele>198</ele>
        <time>2018-02-12T15:48:49Z</time>
      </trkpt>
      <trkpt lat="45.91676" lon="4.70549">
        <ele>198</ele>
        <time>2018-02-12T15:48:50Z</time>
      </trkpt>
      <trkpt lat="45.91681" lon="4.70553">
        <ele>198</ele>
        <time>2018-02-12T15:48:51Z</time>
      </trkpt>
      <trkpt lat="45.91686" lon="4.70557">
        <ele>198</ele>
        <time>2018-02-12T15:48:52Z</time>
      </trkpt>
      <trkpt lat="45.91691" lon="4.7056">
        <ele>198</ele>
        <time>2018-02-12T15:48:53Z</time>
      </trkpt>
      <trkpt lat="45.91696" lon="4.70565">
        <ele>197</ele>
        <time>2018-02-12T15:48:54Z</time>
      </trkpt>
      <trkpt lat="45.917" lon="4.7057">
        <ele>197</ele>
        <time>2018-02-12T15:48:55Z</time>
      </trkpt>
      <trkpt lat="45.91704" lon="4.70576">
        <ele>197</ele>
        <time>2018-02-12T15:48:56Z</time>
      </trkpt>
      <trkpt lat="45.91707" lon="4.70582">
        <ele>197</ele>
        <time>2018-02-12T15:48:57Z</time>
      </trkpt>
      <trkpt lat="45.91711" lon="4.70588">
        <ele>196</ele>
        <time>2018-02-12T15:48:58Z</time>
      </trkpt>
      <trkpt lat="45.91715" lon="4.70594">
        <ele>195</ele>
        <time>2018-02-12T15:48:59Z</time>
      </trkpt>
      <trkpt lat="45.9172" lon="4.70595">
        <ele>195</ele>
        <time>2018-02-12T15:49:00Z</time>
      </trkpt>
      <trkpt lat="45.91726" lon="4.70595">
        <ele>195</ele>
        <time>2018-02-12T15:49:01Z</time>
      </trkpt>
      <trkpt lat="45.91731" lon="4.70594">
        <ele>196</ele>
        <time>2018-02-12T15:49:02Z</time>
      </trkpt>
      <trkpt lat="45.91736" lon="4.70594">
        <ele>196</ele>
        <time>2018-02-12T15:49:03Z</time>
      </trkpt>
      <trkpt lat="45.91741" lon="4.70596">
        <ele>196</ele>
        <time>2018-02-12T15:49:04Z</time>
      </trkpt>
      <trkpt lat="45.91746" lon="4.70598">
        <ele>196</ele>
        <time>2018-02-12T15:49:05Z</time>
      </trkpt>
      <trkpt lat="45.91751" lon="4.70601">
        <ele>195</ele>
        <time>2018-02-12T15:49:06Z</time>
      </trkpt>
      <trkpt lat="45.91756" lon="4.70605">
        <ele>195</ele>
        <time>2018-02-12T15:49:07Z</time>
      </trkpt>
      <trkpt lat="45.91761" lon="4.70607">
        <ele>195</ele>
        <time>2018-02-12T15:49:08Z</time>
      </trkpt>
      <trkpt lat="45.91766" lon="4.70609">
        <ele>195</ele>
        <time>2018-02-12T15:49:09Z</time>
      </trkpt>
      <trkpt lat="45.91771" lon="4.70612">
        <ele>195</ele>
        <time>2018-02-12T15:49:10Z</time>
      </trkpt>
      <trkpt lat="45.91777" lon="4.70613">
        <ele>195</ele>
        <time>2018-02-12T15:49:11Z</time>
      </trkpt>
      <trkpt lat="45.91783" lon="4.70615">
        <ele>194</ele>
        <time>2018-02-12T15:49:12Z</time>
      </trkpt>
      <trkpt lat="45.91789" lon="4.70616">
        <ele>194</ele>
        <time>2018-02-12T15:49:13Z</time>
      </trkpt>
      <trkpt lat="45.91794" lon="4.70616">
        <ele>194</ele>
        <time>2018-02-12T15:49:14Z</time>
      </trkpt>
      <trkpt lat="45.91801" lon="4.70617">
        <ele>194</ele>
        <time>2018-02-12T15:49:15Z</time>
      </trkpt>
      <trkpt lat="45.91808" lon="4.70618">
        <ele>194</ele>
        <time>2018-02-12T15:49:16Z</time>
      </trkpt>
      <trkpt lat="45.91815" lon="4.70619">
        <ele>194</ele>
        <time>2018-02-12T15:49:17Z</time>
      </trkpt>
      <trkpt lat="45.91821" lon="4.7062">
        <ele>194</ele>
        <time>2018-02-12T15:49:18Z</time>
      </trkpt>
      <trkpt lat="45.91827" lon="4.70621">
        <ele>194</ele>
        <time>2018-02-12T15:49:19Z</time>
      </trkpt>
      <trkpt lat="45.91832" lon="4.70623">
        <ele>194</ele>
        <time>2018-02-12T15:49:20Z</time>
      </trkpt>
      <trkpt lat="45.91839" lon="4.70622">
        <ele>194</ele>
        <time>2018-02-12T15:49:21Z</time>
      </trkpt>
      <trkpt lat="45.91845" lon="4.70622">
        <ele>194</ele>
        <time>2018-02-12T15:49:22Z</time>
      </trkpt>
      <trkpt lat="45.91851" lon="4.70622">
        <ele>194</ele>
        <time>2018-02-12T15:49:23Z</time>
      </trkpt>
      <trkpt lat="45.91857" lon="4.70621">
        <ele>194</ele>
        <time>2018-02-12T15:49:24Z</time>
      </trkpt>
      <trkpt lat="45.91863" lon="4.70621">
        <ele>194</ele>
        <time>2018-02-12T15:49:25Z</time>
      </trkpt>
      <trkpt lat="45.91869" lon="4.70621">
        <ele>194</ele>
        <time>2018-02-12T15:49:26Z</time>
      </trkpt>
      <trkpt lat="45.91875" lon="4.70621">
        <ele>194</ele>
        <time>2018-02-12T15:49:27Z</time>
      </trkpt>
      <trkpt lat="45.9188" lon="4.70621">
        <ele>194</ele>
        <time>2018-02-12T15:49:28Z</time>
      </trkpt>
      <trkpt lat="45.91886" lon="4.7062">
        <ele>194</ele>
        <time>2018-02-12T15:49:29Z</time>
      </trkpt>
      <trkpt lat="45.91892" lon="4.7062">
        <ele>194</ele>
        <time>2018-02-12T15:49:30Z</time>
      </trkpt>
      <trkpt lat="45.91897" lon="4.70619">
        <ele>194</ele>
        <time>2018-02-12T15:49:31Z</time>
      </trkpt>
      <trkpt lat="45.91903" lon="4.7062">
        <ele>194</ele>
        <time>2018-02-12T15:49:32Z</time>
      </trkpt>
      <trkpt lat="45.91908" lon="4.70619">
        <ele>194</ele>
        <time>2018-02-12T15:49:33Z</time>
      </trkpt>
      <trkpt lat="45.91914" lon="4.70618">
        <ele>194</ele>
        <time>2018-02-12T15:49:34Z</time>
      </trkpt>
      <trkpt lat="45.9192" lon="4.70617">
        <ele>194</ele>
        <time>2018-02-12T15:49:35Z</time>
      </trkpt>
      <trkpt lat="45.91925" lon="4.70617">
        <ele>194</ele>
        <time>2018-02-12T15:49:36Z</time>
      </trkpt>
      <trkpt lat="45.91931" lon="4.70617">
        <ele>194</ele>
        <time>2018-02-12T15:49:37Z</time>
      </trkpt>
      <trkpt lat="45.91936" lon="4.70617">
        <ele>194</ele>
        <time>2018-02-12T15:49:38Z</time>
      </trkpt>
      <trkpt lat="45.91941" lon="4.70617">
        <ele>194</ele>
        <time>2018-02-12T15:49:39Z</time>
      </trkpt>
      <trkpt lat="45.91946" lon="4.70616">
        <ele>194</ele>
        <time>2018-02-12T15:49:40Z</time>
      </trkpt>
      <trkpt lat="45.91952" lon="4.70614">
        <ele>194</ele>
        <time>2018-02-12T15:49:41Z</time>
      </trkpt>
      <trkpt lat="45.91957" lon="4.70613">
        <ele>194</ele>
        <time>2018-02-12T15:49:42Z</time>
      </trkpt>
      <trkpt lat="45.91962" lon="4.70612">
        <ele>194</ele>
        <time>2018-02-12T15:49:43Z</time>
      </trkpt>
      <trkpt lat="45.91968" lon="4.70612">
        <ele>194</ele>
        <time>2018-02-12T15:49:44Z</time>
      </trkpt>
      <trkpt lat="45.91973" lon="4.70611">
        <ele>194</ele>
        <time>2018-02-12T15:49:45Z</time>
      </trkpt>
      <trkpt lat="45.91978" lon="4.7061">
        <ele>194</ele>
        <time>2018-02-12T15:49:46Z</time>
      </trkpt>
      <trkpt lat="45.91983" lon="4.7061">
        <ele>194</ele>
        <time>2018-02-12T15:49:47Z</time>
      </trkpt>
      <trkpt lat="45.91989" lon="4.70609">
        <ele>194</ele>
        <time>2018-02-12T15:49:48Z</time>
      </trkpt>
      <trkpt lat="45.91994" lon="4.70609">
        <ele>194</ele>
        <time>2018-02-12T15:49:49Z</time>
      </trkpt>
      <trkpt lat="45.92" lon="4.70608">
        <ele>194</ele>
        <time>2018-02-12T15:49:50Z</time>
      </trkpt>
      <trkpt lat="45.92005" lon="4.70607">
        <ele>194</ele>
        <time>2018-02-12T15:49:51Z</time>
      </trkpt>
      <trkpt lat="45.92011" lon="4.70606">
        <ele>194</ele>
        <time>2018-02-12T15:49:52Z</time>
      </trkpt>
      <trkpt lat="45.92017" lon="4.70605">
        <ele>194</ele>
        <time>2018-02-12T15:49:53Z</time>
      </trkpt>
      <trkpt lat="45.92022" lon="4.70603">
        <ele>194</ele>
        <time>2018-02-12T15:49:54Z</time>
      </trkpt>
      <trkpt lat="45.92028" lon="4.70602">
        <ele>194</ele>
        <time>2018-02-12T15:49:55Z</time>
      </trkpt>
      <trkpt lat="45.92034" lon="4.70602">
        <ele>193</ele>
        <time>2018-02-12T15:49:56Z</time>
      </trkpt>
      <trkpt lat="45.9204" lon="4.70601">
        <ele>193</ele>
        <time>2018-02-12T15:49:57Z</time>
      </trkpt>
      <trkpt lat="45.92045" lon="4.70601">
        <ele>193</ele>
        <time>2018-02-12T15:49:58Z</time>
      </trkpt>
      <trkpt lat="45.92051" lon="4.706">
        <ele>193</ele>
        <time>2018-02-12T15:49:59Z</time>
      </trkpt>
      <trkpt lat="45.92056" lon="4.70599">
        <ele>193</ele>
        <time>2018-02-12T15:50:00Z</time>
      </trkpt>
      <trkpt lat="45.92062" lon="4.70598">
        <ele>193</ele>
        <time>2018-02-12T15:50:01Z</time>
      </trkpt>
      <trkpt lat="45.92067" lon="4.70597">
        <ele>193</ele>
        <time>2018-02-12T15:50:02Z</time>
      </trkpt>
      <trkpt lat="45.92073" lon="4.70596">
        <ele>194</ele>
        <time>2018-02-12T15:50:03Z</time>
      </trkpt>
      <trkpt lat="45.92078" lon="4.70596">
        <ele>194</ele>
        <time>2018-02-12T15:50:04Z</time>
      </trkpt>
      <trkpt lat="45.92083" lon="4.70595">
        <ele>194</ele>
        <time>2018-02-12T15:50:05Z</time>
      </trkpt>
      <trkpt lat="45.92089" lon="4.70596">
        <ele>193</ele>
        <time>2018-02-12T15:50:06Z</time>
      </trkpt>
      <trkpt lat="45.92094" lon="4.70596">
        <ele>192</ele>
        <time>2018-02-12T15:50:07Z</time>
      </trkpt>
      <trkpt lat="45.92099" lon="4.70597">
        <ele>192</ele>
        <time>2018-02-12T15:50:08Z</time>
      </trkpt>
      <trkpt lat="45.92105" lon="4.70597">
        <ele>192</ele>
        <time>2018-02-12T15:50:09Z</time>
      </trkpt>
      <trkpt lat="45.9211" lon="4.70596">
        <ele>192</ele>
        <time>2018-02-12T15:50:10Z</time>
      </trkpt>
      <trkpt lat="45.92116" lon="4.70595">
        <ele>191</ele>
        <time>2018-02-12T15:50:11Z</time>
      </trkpt>
      <trkpt lat="45.92121" lon="4.70595">
        <ele>191</ele>
        <time>2018-02-12T15:50:12Z</time>
      </trkpt>
      <trkpt lat="45.92127" lon="4.70595">
        <ele>191</ele>
        <time>2018-02-12T15:50:13Z</time>
      </trkpt>
      <trkpt lat="45.92132" lon="4.70594">
        <ele>191</ele>
        <time>2018-02-12T15:50:14Z</time>
      </trkpt>
      <trkpt lat="45.92138" lon="4.70594">
        <ele>191</ele>
        <time>2018-02-12T15:50:15Z</time>
      </trkpt>
      <trkpt lat="45.92143" lon="4.70593">
        <ele>191</ele>
        <time>2018-02-12T15:50:16Z</time>
      </trkpt>
      <trkpt lat="45.92149" lon="4.70593">
        <ele>191</ele>
        <time>2018-02-12T15:50:17Z</time>
      </trkpt>
      <trkpt lat="45.92154" lon="4.70594">
        <ele>190</ele>
        <time>2018-02-12T15:50:18Z</time>
      </trkpt>
      <trkpt lat="45.92159" lon="4.70594">
        <ele>190</ele>
        <time>2018-02-12T15:50:19Z</time>
      </trkpt>
      <trkpt lat="45.92164" lon="4.70594">
        <ele>190</ele>
        <time>2018-02-12T15:50:20Z</time>
      </trkpt>
      <trkpt lat="45.92169" lon="4.70594">
        <ele>191</ele>
        <time>2018-02-12T15:50:21Z</time>
      </trkpt>
      <trkpt lat="45.92174" lon="4.70594">
        <ele>191</ele>
        <time>2018-02-12T15:50:22Z</time>
      </trkpt>
      <trkpt lat="45.92179" lon="4.70595">
        <ele>191</ele>
        <time>2018-02-12T15:50:23Z</time>
      </trkpt>
      <trkpt lat="45.92184" lon="4.70597">
        <ele>191</ele>
        <time>2018-02-12T15:50:24Z</time>
      </trkpt>
      <trkpt lat="45.92189" lon="4.70598">
        <ele>192</ele>
        <time>2018-02-12T15:50:25Z</time>
      </trkpt>
      <trkpt lat="45.92194" lon="4.70598">
        <ele>192</ele>
        <time>2018-02-12T15:50:26Z</time>
      </trkpt>
      <trkpt lat="45.92199" lon="4.706">
        <ele>192</ele>
        <time>2018-02-12T15:50:27Z</time>
      </trkpt>
      <trkpt lat="45.92204" lon="4.706">
        <ele>192</ele>
        <time>2018-02-12T15:50:28Z</time>
      </trkpt>
      <trkpt lat="45.9221" lon="4.706">
        <ele>193</ele>
        <time>2018-02-12T15:50:29Z</time>
      </trkpt>
      <trkpt lat="45.92218" lon="4.70601">
        <ele>193</ele>
        <time>2018-02-12T15:50:31Z</time>
      </trkpt>
      <trkpt lat="45.92223" lon="4.70602">
        <ele>193</ele>
        <time>2018-02-12T15:50:32Z</time>
      </trkpt>
      <trkpt lat="45.92228" lon="4.70603">
        <ele>193</ele>
        <time>2018-02-12T15:50:33Z</time>
      </trkpt>
      <trkpt lat="45.92232" lon="4.70604">
        <ele>194</ele>
        <time>2018-02-12T15:50:34Z</time>
      </trkpt>
      <trkpt lat="45.92237" lon="4.70604">
        <ele>194</ele>
        <time>2018-02-12T15:50:35Z</time>
      </trkpt>
      <trkpt lat="45.92241" lon="4.70605">
        <ele>194</ele>
        <time>2018-02-12T15:50:36Z</time>
      </trkpt>
      <trkpt lat="45.92246" lon="4.70607">
        <ele>194</ele>
        <time>2018-02-12T15:50:37Z</time>
      </trkpt>
      <trkpt lat="45.92251" lon="4.70608">
        <ele>196</ele>
        <time>2018-02-12T15:50:38Z</time>
      </trkpt>
      <trkpt lat="45.92256" lon="4.7061">
        <ele>196</ele>
        <time>2018-02-12T15:50:39Z</time>
      </trkpt>
      <trkpt lat="45.92261" lon="4.70612">
        <ele>196</ele>
        <time>2018-02-12T15:50:40Z</time>
      </trkpt>
      <trkpt lat="45.92266" lon="4.70613">
        <ele>196</ele>
        <time>2018-02-12T15:50:41Z</time>
      </trkpt>
      <trkpt lat="45.9227" lon="4.70615">
        <ele>196</ele>
        <time>2018-02-12T15:50:42Z</time>
      </trkpt>
      <trkpt lat="45.92275" lon="4.70617">
        <ele>196</ele>
        <time>2018-02-12T15:50:43Z</time>
      </trkpt>
      <trkpt lat="45.92279" lon="4.7062">
        <ele>196</ele>
        <time>2018-02-12T15:50:44Z</time>
      </trkpt>
      <trkpt lat="45.92284" lon="4.70621">
        <ele>196</ele>
        <time>2018-02-12T15:50:45Z</time>
      </trkpt>
      <trkpt lat="45.92289" lon="4.70623">
        <ele>196</ele>
        <time>2018-02-12T15:50:46Z</time>
      </trkpt>
      <trkpt lat="45.92294" lon="4.70626">
        <ele>196</ele>
        <time>2018-02-12T15:50:47Z</time>
      </trkpt>
      <trkpt lat="45.92298" lon="4.70628">
        <ele>196</ele>
        <time>2018-02-12T15:50:48Z</time>
      </trkpt>
      <trkpt lat="45.92306" lon="4.70632">
        <ele>196</ele>
        <time>2018-02-12T15:50:50Z</time>
      </trkpt>
      <trkpt lat="45.92312" lon="4.70634">
        <ele>196</ele>
        <time>2018-02-12T15:50:51Z</time>
      </trkpt>
      <trkpt lat="45.9232" lon="4.70638">
        <ele>196</ele>
        <time>2018-02-12T15:50:53Z</time>
      </trkpt>
      <trkpt lat="45.92325" lon="4.70641">
        <ele>196</ele>
        <time>2018-02-12T15:50:54Z</time>
      </trkpt>
      <trkpt lat="45.92333" lon="4.70646">
        <ele>196</ele>
        <time>2018-02-12T15:50:56Z</time>
      </trkpt>
      <trkpt lat="45.92337" lon="4.70648">
        <ele>196</ele>
        <time>2018-02-12T15:50:57Z</time>
      </trkpt>
      <trkpt lat="45.92342" lon="4.7065">
        <ele>196</ele>
        <time>2018-02-12T15:50:58Z</time>
      </trkpt>
      <trkpt lat="45.92346" lon="4.70654">
        <ele>196</ele>
        <time>2018-02-12T15:50:59Z</time>
      </trkpt>
      <trkpt lat="45.9235" lon="4.70657">
        <ele>196</ele>
        <time>2018-02-12T15:51:00Z</time>
      </trkpt>
      <trkpt lat="45.92355" lon="4.70659">
        <ele>196</ele>
        <time>2018-02-12T15:51:01Z</time>
      </trkpt>
      <trkpt lat="45.92359" lon="4.7066">
        <ele>196</ele>
        <time>2018-02-12T15:51:02Z</time>
      </trkpt>
      <trkpt lat="45.92364" lon="4.70662">
        <ele>196</ele>
        <time>2018-02-12T15:51:03Z</time>
      </trkpt>
      <trkpt lat="45.92368" lon="4.70664">
        <ele>196</ele>
        <time>2018-02-12T15:51:04Z</time>
      </trkpt>
      <trkpt lat="45.92373" lon="4.70666">
        <ele>196</ele>
        <time>2018-02-12T15:51:05Z</time>
      </trkpt>
      <trkpt lat="45.92378" lon="4.70669">
        <ele>194</ele>
        <time>2018-02-12T15:51:06Z</time>
      </trkpt>
      <trkpt lat="45.92383" lon="4.70672">
        <ele>194</ele>
        <time>2018-02-12T15:51:07Z</time>
      </trkpt>
      <trkpt lat="45.92387" lon="4.70675">
        <ele>194</ele>
        <time>2018-02-12T15:51:08Z</time>
      </trkpt>
      <trkpt lat="45.92392" lon="4.70678">
        <ele>194</ele>
        <time>2018-02-12T15:51:09Z</time>
      </trkpt>
      <trkpt lat="45.92397" lon="4.70681">
        <ele>194</ele>
        <time>2018-02-12T15:51:10Z</time>
      </trkpt>
      <trkpt lat="45.92402" lon="4.70684">
        <ele>195</ele>
        <time>2018-02-12T15:51:11Z</time>
      </trkpt>
      <trkpt lat="45.92406" lon="4.70687">
        <ele>194</ele>
        <time>2018-02-12T15:51:12Z</time>
      </trkpt>
      <trkpt lat="45.9241" lon="4.7069">
        <ele>194</ele>
        <time>2018-02-12T15:51:13Z</time>
      </trkpt>
      <trkpt lat="45.92415" lon="4.70693">
        <ele>194</ele>
        <time>2018-02-12T15:51:14Z</time>
      </trkpt>
      <trkpt lat="45.92419" lon="4.70695">
        <ele>195</ele>
        <time>2018-02-12T15:51:15Z</time>
      </trkpt>
      <trkpt lat="45.92424" lon="4.70698">
        <ele>195</ele>
        <time>2018-02-12T15:51:16Z</time>
      </trkpt>
      <trkpt lat="45.9243" lon="4.707">
        <ele>195</ele>
        <time>2018-02-12T15:51:17Z</time>
      </trkpt>
      <trkpt lat="45.92435" lon="4.70703">
        <ele>194</ele>
        <time>2018-02-12T15:51:18Z</time>
      </trkpt>
      <trkpt lat="45.9244" lon="4.70706">
        <ele>194</ele>
        <time>2018-02-12T15:51:19Z</time>
      </trkpt>
      <trkpt lat="45.92445" lon="4.70709">
        <ele>194</ele>
        <time>2018-02-12T15:51:20Z</time>
      </trkpt>
      <trkpt lat="45.92449" lon="4.70712">
        <ele>194</ele>
        <time>2018-02-12T15:51:21Z</time>
      </trkpt>
      <trkpt lat="45.92454" lon="4.70715">
        <ele>194</ele>
        <time>2018-02-12T15:51:22Z</time>
      </trkpt>
      <trkpt lat="45.92459" lon="4.70718">
        <ele>194</ele>
        <time>2018-02-12T15:51:23Z</time>
      </trkpt>
      <trkpt lat="45.92464" lon="4.7072">
        <ele>194</ele>
        <time>2018-02-12T15:51:24Z</time>
      </trkpt>
      <trkpt lat="45.92469" lon="4.70723">
        <ele>194</ele>
        <time>2018-02-12T15:51:25Z</time>
      </trkpt>
      <trkpt lat="45.92475" lon="4.70726">
        <ele>194</ele>
        <time>2018-02-12T15:51:26Z</time>
      </trkpt>
      <trkpt lat="45.92479" lon="4.70729">
        <ele>194</ele>
        <time>2018-02-12T15:51:27Z</time>
      </trkpt>
      <trkpt lat="45.92484" lon="4.70731">
        <ele>194</ele>
        <time>2018-02-12T15:51:28Z</time>
      </trkpt>
      <trkpt lat="45.92488" lon="4.70734">
        <ele>194</ele>
        <time>2018-02-12T15:51:29Z</time>
      </trkpt>
      <trkpt lat="45.92494" lon="4.70737">
        <ele>194</ele>
        <time>2018-02-12T15:51:30Z</time>
      </trkpt>
      <trkpt lat="45.92498" lon="4.70739">
        <ele>194</ele>
        <time>2018-02-12T15:51:31Z</time>
      </trkpt>
      <trkpt lat="45.92503" lon="4.70742">
        <ele>195</ele>
        <time>2018-02-12T15:51:32Z</time>
      </trkpt>
      <trkpt lat="45.92508" lon="4.70745">
        <ele>195</ele>
        <time>2018-02-12T15:51:33Z</time>
      </trkpt>
      <trkpt lat="45.92513" lon="4.70747">
        <ele>195</ele>
        <time>2018-02-12T15:51:34Z</time>
      </trkpt>
      <trkpt lat="45.92517" lon="4.7075">
        <ele>196</ele>
        <time>2018-02-12T15:51:35Z</time>
      </trkpt>
      <trkpt lat="45.92521" lon="4.70753">
        <ele>195</ele>
        <time>2018-02-12T15:51:36Z</time>
      </trkpt>
      <trkpt lat="45.92526" lon="4.70755">
        <ele>195</ele>
        <time>2018-02-12T15:51:37Z</time>
      </trkpt>
      <trkpt lat="45.92531" lon="4.70758">
        <ele>195</ele>
        <time>2018-02-12T15:51:38Z</time>
      </trkpt>
      <trkpt lat="45.92535" lon="4.70759">
        <ele>195</ele>
        <time>2018-02-12T15:51:39Z</time>
      </trkpt>
      <trkpt lat="45.92543" lon="4.70764">
        <ele>195</ele>
        <time>2018-02-12T15:51:41Z</time>
      </trkpt>
      <trkpt lat="45.92546" lon="4.70766">
        <ele>195</ele>
        <time>2018-02-12T15:51:42Z</time>
      </trkpt>
      <trkpt lat="45.92554" lon="4.70772">
        <ele>196</ele>
        <time>2018-02-12T15:51:44Z</time>
      </trkpt>
      <trkpt lat="45.92557" lon="4.70775">
        <ele>196</ele>
        <time>2018-02-12T15:51:45Z</time>
      </trkpt>
      <trkpt lat="45.92565" lon="4.70781">
        <ele>196</ele>
        <time>2018-02-12T15:51:47Z</time>
      </trkpt>
      <trkpt lat="45.92569" lon="4.70784">
        <ele>196</ele>
        <time>2018-02-12T15:51:48Z</time>
      </trkpt>
      <trkpt lat="45.92573" lon="4.70788">
        <ele>196</ele>
        <time>2018-02-12T15:51:49Z</time>
      </trkpt>
      <trkpt lat="45.92577" lon="4.70791">
        <ele>196</ele>
        <time>2018-02-12T15:51:50Z</time>
      </trkpt>
      <trkpt lat="45.92584" lon="4.70798">
        <ele>198</ele>
        <time>2018-02-12T15:51:52Z</time>
      </trkpt>
      <trkpt lat="45.92588" lon="4.70801">
        <ele>198</ele>
        <time>2018-02-12T15:51:53Z</time>
      </trkpt>
      <trkpt lat="45.92594" lon="4.70807">
        <ele>198</ele>
        <time>2018-02-12T15:51:55Z</time>
      </trkpt>
      <trkpt lat="45.92598" lon="4.7081">
        <ele>198</ele>
        <time>2018-02-12T15:51:56Z</time>
      </trkpt>
      <trkpt lat="45.92604" lon="4.70817">
        <ele>198</ele>
        <time>2018-02-12T15:51:58Z</time>
      </trkpt>
      <trkpt lat="45.92608" lon="4.7082">
        <ele>198</ele>
        <time>2018-02-12T15:51:59Z</time>
      </trkpt>
      <trkpt lat="45.92615" lon="4.70827">
        <ele>199</ele>
        <time>2018-02-12T15:52:01Z</time>
      </trkpt>
      <trkpt lat="45.92619" lon="4.70831">
        <ele>199</ele>
        <time>2018-02-12T15:52:02Z</time>
      </trkpt>
      <trkpt lat="45.92622" lon="4.70834">
        <ele>197</ele>
        <time>2018-02-12T15:52:03Z</time>
      </trkpt>
      <trkpt lat="45.92626" lon="4.70838">
        <ele>198</ele>
        <time>2018-02-12T15:52:04Z</time>
      </trkpt>
      <trkpt lat="45.9263" lon="4.70842">
        <ele>198</ele>
        <time>2018-02-12T15:52:05Z</time>
      </trkpt>
      <trkpt lat="45.92634" lon="4.70846">
        <ele>198</ele>
        <time>2018-02-12T15:52:06Z</time>
      </trkpt>
      <trkpt lat="45.92641" lon="4.70853">
        <ele>198</ele>
        <time>2018-02-12T15:52:08Z</time>
      </trkpt>
      <trkpt lat="45.92644" lon="4.70857">
        <ele>198</ele>
        <time>2018-02-12T15:52:09Z</time>
      </trkpt>
      <trkpt lat="45.92647" lon="4.70861">
        <ele>198</ele>
        <time>2018-02-12T15:52:10Z</time>
      </trkpt>
      <trkpt lat="45.92651" lon="4.70865">
        <ele>198</ele>
        <time>2018-02-12T15:52:11Z</time>
      </trkpt>
      <trkpt lat="45.92655" lon="4.70869">
        <ele>198</ele>
        <time>2018-02-12T15:52:12Z</time>
      </trkpt>
      <trkpt lat="45.92658" lon="4.70874">
        <ele>198</ele>
        <time>2018-02-12T15:52:13Z</time>
      </trkpt>
      <trkpt lat="45.92662" lon="4.70877">
        <ele>197</ele>
        <time>2018-02-12T15:52:14Z</time>
      </trkpt>
      <trkpt lat="45.92667" lon="4.70881">
        <ele>197</ele>
        <time>2018-02-12T15:52:15Z</time>
      </trkpt>
      <trkpt lat="45.92671" lon="4.70886">
        <ele>198</ele>
        <time>2018-02-12T15:52:16Z</time>
      </trkpt>
      <trkpt lat="45.92674" lon="4.7089">
        <ele>198</ele>
        <time>2018-02-12T15:52:17Z</time>
      </trkpt>
      <trkpt lat="45.92679" lon="4.70895">
        <ele>197</ele>
        <time>2018-02-12T15:52:18Z</time>
      </trkpt>
      <trkpt lat="45.92683" lon="4.70899">
        <ele>197</ele>
        <time>2018-02-12T15:52:19Z</time>
      </trkpt>
      <trkpt lat="45.92687" lon="4.70901">
        <ele>197</ele>
        <time>2018-02-12T15:52:20Z</time>
      </trkpt>
      <trkpt lat="45.92691" lon="4.70905">
        <ele>197</ele>
        <time>2018-02-12T15:52:21Z</time>
      </trkpt>
      <trkpt lat="45.92696" lon="4.70908">
        <ele>197</ele>
        <time>2018-02-12T15:52:22Z</time>
      </trkpt>
      <trkpt lat="45.927" lon="4.70911">
        <ele>197</ele>
        <time>2018-02-12T15:52:23Z</time>
      </trkpt>
      <trkpt lat="45.92704" lon="4.70913">
        <ele>197</ele>
        <time>2018-02-12T15:52:24Z</time>
      </trkpt>
      <trkpt lat="45.92709" lon="4.70916">
        <ele>197</ele>
        <time>2018-02-12T15:52:25Z</time>
      </trkpt>
      <trkpt lat="45.92713" lon="4.70918">
        <ele>195</ele>
        <time>2018-02-12T15:52:26Z</time>
      </trkpt>
      <trkpt lat="45.92719" lon="4.7092">
        <ele>195</ele>
        <time>2018-02-12T15:52:27Z</time>
      </trkpt>
      <trkpt lat="45.92724" lon="4.70922">
        <ele>195</ele>
        <time>2018-02-12T15:52:28Z</time>
      </trkpt>
      <trkpt lat="45.92729" lon="4.70924">
        <ele>195</ele>
        <time>2018-02-12T15:52:29Z</time>
      </trkpt>
      <trkpt lat="45.92734" lon="4.70924">
        <ele>195</ele>
        <time>2018-02-12T15:52:30Z</time>
      </trkpt>
      <trkpt lat="45.9274" lon="4.70926">
        <ele>195</ele>
        <time>2018-02-12T15:52:31Z</time>
      </trkpt>
      <trkpt lat="45.92745" lon="4.70927">
        <ele>195</ele>
        <time>2018-02-12T15:52:32Z</time>
      </trkpt>
      <trkpt lat="45.9275" lon="4.70926">
        <ele>195</ele>
        <time>2018-02-12T15:52:33Z</time>
      </trkpt>
      <trkpt lat="45.92755" lon="4.70928">
        <ele>196</ele>
        <time>2018-02-12T15:52:34Z</time>
      </trkpt>
      <trkpt lat="45.9276" lon="4.70929">
        <ele>196</ele>
        <time>2018-02-12T15:52:35Z</time>
      </trkpt>
      <trkpt lat="45.92765" lon="4.7093">
        <ele>196</ele>
        <time>2018-02-12T15:52:36Z</time>
      </trkpt>
      <trkpt lat="45.9277" lon="4.7093">
        <ele>196</ele>
        <time>2018-02-12T15:52:37Z</time>
      </trkpt>
      <trkpt lat="45.92778" lon="4.70931">
        <ele>196</ele>
        <time>2018-02-12T15:52:39Z</time>
      </trkpt>
      <trkpt lat="45.92783" lon="4.70932">
        <ele>196</ele>
        <time>2018-02-12T15:52:40Z</time>
      </trkpt>
      <trkpt lat="45.92787" lon="4.70933">
        <ele>196</ele>
        <time>2018-02-12T15:52:41Z</time>
      </trkpt>
      <trkpt lat="45.92792" lon="4.70934">
        <ele>196</ele>
        <time>2018-02-12T15:52:42Z</time>
      </trkpt>
      <trkpt lat="45.92797" lon="4.70935">
        <ele>196</ele>
        <time>2018-02-12T15:52:43Z</time>
      </trkpt>
      <trkpt lat="45.92801" lon="4.70937">
        <ele>196</ele>
        <time>2018-02-12T15:52:44Z</time>
      </trkpt>
      <trkpt lat="45.92805" lon="4.70941">
        <ele>196</ele>
        <time>2018-02-12T15:52:45Z</time>
      </trkpt>
      <trkpt lat="45.92809" lon="4.70944">
        <ele>196</ele>
        <time>2018-02-12T15:52:46Z</time>
      </trkpt>
      <trkpt lat="45.92813" lon="4.70949">
        <ele>196</ele>
        <time>2018-02-12T15:52:47Z</time>
      </trkpt>
      <trkpt lat="45.92818" lon="4.70952">
        <ele>197</ele>
        <time>2018-02-12T15:52:48Z</time>
      </trkpt>
      <trkpt lat="45.92823" lon="4.70952">
        <ele>197</ele>
        <time>2018-02-12T15:52:49Z</time>
      </trkpt>
      <trkpt lat="45.92827" lon="4.7095">
        <ele>197</ele>
        <time>2018-02-12T15:52:50Z</time>
      </trkpt>
      <trkpt lat="45.92835" lon="4.70945">
        <ele>198</ele>
        <time>2018-02-12T15:52:52Z</time>
      </trkpt>
      <trkpt lat="45.92839" lon="4.70945">
        <ele>198</ele>
        <time>2018-02-12T15:52:53Z</time>
      </trkpt>
      <trkpt lat="45.92844" lon="4.70946">
        <ele>198</ele>
        <time>2018-02-12T15:52:54Z</time>
      </trkpt>
      <trkpt lat="45.92849" lon="4.70946">
        <ele>198</ele>
        <time>2018-02-12T15:52:55Z</time>
      </trkpt>
      <trkpt lat="45.92854" lon="4.70947">
        <ele>198</ele>
        <time>2018-02-12T15:52:56Z</time>
      </trkpt>
      <trkpt lat="45.92859" lon="4.70949">
        <ele>198</ele>
        <time>2018-02-12T15:52:57Z</time>
      </trkpt>
      <trkpt lat="45.92864" lon="4.70949">
        <ele>198</ele>
        <time>2018-02-12T15:52:58Z</time>
      </trkpt>
      <trkpt lat="45.92869" lon="4.7095">
        <ele>198</ele>
        <time>2018-02-12T15:52:59Z</time>
      </trkpt>
      <trkpt lat="45.92876" lon="4.7095">
        <ele>198</ele>
        <time>2018-02-12T15:53:00Z</time>
      </trkpt>
      <trkpt lat="45.92882" lon="4.70952">
        <ele>198</ele>
        <time>2018-02-12T15:53:01Z</time>
      </trkpt>
      <trkpt lat="45.92887" lon="4.70953">
        <ele>198</ele>
        <time>2018-02-12T15:53:02Z</time>
      </trkpt>
      <trkpt lat="45.92892" lon="4.70953">
        <ele>198</ele>
        <time>2018-02-12T15:53:03Z</time>
      </trkpt>
      <trkpt lat="45.92897" lon="4.70954">
        <ele>198</ele>
        <time>2018-02-12T15:53:04Z</time>
      </trkpt>
      <trkpt lat="45.92903" lon="4.70956">
        <ele>198</ele>
        <time>2018-02-12T15:53:05Z</time>
      </trkpt>
      <trkpt lat="45.92908" lon="4.70957">
        <ele>198</ele>
        <time>2018-02-12T15:53:06Z</time>
      </trkpt>
      <trkpt lat="45.92913" lon="4.70958">
        <ele>198</ele>
        <time>2018-02-12T15:53:07Z</time>
      </trkpt>
      <trkpt lat="45.92919" lon="4.7096">
        <ele>198</ele>
        <time>2018-02-12T15:53:08Z</time>
      </trkpt>
      <trkpt lat="45.92924" lon="4.70961">
        <ele>198</ele>
        <time>2018-02-12T15:53:09Z</time>
      </trkpt>
      <trkpt lat="45.9293" lon="4.70961">
        <ele>198</ele>
        <time>2018-02-12T15:53:10Z</time>
      </trkpt>
      <trkpt lat="45.92937" lon="4.70963">
        <ele>198</ele>
        <time>2018-02-12T15:53:11Z</time>
      </trkpt>
      <trkpt lat="45.92942" lon="4.70965">
        <ele>198</ele>
        <time>2018-02-12T15:53:12Z</time>
      </trkpt>
      <trkpt lat="45.92948" lon="4.70966">
        <ele>198</ele>
        <time>2018-02-12T15:53:13Z</time>
      </trkpt>
      <trkpt lat="45.92954" lon="4.70968">
        <ele>198</ele>
        <time>2018-02-12T15:53:14Z</time>
      </trkpt>
      <trkpt lat="45.9296" lon="4.70969">
        <ele>198</ele>
        <time>2018-02-12T15:53:15Z</time>
      </trkpt>
      <trkpt lat="45.92967" lon="4.70971">
        <ele>198</ele>
        <time>2018-02-12T15:53:16Z</time>
      </trkpt>
      <trkpt lat="45.92972" lon="4.70973">
        <ele>198</ele>
        <time>2018-02-12T15:53:17Z</time>
      </trkpt>
      <trkpt lat="45.92979" lon="4.70975">
        <ele>198</ele>
        <time>2018-02-12T15:53:18Z</time>
      </trkpt>
      <trkpt lat="45.92986" lon="4.70977">
        <ele>198</ele>
        <time>2018-02-12T15:53:19Z</time>
      </trkpt>
      <trkpt lat="45.92992" lon="4.70979">
        <ele>198</ele>
        <time>2018-02-12T15:53:20Z</time>
      </trkpt>
      <trkpt lat="45.92999" lon="4.70982">
        <ele>198</ele>
        <time>2018-02-12T15:53:21Z</time>
      </trkpt>
      <trkpt lat="45.93005" lon="4.70984">
        <ele>198</ele>
        <time>2018-02-12T15:53:22Z</time>
      </trkpt>
      <trkpt lat="45.93011" lon="4.70987">
        <ele>198</ele>
        <time>2018-02-12T15:53:23Z</time>
      </trkpt>
      <trkpt lat="45.93017" lon="4.70991">
        <ele>198</ele>
        <time>2018-02-12T15:53:24Z</time>
      </trkpt>
      <trkpt lat="45.93023" lon="4.70994">
        <ele>198</ele>
        <time>2018-02-12T15:53:25Z</time>
      </trkpt>
      <trkpt lat="45.93029" lon="4.70997">
        <ele>198</ele>
        <time>2018-02-12T15:53:26Z</time>
      </trkpt>
      <trkpt lat="45.93035" lon="4.71002">
        <ele>197</ele>
        <time>2018-02-12T15:53:27Z</time>
      </trkpt>
      <trkpt lat="45.93041" lon="4.71005">
        <ele>197</ele>
        <time>2018-02-12T15:53:28Z</time>
      </trkpt>
      <trkpt lat="45.93047" lon="4.71009">
        <ele>197</ele>
        <time>2018-02-12T15:53:29Z</time>
      </trkpt>
      <trkpt lat="45.93053" lon="4.71013">
        <ele>197</ele>
        <time>2018-02-12T15:53:30Z</time>
      </trkpt>
      <trkpt lat="45.93058" lon="4.71018">
        <ele>197</ele>
        <time>2018-02-12T15:53:31Z</time>
      </trkpt>
      <trkpt lat="45.93064" lon="4.71024">
        <ele>197</ele>
        <time>2018-02-12T15:53:32Z</time>
      </trkpt>
      <trkpt lat="45.93069" lon="4.71029">
        <ele>197</ele>
        <time>2018-02-12T15:53:33Z</time>
      </trkpt>
      <trkpt lat="45.93074" lon="4.71035">
        <ele>197</ele>
        <time>2018-02-12T15:53:34Z</time>
      </trkpt>
      <trkpt lat="45.9308" lon="4.71041">
        <ele>196</ele>
        <time>2018-02-12T15:53:35Z</time>
      </trkpt>
      <trkpt lat="45.93085" lon="4.71048">
        <ele>196</ele>
        <time>2018-02-12T15:53:36Z</time>
      </trkpt>
      <trkpt lat="45.9309" lon="4.71055">
        <ele>195</ele>
        <time>2018-02-12T15:53:37Z</time>
      </trkpt>
      <trkpt lat="45.93096" lon="4.71062">
        <ele>195</ele>
        <time>2018-02-12T15:53:38Z</time>
      </trkpt>
      <trkpt lat="45.93102" lon="4.7107">
        <ele>195</ele>
        <time>2018-02-12T15:53:39Z</time>
      </trkpt>
      <trkpt lat="45.93106" lon="4.71078">
        <ele>195</ele>
        <time>2018-02-12T15:53:40Z</time>
      </trkpt>
      <trkpt lat="45.93111" lon="4.71085">
        <ele>193</ele>
        <time>2018-02-12T15:53:41Z</time>
      </trkpt>
      <trkpt lat="45.93116" lon="4.71094">
        <ele>193</ele>
        <time>2018-02-12T15:53:42Z</time>
      </trkpt>
      <trkpt lat="45.9312" lon="4.71102">
        <ele>192</ele>
        <time>2018-02-12T15:53:43Z</time>
      </trkpt>
      <trkpt lat="45.93125" lon="4.71109">
        <ele>192</ele>
        <time>2018-02-12T15:53:44Z</time>
      </trkpt>
      <trkpt lat="45.93129" lon="4.71118">
        <ele>192</ele>
        <time>2018-02-12T15:53:45Z</time>
      </trkpt>
      <trkpt lat="45.93134" lon="4.71127">
        <ele>192</ele>
        <time>2018-02-12T15:53:46Z</time>
      </trkpt>
      <trkpt lat="45.93138" lon="4.71135">
        <ele>192</ele>
        <time>2018-02-12T15:53:47Z</time>
      </trkpt>
      <trkpt lat="45.93143" lon="4.71145">
        <ele>191</ele>
        <time>2018-02-12T15:53:48Z</time>
      </trkpt>
      <trkpt lat="45.93146" lon="4.71155">
        <ele>191</ele>
        <time>2018-02-12T15:53:49Z</time>
      </trkpt>
      <trkpt lat="45.93151" lon="4.71164">
        <ele>191</ele>
        <time>2018-02-12T15:53:50Z</time>
      </trkpt>
      <trkpt lat="45.93155" lon="4.71174">
        <ele>190</ele>
        <time>2018-02-12T15:53:51Z</time>
      </trkpt>
      <trkpt lat="45.93159" lon="4.71183">
        <ele>190</ele>
        <time>2018-02-12T15:53:52Z</time>
      </trkpt>
      <trkpt lat="45.93163" lon="4.71192">
        <ele>190</ele>
        <time>2018-02-12T15:53:53Z</time>
      </trkpt>
      <trkpt lat="45.93167" lon="4.71201">
        <ele>190</ele>
        <time>2018-02-12T15:53:54Z</time>
      </trkpt>
      <trkpt lat="45.93171" lon="4.7121">
        <ele>190</ele>
        <time>2018-02-12T15:53:55Z</time>
      </trkpt>
      <trkpt lat="45.93176" lon="4.71219">
        <ele>190</ele>
        <time>2018-02-12T15:53:56Z</time>
      </trkpt>
      <trkpt lat="45.9318" lon="4.71229">
        <ele>190</ele>
        <time>2018-02-12T15:53:57Z</time>
      </trkpt>
      <trkpt lat="45.93185" lon="4.7124">
        <ele>190</ele>
        <time>2018-02-12T15:53:58Z</time>
      </trkpt>
      <trkpt lat="45.93189" lon="4.71249">
        <ele>190</ele>
        <time>2018-02-12T15:53:59Z</time>
      </trkpt>
      <trkpt lat="45.93194" lon="4.71258">
        <ele>189</ele>
        <time>2018-02-12T15:54:00Z</time>
      </trkpt>
      <trkpt lat="45.93198" lon="4.71269">
        <ele>188</ele>
        <time>2018-02-12T15:54:01Z</time>
      </trkpt>
      <trkpt lat="45.93203" lon="4.71277">
        <ele>188</ele>
        <time>2018-02-12T15:54:02Z</time>
      </trkpt>
      <trkpt lat="45.93207" lon="4.71287">
        <ele>188</ele>
        <time>2018-02-12T15:54:03Z</time>
      </trkpt>
      <trkpt lat="45.93211" lon="4.71297">
        <ele>188</ele>
        <time>2018-02-12T15:54:04Z</time>
      </trkpt>
      <trkpt lat="45.93216" lon="4.71306">
        <ele>188</ele>
        <time>2018-02-12T15:54:05Z</time>
      </trkpt>
      <trkpt lat="45.9322" lon="4.71315">
        <ele>187</ele>
        <time>2018-02-12T15:54:06Z</time>
      </trkpt>
      <trkpt lat="45.93222" lon="4.71325">
        <ele>187</ele>
        <time>2018-02-12T15:54:07Z</time>
      </trkpt>
      <trkpt lat="45.93225" lon="4.71339">
        <ele>186</ele>
        <time>2018-02-12T15:54:08Z</time>
      </trkpt>
      <trkpt lat="45.93229" lon="4.71348">
        <ele>186</ele>
        <time>2018-02-12T15:54:09Z</time>
      </trkpt>
      <trkpt lat="45.93232" lon="4.71357">
        <ele>186</ele>
        <time>2018-02-12T15:54:10Z</time>
      </trkpt>
      <trkpt lat="45.93237" lon="4.71366">
        <ele>186</ele>
        <time>2018-02-12T15:54:11Z</time>
      </trkpt>
      <trkpt lat="45.93241" lon="4.71376">
        <ele>186</ele>
        <time>2018-02-12T15:54:12Z</time>
      </trkpt>
      <trkpt lat="45.93244" lon="4.71385">
        <ele>186</ele>
        <time>2018-02-12T15:54:13Z</time>
      </trkpt>
      <trkpt lat="45.93249" lon="4.71393">
        <ele>186</ele>
        <time>2018-02-12T15:54:14Z</time>
      </trkpt>
      <trkpt lat="45.93253" lon="4.71402">
        <ele>186</ele>
        <time>2018-02-12T15:54:15Z</time>
      </trkpt>
      <trkpt lat="45.93256" lon="4.71411">
        <ele>186</ele>
        <time>2018-02-12T15:54:16Z</time>
      </trkpt>
      <trkpt lat="45.93261" lon="4.71419">
        <ele>186</ele>
        <time>2018-02-12T15:54:17Z</time>
      </trkpt>
      <trkpt lat="45.93264" lon="4.71428">
        <ele>185</ele>
        <time>2018-02-12T15:54:18Z</time>
      </trkpt>
      <trkpt lat="45.93267" lon="4.71436">
        <ele>185</ele>
        <time>2018-02-12T15:54:19Z</time>
      </trkpt>
      <trkpt lat="45.93271" lon="4.71444">
        <ele>185</ele>
        <time>2018-02-12T15:54:20Z</time>
      </trkpt>
      <trkpt lat="45.93274" lon="4.71452">
        <ele>185</ele>
        <time>2018-02-12T15:54:21Z</time>
      </trkpt>
      <trkpt lat="45.93278" lon="4.7146">
        <ele>185</ele>
        <time>2018-02-12T15:54:22Z</time>
      </trkpt>
      <trkpt lat="45.93282" lon="4.71468">
        <ele>185</ele>
        <time>2018-02-12T15:54:23Z</time>
      </trkpt>
      <trkpt lat="45.93285" lon="4.71475">
        <ele>185</ele>
        <time>2018-02-12T15:54:24Z</time>
      </trkpt>
      <trkpt lat="45.93289" lon="4.71482">
        <ele>185</ele>
        <time>2018-02-12T15:54:25Z</time>
      </trkpt>
      <trkpt lat="45.93293" lon="4.71489">
        <ele>185</ele>
        <time>2018-02-12T15:54:26Z</time>
      </trkpt>
      <trkpt lat="45.93297" lon="4.71497">
        <ele>185</ele>
        <time>2018-02-12T15:54:27Z</time>
      </trkpt>
      <trkpt lat="45.933" lon="4.71504">
        <ele>184</ele>
        <time>2018-02-12T15:54:28Z</time>
      </trkpt>
      <trkpt lat="45.93303" lon="4.7151">
        <ele>184</ele>
        <time>2018-02-12T15:54:29Z</time>
      </trkpt>
      <trkpt lat="45.93306" lon="4.71517">
        <ele>184</ele>
        <time>2018-02-12T15:54:30Z</time>
      </trkpt>
      <trkpt lat="45.9331" lon="4.71524">
        <ele>184</ele>
        <time>2018-02-12T15:54:31Z</time>
      </trkpt>
      <trkpt lat="45.93313" lon="4.71532">
        <ele>184</ele>
        <time>2018-02-12T15:54:32Z</time>
      </trkpt>
      <trkpt lat="45.93316" lon="4.7154">
        <ele>184</ele>
        <time>2018-02-12T15:54:33Z</time>
      </trkpt>
      <trkpt lat="45.93319" lon="4.71547">
        <ele>184</ele>
        <time>2018-02-12T15:54:34Z</time>
      </trkpt>
      <trkpt lat="45.93323" lon="4.71557">
        <ele>184</ele>
        <time>2018-02-12T15:54:35Z</time>
      </trkpt>
      <trkpt lat="45.93326" lon="4.71565">
        <ele>185</ele>
        <time>2018-02-12T15:54:36Z</time>
      </trkpt>
      <trkpt lat="45.93329" lon="4.71572">
        <ele>185</ele>
        <time>2018-02-12T15:54:37Z</time>
      </trkpt>
      <trkpt lat="45.93333" lon="4.71579">
        <ele>185</ele>
        <time>2018-02-12T15:54:38Z</time>
      </trkpt>
      <trkpt lat="45.93337" lon="4.71587">
        <ele>185</ele>
        <time>2018-02-12T15:54:39Z</time>
      </trkpt>
      <trkpt lat="45.93341" lon="4.71595">
        <ele>185</ele>
        <time>2018-02-12T15:54:40Z</time>
      </trkpt>
      <trkpt lat="45.93345" lon="4.71602">
        <ele>185</ele>
        <time>2018-02-12T15:54:41Z</time>
      </trkpt>
      <trkpt lat="45.93349" lon="4.7161">
        <ele>185</ele>
        <time>2018-02-12T15:54:42Z</time>
      </trkpt>
      <trkpt lat="45.93352" lon="4.71617">
        <ele>185</ele>
        <time>2018-02-12T15:54:43Z</time>
      </trkpt>
      <trkpt lat="45.93356" lon="4.71626">
        <ele>185</ele>
        <time>2018-02-12T15:54:44Z</time>
      </trkpt>
      <trkpt lat="45.93359" lon="4.71636">
        <ele>185</ele>
        <time>2018-02-12T15:54:45Z</time>
      </trkpt>
      <trkpt lat="45.93363" lon="4.71645">
        <ele>185</ele>
        <time>2018-02-12T15:54:46Z</time>
      </trkpt>
      <trkpt lat="45.93366" lon="4.71651">
        <ele>185</ele>
        <time>2018-02-12T15:54:47Z</time>
      </trkpt>
      <trkpt lat="45.9337" lon="4.71661">
        <ele>185</ele>
        <time>2018-02-12T15:54:48Z</time>
      </trkpt>
      <trkpt lat="45.93375" lon="4.71669">
        <ele>185</ele>
        <time>2018-02-12T15:54:49Z</time>
      </trkpt>
      <trkpt lat="45.93378" lon="4.71679">
        <ele>185</ele>
        <time>2018-02-12T15:54:50Z</time>
      </trkpt>
      <trkpt lat="45.93382" lon="4.71689">
        <ele>185</ele>
        <time>2018-02-12T15:54:51Z</time>
      </trkpt>
      <trkpt lat="45.93386" lon="4.71697">
        <ele>184</ele>
        <time>2018-02-12T15:54:52Z</time>
      </trkpt>
      <trkpt lat="45.9339" lon="4.71706">
        <ele>184</ele>
        <time>2018-02-12T15:54:53Z</time>
      </trkpt>
      <trkpt lat="45.93394" lon="4.71715">
        <ele>184</ele>
        <time>2018-02-12T15:54:54Z</time>
      </trkpt>
      <trkpt lat="45.934" lon="4.71724">
        <ele>184</ele>
        <time>2018-02-12T15:54:55Z</time>
      </trkpt>
      <trkpt lat="45.93404" lon="4.71733">
        <ele>184</ele>
        <time>2018-02-12T15:54:56Z</time>
      </trkpt>
      <trkpt lat="45.93408" lon="4.71743">
        <ele>184</ele>
        <time>2018-02-12T15:54:57Z</time>
      </trkpt>
      <trkpt lat="45.93411" lon="4.71753">
        <ele>183</ele>
        <time>2018-02-12T15:54:58Z</time>
      </trkpt>
      <trkpt lat="45.93415" lon="4.71762">
        <ele>183</ele>
        <time>2018-02-12T15:54:59Z</time>
      </trkpt>
      <trkpt lat="45.93419" lon="4.7177">
        <ele>182</ele>
        <time>2018-02-12T15:55:00Z</time>
      </trkpt>
      <trkpt lat="45.93424" lon="4.71778">
        <ele>182</ele>
        <time>2018-02-12T15:55:01Z</time>
      </trkpt>
      <trkpt lat="45.93428" lon="4.71788">
        <ele>182</ele>
        <time>2018-02-12T15:55:02Z</time>
      </trkpt>
      <trkpt lat="45.93432" lon="4.71796">
        <ele>182</ele>
        <time>2018-02-12T15:55:03Z</time>
      </trkpt>
      <trkpt lat="45.93436" lon="4.71806">
        <ele>182</ele>
        <time>2018-02-12T15:55:04Z</time>
      </trkpt>
      <trkpt lat="45.93439" lon="4.71813">
        <ele>182</ele>
        <time>2018-02-12T15:55:05Z</time>
      </trkpt>
      <trkpt lat="45.93443" lon="4.71822">
        <ele>182</ele>
        <time>2018-02-12T15:55:06Z</time>
      </trkpt>
      <trkpt lat="45.93447" lon="4.7183">
        <ele>182</ele>
        <time>2018-02-12T15:55:07Z</time>
      </trkpt>
      <trkpt lat="45.93451" lon="4.71839">
        <ele>181</ele>
        <time>2018-02-12T15:55:08Z</time>
      </trkpt>
      <trkpt lat="45.93455" lon="4.71847">
        <ele>181</ele>
        <time>2018-02-12T15:55:09Z</time>
      </trkpt>
      <trkpt lat="45.93464" lon="4.71852">
        <ele>180</ele>
        <time>2018-02-12T15:55:10Z</time>
      </trkpt>
      <trkpt lat="45.93471" lon="4.71855">
        <ele>180</ele>
        <time>2018-02-12T15:55:11Z</time>
      </trkpt>
      <trkpt lat="45.93478" lon="4.71856">
        <ele>180</ele>
        <time>2018-02-12T15:55:12Z</time>
      </trkpt>
      <trkpt lat="45.93485" lon="4.71855">
        <ele>180</ele>
        <time>2018-02-12T15:55:13Z</time>
      </trkpt>
      <trkpt lat="45.93492" lon="4.71855">
        <ele>180</ele>
        <time>2018-02-12T15:55:14Z</time>
      </trkpt>
      <trkpt lat="45.935" lon="4.71853">
        <ele>180</ele>
        <time>2018-02-12T15:55:15Z</time>
      </trkpt>
      <trkpt lat="45.93507" lon="4.71851">
        <ele>179</ele>
        <time>2018-02-12T15:55:16Z</time>
      </trkpt>
      <trkpt lat="45.93514" lon="4.71849">
        <ele>179</ele>
        <time>2018-02-12T15:55:17Z</time>
      </trkpt>
      <trkpt lat="45.9352" lon="4.71846">
        <ele>179</ele>
        <time>2018-02-12T15:55:18Z</time>
      </trkpt>
      <trkpt lat="45.93527" lon="4.71845">
        <ele>179</ele>
        <time>2018-02-12T15:55:19Z</time>
      </trkpt>
      <trkpt lat="45.93534" lon="4.71843">
        <ele>179</ele>
        <time>2018-02-12T15:55:20Z</time>
      </trkpt>
      <trkpt lat="45.9354" lon="4.71845">
        <ele>179</ele>
        <time>2018-02-12T15:55:21Z</time>
      </trkpt>
      <trkpt lat="45.93548" lon="4.71842">
        <ele>179</ele>
        <time>2018-02-12T15:55:22Z</time>
      </trkpt>
      <trkpt lat="45.93555" lon="4.7184">
        <ele>179</ele>
        <time>2018-02-12T15:55:23Z</time>
      </trkpt>
      <trkpt lat="45.93561" lon="4.7184">
        <ele>179</ele>
        <time>2018-02-12T15:55:24Z</time>
      </trkpt>
      <trkpt lat="45.93568" lon="4.71839">
        <ele>179</ele>
        <time>2018-02-12T15:55:25Z</time>
      </trkpt>
      <trkpt lat="45.93576" lon="4.71839">
        <ele>180</ele>
        <time>2018-02-12T15:55:26Z</time>
      </trkpt>
      <trkpt lat="45.93582" lon="4.71838">
        <ele>180</ele>
        <time>2018-02-12T15:55:27Z</time>
      </trkpt>
      <trkpt lat="45.93588" lon="4.71836">
        <ele>180</ele>
        <time>2018-02-12T15:55:28Z</time>
      </trkpt>
      <trkpt lat="45.93593" lon="4.71834">
        <ele>179</ele>
        <time>2018-02-12T15:55:29Z</time>
      </trkpt>
      <trkpt lat="45.93599" lon="4.71834">
        <ele>179</ele>
        <time>2018-02-12T15:55:30Z</time>
      </trkpt>
      <trkpt lat="45.93603" lon="4.7183">
        <ele>179</ele>
        <time>2018-02-12T15:55:31Z</time>
      </trkpt>
      <trkpt lat="45.93607" lon="4.71826">
        <ele>179</ele>
        <time>2018-02-12T15:55:32Z</time>
      </trkpt>
      <trkpt lat="45.93614" lon="4.71818">
        <ele>179</ele>
        <time>2018-02-12T15:55:34Z</time>
      </trkpt>
      <trkpt lat="45.93617" lon="4.71813">
        <ele>179</ele>
        <time>2018-02-12T15:55:35Z</time>
      </trkpt>
      <trkpt lat="45.93621" lon="4.7181">
        <ele>179</ele>
        <time>2018-02-12T15:55:36Z</time>
      </trkpt>
      <trkpt lat="45.93627" lon="4.71805">
        <ele>179</ele>
        <time>2018-02-12T15:55:37Z</time>
      </trkpt>
      <trkpt lat="45.93631" lon="4.71803">
        <ele>179</ele>
        <time>2018-02-12T15:55:38Z</time>
      </trkpt>
      <trkpt lat="45.93636" lon="4.71801">
        <ele>179</ele>
        <time>2018-02-12T15:55:39Z</time>
      </trkpt>
      <trkpt lat="45.93642" lon="4.71798">
        <ele>179</ele>
        <time>2018-02-12T15:55:40Z</time>
      </trkpt>
      <trkpt lat="45.93647" lon="4.71796">
        <ele>179</ele>
        <time>2018-02-12T15:55:41Z</time>
      </trkpt>
      <trkpt lat="45.93652" lon="4.71793">
        <ele>179</ele>
        <time>2018-02-12T15:55:42Z</time>
      </trkpt>
      <trkpt lat="45.93658" lon="4.71791">
        <ele>179</ele>
        <time>2018-02-12T15:55:43Z</time>
      </trkpt>
      <trkpt lat="45.93664" lon="4.71789">
        <ele>179</ele>
        <time>2018-02-12T15:55:44Z</time>
      </trkpt>
      <trkpt lat="45.9367" lon="4.71788">
        <ele>177</ele>
        <time>2018-02-12T15:55:45Z</time>
      </trkpt>
      <trkpt lat="45.93675" lon="4.71786">
        <ele>177</ele>
        <time>2018-02-12T15:55:46Z</time>
      </trkpt>
      <trkpt lat="45.93681" lon="4.71784">
        <ele>177</ele>
        <time>2018-02-12T15:55:47Z</time>
      </trkpt>
      <trkpt lat="45.93686" lon="4.71781">
        <ele>177</ele>
        <time>2018-02-12T15:55:48Z</time>
      </trkpt>
      <trkpt lat="45.93691" lon="4.7178">
        <ele>177</ele>
        <time>2018-02-12T15:55:49Z</time>
      </trkpt>
      <trkpt lat="45.93697" lon="4.71784">
        <ele>177</ele>
        <time>2018-02-12T15:55:50Z</time>
      </trkpt>
      <trkpt lat="45.937" lon="4.71789">
        <ele>176</ele>
        <time>2018-02-12T15:55:51Z</time>
      </trkpt>
      <trkpt lat="45.93703" lon="4.71794">
        <ele>176</ele>
        <time>2018-02-12T15:55:52Z</time>
      </trkpt>
      <trkpt lat="45.93705" lon="4.71803">
        <ele>176</ele>
        <time>2018-02-12T15:55:53Z</time>
      </trkpt>
      <trkpt lat="45.93707" lon="4.71809">
        <ele>176</ele>
        <time>2018-02-12T15:55:54Z</time>
      </trkpt>
      <trkpt lat="45.93705" lon="4.71816">
        <ele>176</ele>
        <time>2018-02-12T15:55:55Z</time>
      </trkpt>
      <trkpt lat="45.93703" lon="4.71822">
        <ele>176</ele>
        <time>2018-02-12T15:55:56Z</time>
      </trkpt>
      <trkpt lat="45.93701" lon="4.71829">
        <ele>176</ele>
        <time>2018-02-12T15:55:57Z</time>
      </trkpt>
      <trkpt lat="45.93698" lon="4.71836">
        <ele>175</ele>
        <time>2018-02-12T15:55:58Z</time>
      </trkpt>
      <trkpt lat="45.93695" lon="4.71843">
        <ele>175</ele>
        <time>2018-02-12T15:55:59Z</time>
      </trkpt>
      <trkpt lat="45.93693" lon="4.7185">
        <ele>175</ele>
        <time>2018-02-12T15:56:00Z</time>
      </trkpt>
      <trkpt lat="45.9369" lon="4.71855">
        <ele>175</ele>
        <time>2018-02-12T15:56:01Z</time>
      </trkpt>
      <trkpt lat="45.93687" lon="4.71862">
        <ele>175</ele>
        <time>2018-02-12T15:56:02Z</time>
      </trkpt>
      <trkpt lat="45.93685" lon="4.71868">
        <ele>175</ele>
        <time>2018-02-12T15:56:03Z</time>
      </trkpt>
      <trkpt lat="45.93685" lon="4.71876">
        <ele>175</ele>
        <time>2018-02-12T15:56:04Z</time>
      </trkpt>
      <trkpt lat="45.93683" lon="4.71882">
        <ele>175</ele>
        <time>2018-02-12T15:56:05Z</time>
      </trkpt>
      <trkpt lat="45.93681" lon="4.71887">
        <ele>175</ele>
        <time>2018-02-12T15:56:06Z</time>
      </trkpt>
      <trkpt lat="45.93678" lon="4.71893">
        <ele>175</ele>
        <time>2018-02-12T15:56:07Z</time>
      </trkpt>
      <trkpt lat="45.93676" lon="4.71899">
        <ele>175</ele>
        <time>2018-02-12T15:56:08Z</time>
      </trkpt>
      <trkpt lat="45.93674" lon="4.71905">
        <ele>175</ele>
        <time>2018-02-12T15:56:09Z</time>
      </trkpt>
      <trkpt lat="45.93671" lon="4.71914">
        <ele>175</ele>
        <time>2018-02-12T15:56:11Z</time>
      </trkpt>
      <trkpt lat="45.93669" lon="4.7192">
        <ele>175</ele>
        <time>2018-02-12T15:56:12Z</time>
      </trkpt>
      <trkpt lat="45.93665" lon="4.71931">
        <ele>175</ele>
        <time>2018-02-12T15:56:22Z</time>
      </trkpt>
      <trkpt lat="45.93662" lon="4.71932">
        <ele>175</ele>
        <time>2018-02-12T15:56:23Z</time>
      </trkpt>
      <trkpt lat="45.93657" lon="4.7194">
        <ele>175</ele>
        <time>2018-02-12T15:56:26Z</time>
      </trkpt>
      <trkpt lat="45.93656" lon="4.71943">
        <ele>175</ele>
        <time>2018-02-12T15:56:27Z</time>
      </trkpt>
      <trkpt lat="45.93652" lon="4.71952">
        <ele>175</ele>
        <time>2018-02-12T15:56:30Z</time>
      </trkpt>
      <trkpt lat="45.93649" lon="4.71956">
        <ele>175</ele>
        <time>2018-02-12T15:56:31Z</time>
      </trkpt>
      <trkpt lat="45.93647" lon="4.71961">
        <ele>175</ele>
        <time>2018-02-12T15:56:32Z</time>
      </trkpt>
      <trkpt lat="45.93646" lon="4.71969">
        <ele>175</ele>
        <time>2018-02-12T15:56:33Z</time>
      </trkpt>
      <trkpt lat="45.93643" lon="4.71978">
        <ele>175</ele>
        <time>2018-02-12T15:56:34Z</time>
      </trkpt>
      <trkpt lat="45.9364" lon="4.71985">
        <ele>175</ele>
        <time>2018-02-12T15:56:35Z</time>
      </trkpt>
      <trkpt lat="45.93638" lon="4.71991">
        <ele>175</ele>
        <time>2018-02-12T15:56:36Z</time>
      </trkpt>
      <trkpt lat="45.93635" lon="4.71998">
        <ele>175</ele>
        <time>2018-02-12T15:56:37Z</time>
      </trkpt>
      <trkpt lat="45.9363" lon="4.72009">
        <ele>174</ele>
        <time>2018-02-12T15:56:39Z</time>
      </trkpt>
      <trkpt lat="45.9363" lon="4.72014">
        <ele>174</ele>
        <time>2018-02-12T15:56:40Z</time>
      </trkpt>
      <trkpt lat="45.93629" lon="4.72021">
        <ele>175</ele>
        <time>2018-02-12T15:56:41Z</time>
      </trkpt>
      <trkpt lat="45.93628" lon="4.72027">
        <ele>175</ele>
        <time>2018-02-12T15:56:42Z</time>
      </trkpt>
      <trkpt lat="45.93626" lon="4.72035">
        <ele>175</ele>
        <time>2018-02-12T15:56:43Z</time>
      </trkpt>
      <trkpt lat="45.93623" lon="4.72042">
        <ele>175</ele>
        <time>2018-02-12T15:56:44Z</time>
      </trkpt>
      <trkpt lat="45.93617" lon="4.72049">
        <ele>175</ele>
        <time>2018-02-12T15:56:46Z</time>
      </trkpt>
      <trkpt lat="45.93614" lon="4.72051">
        <ele>175</ele>
        <time>2018-02-12T15:56:47Z</time>
      </trkpt>
      <trkpt lat="45.93611" lon="4.72053">
        <ele>175</ele>
        <time>2018-02-12T15:56:48Z</time>
      </trkpt>
      <trkpt lat="45.93606" lon="4.72063">
        <ele>175</ele>
        <time>2018-02-12T15:56:49Z</time>
      </trkpt>
      <trkpt lat="45.93608" lon="4.72072">
        <ele>175</ele>
        <time>2018-02-12T15:56:50Z</time>
      </trkpt>
      <trkpt lat="45.93606" lon="4.72079">
        <ele>175</ele>
        <time>2018-02-12T15:56:51Z</time>
      </trkpt>
      <trkpt lat="45.93604" lon="4.72085">
        <ele>174</ele>
        <time>2018-02-12T15:56:52Z</time>
      </trkpt>
      <trkpt lat="45.93601" lon="4.7209">
        <ele>174</ele>
        <time>2018-02-12T15:56:53Z</time>
      </trkpt>
      <trkpt lat="45.93595" lon="4.721">
        <ele>174</ele>
        <time>2018-02-12T15:56:55Z</time>
      </trkpt>
      <trkpt lat="45.93594" lon="4.72106">
        <ele>174</ele>
        <time>2018-02-12T15:56:56Z</time>
      </trkpt>
      <trkpt lat="45.93592" lon="4.72114">
        <ele>174</ele>
        <time>2018-02-12T15:56:57Z</time>
      </trkpt>
      <trkpt lat="45.93589" lon="4.72119">
        <ele>174</ele>
        <time>2018-02-12T15:56:58Z</time>
      </trkpt>
      <trkpt lat="45.93588" lon="4.72129">
        <ele>174</ele>
        <time>2018-02-12T15:56:59Z</time>
      </trkpt>
      <trkpt lat="45.93586" lon="4.72136">
        <ele>173</ele>
        <time>2018-02-12T15:57:00Z</time>
      </trkpt>
      <trkpt lat="45.93584" lon="4.72143">
        <ele>173</ele>
        <time>2018-02-12T15:57:01Z</time>
      </trkpt>
      <trkpt lat="45.93581" lon="4.72149">
        <ele>174</ele>
        <time>2018-02-12T15:57:02Z</time>
      </trkpt>
      <trkpt lat="45.93579" lon="4.72156">
        <ele>174</ele>
        <time>2018-02-12T15:57:03Z</time>
      </trkpt>
      <trkpt lat="45.93578" lon="4.72163">
        <ele>173</ele>
        <time>2018-02-12T15:57:04Z</time>
      </trkpt>
      <trkpt lat="45.93579" lon="4.72172">
        <ele>173</ele>
        <time>2018-02-12T15:57:05Z</time>
      </trkpt>
      <trkpt lat="45.93575" lon="4.72177">
        <ele>173</ele>
        <time>2018-02-12T15:57:06Z</time>
      </trkpt>
      <trkpt lat="45.93572" lon="4.72184">
        <ele>173</ele>
        <time>2018-02-12T15:57:07Z</time>
      </trkpt>
      <trkpt lat="45.93569" lon="4.72191">
        <ele>173</ele>
        <time>2018-02-12T15:57:08Z</time>
      </trkpt>
      <trkpt lat="45.93564" lon="4.72198">
        <ele>173</ele>
        <time>2018-02-12T15:57:09Z</time>
      </trkpt>
      <trkpt lat="45.9356" lon="4.72203">
        <ele>173</ele>
        <time>2018-02-12T15:57:10Z</time>
      </trkpt>
      <trkpt lat="45.93555" lon="4.72207">
        <ele>173</ele>
        <time>2018-02-12T15:57:12Z</time>
      </trkpt>
      <trkpt lat="45.93552" lon="4.72213">
        <ele>173</ele>
        <time>2018-02-12T15:57:13Z</time>
      </trkpt>
      <trkpt lat="45.9355" lon="4.72219">
        <ele>173</ele>
        <time>2018-02-12T15:57:14Z</time>
      </trkpt>
      <trkpt lat="45.93546" lon="4.72226">
        <ele>172</ele>
        <time>2018-02-12T15:57:15Z</time>
      </trkpt>
      <trkpt lat="45.93544" lon="4.72232">
        <ele>172</ele>
        <time>2018-02-12T15:57:16Z</time>
      </trkpt>
      <trkpt lat="45.93543" lon="4.72238">
        <ele>172</ele>
        <time>2018-02-12T15:57:17Z</time>
      </trkpt>
      <trkpt lat="45.93538" lon="4.72248">
        <ele>172</ele>
        <time>2018-02-12T15:57:19Z</time>
      </trkpt>
      <trkpt lat="45.93536" lon="4.72253">
        <ele>172</ele>
        <time>2018-02-12T15:57:20Z</time>
      </trkpt>
      <trkpt lat="45.93533" lon="4.72262">
        <ele>172</ele>
        <time>2018-02-12T15:57:21Z</time>
      </trkpt>
      <trkpt lat="45.93531" lon="4.72268">
        <ele>172</ele>
        <time>2018-02-12T15:57:22Z</time>
      </trkpt>
      <trkpt lat="45.93529" lon="4.72274">
        <ele>172</ele>
        <time>2018-02-12T15:57:23Z</time>
      </trkpt>
      <trkpt lat="45.93527" lon="4.7228">
        <ele>172</ele>
        <time>2018-02-12T15:57:24Z</time>
      </trkpt>
      <trkpt lat="45.93524" lon="4.72287">
        <ele>172</ele>
        <time>2018-02-12T15:57:25Z</time>
      </trkpt>
      <trkpt lat="45.93521" lon="4.72293">
        <ele>172</ele>
        <time>2018-02-12T15:57:26Z</time>
      </trkpt>
      <trkpt lat="45.93518" lon="4.72298">
        <ele>172</ele>
        <time>2018-02-12T15:57:27Z</time>
      </trkpt>
      <trkpt lat="45.93514" lon="4.72303">
        <ele>172</ele>
        <time>2018-02-12T15:57:28Z</time>
      </trkpt>
      <trkpt lat="45.93511" lon="4.72309">
        <ele>173</ele>
        <time>2018-02-12T15:57:29Z</time>
      </trkpt>
      <trkpt lat="45.93508" lon="4.72315">
        <ele>173</ele>
        <time>2018-02-12T15:57:30Z</time>
      </trkpt>
      <trkpt lat="45.93504" lon="4.7232">
        <ele>173</ele>
        <time>2018-02-12T15:57:31Z</time>
      </trkpt>
      <trkpt lat="45.935" lon="4.72326">
        <ele>173</ele>
        <time>2018-02-12T15:57:32Z</time>
      </trkpt>
      <trkpt lat="45.93496" lon="4.72332">
        <ele>173</ele>
        <time>2018-02-12T15:57:33Z</time>
      </trkpt>
      <trkpt lat="45.93491" lon="4.72338">
        <ele>173</ele>
        <time>2018-02-12T15:57:34Z</time>
      </trkpt>
      <trkpt lat="45.93488" lon="4.72343">
        <ele>173</ele>
        <time>2018-02-12T15:57:35Z</time>
      </trkpt>
      <trkpt lat="45.93483" lon="4.72349">
        <ele>173</ele>
        <time>2018-02-12T15:57:36Z</time>
      </trkpt>
      <trkpt lat="45.93478" lon="4.72353">
        <ele>173</ele>
        <time>2018-02-12T15:57:37Z</time>
      </trkpt>
      <trkpt lat="45.93474" lon="4.72358">
        <ele>173</ele>
        <time>2018-02-12T15:57:38Z</time>
      </trkpt>
      <trkpt lat="45.93471" lon="4.72363">
        <ele>173</ele>
        <time>2018-02-12T15:57:39Z</time>
      </trkpt>
      <trkpt lat="45.93467" lon="4.72368">
        <ele>173</ele>
        <time>2018-02-12T15:57:40Z</time>
      </trkpt>
      <trkpt lat="45.93464" lon="4.72372">
        <ele>173</ele>
        <time>2018-02-12T15:57:41Z</time>
      </trkpt>
      <trkpt lat="45.93459" lon="4.72376">
        <ele>173</ele>
        <time>2018-02-12T15:57:42Z</time>
      </trkpt>
      <trkpt lat="45.93455" lon="4.72382">
        <ele>173</ele>
        <time>2018-02-12T15:57:43Z</time>
      </trkpt>
      <trkpt lat="45.93451" lon="4.72386">
        <ele>173</ele>
        <time>2018-02-12T15:57:44Z</time>
      </trkpt>
      <trkpt lat="45.93447" lon="4.7239">
        <ele>173</ele>
        <time>2018-02-12T15:57:45Z</time>
      </trkpt>
      <trkpt lat="45.93442" lon="4.72394">
        <ele>173</ele>
        <time>2018-02-12T15:57:46Z</time>
      </trkpt>
      <trkpt lat="45.93437" lon="4.72397">
        <ele>173</ele>
        <time>2018-02-12T15:57:47Z</time>
      </trkpt>
      <trkpt lat="45.93432" lon="4.724">
        <ele>174</ele>
        <time>2018-02-12T15:57:48Z</time>
      </trkpt>
      <trkpt lat="45.93428" lon="4.72402">
        <ele>174</ele>
        <time>2018-02-12T15:57:49Z</time>
      </trkpt>
      <trkpt lat="45.93423" lon="4.72405">
        <ele>174</ele>
        <time>2018-02-12T15:57:50Z</time>
      </trkpt>
      <trkpt lat="45.93418" lon="4.72405">
        <ele>174</ele>
        <time>2018-02-12T15:57:51Z</time>
      </trkpt>
      <trkpt lat="45.93414" lon="4.72407">
        <ele>174</ele>
        <time>2018-02-12T15:57:52Z</time>
      </trkpt>
      <trkpt lat="45.93407" lon="4.72407">
        <ele>174</ele>
        <time>2018-02-12T15:57:54Z</time>
      </trkpt>
      <trkpt lat="45.93402" lon="4.72405">
        <ele>174</ele>
        <time>2018-02-12T15:57:55Z</time>
      </trkpt>
      <trkpt lat="45.93394" lon="4.72405">
        <ele>174</ele>
        <time>2018-02-12T15:57:57Z</time>
      </trkpt>
      <trkpt lat="45.93389" lon="4.72409">
        <ele>174</ele>
        <time>2018-02-12T15:57:58Z</time>
      </trkpt>
      <trkpt lat="45.93385" lon="4.72419">
        <ele>173</ele>
        <time>2018-02-12T15:58:00Z</time>
      </trkpt>
      <trkpt lat="45.93387" lon="4.72427">
        <ele>173</ele>
        <time>2018-02-12T15:58:01Z</time>
      </trkpt>
      <trkpt lat="45.9339" lon="4.72439">
        <ele>173</ele>
        <time>2018-02-12T15:58:03Z</time>
      </trkpt>
      <trkpt lat="45.93391" lon="4.72446">
        <ele>173</ele>
        <time>2018-02-12T15:58:04Z</time>
      </trkpt>
      <trkpt lat="45.93391" lon="4.72454">
        <ele>173</ele>
        <time>2018-02-12T15:58:05Z</time>
      </trkpt>
      <trkpt lat="45.93389" lon="4.72461">
        <ele>173</ele>
        <time>2018-02-12T15:58:06Z</time>
      </trkpt>
      <trkpt lat="45.93386" lon="4.72467">
        <ele>173</ele>
        <time>2018-02-12T15:58:07Z</time>
      </trkpt>
      <trkpt lat="45.93382" lon="4.72472">
        <ele>173</ele>
        <time>2018-02-12T15:58:08Z</time>
      </trkpt>
      <trkpt lat="45.93378" lon="4.72478">
        <ele>173</ele>
        <time>2018-02-12T15:58:09Z</time>
      </trkpt>
      <trkpt lat="45.93374" lon="4.72483">
        <ele>173</ele>
        <time>2018-02-12T15:58:10Z</time>
      </trkpt>
      <trkpt lat="45.9337" lon="4.72489">
        <ele>173</ele>
        <time>2018-02-12T15:58:11Z</time>
      </trkpt>
      <trkpt lat="45.93366" lon="4.72495">
        <ele>173</ele>
        <time>2018-02-12T15:58:12Z</time>
      </trkpt>
      <trkpt lat="45.93362" lon="4.72499">
        <ele>173</ele>
        <time>2018-02-12T15:58:13Z</time>
      </trkpt>
      <trkpt lat="45.93358" lon="4.72504">
        <ele>172</ele>
        <time>2018-02-12T15:58:14Z</time>
      </trkpt>
      <trkpt lat="45.93353" lon="4.72509">
        <ele>172</ele>
        <time>2018-02-12T15:58:15Z</time>
      </trkpt>
      <trkpt lat="45.93348" lon="4.72514">
        <ele>172</ele>
        <time>2018-02-12T15:58:16Z</time>
      </trkpt>
      <trkpt lat="45.93345" lon="4.72519">
        <ele>172</ele>
        <time>2018-02-12T15:58:17Z</time>
      </trkpt>
      <trkpt lat="45.9334" lon="4.72524">
        <ele>172</ele>
        <time>2018-02-12T15:58:18Z</time>
      </trkpt>
      <trkpt lat="45.93336" lon="4.72529">
        <ele>172</ele>
        <time>2018-02-12T15:58:19Z</time>
      </trkpt>
      <trkpt lat="45.93333" lon="4.72534">
        <ele>172</ele>
        <time>2018-02-12T15:58:20Z</time>
      </trkpt>
      <trkpt lat="45.93328" lon="4.7254">
        <ele>172</ele>
        <time>2018-02-12T15:58:21Z</time>
      </trkpt>
      <trkpt lat="45.93324" lon="4.72544">
        <ele>172</ele>
        <time>2018-02-12T15:58:22Z</time>
      </trkpt>
      <trkpt lat="45.93319" lon="4.72548">
        <ele>172</ele>
        <time>2018-02-12T15:58:23Z</time>
      </trkpt>
      <trkpt lat="45.93316" lon="4.72553">
        <ele>172</ele>
        <time>2018-02-12T15:58:24Z</time>
      </trkpt>
      <trkpt lat="45.93312" lon="4.72559">
        <ele>171</ele>
        <time>2018-02-12T15:58:25Z</time>
      </trkpt>
      <trkpt lat="45.93309" lon="4.72564">
        <ele>171</ele>
        <time>2018-02-12T15:58:26Z</time>
      </trkpt>
      <trkpt lat="45.93305" lon="4.72568">
        <ele>171</ele>
        <time>2018-02-12T15:58:27Z</time>
      </trkpt>
      <trkpt lat="45.933" lon="4.72572">
        <ele>171</ele>
        <time>2018-02-12T15:58:28Z</time>
      </trkpt>
      <trkpt lat="45.93296" lon="4.72576">
        <ele>171</ele>
        <time>2018-02-12T15:58:29Z</time>
      </trkpt>
      <trkpt lat="45.93292" lon="4.72581">
        <ele>171</ele>
        <time>2018-02-12T15:58:30Z</time>
      </trkpt>
      <trkpt lat="45.93288" lon="4.72585">
        <ele>170</ele>
        <time>2018-02-12T15:58:31Z</time>
      </trkpt>
      <trkpt lat="45.93284" lon="4.7259">
        <ele>170</ele>
        <time>2018-02-12T15:58:32Z</time>
      </trkpt>
      <trkpt lat="45.9328" lon="4.72594">
        <ele>170</ele>
        <time>2018-02-12T15:58:33Z</time>
      </trkpt>
      <trkpt lat="45.93277" lon="4.72598">
        <ele>170</ele>
        <time>2018-02-12T15:58:34Z</time>
      </trkpt>
      <trkpt lat="45.93273" lon="4.72603">
        <ele>170</ele>
        <time>2018-02-12T15:58:35Z</time>
      </trkpt>
      <trkpt lat="45.93269" lon="4.72607">
        <ele>170</ele>
        <time>2018-02-12T15:58:36Z</time>
      </trkpt>
      <trkpt lat="45.93266" lon="4.72611">
        <ele>170</ele>
        <time>2018-02-12T15:58:37Z</time>
      </trkpt>
      <trkpt lat="45.93262" lon="4.72615">
        <ele>170</ele>
        <time>2018-02-12T15:58:38Z</time>
      </trkpt>
      <trkpt lat="45.93258" lon="4.7262">
        <ele>170</ele>
        <time>2018-02-12T15:58:39Z</time>
      </trkpt>
      <trkpt lat="45.93255" lon="4.72625">
        <ele>170</ele>
        <time>2018-02-12T15:58:40Z</time>
      </trkpt>
      <trkpt lat="45.93251" lon="4.72629">
        <ele>170</ele>
        <time>2018-02-12T15:58:41Z</time>
      </trkpt>
      <trkpt lat="45.93247" lon="4.72634">
        <ele>170</ele>
        <time>2018-02-12T15:58:42Z</time>
      </trkpt>
      <trkpt lat="45.93243" lon="4.72639">
        <ele>170</ele>
        <time>2018-02-12T15:58:43Z</time>
      </trkpt>
      <trkpt lat="45.93239" lon="4.72644">
        <ele>170</ele>
        <time>2018-02-12T15:58:44Z</time>
      </trkpt>
      <trkpt lat="45.93234" lon="4.72649">
        <ele>170</ele>
        <time>2018-02-12T15:58:45Z</time>
      </trkpt>
      <trkpt lat="45.9323" lon="4.72654">
        <ele>170</ele>
        <time>2018-02-12T15:58:46Z</time>
      </trkpt>
      <trkpt lat="45.93226" lon="4.72659">
        <ele>170</ele>
        <time>2018-02-12T15:58:47Z</time>
      </trkpt>
      <trkpt lat="45.93222" lon="4.72663">
        <ele>170</ele>
        <time>2018-02-12T15:58:48Z</time>
      </trkpt>
      <trkpt lat="45.93219" lon="4.72667">
        <ele>169</ele>
        <time>2018-02-12T15:58:49Z</time>
      </trkpt>
      <trkpt lat="45.93214" lon="4.72672">
        <ele>169</ele>
        <time>2018-02-12T15:58:50Z</time>
      </trkpt>
      <trkpt lat="45.93209" lon="4.72676">
        <ele>169</ele>
        <time>2018-02-12T15:58:51Z</time>
      </trkpt>
      <trkpt lat="45.93205" lon="4.7268">
        <ele>169</ele>
        <time>2018-02-12T15:58:52Z</time>
      </trkpt>
      <trkpt lat="45.93201" lon="4.72685">
        <ele>169</ele>
        <time>2018-02-12T15:58:53Z</time>
      </trkpt>
      <trkpt lat="45.93196" lon="4.7269">
        <ele>169</ele>
        <time>2018-02-12T15:58:54Z</time>
      </trkpt>
      <trkpt lat="45.93191" lon="4.72695">
        <ele>169</ele>
        <time>2018-02-12T15:58:55Z</time>
      </trkpt>
      <trkpt lat="45.93188" lon="4.727">
        <ele>169</ele>
        <time>2018-02-12T15:58:56Z</time>
      </trkpt>
      <trkpt lat="45.93184" lon="4.72704">
        <ele>169</ele>
        <time>2018-02-12T15:58:57Z</time>
      </trkpt>
      <trkpt lat="45.93179" lon="4.7271">
        <ele>169</ele>
        <time>2018-02-12T15:58:58Z</time>
      </trkpt>
      <trkpt lat="45.93174" lon="4.72715">
        <ele>170</ele>
        <time>2018-02-12T15:58:59Z</time>
      </trkpt>
      <trkpt lat="45.9317" lon="4.7272">
        <ele>170</ele>
        <time>2018-02-12T15:59:00Z</time>
      </trkpt>
      <trkpt lat="45.93165" lon="4.72726">
        <ele>170</ele>
        <time>2018-02-12T15:59:01Z</time>
      </trkpt>
      <trkpt lat="45.93161" lon="4.72732">
        <ele>170</ele>
        <time>2018-02-12T15:59:02Z</time>
      </trkpt>
      <trkpt lat="45.93157" lon="4.72737">
        <ele>170</ele>
        <time>2018-02-12T15:59:03Z</time>
      </trkpt>
      <trkpt lat="45.93152" lon="4.72742">
        <ele>170</ele>
        <time>2018-02-12T15:59:04Z</time>
      </trkpt>
      <trkpt lat="45.93148" lon="4.72748">
        <ele>170</ele>
        <time>2018-02-12T15:59:05Z</time>
      </trkpt>
      <trkpt lat="45.93144" lon="4.72753">
        <ele>171</ele>
        <time>2018-02-12T15:59:06Z</time>
      </trkpt>
      <trkpt lat="45.9314" lon="4.72758">
        <ele>171</ele>
        <time>2018-02-12T15:59:07Z</time>
      </trkpt>
      <trkpt lat="45.93136" lon="4.72763">
        <ele>171</ele>
        <time>2018-02-12T15:59:08Z</time>
      </trkpt>
      <trkpt lat="45.93132" lon="4.72769">
        <ele>171</ele>
        <time>2018-02-12T15:59:09Z</time>
      </trkpt>
      <trkpt lat="45.93127" lon="4.72775">
        <ele>171</ele>
        <time>2018-02-12T15:59:10Z</time>
      </trkpt>
      <trkpt lat="45.93122" lon="4.7278">
        <ele>171</ele>
        <time>2018-02-12T15:59:11Z</time>
      </trkpt>
      <trkpt lat="45.93119" lon="4.72786">
        <ele>171</ele>
        <time>2018-02-12T15:59:12Z</time>
      </trkpt>
      <trkpt lat="45.93115" lon="4.72791">
        <ele>171</ele>
        <time>2018-02-12T15:59:13Z</time>
      </trkpt>
      <trkpt lat="45.93111" lon="4.72796">
        <ele>171</ele>
        <time>2018-02-12T15:59:14Z</time>
      </trkpt>
      <trkpt lat="45.93107" lon="4.72801">
        <ele>171</ele>
        <time>2018-02-12T15:59:15Z</time>
      </trkpt>
      <trkpt lat="45.93103" lon="4.72805">
        <ele>171</ele>
        <time>2018-02-12T15:59:16Z</time>
      </trkpt>
      <trkpt lat="45.93098" lon="4.7281">
        <ele>172</ele>
        <time>2018-02-12T15:59:17Z</time>
      </trkpt>
      <trkpt lat="45.93094" lon="4.72815">
        <ele>172</ele>
        <time>2018-02-12T15:59:18Z</time>
      </trkpt>
      <trkpt lat="45.93089" lon="4.72819">
        <ele>172</ele>
        <time>2018-02-12T15:59:19Z</time>
      </trkpt>
      <trkpt lat="45.93084" lon="4.72823">
        <ele>172</ele>
        <time>2018-02-12T15:59:20Z</time>
      </trkpt>
      <trkpt lat="45.93071" lon="4.72837">
        <ele>173</ele>
        <time>2018-02-12T15:59:24Z</time>
      </trkpt>
      <trkpt lat="45.93067" lon="4.72844">
        <ele>172</ele>
        <time>2018-02-12T15:59:25Z</time>
      </trkpt>
      <trkpt lat="45.93062" lon="4.7285">
        <ele>172</ele>
        <time>2018-02-12T15:59:26Z</time>
      </trkpt>
      <trkpt lat="45.93057" lon="4.72862">
        <ele>172</ele>
        <time>2018-02-12T15:59:27Z</time>
      </trkpt>
      <trkpt lat="45.9305" lon="4.72865">
        <ele>172</ele>
        <time>2018-02-12T15:59:28Z</time>
      </trkpt>
      <trkpt lat="45.93045" lon="4.72869">
        <ele>172</ele>
        <time>2018-02-12T15:59:29Z</time>
      </trkpt>
      <trkpt lat="45.93039" lon="4.72875">
        <ele>172</ele>
        <time>2018-02-12T15:59:30Z</time>
      </trkpt>
      <trkpt lat="45.93036" lon="4.72878">
        <ele>172</ele>
        <time>2018-02-12T15:59:31Z</time>
      </trkpt>
      <trkpt lat="45.93031" lon="4.72884">
        <ele>172</ele>
        <time>2018-02-12T15:59:32Z</time>
      </trkpt>
      <trkpt lat="45.93028" lon="4.72889">
        <ele>172</ele>
        <time>2018-02-12T15:59:33Z</time>
      </trkpt>
      <trkpt lat="45.93023" lon="4.72894">
        <ele>172</ele>
        <time>2018-02-12T15:59:34Z</time>
      </trkpt>
      <trkpt lat="45.93018" lon="4.729">
        <ele>172</ele>
        <time>2018-02-12T15:59:35Z</time>
      </trkpt>
      <trkpt lat="45.93014" lon="4.72905">
        <ele>172</ele>
        <time>2018-02-12T15:59:36Z</time>
      </trkpt>
      <trkpt lat="45.9301" lon="4.7291">
        <ele>171</ele>
        <time>2018-02-12T15:59:37Z</time>
      </trkpt>
      <trkpt lat="45.93005" lon="4.72916">
        <ele>171</ele>
        <time>2018-02-12T15:59:38Z</time>
      </trkpt>
      <trkpt lat="45.93001" lon="4.72921">
        <ele>171</ele>
        <time>2018-02-12T15:59:39Z</time>
      </trkpt>
      <trkpt lat="45.92997" lon="4.72927">
        <ele>171</ele>
        <time>2018-02-12T15:59:40Z</time>
      </trkpt>
      <trkpt lat="45.92991" lon="4.72933">
        <ele>171</ele>
        <time>2018-02-12T15:59:41Z</time>
      </trkpt>
      <trkpt lat="45.92987" lon="4.72938">
        <ele>171</ele>
        <time>2018-02-12T15:59:42Z</time>
      </trkpt>
      <trkpt lat="45.92982" lon="4.72943">
        <ele>171</ele>
        <time>2018-02-12T15:59:43Z</time>
      </trkpt>
      <trkpt lat="45.92978" lon="4.72948">
        <ele>171</ele>
        <time>2018-02-12T15:59:44Z</time>
      </trkpt>
      <trkpt lat="45.92974" lon="4.72953">
        <ele>171</ele>
        <time>2018-02-12T15:59:45Z</time>
      </trkpt>
      <trkpt lat="45.92969" lon="4.72958">
        <ele>171</ele>
        <time>2018-02-12T15:59:46Z</time>
      </trkpt>
      <trkpt lat="45.92965" lon="4.72963">
        <ele>171</ele>
        <time>2018-02-12T15:59:47Z</time>
      </trkpt>
      <trkpt lat="45.92961" lon="4.72968">
        <ele>171</ele>
        <time>2018-02-12T15:59:48Z</time>
      </trkpt>
      <trkpt lat="45.92957" lon="4.72973">
        <ele>171</ele>
        <time>2018-02-12T15:59:49Z</time>
      </trkpt>
      <trkpt lat="45.92952" lon="4.72978">
        <ele>171</ele>
        <time>2018-02-12T15:59:50Z</time>
      </trkpt>
      <trkpt lat="45.92948" lon="4.72983">
        <ele>171</ele>
        <time>2018-02-12T15:59:51Z</time>
      </trkpt>
      <trkpt lat="45.92944" lon="4.72987">
        <ele>171</ele>
        <time>2018-02-12T15:59:52Z</time>
      </trkpt>
      <trkpt lat="45.9294" lon="4.72992">
        <ele>171</ele>
        <time>2018-02-12T15:59:53Z</time>
      </trkpt>
      <trkpt lat="45.92936" lon="4.72996">
        <ele>171</ele>
        <time>2018-02-12T15:59:54Z</time>
      </trkpt>
      <trkpt lat="45.92931" lon="4.73001">
        <ele>172</ele>
        <time>2018-02-12T15:59:55Z</time>
      </trkpt>
      <trkpt lat="45.92928" lon="4.73007">
        <ele>172</ele>
        <time>2018-02-12T15:59:56Z</time>
      </trkpt>
      <trkpt lat="45.92924" lon="4.73011">
        <ele>172</ele>
        <time>2018-02-12T15:59:57Z</time>
      </trkpt>
      <trkpt lat="45.92916" lon="4.73017">
        <ele>172</ele>
        <time>2018-02-12T15:59:59Z</time>
      </trkpt>
      <trkpt lat="45.92913" lon="4.73022">
        <ele>172</ele>
        <time>2018-02-12T16:00:00Z</time>
      </trkpt>
      <trkpt lat="45.92909" lon="4.73026">
        <ele>172</ele>
        <time>2018-02-12T16:00:01Z</time>
      </trkpt>
      <trkpt lat="45.92905" lon="4.73031">
        <ele>172</ele>
        <time>2018-02-12T16:00:02Z</time>
      </trkpt>
      <trkpt lat="45.92901" lon="4.73037">
        <ele>172</ele>
        <time>2018-02-12T16:00:03Z</time>
      </trkpt>
      <trkpt lat="45.92897" lon="4.73042">
        <ele>172</ele>
        <time>2018-02-12T16:00:04Z</time>
      </trkpt>
      <trkpt lat="45.92894" lon="4.73047">
        <ele>172</ele>
        <time>2018-02-12T16:00:05Z</time>
      </trkpt>
      <trkpt lat="45.92891" lon="4.73053">
        <ele>172</ele>
        <time>2018-02-12T16:00:06Z</time>
      </trkpt>
      <trkpt lat="45.92887" lon="4.73058">
        <ele>172</ele>
        <time>2018-02-12T16:00:07Z</time>
      </trkpt>
      <trkpt lat="45.92884" lon="4.73063">
        <ele>172</ele>
        <time>2018-02-12T16:00:08Z</time>
      </trkpt>
      <trkpt lat="45.92881" lon="4.73068">
        <ele>172</ele>
        <time>2018-02-12T16:00:09Z</time>
      </trkpt>
      <trkpt lat="45.92877" lon="4.73073">
        <ele>172</ele>
        <time>2018-02-12T16:00:10Z</time>
      </trkpt>
      <trkpt lat="45.92875" lon="4.73079">
        <ele>172</ele>
        <time>2018-02-12T16:00:11Z</time>
      </trkpt>
      <trkpt lat="45.92871" lon="4.73084">
        <ele>172</ele>
        <time>2018-02-12T16:00:12Z</time>
      </trkpt>
      <trkpt lat="45.92868" lon="4.73089">
        <ele>172</ele>
        <time>2018-02-12T16:00:13Z</time>
      </trkpt>
      <trkpt lat="45.92865" lon="4.73095">
        <ele>171</ele>
        <time>2018-02-12T16:00:14Z</time>
      </trkpt>
      <trkpt lat="45.92861" lon="4.73101">
        <ele>171</ele>
        <time>2018-02-12T16:00:15Z</time>
      </trkpt>
      <trkpt lat="45.92858" lon="4.73105">
        <ele>171</ele>
        <time>2018-02-12T16:00:16Z</time>
      </trkpt>
      <trkpt lat="45.9285" lon="4.73106">
        <ele>171</ele>
        <time>2018-02-12T16:00:18Z</time>
      </trkpt>
      <trkpt lat="45.92847" lon="4.73101">
        <ele>171</ele>
        <time>2018-02-12T16:00:19Z</time>
      </trkpt>
      <trkpt lat="45.92846" lon="4.73089">
        <ele>171</ele>
        <time>2018-02-12T16:00:21Z</time>
      </trkpt>
      <trkpt lat="45.92845" lon="4.73082">
        <ele>171</ele>
        <time>2018-02-12T16:00:22Z</time>
      </trkpt>
      <trkpt lat="45.92845" lon="4.73074">
        <ele>171</ele>
        <time>2018-02-12T16:00:23Z</time>
      </trkpt>
      <trkpt lat="45.92844" lon="4.73067">
        <ele>171</ele>
        <time>2018-02-12T16:00:24Z</time>
      </trkpt>
      <trkpt lat="45.92843" lon="4.7306">
        <ele>171</ele>
        <time>2018-02-12T16:00:25Z</time>
      </trkpt>
      <trkpt lat="45.92842" lon="4.73053">
        <ele>171</ele>
        <time>2018-02-12T16:00:26Z</time>
      </trkpt>
      <trkpt lat="45.92841" lon="4.73046">
        <ele>171</ele>
        <time>2018-02-12T16:00:27Z</time>
      </trkpt>
      <trkpt lat="45.9284" lon="4.73039">
        <ele>171</ele>
        <time>2018-02-12T16:00:28Z</time>
      </trkpt>
      <trkpt lat="45.92838" lon="4.73032">
        <ele>171</ele>
        <time>2018-02-12T16:00:29Z</time>
      </trkpt>
      <trkpt lat="45.92837" lon="4.73026">
        <ele>171</ele>
        <time>2018-02-12T16:00:30Z</time>
      </trkpt>
      <trkpt lat="45.92837" lon="4.7302">
        <ele>171</ele>
        <time>2018-02-12T16:00:31Z</time>
      </trkpt>
      <trkpt lat="45.92836" lon="4.73013">
        <ele>171</ele>
        <time>2018-02-12T16:00:32Z</time>
      </trkpt>
      <trkpt lat="45.92834" lon="4.73001">
        <ele>170</ele>
        <time>2018-02-12T16:00:34Z</time>
      </trkpt>
      <trkpt lat="45.92833" lon="4.72995">
        <ele>170</ele>
        <time>2018-02-12T16:00:35Z</time>
      </trkpt>
      <trkpt lat="45.92833" lon="4.72984">
        <ele>170</ele>
        <time>2018-02-12T16:00:37Z</time>
      </trkpt>
      <trkpt lat="45.92832" lon="4.72978">
        <ele>170</ele>
        <time>2018-02-12T16:00:38Z</time>
      </trkpt>
      <trkpt lat="45.92831" lon="4.72966">
        <ele>170</ele>
        <time>2018-02-12T16:00:40Z</time>
      </trkpt>
      <trkpt lat="45.9283" lon="4.72959">
        <ele>170</ele>
        <time>2018-02-12T16:00:41Z</time>
      </trkpt>
      <trkpt lat="45.92829" lon="4.72946">
        <ele>170</ele>
        <time>2018-02-12T16:00:43Z</time>
      </trkpt>
      <trkpt lat="45.92829" lon="4.7294">
        <ele>170</ele>
        <time>2018-02-12T16:00:44Z</time>
      </trkpt>
      <trkpt lat="45.92829" lon="4.72934">
        <ele>170</ele>
        <time>2018-02-12T16:00:45Z</time>
      </trkpt>
      <trkpt lat="45.92827" lon="4.72927">
        <ele>170</ele>
        <time>2018-02-12T16:00:46Z</time>
      </trkpt>
      <trkpt lat="45.92827" lon="4.72921">
        <ele>170</ele>
        <time>2018-02-12T16:00:47Z</time>
      </trkpt>
      <trkpt lat="45.92826" lon="4.72914">
        <ele>170</ele>
        <time>2018-02-12T16:00:48Z</time>
      </trkpt>
      <trkpt lat="45.92825" lon="4.72907">
        <ele>170</ele>
        <time>2018-02-12T16:00:49Z</time>
      </trkpt>
      <trkpt lat="45.92825" lon="4.72901">
        <ele>170</ele>
        <time>2018-02-12T16:00:50Z</time>
      </trkpt>
      <trkpt lat="45.92823" lon="4.7289">
        <ele>170</ele>
        <time>2018-02-12T16:00:52Z</time>
      </trkpt>
      <trkpt lat="45.9282" lon="4.72885">
        <ele>170</ele>
        <time>2018-02-12T16:00:53Z</time>
      </trkpt>
      <trkpt lat="45.92818" lon="4.72878">
        <ele>170</ele>
        <time>2018-02-12T16:00:54Z</time>
      </trkpt>
      <trkpt lat="45.92816" lon="4.72872">
        <ele>170</ele>
        <time>2018-02-12T16:00:55Z</time>
      </trkpt>
      <trkpt lat="45.92815" lon="4.72865">
        <ele>170</ele>
        <time>2018-02-12T16:00:56Z</time>
      </trkpt>
      <trkpt lat="45.92814" lon="4.72858">
        <ele>170</ele>
        <time>2018-02-12T16:00:57Z</time>
      </trkpt>
      <trkpt lat="45.92813" lon="4.72851">
        <ele>170</ele>
        <time>2018-02-12T16:00:58Z</time>
      </trkpt>
      <trkpt lat="45.92812" lon="4.72844">
        <ele>170</ele>
        <time>2018-02-12T16:00:59Z</time>
      </trkpt>
      <trkpt lat="45.92811" lon="4.72838">
        <ele>170</ele>
        <time>2018-02-12T16:01:00Z</time>
      </trkpt>
      <trkpt lat="45.9281" lon="4.72831">
        <ele>171</ele>
        <time>2018-02-12T16:01:01Z</time>
      </trkpt>
      <trkpt lat="45.92809" lon="4.72819">
        <ele>171</ele>
        <time>2018-02-12T16:01:03Z</time>
      </trkpt>
      <trkpt lat="45.92807" lon="4.72812">
        <ele>171</ele>
        <time>2018-02-12T16:01:04Z</time>
      </trkpt>
      <trkpt lat="45.92805" lon="4.72801">
        <ele>171</ele>
        <time>2018-02-12T16:01:06Z</time>
      </trkpt>
      <trkpt lat="45.92804" lon="4.72796">
        <ele>171</ele>
        <time>2018-02-12T16:01:07Z</time>
      </trkpt>
      <trkpt lat="45.92796" lon="4.72791">
        <ele>171</ele>
        <time>2018-02-12T16:01:10Z</time>
      </trkpt>
      <trkpt lat="45.92791" lon="4.72793">
        <ele>170</ele>
        <time>2018-02-12T16:01:11Z</time>
      </trkpt>
      <trkpt lat="45.92783" lon="4.72798">
        <ele>170</ele>
        <time>2018-02-12T16:01:13Z</time>
      </trkpt>
      <trkpt lat="45.9278" lon="4.72802">
        <ele>170</ele>
        <time>2018-02-12T16:01:14Z</time>
      </trkpt>
      <trkpt lat="45.92773" lon="4.72808">
        <ele>170</ele>
        <time>2018-02-12T16:01:16Z</time>
      </trkpt>
      <trkpt lat="45.9277" lon="4.72811">
        <ele>170</ele>
        <time>2018-02-12T16:01:17Z</time>
      </trkpt>
      <trkpt lat="45.92763" lon="4.72816">
        <ele>170</ele>
        <time>2018-02-12T16:01:19Z</time>
      </trkpt>
      <trkpt lat="45.92759" lon="4.72819">
        <ele>170</ele>
        <time>2018-02-12T16:01:20Z</time>
      </trkpt>
      <trkpt lat="45.92755" lon="4.72822">
        <ele>170</ele>
        <time>2018-02-12T16:01:21Z</time>
      </trkpt>
      <trkpt lat="45.9275" lon="4.72827">
        <ele>169</ele>
        <time>2018-02-12T16:01:22Z</time>
      </trkpt>
      <trkpt lat="45.92742" lon="4.72833">
        <ele>169</ele>
        <time>2018-02-12T16:01:24Z</time>
      </trkpt>
      <trkpt lat="45.92738" lon="4.72836">
        <ele>169</ele>
        <time>2018-02-12T16:01:25Z</time>
      </trkpt>
      <trkpt lat="45.92734" lon="4.72839">
        <ele>169</ele>
        <time>2018-02-12T16:01:26Z</time>
      </trkpt>
      <trkpt lat="45.92729" lon="4.72842">
        <ele>169</ele>
        <time>2018-02-12T16:01:27Z</time>
      </trkpt>
      <trkpt lat="45.92723" lon="4.72845">
        <ele>169</ele>
        <time>2018-02-12T16:01:28Z</time>
      </trkpt>
      <trkpt lat="45.92718" lon="4.72849">
        <ele>169</ele>
        <time>2018-02-12T16:01:29Z</time>
      </trkpt>
      <trkpt lat="45.92714" lon="4.72852">
        <ele>169</ele>
        <time>2018-02-12T16:01:30Z</time>
      </trkpt>
      <trkpt lat="45.92709" lon="4.72855">
        <ele>169</ele>
        <time>2018-02-12T16:01:31Z</time>
      </trkpt>
      <trkpt lat="45.92705" lon="4.72858">
        <ele>169</ele>
        <time>2018-02-12T16:01:32Z</time>
      </trkpt>
      <trkpt lat="45.92701" lon="4.72861">
        <ele>169</ele>
        <time>2018-02-12T16:01:33Z</time>
      </trkpt>
      <trkpt lat="45.92696" lon="4.72865">
        <ele>169</ele>
        <time>2018-02-12T16:01:34Z</time>
      </trkpt>
      <trkpt lat="45.92691" lon="4.72868">
        <ele>169</ele>
        <time>2018-02-12T16:01:35Z</time>
      </trkpt>
      <trkpt lat="45.92686" lon="4.72872">
        <ele>169</ele>
        <time>2018-02-12T16:01:36Z</time>
      </trkpt>
      <trkpt lat="45.92682" lon="4.72876">
        <ele>170</ele>
        <time>2018-02-12T16:01:37Z</time>
      </trkpt>
      <trkpt lat="45.92677" lon="4.72879">
        <ele>170</ele>
        <time>2018-02-12T16:01:38Z</time>
      </trkpt>
      <trkpt lat="45.92672" lon="4.72883">
        <ele>170</ele>
        <time>2018-02-12T16:01:39Z</time>
      </trkpt>
      <trkpt lat="45.92668" lon="4.72886">
        <ele>170</ele>
        <time>2018-02-12T16:01:40Z</time>
      </trkpt>
      <trkpt lat="45.92663" lon="4.72889">
        <ele>169</ele>
        <time>2018-02-12T16:01:41Z</time>
      </trkpt>
      <trkpt lat="45.92658" lon="4.72893">
        <ele>170</ele>
        <time>2018-02-12T16:01:42Z</time>
      </trkpt>
      <trkpt lat="45.92654" lon="4.72897">
        <ele>170</ele>
        <time>2018-02-12T16:01:43Z</time>
      </trkpt>
      <trkpt lat="45.92649" lon="4.72901">
        <ele>170</ele>
        <time>2018-02-12T16:01:44Z</time>
      </trkpt>
      <trkpt lat="45.92644" lon="4.72906">
        <ele>169</ele>
        <time>2018-02-12T16:01:45Z</time>
      </trkpt>
      <trkpt lat="45.92638" lon="4.7291">
        <ele>169</ele>
        <time>2018-02-12T16:01:46Z</time>
      </trkpt>
      <trkpt lat="45.92633" lon="4.72914">
        <ele>169</ele>
        <time>2018-02-12T16:01:47Z</time>
      </trkpt>
      <trkpt lat="45.92628" lon="4.72919">
        <ele>170</ele>
        <time>2018-02-12T16:01:48Z</time>
      </trkpt>
      <trkpt lat="45.92623" lon="4.72924">
        <ele>169</ele>
        <time>2018-02-12T16:01:49Z</time>
      </trkpt>
      <trkpt lat="45.92617" lon="4.72929">
        <ele>169</ele>
        <time>2018-02-12T16:01:50Z</time>
      </trkpt>
      <trkpt lat="45.92611" lon="4.72934">
        <ele>169</ele>
        <time>2018-02-12T16:01:51Z</time>
      </trkpt>
      <trkpt lat="45.92605" lon="4.72939">
        <ele>169</ele>
        <time>2018-02-12T16:01:52Z</time>
      </trkpt>
      <trkpt lat="45.92601" lon="4.72945">
        <ele>169</ele>
        <time>2018-02-12T16:01:53Z</time>
      </trkpt>
      <trkpt lat="45.92596" lon="4.72951">
        <ele>169</ele>
        <time>2018-02-12T16:01:54Z</time>
      </trkpt>
      <trkpt lat="45.92591" lon="4.72957">
        <ele>169</ele>
        <time>2018-02-12T16:01:55Z</time>
      </trkpt>
      <trkpt lat="45.92587" lon="4.72963">
        <ele>169</ele>
        <time>2018-02-12T16:01:56Z</time>
      </trkpt>
      <trkpt lat="45.92583" lon="4.72968">
        <ele>169</ele>
        <time>2018-02-12T16:01:57Z</time>
      </trkpt>
      <trkpt lat="45.92578" lon="4.72973">
        <ele>169</ele>
        <time>2018-02-12T16:01:58Z</time>
      </trkpt>
      <trkpt lat="45.92574" lon="4.72977">
        <ele>169</ele>
        <time>2018-02-12T16:01:59Z</time>
      </trkpt>
      <trkpt lat="45.92569" lon="4.72982">
        <ele>169</ele>
        <time>2018-02-12T16:02:00Z</time>
      </trkpt>
      <trkpt lat="45.92564" lon="4.72986">
        <ele>169</ele>
        <time>2018-02-12T16:02:01Z</time>
      </trkpt>
      <trkpt lat="45.9256" lon="4.7299">
        <ele>169</ele>
        <time>2018-02-12T16:02:02Z</time>
      </trkpt>
      <trkpt lat="45.92556" lon="4.72995">
        <ele>169</ele>
        <time>2018-02-12T16:02:03Z</time>
      </trkpt>
      <trkpt lat="45.92552" lon="4.72999">
        <ele>169</ele>
        <time>2018-02-12T16:02:04Z</time>
      </trkpt>
      <trkpt lat="45.92548" lon="4.73004">
        <ele>169</ele>
        <time>2018-02-12T16:02:05Z</time>
      </trkpt>
      <trkpt lat="45.92544" lon="4.73008">
        <ele>169</ele>
        <time>2018-02-12T16:02:06Z</time>
      </trkpt>
      <trkpt lat="45.9254" lon="4.73011">
        <ele>169</ele>
        <time>2018-02-12T16:02:07Z</time>
      </trkpt>
      <trkpt lat="45.92536" lon="4.73014">
        <ele>169</ele>
        <time>2018-02-12T16:02:08Z</time>
      </trkpt>
      <trkpt lat="45.92532" lon="4.73019">
        <ele>169</ele>
        <time>2018-02-12T16:02:09Z</time>
      </trkpt>
      <trkpt lat="45.92528" lon="4.73023">
        <ele>169</ele>
        <time>2018-02-12T16:02:10Z</time>
      </trkpt>
      <trkpt lat="45.92524" lon="4.73027">
        <ele>169</ele>
        <time>2018-02-12T16:02:11Z</time>
      </trkpt>
      <trkpt lat="45.9252" lon="4.73032">
        <ele>169</ele>
        <time>2018-02-12T16:02:12Z</time>
      </trkpt>
      <trkpt lat="45.92516" lon="4.73035">
        <ele>169</ele>
        <time>2018-02-12T16:02:13Z</time>
      </trkpt>
      <trkpt lat="45.92512" lon="4.73039">
        <ele>169</ele>
        <time>2018-02-12T16:02:14Z</time>
      </trkpt>
      <trkpt lat="45.92508" lon="4.73044">
        <ele>170</ele>
        <time>2018-02-12T16:02:15Z</time>
      </trkpt>
      <trkpt lat="45.92504" lon="4.73048">
        <ele>170</ele>
        <time>2018-02-12T16:02:16Z</time>
      </trkpt>
      <trkpt lat="45.92499" lon="4.73051">
        <ele>170</ele>
        <time>2018-02-12T16:02:17Z</time>
      </trkpt>
      <trkpt lat="45.92496" lon="4.73055">
        <ele>170</ele>
        <time>2018-02-12T16:02:18Z</time>
      </trkpt>
      <trkpt lat="45.92491" lon="4.73058">
        <ele>170</ele>
        <time>2018-02-12T16:02:19Z</time>
      </trkpt>
      <trkpt lat="45.92487" lon="4.73061">
        <ele>170</ele>
        <time>2018-02-12T16:02:20Z</time>
      </trkpt>
      <trkpt lat="45.92483" lon="4.73064">
        <ele>170</ele>
        <time>2018-02-12T16:02:21Z</time>
      </trkpt>
      <trkpt lat="45.92479" lon="4.73068">
        <ele>170</ele>
        <time>2018-02-12T16:02:22Z</time>
      </trkpt>
      <trkpt lat="45.92475" lon="4.73071">
        <ele>170</ele>
        <time>2018-02-12T16:02:23Z</time>
      </trkpt>
      <trkpt lat="45.92467" lon="4.73077">
        <ele>170</ele>
        <time>2018-02-12T16:02:25Z</time>
      </trkpt>
      <trkpt lat="45.92462" lon="4.73081">
        <ele>170</ele>
        <time>2018-02-12T16:02:26Z</time>
      </trkpt>
      <trkpt lat="45.92458" lon="4.73086">
        <ele>170</ele>
        <time>2018-02-12T16:02:27Z</time>
      </trkpt>
      <trkpt lat="45.92454" lon="4.7309">
        <ele>170</ele>
        <time>2018-02-12T16:02:28Z</time>
      </trkpt>
      <trkpt lat="45.9245" lon="4.73094">
        <ele>170</ele>
        <time>2018-02-12T16:02:29Z</time>
      </trkpt>
      <trkpt lat="45.92445" lon="4.73097">
        <ele>170</ele>
        <time>2018-02-12T16:02:30Z</time>
      </trkpt>
      <trkpt lat="45.92437" lon="4.73104">
        <ele>170</ele>
        <time>2018-02-12T16:02:32Z</time>
      </trkpt>
      <trkpt lat="45.92434" lon="4.73108">
        <ele>170</ele>
        <time>2018-02-12T16:02:33Z</time>
      </trkpt>
      <trkpt lat="45.92426" lon="4.73113">
        <ele>170</ele>
        <time>2018-02-12T16:02:35Z</time>
      </trkpt>
      <trkpt lat="45.92422" lon="4.73116">
        <ele>170</ele>
        <time>2018-02-12T16:02:36Z</time>
      </trkpt>
      <trkpt lat="45.92418" lon="4.7312">
        <ele>170</ele>
        <time>2018-02-12T16:02:37Z</time>
      </trkpt>
      <trkpt lat="45.92416" lon="4.73127">
        <ele>171</ele>
        <time>2018-02-12T16:02:38Z</time>
      </trkpt>
      <trkpt lat="45.92413" lon="4.73134">
        <ele>171</ele>
        <time>2018-02-12T16:02:39Z</time>
      </trkpt>
      <trkpt lat="45.92412" lon="4.73141">
        <ele>171</ele>
        <time>2018-02-12T16:02:40Z</time>
      </trkpt>
      <trkpt lat="45.92412" lon="4.73148">
        <ele>171</ele>
        <time>2018-02-12T16:02:41Z</time>
      </trkpt>
      <trkpt lat="45.92411" lon="4.73154">
        <ele>170</ele>
        <time>2018-02-12T16:02:42Z</time>
      </trkpt>
      <trkpt lat="45.92411" lon="4.73165">
        <ele>170</ele>
        <time>2018-02-12T16:02:44Z</time>
      </trkpt>
      <trkpt lat="45.92411" lon="4.73172">
        <ele>170</ele>
        <time>2018-02-12T16:02:45Z</time>
      </trkpt>
      <trkpt lat="45.9241" lon="4.73178">
        <ele>171</ele>
        <time>2018-02-12T16:02:46Z</time>
      </trkpt>
      <trkpt lat="45.9241" lon="4.73186">
        <ele>171</ele>
        <time>2018-02-12T16:02:47Z</time>
      </trkpt>
      <trkpt lat="45.92408" lon="4.73197">
        <ele>171</ele>
        <time>2018-02-12T16:02:49Z</time>
      </trkpt>
      <trkpt lat="45.92408" lon="4.73203">
        <ele>171</ele>
        <time>2018-02-12T16:02:50Z</time>
      </trkpt>
      <trkpt lat="45.9241" lon="4.73215">
        <ele>171</ele>
        <time>2018-02-12T16:02:52Z</time>
      </trkpt>
      <trkpt lat="45.92411" lon="4.7322">
        <ele>171</ele>
        <time>2018-02-12T16:02:53Z</time>
      </trkpt>
      <trkpt lat="45.92411" lon="4.73231">
        <ele>171</ele>
        <time>2018-02-12T16:02:55Z</time>
      </trkpt>
      <trkpt lat="45.92411" lon="4.73237">
        <ele>171</ele>
        <time>2018-02-12T16:02:56Z</time>
      </trkpt>
      <trkpt lat="45.92412" lon="4.73248">
        <ele>171</ele>
        <time>2018-02-12T16:02:58Z</time>
      </trkpt>
      <trkpt lat="45.92412" lon="4.73254">
        <ele>171</ele>
        <time>2018-02-12T16:02:59Z</time>
      </trkpt>
      <trkpt lat="45.92412" lon="4.73267">
        <ele>171</ele>
        <time>2018-02-12T16:03:01Z</time>
      </trkpt>
      <trkpt lat="45.92412" lon="4.73274">
        <ele>171</ele>
        <time>2018-02-12T16:03:02Z</time>
      </trkpt>
      <trkpt lat="45.92413" lon="4.7328">
        <ele>171</ele>
        <time>2018-02-12T16:03:03Z</time>
      </trkpt>
      <trkpt lat="45.92414" lon="4.73286">
        <ele>171</ele>
        <time>2018-02-12T16:03:04Z</time>
      </trkpt>
      <trkpt lat="45.92414" lon="4.73293">
        <ele>171</ele>
        <time>2018-02-12T16:03:05Z</time>
      </trkpt>
      <trkpt lat="45.92414" lon="4.733">
        <ele>171</ele>
        <time>2018-02-12T16:03:06Z</time>
      </trkpt>
      <trkpt lat="45.92415" lon="4.73307">
        <ele>171</ele>
        <time>2018-02-12T16:03:07Z</time>
      </trkpt>
      <trkpt lat="45.92416" lon="4.73314">
        <ele>171</ele>
        <time>2018-02-12T16:03:08Z</time>
      </trkpt>
      <trkpt lat="45.92416" lon="4.73322">
        <ele>171</ele>
        <time>2018-02-12T16:03:09Z</time>
      </trkpt>
      <trkpt lat="45.92417" lon="4.7333">
        <ele>171</ele>
        <time>2018-02-12T16:03:10Z</time>
      </trkpt>
      <trkpt lat="45.92418" lon="4.73343">
        <ele>171</ele>
        <time>2018-02-12T16:03:12Z</time>
      </trkpt>
      <trkpt lat="45.9242" lon="4.7335">
        <ele>171</ele>
        <time>2018-02-12T16:03:13Z</time>
      </trkpt>
      <trkpt lat="45.92421" lon="4.73357">
        <ele>171</ele>
        <time>2018-02-12T16:03:14Z</time>
      </trkpt>
      <trkpt lat="45.92422" lon="4.73363">
        <ele>172</ele>
        <time>2018-02-12T16:03:15Z</time>
      </trkpt>
      <trkpt lat="45.92424" lon="4.7337">
        <ele>172</ele>
        <time>2018-02-12T16:03:16Z</time>
      </trkpt>
      <trkpt lat="45.92425" lon="4.73377">
        <ele>172</ele>
        <time>2018-02-12T16:03:17Z</time>
      </trkpt>
      <trkpt lat="45.92426" lon="4.73385">
        <ele>172</ele>
        <time>2018-02-12T16:03:18Z</time>
      </trkpt>
      <trkpt lat="45.92428" lon="4.73392">
        <ele>172</ele>
        <time>2018-02-12T16:03:19Z</time>
      </trkpt>
      <trkpt lat="45.9243" lon="4.73399">
        <ele>172</ele>
        <time>2018-02-12T16:03:20Z</time>
      </trkpt>
      <trkpt lat="45.92433" lon="4.73405">
        <ele>172</ele>
        <time>2018-02-12T16:03:21Z</time>
      </trkpt>
      <trkpt lat="45.92436" lon="4.7341">
        <ele>172</ele>
        <time>2018-02-12T16:03:22Z</time>
      </trkpt>
      <trkpt lat="45.92441" lon="4.73413">
        <ele>172</ele>
        <time>2018-02-12T16:03:23Z</time>
      </trkpt>
      <trkpt lat="45.92445" lon="4.73417">
        <ele>173</ele>
        <time>2018-02-12T16:03:24Z</time>
      </trkpt>
      <trkpt lat="45.9245" lon="4.73421">
        <ele>173</ele>
        <time>2018-02-12T16:03:25Z</time>
      </trkpt>
      <trkpt lat="45.92454" lon="4.73424">
        <ele>173</ele>
        <time>2018-02-12T16:03:26Z</time>
      </trkpt>
      <trkpt lat="45.92459" lon="4.7343">
        <ele>173</ele>
        <time>2018-02-12T16:03:27Z</time>
      </trkpt>
      <trkpt lat="45.92462" lon="4.73435">
        <ele>173</ele>
        <time>2018-02-12T16:03:28Z</time>
      </trkpt>
      <trkpt lat="45.92466" lon="4.73442">
        <ele>173</ele>
        <time>2018-02-12T16:03:29Z</time>
      </trkpt>
      <trkpt lat="45.92468" lon="4.73448">
        <ele>173</ele>
        <time>2018-02-12T16:03:30Z</time>
      </trkpt>
      <trkpt lat="45.9247" lon="4.73455">
        <ele>173</ele>
        <time>2018-02-12T16:03:31Z</time>
      </trkpt>
      <trkpt lat="45.92471" lon="4.73462">
        <ele>173</ele>
        <time>2018-02-12T16:03:32Z</time>
      </trkpt>
      <trkpt lat="45.92471" lon="4.73468">
        <ele>173</ele>
        <time>2018-02-12T16:03:33Z</time>
      </trkpt>
      <trkpt lat="45.9247" lon="4.73481">
        <ele>173</ele>
        <time>2018-02-12T16:03:35Z</time>
      </trkpt>
      <trkpt lat="45.9247" lon="4.73486">
        <ele>173</ele>
        <time>2018-02-12T16:03:36Z</time>
      </trkpt>
      <trkpt lat="45.92469" lon="4.73499">
        <ele>173</ele>
        <time>2018-02-12T16:03:38Z</time>
      </trkpt>
      <trkpt lat="45.92469" lon="4.73505">
        <ele>174</ele>
        <time>2018-02-12T16:03:39Z</time>
      </trkpt>
      <trkpt lat="45.92469" lon="4.73518">
        <ele>174</ele>
        <time>2018-02-12T16:03:41Z</time>
      </trkpt>
      <trkpt lat="45.92469" lon="4.73523">
        <ele>174</ele>
        <time>2018-02-12T16:03:42Z</time>
      </trkpt>
      <trkpt lat="45.92468" lon="4.73535">
        <ele>174</ele>
        <time>2018-02-12T16:03:44Z</time>
      </trkpt>
      <trkpt lat="45.92468" lon="4.73539">
        <ele>174</ele>
        <time>2018-02-12T16:03:45Z</time>
      </trkpt>
      <trkpt lat="45.92467" lon="4.7355">
        <ele>173</ele>
        <time>2018-02-12T16:03:48Z</time>
      </trkpt>
      <trkpt lat="45.92467" lon="4.73555">
        <ele>173</ele>
        <time>2018-02-12T16:03:49Z</time>
      </trkpt>
      <trkpt lat="45.92467" lon="4.73562">
        <ele>173</ele>
        <time>2018-02-12T16:03:50Z</time>
      </trkpt>
      <trkpt lat="45.92468" lon="4.73569">
        <ele>173</ele>
        <time>2018-02-12T16:03:51Z</time>
      </trkpt>
      <trkpt lat="45.92468" lon="4.73576">
        <ele>173</ele>
        <time>2018-02-12T16:03:52Z</time>
      </trkpt>
      <trkpt lat="45.92468" lon="4.73583">
        <ele>173</ele>
        <time>2018-02-12T16:03:53Z</time>
      </trkpt>
      <trkpt lat="45.92468" lon="4.7359">
        <ele>174</ele>
        <time>2018-02-12T16:03:54Z</time>
      </trkpt>
      <trkpt lat="45.92469" lon="4.73597">
        <ele>174</ele>
        <time>2018-02-12T16:03:55Z</time>
      </trkpt>
      <trkpt lat="45.92469" lon="4.73604">
        <ele>174</ele>
        <time>2018-02-12T16:03:56Z</time>
      </trkpt>
      <trkpt lat="45.92469" lon="4.7361">
        <ele>174</ele>
        <time>2018-02-12T16:03:57Z</time>
      </trkpt>
      <trkpt lat="45.9247" lon="4.73617">
        <ele>174</ele>
        <time>2018-02-12T16:03:58Z</time>
      </trkpt>
      <trkpt lat="45.9247" lon="4.73623">
        <ele>174</ele>
        <time>2018-02-12T16:03:59Z</time>
      </trkpt>
      <trkpt lat="45.9247" lon="4.73635">
        <ele>174</ele>
        <time>2018-02-12T16:04:01Z</time>
      </trkpt>
      <trkpt lat="45.9247" lon="4.7364">
        <ele>174</ele>
        <time>2018-02-12T16:04:02Z</time>
      </trkpt>
      <trkpt lat="45.92468" lon="4.73652">
        <ele>174</ele>
        <time>2018-02-12T16:04:04Z</time>
      </trkpt>
      <trkpt lat="45.92468" lon="4.73657">
        <ele>174</ele>
        <time>2018-02-12T16:04:05Z</time>
      </trkpt>
      <trkpt lat="45.92467" lon="4.73667">
        <ele>174</ele>
        <time>2018-02-12T16:04:07Z</time>
      </trkpt>
      <trkpt lat="45.92467" lon="4.73672">
        <ele>174</ele>
        <time>2018-02-12T16:04:08Z</time>
      </trkpt>
      <trkpt lat="45.92468" lon="4.73682">
        <ele>174</ele>
        <time>2018-02-12T16:04:10Z</time>
      </trkpt>
      <trkpt lat="45.92468" lon="4.73687">
        <ele>174</ele>
        <time>2018-02-12T16:04:11Z</time>
      </trkpt>
      <trkpt lat="45.92468" lon="4.737">
        <ele>174</ele>
        <time>2018-02-12T16:04:14Z</time>
      </trkpt>
      <trkpt lat="45.92467" lon="4.73702">
        <ele>174</ele>
        <time>2018-02-12T16:04:15Z</time>
      </trkpt>
      <trkpt lat="45.92467" lon="4.73706">
        <ele>174</ele>
        <time>2018-02-12T16:04:23Z</time>
      </trkpt>
      <trkpt lat="45.92467" lon="4.73707">
        <ele>174</ele>
        <time>2018-02-12T16:04:24Z</time>
      </trkpt>
      <trkpt lat="45.92467" lon="4.73707">
        <ele>174</ele>
        <time>2018-02-12T16:04:25Z</time>
      </trkpt>
      <trkpt lat="45.92467" lon="4.73708">
        <ele>174</ele>
        <time>2018-02-12T16:04:26Z</time>
      </trkpt>
      <trkpt lat="45.92465" lon="4.73711">
        <ele>174</ele>
        <time>2018-02-12T16:04:54.563Z</time>
      </trkpt>
    </trkseg>
  </trk>
</gpx>